<?xml version="1.0" encoding="UTF-8" standalone="no" ?>
<gpx xmlns="http://www.topografix.com/GPX/1/1" xmlns:xsi="http://www.w3.org/2001/XMLSchema-instance" xsi:schemaLocation="http://www.topografix.com/GPX/1/1 http://www.topografix.com/GPX/1/1/gpx.xsd" version="1.1" creator="VisuGPX - https://www.visugpx.com">
  <metadata>
    <name>Nordique Francilienne 2022 - 13 km</name>
  </metadata>
  <trk>
    <name><![CDATA[Nordique Francilienne 2022 - 13 km_1]]></name>
    <trkseg>
      <trkpt lat="48.53872" lon="2.07981">
        <ele>80</ele>
      </trkpt>
      <trkpt lat="48.54006" lon="2.07912">
        <ele>92.2</ele>
        <time>2022-01-15T11:09:53Z</time>
      </trkpt>
      <trkpt lat="48.54006" lon="2.07918">
        <ele>93</ele>
        <time>2022-01-15T11:09:49Z</time>
      </trkpt>
      <trkpt lat="48.54007" lon="2.07923">
        <ele>93</ele>
        <time>2022-01-15T11:09:45Z</time>
      </trkpt>
      <trkpt lat="48.54008" lon="2.07928">
        <ele>92</ele>
        <time>2022-01-15T11:09:42Z</time>
      </trkpt>
      <trkpt lat="48.54009" lon="2.07933">
        <ele>92</ele>
        <time>2022-01-15T11:09:39Z</time>
      </trkpt>
      <trkpt lat="48.54011" lon="2.07937">
        <ele>92</ele>
        <time>2022-01-15T11:09:36Z</time>
      </trkpt>
      <trkpt lat="48.54012" lon="2.07942">
        <ele>92</ele>
        <time>2022-01-15T11:09:34Z</time>
      </trkpt>
      <trkpt lat="48.54013" lon="2.07947">
        <ele>92</ele>
        <time>2022-01-15T11:09:32Z</time>
      </trkpt>
      <trkpt lat="48.54014" lon="2.07952">
        <ele>92</ele>
        <time>2022-01-15T11:09:29Z</time>
      </trkpt>
      <trkpt lat="48.54015" lon="2.07957">
        <ele>92</ele>
        <time>2022-01-15T11:09:26Z</time>
      </trkpt>
      <trkpt lat="48.54016" lon="2.07963">
        <ele>91</ele>
        <time>2022-01-15T11:09:22Z</time>
      </trkpt>
      <trkpt lat="48.54017" lon="2.07968">
        <ele>91</ele>
        <time>2022-01-15T11:09:19Z</time>
      </trkpt>
      <trkpt lat="48.54018" lon="2.07974">
        <ele>91</ele>
        <time>2022-01-15T11:09:16Z</time>
      </trkpt>
      <trkpt lat="48.54018" lon="2.07979">
        <ele>91</ele>
        <time>2022-01-15T11:09:13Z</time>
      </trkpt>
      <trkpt lat="48.5402" lon="2.07985">
        <ele>91</ele>
        <time>2022-01-15T11:09:10Z</time>
      </trkpt>
      <trkpt lat="48.54021" lon="2.0799">
        <ele>91</ele>
        <time>2022-01-15T11:09:07Z</time>
      </trkpt>
      <trkpt lat="48.54022" lon="2.07995">
        <ele>91</ele>
        <time>2022-01-15T11:09:05Z</time>
      </trkpt>
      <trkpt lat="48.54023" lon="2.08">
        <ele>91</ele>
        <time>2022-01-15T11:09:02Z</time>
      </trkpt>
      <trkpt lat="48.54024" lon="2.08005">
        <ele>91</ele>
        <time>2022-01-15T11:09:00Z</time>
      </trkpt>
      <trkpt lat="48.54024" lon="2.08009">
        <ele>91</ele>
        <time>2022-01-15T11:08:57Z</time>
      </trkpt>
      <trkpt lat="48.54024" lon="2.08013">
        <ele>91</ele>
        <time>2022-01-15T11:08:54Z</time>
      </trkpt>
      <trkpt lat="48.54025" lon="2.08018">
        <ele>91</ele>
        <time>2022-01-15T11:08:52Z</time>
      </trkpt>
      <trkpt lat="48.54026" lon="2.08022">
        <ele>91</ele>
        <time>2022-01-15T11:08:50Z</time>
      </trkpt>
      <trkpt lat="48.54027" lon="2.08027">
        <ele>91</ele>
        <time>2022-01-15T11:08:47Z</time>
      </trkpt>
      <trkpt lat="48.54027" lon="2.08033">
        <ele>91</ele>
        <time>2022-01-15T11:08:44Z</time>
      </trkpt>
      <trkpt lat="48.54028" lon="2.08038">
        <ele>91</ele>
        <time>2022-01-15T11:08:41Z</time>
      </trkpt>
      <trkpt lat="48.54028" lon="2.08044">
        <ele>91</ele>
        <time>2022-01-15T11:08:38Z</time>
      </trkpt>
      <trkpt lat="48.54029" lon="2.08049">
        <ele>91</ele>
        <time>2022-01-15T11:08:34Z</time>
      </trkpt>
      <trkpt lat="48.5403" lon="2.08052">
        <ele>91</ele>
        <time>2022-01-15T11:08:29Z</time>
      </trkpt>
      <trkpt lat="48.54032" lon="2.08055">
        <ele>91</ele>
        <time>2022-01-15T11:08:26Z</time>
      </trkpt>
      <trkpt lat="48.54033" lon="2.0806">
        <ele>91</ele>
        <time>2022-01-15T11:08:23Z</time>
      </trkpt>
      <trkpt lat="48.54034" lon="2.08065">
        <ele>91</ele>
        <time>2022-01-15T11:08:21Z</time>
      </trkpt>
      <trkpt lat="48.54035" lon="2.08069">
        <ele>92</ele>
        <time>2022-01-15T11:08:19Z</time>
      </trkpt>
      <trkpt lat="48.54036" lon="2.08073">
        <ele>92</ele>
        <time>2022-01-15T11:08:17Z</time>
      </trkpt>
      <trkpt lat="48.54037" lon="2.08078">
        <ele>92</ele>
        <time>2022-01-15T11:08:15Z</time>
      </trkpt>
      <trkpt lat="48.54038" lon="2.08083">
        <ele>92</ele>
        <time>2022-01-15T11:08:13Z</time>
      </trkpt>
      <trkpt lat="48.54039" lon="2.08088">
        <ele>92</ele>
        <time>2022-01-15T11:08:11Z</time>
      </trkpt>
      <trkpt lat="48.54039" lon="2.08094">
        <ele>92</ele>
        <time>2022-01-15T11:08:08Z</time>
      </trkpt>
      <trkpt lat="48.54039" lon="2.081">
        <ele>92</ele>
        <time>2022-01-15T11:08:05Z</time>
      </trkpt>
      <trkpt lat="48.5404" lon="2.08105">
        <ele>92</ele>
        <time>2022-01-15T11:08:02Z</time>
      </trkpt>
      <trkpt lat="48.5404" lon="2.08109">
        <ele>92</ele>
        <time>2022-01-15T11:08:00Z</time>
      </trkpt>
      <trkpt lat="48.54041" lon="2.08114">
        <ele>92</ele>
        <time>2022-01-15T11:07:58Z</time>
      </trkpt>
      <trkpt lat="48.54041" lon="2.08119">
        <ele>91</ele>
        <time>2022-01-15T11:07:56Z</time>
      </trkpt>
      <trkpt lat="48.54041" lon="2.08123">
        <ele>91</ele>
        <time>2022-01-15T11:07:54Z</time>
      </trkpt>
      <trkpt lat="48.54041" lon="2.08128">
        <ele>91</ele>
        <time>2022-01-15T11:07:52Z</time>
      </trkpt>
      <trkpt lat="48.54042" lon="2.08132">
        <ele>91</ele>
        <time>2022-01-15T11:07:50Z</time>
      </trkpt>
      <trkpt lat="48.54044" lon="2.08137">
        <ele>91</ele>
        <time>2022-01-15T11:07:47Z</time>
      </trkpt>
      <trkpt lat="48.54045" lon="2.08142">
        <ele>91</ele>
        <time>2022-01-15T11:07:45Z</time>
      </trkpt>
      <trkpt lat="48.54046" lon="2.08147">
        <ele>91</ele>
        <time>2022-01-15T11:07:42Z</time>
      </trkpt>
      <trkpt lat="48.54046" lon="2.08152">
        <ele>91</ele>
        <time>2022-01-15T11:07:40Z</time>
      </trkpt>
      <trkpt lat="48.54047" lon="2.08157">
        <ele>91</ele>
        <time>2022-01-15T11:07:37Z</time>
      </trkpt>
      <trkpt lat="48.54048" lon="2.08162">
        <ele>91</ele>
        <time>2022-01-15T11:07:35Z</time>
      </trkpt>
      <trkpt lat="48.54048" lon="2.08167">
        <ele>91</ele>
        <time>2022-01-15T11:07:33Z</time>
      </trkpt>
      <trkpt lat="48.54049" lon="2.08172">
        <ele>92</ele>
        <time>2022-01-15T11:07:31Z</time>
      </trkpt>
      <trkpt lat="48.54049" lon="2.08177">
        <ele>92</ele>
        <time>2022-01-15T11:07:29Z</time>
      </trkpt>
      <trkpt lat="48.5405" lon="2.08182">
        <ele>92</ele>
        <time>2022-01-15T11:07:27Z</time>
      </trkpt>
      <trkpt lat="48.5405" lon="2.08187">
        <ele>92</ele>
        <time>2022-01-15T11:07:24Z</time>
      </trkpt>
      <trkpt lat="48.54051" lon="2.08192">
        <ele>92</ele>
        <time>2022-01-15T11:07:22Z</time>
      </trkpt>
      <trkpt lat="48.54052" lon="2.08198">
        <ele>92</ele>
        <time>2022-01-15T11:07:19Z</time>
      </trkpt>
      <trkpt lat="48.54053" lon="2.08202">
        <ele>92</ele>
        <time>2022-01-15T11:07:17Z</time>
      </trkpt>
      <trkpt lat="48.54053" lon="2.08207">
        <ele>92</ele>
        <time>2022-01-15T11:07:14Z</time>
      </trkpt>
      <trkpt lat="48.54055" lon="2.08212">
        <ele>92</ele>
        <time>2022-01-15T11:07:12Z</time>
      </trkpt>
      <trkpt lat="48.54056" lon="2.08217">
        <ele>92</ele>
        <time>2022-01-15T11:07:10Z</time>
      </trkpt>
      <trkpt lat="48.54057" lon="2.08222">
        <ele>92</ele>
        <time>2022-01-15T11:07:08Z</time>
      </trkpt>
      <trkpt lat="48.54058" lon="2.08227">
        <ele>92</ele>
        <time>2022-01-15T11:07:06Z</time>
      </trkpt>
      <trkpt lat="48.54058" lon="2.08232">
        <ele>92</ele>
        <time>2022-01-15T11:07:04Z</time>
      </trkpt>
      <trkpt lat="48.54059" lon="2.08238">
        <ele>92</ele>
        <time>2022-01-15T11:07:01Z</time>
      </trkpt>
      <trkpt lat="48.5406" lon="2.08243">
        <ele>92</ele>
        <time>2022-01-15T11:06:58Z</time>
      </trkpt>
      <trkpt lat="48.54061" lon="2.08248">
        <ele>92</ele>
        <time>2022-01-15T11:06:56Z</time>
      </trkpt>
      <trkpt lat="48.54061" lon="2.08252">
        <ele>92</ele>
        <time>2022-01-15T11:06:53Z</time>
      </trkpt>
      <trkpt lat="48.54061" lon="2.08257">
        <ele>92</ele>
        <time>2022-01-15T11:06:51Z</time>
      </trkpt>
      <trkpt lat="48.54062" lon="2.08261">
        <ele>92</ele>
        <time>2022-01-15T11:06:49Z</time>
      </trkpt>
      <trkpt lat="48.54062" lon="2.08265">
        <ele>92</ele>
        <time>2022-01-15T11:06:47Z</time>
      </trkpt>
      <trkpt lat="48.54063" lon="2.0827">
        <ele>93</ele>
        <time>2022-01-15T11:06:45Z</time>
      </trkpt>
      <trkpt lat="48.54064" lon="2.08274">
        <ele>93</ele>
        <time>2022-01-15T11:06:43Z</time>
      </trkpt>
      <trkpt lat="48.54065" lon="2.0828">
        <ele>93</ele>
        <time>2022-01-15T11:06:40Z</time>
      </trkpt>
      <trkpt lat="48.54067" lon="2.08286">
        <ele>93</ele>
        <time>2022-01-15T11:06:38Z</time>
      </trkpt>
      <trkpt lat="48.54067" lon="2.0829">
        <ele>93</ele>
        <time>2022-01-15T11:06:36Z</time>
      </trkpt>
      <trkpt lat="48.54068" lon="2.08295">
        <ele>94</ele>
        <time>2022-01-15T11:06:34Z</time>
      </trkpt>
      <trkpt lat="48.54069" lon="2.083">
        <ele>94</ele>
        <time>2022-01-15T11:06:32Z</time>
      </trkpt>
      <trkpt lat="48.5407" lon="2.08305">
        <ele>94</ele>
        <time>2022-01-15T11:06:30Z</time>
      </trkpt>
      <trkpt lat="48.5407" lon="2.0831">
        <ele>95</ele>
        <time>2022-01-15T11:06:27Z</time>
      </trkpt>
      <trkpt lat="48.54071" lon="2.08314">
        <ele>95</ele>
        <time>2022-01-15T11:06:25Z</time>
      </trkpt>
      <trkpt lat="48.54072" lon="2.08318">
        <ele>95</ele>
        <time>2022-01-15T11:06:23Z</time>
      </trkpt>
      <trkpt lat="48.54073" lon="2.08323">
        <ele>95</ele>
        <time>2022-01-15T11:06:21Z</time>
      </trkpt>
      <trkpt lat="48.54073" lon="2.08327">
        <ele>96</ele>
        <time>2022-01-15T11:06:19Z</time>
      </trkpt>
      <trkpt lat="48.54074" lon="2.08332">
        <ele>96</ele>
        <time>2022-01-15T11:06:17Z</time>
      </trkpt>
      <trkpt lat="48.54075" lon="2.08337">
        <ele>96</ele>
        <time>2022-01-15T11:06:15Z</time>
      </trkpt>
      <trkpt lat="48.54075" lon="2.08342">
        <ele>97</ele>
        <time>2022-01-15T11:06:12Z</time>
      </trkpt>
      <trkpt lat="48.54075" lon="2.08347">
        <ele>96</ele>
        <time>2022-01-15T11:06:09Z</time>
      </trkpt>
      <trkpt lat="48.54076" lon="2.08352">
        <ele>96</ele>
        <time>2022-01-15T11:06:07Z</time>
      </trkpt>
      <trkpt lat="48.54076" lon="2.08357">
        <ele>96</ele>
        <time>2022-01-15T11:06:05Z</time>
      </trkpt>
      <trkpt lat="48.54077" lon="2.08362">
        <ele>96</ele>
        <time>2022-01-15T11:06:03Z</time>
      </trkpt>
      <trkpt lat="48.54077" lon="2.08368">
        <ele>96</ele>
        <time>2022-01-15T11:06:00Z</time>
      </trkpt>
      <trkpt lat="48.54078" lon="2.08373">
        <ele>95</ele>
        <time>2022-01-15T11:05:57Z</time>
      </trkpt>
      <trkpt lat="48.54079" lon="2.08378">
        <ele>95</ele>
        <time>2022-01-15T11:05:54Z</time>
      </trkpt>
      <trkpt lat="48.54079" lon="2.08383">
        <ele>95</ele>
        <time>2022-01-15T11:05:52Z</time>
      </trkpt>
      <trkpt lat="48.5408" lon="2.08388">
        <ele>95</ele>
        <time>2022-01-15T11:05:50Z</time>
      </trkpt>
      <trkpt lat="48.5408" lon="2.08394">
        <ele>94</ele>
        <time>2022-01-15T11:05:47Z</time>
      </trkpt>
      <trkpt lat="48.54081" lon="2.08398">
        <ele>94</ele>
        <time>2022-01-15T11:05:45Z</time>
      </trkpt>
      <trkpt lat="48.54081" lon="2.08403">
        <ele>94</ele>
        <time>2022-01-15T11:05:43Z</time>
      </trkpt>
      <trkpt lat="48.54082" lon="2.08408">
        <ele>94</ele>
        <time>2022-01-15T11:05:41Z</time>
      </trkpt>
      <trkpt lat="48.54082" lon="2.08412">
        <ele>93</ele>
        <time>2022-01-15T11:05:39Z</time>
      </trkpt>
      <trkpt lat="48.54082" lon="2.08418">
        <ele>93</ele>
        <time>2022-01-15T11:05:36Z</time>
      </trkpt>
      <trkpt lat="48.54082" lon="2.08423">
        <ele>93</ele>
        <time>2022-01-15T11:05:33Z</time>
      </trkpt>
      <trkpt lat="48.54082" lon="2.08428">
        <ele>93</ele>
        <time>2022-01-15T11:05:31Z</time>
      </trkpt>
      <trkpt lat="48.54083" lon="2.08433">
        <ele>92</ele>
        <time>2022-01-15T11:05:28Z</time>
      </trkpt>
      <trkpt lat="48.54083" lon="2.08438">
        <ele>92</ele>
        <time>2022-01-15T11:05:25Z</time>
      </trkpt>
      <trkpt lat="48.54084" lon="2.08443">
        <ele>92</ele>
        <time>2022-01-15T11:05:23Z</time>
      </trkpt>
      <trkpt lat="48.54084" lon="2.08448">
        <ele>92</ele>
        <time>2022-01-15T11:05:21Z</time>
      </trkpt>
      <trkpt lat="48.54085" lon="2.08453">
        <ele>92</ele>
        <time>2022-01-15T11:05:19Z</time>
      </trkpt>
      <trkpt lat="48.54086" lon="2.08457">
        <ele>92</ele>
        <time>2022-01-15T11:05:16Z</time>
      </trkpt>
      <trkpt lat="48.54088" lon="2.08463">
        <ele>92</ele>
        <time>2022-01-15T11:05:13Z</time>
      </trkpt>
      <trkpt lat="48.54089" lon="2.08467">
        <ele>92</ele>
        <time>2022-01-15T11:05:10Z</time>
      </trkpt>
      <trkpt lat="48.5409" lon="2.08472">
        <ele>92</ele>
        <time>2022-01-15T11:05:07Z</time>
      </trkpt>
      <trkpt lat="48.54091" lon="2.08475">
        <ele>92</ele>
        <time>2022-01-15T11:05:03Z</time>
      </trkpt>
      <trkpt lat="48.54091" lon="2.0848">
        <ele>92</ele>
        <time>2022-01-15T11:05:00Z</time>
      </trkpt>
      <trkpt lat="48.54092" lon="2.08485">
        <ele>92</ele>
        <time>2022-01-15T11:04:58Z</time>
      </trkpt>
      <trkpt lat="48.54092" lon="2.08489">
        <ele>92</ele>
        <time>2022-01-15T11:04:56Z</time>
      </trkpt>
      <trkpt lat="48.54093" lon="2.08495">
        <ele>92</ele>
        <time>2022-01-15T11:04:53Z</time>
      </trkpt>
      <trkpt lat="48.54094" lon="2.08501">
        <ele>92</ele>
        <time>2022-01-15T11:04:50Z</time>
      </trkpt>
      <trkpt lat="48.54094" lon="2.08506">
        <ele>92</ele>
        <time>2022-01-15T11:04:47Z</time>
      </trkpt>
      <trkpt lat="48.54094" lon="2.08512">
        <ele>93</ele>
        <time>2022-01-15T11:04:44Z</time>
      </trkpt>
      <trkpt lat="48.54095" lon="2.08517">
        <ele>93</ele>
        <time>2022-01-15T11:04:41Z</time>
      </trkpt>
      <trkpt lat="48.54095" lon="2.08522">
        <ele>93</ele>
        <time>2022-01-15T11:04:39Z</time>
      </trkpt>
      <trkpt lat="48.54096" lon="2.08527">
        <ele>93</ele>
        <time>2022-01-15T11:04:36Z</time>
      </trkpt>
      <trkpt lat="48.54097" lon="2.08532">
        <ele>93</ele>
        <time>2022-01-15T11:04:34Z</time>
      </trkpt>
      <trkpt lat="48.54097" lon="2.08538">
        <ele>93</ele>
        <time>2022-01-15T11:04:31Z</time>
      </trkpt>
      <trkpt lat="48.54098" lon="2.08543">
        <ele>93</ele>
        <time>2022-01-15T11:04:28Z</time>
      </trkpt>
      <trkpt lat="48.54099" lon="2.08549">
        <ele>93</ele>
        <time>2022-01-15T11:04:25Z</time>
      </trkpt>
      <trkpt lat="48.541" lon="2.08554">
        <ele>93</ele>
        <time>2022-01-15T11:04:23Z</time>
      </trkpt>
      <trkpt lat="48.541" lon="2.08558">
        <ele>93</ele>
        <time>2022-01-15T11:04:20Z</time>
      </trkpt>
      <trkpt lat="48.54101" lon="2.08563">
        <ele>93</ele>
        <time>2022-01-15T11:04:18Z</time>
      </trkpt>
      <trkpt lat="48.54101" lon="2.08568">
        <ele>93</ele>
        <time>2022-01-15T11:04:15Z</time>
      </trkpt>
      <trkpt lat="48.54101" lon="2.08573">
        <ele>93</ele>
        <time>2022-01-15T11:04:13Z</time>
      </trkpt>
      <trkpt lat="48.54101" lon="2.08577">
        <ele>93</ele>
        <time>2022-01-15T11:04:10Z</time>
      </trkpt>
      <trkpt lat="48.54102" lon="2.08581">
        <ele>93</ele>
        <time>2022-01-15T11:04:08Z</time>
      </trkpt>
      <trkpt lat="48.54103" lon="2.08585">
        <ele>93</ele>
        <time>2022-01-15T11:04:05Z</time>
      </trkpt>
      <trkpt lat="48.54104" lon="2.08589">
        <ele>93</ele>
        <time>2022-01-15T11:04:03Z</time>
      </trkpt>
      <trkpt lat="48.54105" lon="2.08594">
        <ele>93</ele>
        <time>2022-01-15T11:04:01Z</time>
      </trkpt>
      <trkpt lat="48.54106" lon="2.08598">
        <ele>93</ele>
        <time>2022-01-15T11:03:59Z</time>
      </trkpt>
      <trkpt lat="48.54107" lon="2.08602">
        <ele>93</ele>
        <time>2022-01-15T11:03:57Z</time>
      </trkpt>
      <trkpt lat="48.54108" lon="2.08607">
        <ele>93</ele>
        <time>2022-01-15T11:03:55Z</time>
      </trkpt>
      <trkpt lat="48.54108" lon="2.08612">
        <ele>93</ele>
        <time>2022-01-15T11:03:53Z</time>
      </trkpt>
      <trkpt lat="48.54109" lon="2.08617">
        <ele>93</ele>
        <time>2022-01-15T11:03:51Z</time>
      </trkpt>
      <trkpt lat="48.54109" lon="2.08621">
        <ele>93</ele>
        <time>2022-01-15T11:03:49Z</time>
      </trkpt>
      <trkpt lat="48.5411" lon="2.08626">
        <ele>93</ele>
        <time>2022-01-15T11:03:47Z</time>
      </trkpt>
      <trkpt lat="48.54111" lon="2.0863">
        <ele>93</ele>
        <time>2022-01-15T11:03:45Z</time>
      </trkpt>
      <trkpt lat="48.54111" lon="2.08635">
        <ele>93</ele>
        <time>2022-01-15T11:03:42Z</time>
      </trkpt>
      <trkpt lat="48.54113" lon="2.0864">
        <ele>94</ele>
        <time>2022-01-15T11:03:40Z</time>
      </trkpt>
      <trkpt lat="48.54113" lon="2.08645">
        <ele>94</ele>
        <time>2022-01-15T11:03:37Z</time>
      </trkpt>
      <trkpt lat="48.54114" lon="2.0865">
        <ele>94</ele>
        <time>2022-01-15T11:03:35Z</time>
      </trkpt>
      <trkpt lat="48.54114" lon="2.08655">
        <ele>94</ele>
        <time>2022-01-15T11:03:33Z</time>
      </trkpt>
      <trkpt lat="48.54115" lon="2.0866">
        <ele>94</ele>
        <time>2022-01-15T11:03:30Z</time>
      </trkpt>
      <trkpt lat="48.54115" lon="2.08665">
        <ele>94</ele>
        <time>2022-01-15T11:03:28Z</time>
      </trkpt>
      <trkpt lat="48.54116" lon="2.08669">
        <ele>94</ele>
        <time>2022-01-15T11:03:26Z</time>
      </trkpt>
      <trkpt lat="48.54117" lon="2.08674">
        <ele>94</ele>
        <time>2022-01-15T11:03:24Z</time>
      </trkpt>
      <trkpt lat="48.54118" lon="2.0868">
        <ele>94</ele>
        <time>2022-01-15T11:03:21Z</time>
      </trkpt>
      <trkpt lat="48.54119" lon="2.08685">
        <ele>94</ele>
        <time>2022-01-15T11:03:18Z</time>
      </trkpt>
      <trkpt lat="48.5412" lon="2.0869">
        <ele>93</ele>
        <time>2022-01-15T11:03:16Z</time>
      </trkpt>
      <trkpt lat="48.54121" lon="2.08694">
        <ele>93</ele>
        <time>2022-01-15T11:03:14Z</time>
      </trkpt>
      <trkpt lat="48.54121" lon="2.08699">
        <ele>93</ele>
        <time>2022-01-15T11:03:11Z</time>
      </trkpt>
      <trkpt lat="48.54122" lon="2.08703">
        <ele>93</ele>
        <time>2022-01-15T11:03:09Z</time>
      </trkpt>
      <trkpt lat="48.54123" lon="2.08707">
        <ele>93</ele>
        <time>2022-01-15T11:03:07Z</time>
      </trkpt>
      <trkpt lat="48.54123" lon="2.08712">
        <ele>93</ele>
        <time>2022-01-15T11:03:05Z</time>
      </trkpt>
      <trkpt lat="48.54124" lon="2.08716">
        <ele>93</ele>
        <time>2022-01-15T11:03:03Z</time>
      </trkpt>
      <trkpt lat="48.54125" lon="2.08721">
        <ele>93</ele>
        <time>2022-01-15T11:03:01Z</time>
      </trkpt>
      <trkpt lat="48.54126" lon="2.08726">
        <ele>93</ele>
        <time>2022-01-15T11:02:58Z</time>
      </trkpt>
      <trkpt lat="48.54126" lon="2.0873">
        <ele>93</ele>
        <time>2022-01-15T11:02:56Z</time>
      </trkpt>
      <trkpt lat="48.54127" lon="2.08735">
        <ele>93</ele>
        <time>2022-01-15T11:02:54Z</time>
      </trkpt>
      <trkpt lat="48.54128" lon="2.08739">
        <ele>93</ele>
        <time>2022-01-15T11:02:52Z</time>
      </trkpt>
      <trkpt lat="48.54129" lon="2.08743">
        <ele>93</ele>
        <time>2022-01-15T11:02:50Z</time>
      </trkpt>
      <trkpt lat="48.5413" lon="2.08747">
        <ele>93</ele>
        <time>2022-01-15T11:02:48Z</time>
      </trkpt>
      <trkpt lat="48.54131" lon="2.08752">
        <ele>93</ele>
        <time>2022-01-15T11:02:46Z</time>
      </trkpt>
      <trkpt lat="48.54131" lon="2.08756">
        <ele>93</ele>
        <time>2022-01-15T11:02:44Z</time>
      </trkpt>
      <trkpt lat="48.54132" lon="2.08761">
        <ele>93</ele>
        <time>2022-01-15T11:02:42Z</time>
      </trkpt>
      <trkpt lat="48.54133" lon="2.08765">
        <ele>93</ele>
        <time>2022-01-15T11:02:40Z</time>
      </trkpt>
      <trkpt lat="48.54133" lon="2.0877">
        <ele>93</ele>
        <time>2022-01-15T11:02:38Z</time>
      </trkpt>
      <trkpt lat="48.54134" lon="2.08774">
        <ele>93</ele>
        <time>2022-01-15T11:02:36Z</time>
      </trkpt>
      <trkpt lat="48.54134" lon="2.08779">
        <ele>93</ele>
        <time>2022-01-15T11:02:34Z</time>
      </trkpt>
      <trkpt lat="48.54134" lon="2.08783">
        <ele>93</ele>
        <time>2022-01-15T11:02:32Z</time>
      </trkpt>
      <trkpt lat="48.54135" lon="2.08788">
        <ele>93</ele>
        <time>2022-01-15T11:02:30Z</time>
      </trkpt>
      <trkpt lat="48.54135" lon="2.08792">
        <ele>93</ele>
        <time>2022-01-15T11:02:28Z</time>
      </trkpt>
      <trkpt lat="48.54136" lon="2.08796">
        <ele>93</ele>
        <time>2022-01-15T11:02:26Z</time>
      </trkpt>
      <trkpt lat="48.54137" lon="2.08801">
        <ele>92</ele>
        <time>2022-01-15T11:02:24Z</time>
      </trkpt>
      <trkpt lat="48.54137" lon="2.08805">
        <ele>92</ele>
        <time>2022-01-15T11:02:22Z</time>
      </trkpt>
      <trkpt lat="48.54138" lon="2.0881">
        <ele>92</ele>
        <time>2022-01-15T11:02:20Z</time>
      </trkpt>
      <trkpt lat="48.54139" lon="2.08814">
        <ele>92</ele>
        <time>2022-01-15T11:02:18Z</time>
      </trkpt>
      <trkpt lat="48.54139" lon="2.08818">
        <ele>92</ele>
        <time>2022-01-15T11:02:16Z</time>
      </trkpt>
      <trkpt lat="48.5414" lon="2.08823">
        <ele>92</ele>
        <time>2022-01-15T11:02:14Z</time>
      </trkpt>
      <trkpt lat="48.54141" lon="2.08827">
        <ele>92</ele>
        <time>2022-01-15T11:02:12Z</time>
      </trkpt>
      <trkpt lat="48.54141" lon="2.08833">
        <ele>92</ele>
        <time>2022-01-15T11:02:09Z</time>
      </trkpt>
      <trkpt lat="48.54142" lon="2.08839">
        <ele>92</ele>
        <time>2022-01-15T11:02:06Z</time>
      </trkpt>
      <trkpt lat="48.54143" lon="2.08844">
        <ele>92</ele>
        <time>2022-01-15T11:02:04Z</time>
      </trkpt>
      <trkpt lat="48.54144" lon="2.0885">
        <ele>92</ele>
        <time>2022-01-15T11:02:01Z</time>
      </trkpt>
      <trkpt lat="48.54144" lon="2.08855">
        <ele>92</ele>
        <time>2022-01-15T11:01:58Z</time>
      </trkpt>
      <trkpt lat="48.54144" lon="2.08859">
        <ele>92</ele>
        <time>2022-01-15T11:01:56Z</time>
      </trkpt>
      <trkpt lat="48.54145" lon="2.08864">
        <ele>92</ele>
        <time>2022-01-15T11:01:54Z</time>
      </trkpt>
      <trkpt lat="48.54145" lon="2.08868">
        <ele>92</ele>
        <time>2022-01-15T11:01:52Z</time>
      </trkpt>
      <trkpt lat="48.54145" lon="2.08872">
        <ele>92</ele>
        <time>2022-01-15T11:01:50Z</time>
      </trkpt>
      <trkpt lat="48.54145" lon="2.08876">
        <ele>92</ele>
        <time>2022-01-15T11:01:48Z</time>
      </trkpt>
      <trkpt lat="48.54146" lon="2.08881">
        <ele>92</ele>
        <time>2022-01-15T11:01:46Z</time>
      </trkpt>
      <trkpt lat="48.54147" lon="2.08885">
        <ele>92</ele>
        <time>2022-01-15T11:01:44Z</time>
      </trkpt>
      <trkpt lat="48.54147" lon="2.0889">
        <ele>91</ele>
        <time>2022-01-15T11:01:42Z</time>
      </trkpt>
      <trkpt lat="48.54148" lon="2.08895">
        <ele>91</ele>
        <time>2022-01-15T11:01:40Z</time>
      </trkpt>
      <trkpt lat="48.54149" lon="2.089">
        <ele>91</ele>
        <time>2022-01-15T11:01:37Z</time>
      </trkpt>
      <trkpt lat="48.54149" lon="2.08904">
        <ele>91</ele>
        <time>2022-01-15T11:01:35Z</time>
      </trkpt>
      <trkpt lat="48.54149" lon="2.08909">
        <ele>91</ele>
        <time>2022-01-15T11:01:33Z</time>
      </trkpt>
      <trkpt lat="48.5415" lon="2.08913">
        <ele>91</ele>
        <time>2022-01-15T11:01:31Z</time>
      </trkpt>
      <trkpt lat="48.5415" lon="2.08917">
        <ele>91</ele>
        <time>2022-01-15T11:01:29Z</time>
      </trkpt>
      <trkpt lat="48.54151" lon="2.08922">
        <ele>91</ele>
        <time>2022-01-15T11:01:27Z</time>
      </trkpt>
      <trkpt lat="48.54151" lon="2.08926">
        <ele>91</ele>
        <time>2022-01-15T11:01:25Z</time>
      </trkpt>
      <trkpt lat="48.54152" lon="2.08931">
        <ele>91</ele>
        <time>2022-01-15T11:01:23Z</time>
      </trkpt>
      <trkpt lat="48.54153" lon="2.08936">
        <ele>91</ele>
        <time>2022-01-15T11:01:21Z</time>
      </trkpt>
      <trkpt lat="48.54153" lon="2.0894">
        <ele>91</ele>
        <time>2022-01-15T11:01:19Z</time>
      </trkpt>
      <trkpt lat="48.54153" lon="2.08945">
        <ele>91</ele>
        <time>2022-01-15T11:01:17Z</time>
      </trkpt>
      <trkpt lat="48.54154" lon="2.08949">
        <ele>90</ele>
        <time>2022-01-15T11:01:15Z</time>
      </trkpt>
      <trkpt lat="48.54155" lon="2.08953">
        <ele>90</ele>
        <time>2022-01-15T11:01:13Z</time>
      </trkpt>
      <trkpt lat="48.54156" lon="2.08957">
        <ele>90</ele>
        <time>2022-01-15T11:01:11Z</time>
      </trkpt>
      <trkpt lat="48.54156" lon="2.08962">
        <ele>90</ele>
        <time>2022-01-15T11:01:09Z</time>
      </trkpt>
      <trkpt lat="48.54157" lon="2.08966">
        <ele>90</ele>
        <time>2022-01-15T11:01:07Z</time>
      </trkpt>
      <trkpt lat="48.54158" lon="2.0897">
        <ele>90</ele>
        <time>2022-01-15T11:01:05Z</time>
      </trkpt>
      <trkpt lat="48.54159" lon="2.08974">
        <ele>90</ele>
        <time>2022-01-15T11:01:03Z</time>
      </trkpt>
      <trkpt lat="48.5416" lon="2.08978">
        <ele>90</ele>
        <time>2022-01-15T11:01:01Z</time>
      </trkpt>
      <trkpt lat="48.54161" lon="2.08983">
        <ele>90</ele>
        <time>2022-01-15T11:00:59Z</time>
      </trkpt>
      <trkpt lat="48.54162" lon="2.08988">
        <ele>91</ele>
        <time>2022-01-15T11:00:56Z</time>
      </trkpt>
      <trkpt lat="48.54163" lon="2.08993">
        <ele>91</ele>
        <time>2022-01-15T11:00:54Z</time>
      </trkpt>
      <trkpt lat="48.54164" lon="2.08997">
        <ele>91</ele>
        <time>2022-01-15T11:00:52Z</time>
      </trkpt>
      <trkpt lat="48.54165" lon="2.09001">
        <ele>91</ele>
        <time>2022-01-15T11:00:50Z</time>
      </trkpt>
      <trkpt lat="48.54166" lon="2.09006">
        <ele>91</ele>
        <time>2022-01-15T11:00:48Z</time>
      </trkpt>
      <trkpt lat="48.54167" lon="2.0901">
        <ele>91</ele>
        <time>2022-01-15T11:00:46Z</time>
      </trkpt>
      <trkpt lat="48.54168" lon="2.09014">
        <ele>91</ele>
        <time>2022-01-15T11:00:44Z</time>
      </trkpt>
      <trkpt lat="48.54169" lon="2.09019">
        <ele>92</ele>
        <time>2022-01-15T11:00:42Z</time>
      </trkpt>
      <trkpt lat="48.5417" lon="2.09024">
        <ele>92</ele>
        <time>2022-01-15T11:00:40Z</time>
      </trkpt>
      <trkpt lat="48.54171" lon="2.09028">
        <ele>92</ele>
        <time>2022-01-15T11:00:38Z</time>
      </trkpt>
      <trkpt lat="48.54172" lon="2.09033">
        <ele>92</ele>
        <time>2022-01-15T11:00:36Z</time>
      </trkpt>
      <trkpt lat="48.54173" lon="2.09039">
        <ele>92</ele>
        <time>2022-01-15T11:00:33Z</time>
      </trkpt>
      <trkpt lat="48.54174" lon="2.09044">
        <ele>92</ele>
        <time>2022-01-15T11:00:30Z</time>
      </trkpt>
      <trkpt lat="48.54175" lon="2.09048">
        <ele>93</ele>
        <time>2022-01-15T11:00:28Z</time>
      </trkpt>
      <trkpt lat="48.54176" lon="2.09053">
        <ele>93</ele>
        <time>2022-01-15T11:00:25Z</time>
      </trkpt>
      <trkpt lat="48.54177" lon="2.09057">
        <ele>93</ele>
        <time>2022-01-15T11:00:23Z</time>
      </trkpt>
      <trkpt lat="48.54179" lon="2.09062">
        <ele>93</ele>
        <time>2022-01-15T11:00:21Z</time>
      </trkpt>
      <trkpt lat="48.5418" lon="2.09067">
        <ele>93</ele>
        <time>2022-01-15T11:00:18Z</time>
      </trkpt>
      <trkpt lat="48.5418" lon="2.09071">
        <ele>93</ele>
        <time>2022-01-15T11:00:16Z</time>
      </trkpt>
      <trkpt lat="48.54181" lon="2.09076">
        <ele>93</ele>
        <time>2022-01-15T11:00:14Z</time>
      </trkpt>
      <trkpt lat="48.54183" lon="2.09081">
        <ele>93</ele>
        <time>2022-01-15T11:00:11Z</time>
      </trkpt>
      <trkpt lat="48.54184" lon="2.09085">
        <ele>92</ele>
        <time>2022-01-15T11:00:09Z</time>
      </trkpt>
      <trkpt lat="48.54185" lon="2.0909">
        <ele>92</ele>
        <time>2022-01-15T11:00:07Z</time>
      </trkpt>
      <trkpt lat="48.54187" lon="2.09095">
        <ele>92</ele>
        <time>2022-01-15T11:00:04Z</time>
      </trkpt>
      <trkpt lat="48.54189" lon="2.091">
        <ele>91</ele>
        <time>2022-01-15T11:00:01Z</time>
      </trkpt>
      <trkpt lat="48.5419" lon="2.09105">
        <ele>91</ele>
        <time>2022-01-15T10:59:58Z</time>
      </trkpt>
      <trkpt lat="48.5419" lon="2.09109">
        <ele>91</ele>
        <time>2022-01-15T10:59:56Z</time>
      </trkpt>
      <trkpt lat="48.54191" lon="2.09114">
        <ele>90</ele>
        <time>2022-01-15T10:59:53Z</time>
      </trkpt>
      <trkpt lat="48.54191" lon="2.09119">
        <ele>90</ele>
        <time>2022-01-15T10:59:51Z</time>
      </trkpt>
      <trkpt lat="48.54191" lon="2.09123">
        <ele>90</ele>
        <time>2022-01-15T10:59:49Z</time>
      </trkpt>
      <trkpt lat="48.54192" lon="2.09128">
        <ele>90</ele>
        <time>2022-01-15T10:59:47Z</time>
      </trkpt>
      <trkpt lat="48.54192" lon="2.09133">
        <ele>90</ele>
        <time>2022-01-15T10:59:45Z</time>
      </trkpt>
      <trkpt lat="48.54193" lon="2.09137">
        <ele>90</ele>
        <time>2022-01-15T10:59:43Z</time>
      </trkpt>
      <trkpt lat="48.54193" lon="2.09142">
        <ele>90</ele>
        <time>2022-01-15T10:59:41Z</time>
      </trkpt>
      <trkpt lat="48.54194" lon="2.09147">
        <ele>90</ele>
        <time>2022-01-15T10:59:39Z</time>
      </trkpt>
      <trkpt lat="48.54195" lon="2.09152">
        <ele>90</ele>
        <time>2022-01-15T10:59:37Z</time>
      </trkpt>
      <trkpt lat="48.54196" lon="2.09157">
        <ele>91</ele>
        <time>2022-01-15T10:59:35Z</time>
      </trkpt>
      <trkpt lat="48.54196" lon="2.09163">
        <ele>91</ele>
        <time>2022-01-15T10:59:32Z</time>
      </trkpt>
      <trkpt lat="48.54197" lon="2.09168">
        <ele>92</ele>
        <time>2022-01-15T10:59:29Z</time>
      </trkpt>
      <trkpt lat="48.54198" lon="2.09173">
        <ele>92</ele>
        <time>2022-01-15T10:59:27Z</time>
      </trkpt>
      <trkpt lat="48.54198" lon="2.09178">
        <ele>92</ele>
        <time>2022-01-15T10:59:25Z</time>
      </trkpt>
      <trkpt lat="48.54198" lon="2.09183">
        <ele>93</ele>
        <time>2022-01-15T10:59:22Z</time>
      </trkpt>
      <trkpt lat="48.54199" lon="2.09188">
        <ele>93</ele>
        <time>2022-01-15T10:59:20Z</time>
      </trkpt>
      <trkpt lat="48.54199" lon="2.09192">
        <ele>93</ele>
        <time>2022-01-15T10:59:18Z</time>
      </trkpt>
      <trkpt lat="48.542" lon="2.09197">
        <ele>93</ele>
        <time>2022-01-15T10:59:16Z</time>
      </trkpt>
      <trkpt lat="48.542" lon="2.09201">
        <ele>93</ele>
        <time>2022-01-15T10:59:14Z</time>
      </trkpt>
      <trkpt lat="48.54201" lon="2.09206">
        <ele>93</ele>
        <time>2022-01-15T10:59:12Z</time>
      </trkpt>
      <trkpt lat="48.54201" lon="2.09211">
        <ele>93</ele>
        <time>2022-01-15T10:59:10Z</time>
      </trkpt>
      <trkpt lat="48.54201" lon="2.09216">
        <ele>92</ele>
        <time>2022-01-15T10:59:08Z</time>
      </trkpt>
      <trkpt lat="48.54202" lon="2.09221">
        <ele>92</ele>
        <time>2022-01-15T10:59:06Z</time>
      </trkpt>
      <trkpt lat="48.54202" lon="2.09226">
        <ele>92</ele>
        <time>2022-01-15T10:59:03Z</time>
      </trkpt>
      <trkpt lat="48.54202" lon="2.09232">
        <ele>92</ele>
        <time>2022-01-15T10:59:00Z</time>
      </trkpt>
      <trkpt lat="48.54203" lon="2.09236">
        <ele>92</ele>
        <time>2022-01-15T10:58:58Z</time>
      </trkpt>
      <trkpt lat="48.54203" lon="2.09241">
        <ele>92</ele>
        <time>2022-01-15T10:58:56Z</time>
      </trkpt>
      <trkpt lat="48.54204" lon="2.09245">
        <ele>92</ele>
        <time>2022-01-15T10:58:54Z</time>
      </trkpt>
      <trkpt lat="48.54204" lon="2.0925">
        <ele>92</ele>
        <time>2022-01-15T10:58:52Z</time>
      </trkpt>
      <trkpt lat="48.54204" lon="2.09255">
        <ele>92</ele>
        <time>2022-01-15T10:58:49Z</time>
      </trkpt>
      <trkpt lat="48.54204" lon="2.0926">
        <ele>92</ele>
        <time>2022-01-15T10:58:46Z</time>
      </trkpt>
      <trkpt lat="48.54205" lon="2.09265">
        <ele>92</ele>
        <time>2022-01-15T10:58:44Z</time>
      </trkpt>
      <trkpt lat="48.54205" lon="2.09269">
        <ele>92</ele>
        <time>2022-01-15T10:58:42Z</time>
      </trkpt>
      <trkpt lat="48.54205" lon="2.09274">
        <ele>92</ele>
        <time>2022-01-15T10:58:40Z</time>
      </trkpt>
      <trkpt lat="48.54206" lon="2.09278">
        <ele>92</ele>
        <time>2022-01-15T10:58:38Z</time>
      </trkpt>
      <trkpt lat="48.54206" lon="2.09283">
        <ele>91</ele>
        <time>2022-01-15T10:58:36Z</time>
      </trkpt>
      <trkpt lat="48.54207" lon="2.09287">
        <ele>91</ele>
        <time>2022-01-15T10:58:34Z</time>
      </trkpt>
      <trkpt lat="48.54207" lon="2.09292">
        <ele>91</ele>
        <time>2022-01-15T10:58:32Z</time>
      </trkpt>
      <trkpt lat="48.54208" lon="2.09296">
        <ele>91</ele>
        <time>2022-01-15T10:58:30Z</time>
      </trkpt>
      <trkpt lat="48.54209" lon="2.093">
        <ele>91</ele>
        <time>2022-01-15T10:58:28Z</time>
      </trkpt>
      <trkpt lat="48.5421" lon="2.09304">
        <ele>91</ele>
        <time>2022-01-15T10:58:26Z</time>
      </trkpt>
      <trkpt lat="48.54211" lon="2.09308">
        <ele>91</ele>
        <time>2022-01-15T10:58:24Z</time>
      </trkpt>
      <trkpt lat="48.54211" lon="2.09312">
        <ele>91</ele>
        <time>2022-01-15T10:58:22Z</time>
      </trkpt>
      <trkpt lat="48.54212" lon="2.09317">
        <ele>91</ele>
        <time>2022-01-15T10:58:20Z</time>
      </trkpt>
      <trkpt lat="48.54212" lon="2.09322">
        <ele>90</ele>
        <time>2022-01-15T10:58:18Z</time>
      </trkpt>
      <trkpt lat="48.54214" lon="2.09326">
        <ele>90</ele>
        <time>2022-01-15T10:58:16Z</time>
      </trkpt>
      <trkpt lat="48.54215" lon="2.09331">
        <ele>90</ele>
        <time>2022-01-15T10:58:14Z</time>
      </trkpt>
      <trkpt lat="48.54215" lon="2.09335">
        <ele>90</ele>
        <time>2022-01-15T10:58:12Z</time>
      </trkpt>
      <trkpt lat="48.54216" lon="2.09339">
        <ele>90</ele>
        <time>2022-01-15T10:58:10Z</time>
      </trkpt>
      <trkpt lat="48.54216" lon="2.09343">
        <ele>90</ele>
        <time>2022-01-15T10:58:08Z</time>
      </trkpt>
      <trkpt lat="48.54217" lon="2.09348">
        <ele>90</ele>
        <time>2022-01-15T10:58:06Z</time>
      </trkpt>
      <trkpt lat="48.54219" lon="2.09352">
        <ele>90</ele>
        <time>2022-01-15T10:58:04Z</time>
      </trkpt>
      <trkpt lat="48.54221" lon="2.09355">
        <ele>91</ele>
        <time>2022-01-15T10:58:02Z</time>
      </trkpt>
      <trkpt lat="48.54223" lon="2.09359">
        <ele>91</ele>
        <time>2022-01-15T10:58:00Z</time>
      </trkpt>
      <trkpt lat="48.54225" lon="2.09363">
        <ele>91</ele>
        <time>2022-01-15T10:57:58Z</time>
      </trkpt>
      <trkpt lat="48.54227" lon="2.09367">
        <ele>91</ele>
        <time>2022-01-15T10:57:56Z</time>
      </trkpt>
      <trkpt lat="48.54229" lon="2.0937">
        <ele>91</ele>
        <time>2022-01-15T10:57:54Z</time>
      </trkpt>
      <trkpt lat="48.54232" lon="2.09374">
        <ele>91</ele>
        <time>2022-01-15T10:57:52Z</time>
      </trkpt>
      <trkpt lat="48.54234" lon="2.09379">
        <ele>92</ele>
        <time>2022-01-15T10:57:49Z</time>
      </trkpt>
      <trkpt lat="48.54236" lon="2.09382">
        <ele>92</ele>
        <time>2022-01-15T10:57:47Z</time>
      </trkpt>
      <trkpt lat="48.54238" lon="2.09385">
        <ele>92</ele>
        <time>2022-01-15T10:57:45Z</time>
      </trkpt>
      <trkpt lat="48.54241" lon="2.09387">
        <ele>92</ele>
        <time>2022-01-15T10:57:43Z</time>
      </trkpt>
      <trkpt lat="48.54243" lon="2.09391">
        <ele>92</ele>
        <time>2022-01-15T10:57:41Z</time>
      </trkpt>
      <trkpt lat="48.54245" lon="2.09394">
        <ele>92</ele>
        <time>2022-01-15T10:57:39Z</time>
      </trkpt>
      <trkpt lat="48.54247" lon="2.09397">
        <ele>93</ele>
        <time>2022-01-15T10:57:36Z</time>
      </trkpt>
      <trkpt lat="48.54249" lon="2.094">
        <ele>93</ele>
        <time>2022-01-15T10:57:34Z</time>
      </trkpt>
      <trkpt lat="48.54252" lon="2.09403">
        <ele>93</ele>
        <time>2022-01-15T10:57:30Z</time>
      </trkpt>
      <trkpt lat="48.54255" lon="2.09406">
        <ele>93</ele>
        <time>2022-01-15T10:57:28Z</time>
      </trkpt>
      <trkpt lat="48.54257" lon="2.09409">
        <ele>93</ele>
        <time>2022-01-15T10:57:25Z</time>
      </trkpt>
      <trkpt lat="48.54259" lon="2.09413">
        <ele>94</ele>
        <time>2022-01-15T10:57:22Z</time>
      </trkpt>
      <trkpt lat="48.54262" lon="2.09416">
        <ele>94</ele>
        <time>2022-01-15T10:57:20Z</time>
      </trkpt>
      <trkpt lat="48.54265" lon="2.09419">
        <ele>94</ele>
        <time>2022-01-15T10:57:18Z</time>
      </trkpt>
      <trkpt lat="48.54268" lon="2.09423">
        <ele>94</ele>
        <time>2022-01-15T10:57:15Z</time>
      </trkpt>
      <trkpt lat="48.5427" lon="2.09427">
        <ele>95</ele>
        <time>2022-01-15T10:57:12Z</time>
      </trkpt>
      <trkpt lat="48.54273" lon="2.09432">
        <ele>95</ele>
        <time>2022-01-15T10:57:09Z</time>
      </trkpt>
      <trkpt lat="48.54276" lon="2.09436">
        <ele>95</ele>
        <time>2022-01-15T10:57:05Z</time>
      </trkpt>
      <trkpt lat="48.54279" lon="2.0944">
        <ele>96</ele>
        <time>2022-01-15T10:57:02Z</time>
      </trkpt>
      <trkpt lat="48.54282" lon="2.09443">
        <ele>96</ele>
        <time>2022-01-15T10:56:59Z</time>
      </trkpt>
      <trkpt lat="48.54284" lon="2.09446">
        <ele>96</ele>
        <time>2022-01-15T10:56:56Z</time>
      </trkpt>
      <trkpt lat="48.54287" lon="2.0945">
        <ele>96</ele>
        <time>2022-01-15T10:56:53Z</time>
      </trkpt>
      <trkpt lat="48.54289" lon="2.09453">
        <ele>96</ele>
        <time>2022-01-15T10:56:50Z</time>
      </trkpt>
      <trkpt lat="48.54292" lon="2.09456">
        <ele>96</ele>
        <time>2022-01-15T10:56:48Z</time>
      </trkpt>
      <trkpt lat="48.54294" lon="2.0946">
        <ele>97</ele>
        <time>2022-01-15T10:56:45Z</time>
      </trkpt>
      <trkpt lat="48.54296" lon="2.09462">
        <ele>97</ele>
        <time>2022-01-15T10:56:43Z</time>
      </trkpt>
      <trkpt lat="48.54298" lon="2.09466">
        <ele>97</ele>
        <time>2022-01-15T10:56:40Z</time>
      </trkpt>
      <trkpt lat="48.543" lon="2.09469">
        <ele>97</ele>
        <time>2022-01-15T10:56:37Z</time>
      </trkpt>
      <trkpt lat="48.54303" lon="2.09471">
        <ele>97</ele>
        <time>2022-01-15T10:56:33Z</time>
      </trkpt>
      <trkpt lat="48.54305" lon="2.09474">
        <ele>97</ele>
        <time>2022-01-15T10:56:31Z</time>
      </trkpt>
      <trkpt lat="48.54308" lon="2.09477">
        <ele>98</ele>
        <time>2022-01-15T10:56:27Z</time>
      </trkpt>
      <trkpt lat="48.54311" lon="2.0948">
        <ele>98</ele>
        <time>2022-01-15T10:56:25Z</time>
      </trkpt>
      <trkpt lat="48.54313" lon="2.09483">
        <ele>98</ele>
        <time>2022-01-15T10:56:22Z</time>
      </trkpt>
      <trkpt lat="48.54316" lon="2.09485">
        <ele>99</ele>
        <time>2022-01-15T10:56:20Z</time>
      </trkpt>
      <trkpt lat="48.5432" lon="2.09488">
        <ele>99</ele>
        <time>2022-01-15T10:56:17Z</time>
      </trkpt>
      <trkpt lat="48.54322" lon="2.09489">
        <ele>100</ele>
        <time>2022-01-15T10:56:14Z</time>
      </trkpt>
      <trkpt lat="48.54326" lon="2.0949">
        <ele>100</ele>
        <time>2022-01-15T10:56:11Z</time>
      </trkpt>
      <trkpt lat="48.54328" lon="2.09492">
        <ele>100</ele>
        <time>2022-01-15T10:56:09Z</time>
      </trkpt>
      <trkpt lat="48.54331" lon="2.09493">
        <ele>101</ele>
        <time>2022-01-15T10:56:06Z</time>
      </trkpt>
      <trkpt lat="48.54334" lon="2.09494">
        <ele>101</ele>
        <time>2022-01-15T10:56:04Z</time>
      </trkpt>
      <trkpt lat="48.54338" lon="2.09496">
        <ele>101</ele>
        <time>2022-01-15T10:56:02Z</time>
      </trkpt>
      <trkpt lat="48.5434" lon="2.09498">
        <ele>101</ele>
        <time>2022-01-15T10:56:00Z</time>
      </trkpt>
      <trkpt lat="48.54343" lon="2.09501">
        <ele>102</ele>
        <time>2022-01-15T10:55:57Z</time>
      </trkpt>
      <trkpt lat="48.54345" lon="2.09505">
        <ele>103</ele>
        <time>2022-01-15T10:55:54Z</time>
      </trkpt>
      <trkpt lat="48.54346" lon="2.0951">
        <ele>103</ele>
        <time>2022-01-15T10:55:51Z</time>
      </trkpt>
      <trkpt lat="48.54348" lon="2.09514">
        <ele>103</ele>
        <time>2022-01-15T10:55:49Z</time>
      </trkpt>
      <trkpt lat="48.54349" lon="2.09519">
        <ele>104</ele>
        <time>2022-01-15T10:55:45Z</time>
      </trkpt>
      <trkpt lat="48.5435" lon="2.09524">
        <ele>104</ele>
        <time>2022-01-15T10:55:42Z</time>
      </trkpt>
      <trkpt lat="48.5435" lon="2.0953">
        <ele>104</ele>
        <time>2022-01-15T10:55:40Z</time>
      </trkpt>
      <trkpt lat="48.54351" lon="2.09534">
        <ele>105</ele>
        <time>2022-01-15T10:55:37Z</time>
      </trkpt>
      <trkpt lat="48.54352" lon="2.09539">
        <ele>105</ele>
        <time>2022-01-15T10:55:34Z</time>
      </trkpt>
      <trkpt lat="48.54354" lon="2.09545">
        <ele>105</ele>
        <time>2022-01-15T10:55:32Z</time>
      </trkpt>
      <trkpt lat="48.54356" lon="2.09549">
        <ele>106</ele>
        <time>2022-01-15T10:55:29Z</time>
      </trkpt>
      <trkpt lat="48.54358" lon="2.09553">
        <ele>106</ele>
        <time>2022-01-15T10:55:27Z</time>
      </trkpt>
      <trkpt lat="48.5436" lon="2.09558">
        <ele>106</ele>
        <time>2022-01-15T10:55:25Z</time>
      </trkpt>
      <trkpt lat="48.54362" lon="2.09561">
        <ele>106</ele>
        <time>2022-01-15T10:55:23Z</time>
      </trkpt>
      <trkpt lat="48.54365" lon="2.09565">
        <ele>106</ele>
        <time>2022-01-15T10:55:20Z</time>
      </trkpt>
      <trkpt lat="48.54368" lon="2.09568">
        <ele>107</ele>
        <time>2022-01-15T10:55:17Z</time>
      </trkpt>
      <trkpt lat="48.54372" lon="2.09569">
        <ele>107</ele>
        <time>2022-01-15T10:55:14Z</time>
      </trkpt>
      <trkpt lat="48.54375" lon="2.0957">
        <ele>107</ele>
        <time>2022-01-15T10:55:11Z</time>
      </trkpt>
      <trkpt lat="48.54379" lon="2.09571">
        <ele>108</ele>
        <time>2022-01-15T10:55:09Z</time>
      </trkpt>
      <trkpt lat="48.54383" lon="2.09571">
        <ele>108</ele>
        <time>2022-01-15T10:55:05Z</time>
      </trkpt>
      <trkpt lat="48.54385" lon="2.0957">
        <ele>108</ele>
        <time>2022-01-15T10:55:02Z</time>
      </trkpt>
      <trkpt lat="48.54388" lon="2.09568">
        <ele>108</ele>
        <time>2022-01-15T10:55:00Z</time>
      </trkpt>
      <trkpt lat="48.54391" lon="2.09567">
        <ele>108</ele>
        <time>2022-01-15T10:54:58Z</time>
      </trkpt>
      <trkpt lat="48.54394" lon="2.09565">
        <ele>109</ele>
        <time>2022-01-15T10:54:55Z</time>
      </trkpt>
      <trkpt lat="48.54397" lon="2.09562">
        <ele>109</ele>
        <time>2022-01-15T10:54:53Z</time>
      </trkpt>
      <trkpt lat="48.544" lon="2.09561">
        <ele>109</ele>
        <time>2022-01-15T10:54:50Z</time>
      </trkpt>
      <trkpt lat="48.54403" lon="2.0956">
        <ele>110</ele>
        <time>2022-01-15T10:54:47Z</time>
      </trkpt>
      <trkpt lat="48.54406" lon="2.09558">
        <ele>110</ele>
        <time>2022-01-15T10:54:44Z</time>
      </trkpt>
      <trkpt lat="48.54409" lon="2.09554">
        <ele>111</ele>
        <time>2022-01-15T10:54:42Z</time>
      </trkpt>
      <trkpt lat="48.54411" lon="2.09551">
        <ele>111</ele>
        <time>2022-01-15T10:54:40Z</time>
      </trkpt>
      <trkpt lat="48.54414" lon="2.09548">
        <ele>111</ele>
        <time>2022-01-15T10:54:38Z</time>
      </trkpt>
      <trkpt lat="48.54417" lon="2.09543">
        <ele>112</ele>
        <time>2022-01-15T10:54:35Z</time>
      </trkpt>
      <trkpt lat="48.54419" lon="2.09539">
        <ele>112</ele>
        <time>2022-01-15T10:54:33Z</time>
      </trkpt>
      <trkpt lat="48.54422" lon="2.09536">
        <ele>113</ele>
        <time>2022-01-15T10:54:31Z</time>
      </trkpt>
      <trkpt lat="48.54425" lon="2.0953">
        <ele>113</ele>
        <time>2022-01-15T10:54:28Z</time>
      </trkpt>
      <trkpt lat="48.54427" lon="2.09528">
        <ele>114</ele>
        <time>2022-01-15T10:54:25Z</time>
      </trkpt>
      <trkpt lat="48.5443" lon="2.09524">
        <ele>114</ele>
        <time>2022-01-15T10:54:22Z</time>
      </trkpt>
      <trkpt lat="48.54433" lon="2.09522">
        <ele>115</ele>
        <time>2022-01-15T10:54:19Z</time>
      </trkpt>
      <trkpt lat="48.54436" lon="2.09519">
        <ele>116</ele>
        <time>2022-01-15T10:54:16Z</time>
      </trkpt>
      <trkpt lat="48.54439" lon="2.09518">
        <ele>116</ele>
        <time>2022-01-15T10:54:14Z</time>
      </trkpt>
      <trkpt lat="48.54442" lon="2.09517">
        <ele>117</ele>
        <time>2022-01-15T10:54:11Z</time>
      </trkpt>
      <trkpt lat="48.54445" lon="2.09516">
        <ele>118</ele>
        <time>2022-01-15T10:54:08Z</time>
      </trkpt>
      <trkpt lat="48.54449" lon="2.09516">
        <ele>118</ele>
        <time>2022-01-15T10:54:05Z</time>
      </trkpt>
      <trkpt lat="48.54452" lon="2.09517">
        <ele>119</ele>
        <time>2022-01-15T10:54:03Z</time>
      </trkpt>
      <trkpt lat="48.54455" lon="2.09519">
        <ele>119</ele>
        <time>2022-01-15T10:54:01Z</time>
      </trkpt>
      <trkpt lat="48.5446" lon="2.09521">
        <ele>120</ele>
        <time>2022-01-15T10:53:56Z</time>
      </trkpt>
      <trkpt lat="48.54463" lon="2.09524">
        <ele>120</ele>
        <time>2022-01-15T10:53:53Z</time>
      </trkpt>
      <trkpt lat="48.54465" lon="2.09526">
        <ele>121</ele>
        <time>2022-01-15T10:53:51Z</time>
      </trkpt>
      <trkpt lat="48.54468" lon="2.09529">
        <ele>121</ele>
        <time>2022-01-15T10:53:49Z</time>
      </trkpt>
      <trkpt lat="48.5447" lon="2.09532">
        <ele>122</ele>
        <time>2022-01-15T10:53:46Z</time>
      </trkpt>
      <trkpt lat="48.54472" lon="2.09536">
        <ele>122</ele>
        <time>2022-01-15T10:53:43Z</time>
      </trkpt>
      <trkpt lat="48.54475" lon="2.09538">
        <ele>123</ele>
        <time>2022-01-15T10:53:41Z</time>
      </trkpt>
      <trkpt lat="48.54477" lon="2.09541">
        <ele>123</ele>
        <time>2022-01-15T10:53:39Z</time>
      </trkpt>
      <trkpt lat="48.54479" lon="2.09544">
        <ele>124</ele>
        <time>2022-01-15T10:53:37Z</time>
      </trkpt>
      <trkpt lat="48.54482" lon="2.09548">
        <ele>124</ele>
        <time>2022-01-15T10:53:34Z</time>
      </trkpt>
      <trkpt lat="48.54485" lon="2.0955">
        <ele>125</ele>
        <time>2022-01-15T10:53:31Z</time>
      </trkpt>
      <trkpt lat="48.54487" lon="2.09552">
        <ele>126</ele>
        <time>2022-01-15T10:53:29Z</time>
      </trkpt>
      <trkpt lat="48.54491" lon="2.09554">
        <ele>126</ele>
        <time>2022-01-15T10:53:26Z</time>
      </trkpt>
      <trkpt lat="48.54493" lon="2.09556">
        <ele>127</ele>
        <time>2022-01-15T10:53:24Z</time>
      </trkpt>
      <trkpt lat="48.54496" lon="2.0956">
        <ele>127</ele>
        <time>2022-01-15T10:53:22Z</time>
      </trkpt>
      <trkpt lat="48.54498" lon="2.09563">
        <ele>128</ele>
        <time>2022-01-15T10:53:20Z</time>
      </trkpt>
      <trkpt lat="48.54501" lon="2.09565">
        <ele>128</ele>
        <time>2022-01-15T10:53:18Z</time>
      </trkpt>
      <trkpt lat="48.54503" lon="2.09567">
        <ele>128</ele>
        <time>2022-01-15T10:53:16Z</time>
      </trkpt>
      <trkpt lat="48.54506" lon="2.0957">
        <ele>129</ele>
        <time>2022-01-15T10:53:14Z</time>
      </trkpt>
      <trkpt lat="48.54509" lon="2.09569">
        <ele>129</ele>
        <time>2022-01-15T10:53:12Z</time>
      </trkpt>
      <trkpt lat="48.5451" lon="2.09566">
        <ele>129</ele>
        <time>2022-01-15T10:53:10Z</time>
      </trkpt>
      <trkpt lat="48.54509" lon="2.09561">
        <ele>129</ele>
        <time>2022-01-15T10:53:07Z</time>
      </trkpt>
      <trkpt lat="48.54508" lon="2.09556">
        <ele>129</ele>
        <time>2022-01-15T10:53:05Z</time>
      </trkpt>
      <trkpt lat="48.54506" lon="2.09552">
        <ele>130</ele>
        <time>2022-01-15T10:53:02Z</time>
      </trkpt>
      <trkpt lat="48.54505" lon="2.09547">
        <ele>130</ele>
        <time>2022-01-15T10:52:59Z</time>
      </trkpt>
      <trkpt lat="48.54502" lon="2.09544">
        <ele>130</ele>
        <time>2022-01-15T10:52:57Z</time>
      </trkpt>
      <trkpt lat="48.545" lon="2.09541">
        <ele>130</ele>
        <time>2022-01-15T10:52:54Z</time>
      </trkpt>
      <trkpt lat="48.54498" lon="2.09538">
        <ele>130</ele>
        <time>2022-01-15T10:52:50Z</time>
      </trkpt>
      <trkpt lat="48.54497" lon="2.09534">
        <ele>130</ele>
        <time>2022-01-15T10:52:44Z</time>
      </trkpt>
      <trkpt lat="48.54496" lon="2.0953">
        <ele>131</ele>
        <time>2022-01-15T10:52:41Z</time>
      </trkpt>
      <trkpt lat="48.54494" lon="2.09526">
        <ele>131</ele>
        <time>2022-01-15T10:52:38Z</time>
      </trkpt>
      <trkpt lat="48.54492" lon="2.09522">
        <ele>131</ele>
        <time>2022-01-15T10:52:35Z</time>
      </trkpt>
      <trkpt lat="48.5449" lon="2.09518">
        <ele>131</ele>
        <time>2022-01-15T10:52:33Z</time>
      </trkpt>
      <trkpt lat="48.54488" lon="2.09515">
        <ele>132</ele>
        <time>2022-01-15T10:52:31Z</time>
      </trkpt>
      <trkpt lat="48.54486" lon="2.09511">
        <ele>132</ele>
        <time>2022-01-15T10:52:29Z</time>
      </trkpt>
      <trkpt lat="48.54484" lon="2.09506">
        <ele>132</ele>
        <time>2022-01-15T10:52:26Z</time>
      </trkpt>
      <trkpt lat="48.54482" lon="2.09502">
        <ele>132</ele>
        <time>2022-01-15T10:52:23Z</time>
      </trkpt>
      <trkpt lat="48.5448" lon="2.09497">
        <ele>133</ele>
        <time>2022-01-15T10:52:20Z</time>
      </trkpt>
      <trkpt lat="48.54478" lon="2.09494">
        <ele>133</ele>
        <time>2022-01-15T10:52:18Z</time>
      </trkpt>
      <trkpt lat="48.54476" lon="2.09489">
        <ele>133</ele>
        <time>2022-01-15T10:52:16Z</time>
      </trkpt>
      <trkpt lat="48.54475" lon="2.09484">
        <ele>134</ele>
        <time>2022-01-15T10:52:13Z</time>
      </trkpt>
      <trkpt lat="48.54475" lon="2.0948">
        <ele>134</ele>
        <time>2022-01-15T10:52:11Z</time>
      </trkpt>
      <trkpt lat="48.54475" lon="2.09475">
        <ele>135</ele>
        <time>2022-01-15T10:52:09Z</time>
      </trkpt>
      <trkpt lat="48.54475" lon="2.09469">
        <ele>135</ele>
        <time>2022-01-15T10:52:06Z</time>
      </trkpt>
      <trkpt lat="48.54475" lon="2.09464">
        <ele>136</ele>
        <time>2022-01-15T10:52:02Z</time>
      </trkpt>
      <trkpt lat="48.54476" lon="2.09459">
        <ele>136</ele>
        <time>2022-01-15T10:52:00Z</time>
      </trkpt>
      <trkpt lat="48.54476" lon="2.09453">
        <ele>137</ele>
        <time>2022-01-15T10:51:56Z</time>
      </trkpt>
      <trkpt lat="48.54477" lon="2.09449">
        <ele>137</ele>
        <time>2022-01-15T10:51:54Z</time>
      </trkpt>
      <trkpt lat="48.54478" lon="2.09444">
        <ele>138</ele>
        <time>2022-01-15T10:51:51Z</time>
      </trkpt>
      <trkpt lat="48.5448" lon="2.09439">
        <ele>138</ele>
        <time>2022-01-15T10:51:49Z</time>
      </trkpt>
      <trkpt lat="48.54481" lon="2.09435">
        <ele>138</ele>
        <time>2022-01-15T10:51:46Z</time>
      </trkpt>
      <trkpt lat="48.54483" lon="2.0943">
        <ele>139</ele>
        <time>2022-01-15T10:51:43Z</time>
      </trkpt>
      <trkpt lat="48.54484" lon="2.09426">
        <ele>139</ele>
        <time>2022-01-15T10:51:41Z</time>
      </trkpt>
      <trkpt lat="48.54485" lon="2.09421">
        <ele>140</ele>
        <time>2022-01-15T10:51:39Z</time>
      </trkpt>
      <trkpt lat="48.54486" lon="2.09416">
        <ele>140</ele>
        <time>2022-01-15T10:51:36Z</time>
      </trkpt>
      <trkpt lat="48.54487" lon="2.09412">
        <ele>141</ele>
        <time>2022-01-15T10:51:34Z</time>
      </trkpt>
      <trkpt lat="48.54489" lon="2.09408">
        <ele>141</ele>
        <time>2022-01-15T10:51:31Z</time>
      </trkpt>
      <trkpt lat="48.5449" lon="2.09404">
        <ele>141</ele>
        <time>2022-01-15T10:51:28Z</time>
      </trkpt>
      <trkpt lat="48.54491" lon="2.09399">
        <ele>142</ele>
        <time>2022-01-15T10:51:25Z</time>
      </trkpt>
      <trkpt lat="48.54491" lon="2.09395">
        <ele>142</ele>
        <time>2022-01-15T10:51:23Z</time>
      </trkpt>
      <trkpt lat="48.54491" lon="2.0939">
        <ele>142</ele>
        <time>2022-01-15T10:51:20Z</time>
      </trkpt>
      <trkpt lat="48.54491" lon="2.09384">
        <ele>143</ele>
        <time>2022-01-15T10:51:17Z</time>
      </trkpt>
      <trkpt lat="48.54491" lon="2.09379">
        <ele>143</ele>
        <time>2022-01-15T10:51:15Z</time>
      </trkpt>
      <trkpt lat="48.5449" lon="2.09373">
        <ele>143</ele>
        <time>2022-01-15T10:51:12Z</time>
      </trkpt>
      <trkpt lat="48.54489" lon="2.09368">
        <ele>143</ele>
        <time>2022-01-15T10:51:10Z</time>
      </trkpt>
      <trkpt lat="48.54489" lon="2.09362">
        <ele>144</ele>
        <time>2022-01-15T10:51:06Z</time>
      </trkpt>
      <trkpt lat="48.54489" lon="2.09357">
        <ele>144</ele>
        <time>2022-01-15T10:51:04Z</time>
      </trkpt>
      <trkpt lat="48.54488" lon="2.09352">
        <ele>145</ele>
        <time>2022-01-15T10:51:02Z</time>
      </trkpt>
      <trkpt lat="48.54488" lon="2.09345">
        <ele>145</ele>
        <time>2022-01-15T10:50:59Z</time>
      </trkpt>
      <trkpt lat="48.54488" lon="2.09339">
        <ele>145</ele>
        <time>2022-01-15T10:50:55Z</time>
      </trkpt>
      <trkpt lat="48.54488" lon="2.09334">
        <ele>146</ele>
        <time>2022-01-15T10:50:52Z</time>
      </trkpt>
      <trkpt lat="48.54488" lon="2.09328">
        <ele>146</ele>
        <time>2022-01-15T10:50:50Z</time>
      </trkpt>
      <trkpt lat="48.54488" lon="2.09324">
        <ele>146</ele>
        <time>2022-01-15T10:50:48Z</time>
      </trkpt>
      <trkpt lat="48.54488" lon="2.09319">
        <ele>146</ele>
        <time>2022-01-15T10:50:46Z</time>
      </trkpt>
      <trkpt lat="48.54488" lon="2.09314">
        <ele>147</ele>
        <time>2022-01-15T10:50:44Z</time>
      </trkpt>
      <trkpt lat="48.54489" lon="2.0931">
        <ele>147</ele>
        <time>2022-01-15T10:50:42Z</time>
      </trkpt>
      <trkpt lat="48.5449" lon="2.09304">
        <ele>147</ele>
        <time>2022-01-15T10:50:39Z</time>
      </trkpt>
      <trkpt lat="48.5449" lon="2.09299">
        <ele>147</ele>
        <time>2022-01-15T10:50:37Z</time>
      </trkpt>
      <trkpt lat="48.54491" lon="2.09295">
        <ele>147</ele>
        <time>2022-01-15T10:50:34Z</time>
      </trkpt>
      <trkpt lat="48.54492" lon="2.09289">
        <ele>147</ele>
        <time>2022-01-15T10:50:32Z</time>
      </trkpt>
      <trkpt lat="48.54493" lon="2.09284">
        <ele>147</ele>
        <time>2022-01-15T10:50:30Z</time>
      </trkpt>
      <trkpt lat="48.54494" lon="2.09279">
        <ele>147</ele>
        <time>2022-01-15T10:50:27Z</time>
      </trkpt>
      <trkpt lat="48.54495" lon="2.09274">
        <ele>148</ele>
        <time>2022-01-15T10:50:24Z</time>
      </trkpt>
      <trkpt lat="48.54496" lon="2.09269">
        <ele>148</ele>
        <time>2022-01-15T10:50:21Z</time>
      </trkpt>
      <trkpt lat="48.54497" lon="2.09264">
        <ele>148</ele>
        <time>2022-01-15T10:50:19Z</time>
      </trkpt>
      <trkpt lat="48.54498" lon="2.09259">
        <ele>148</ele>
        <time>2022-01-15T10:50:16Z</time>
      </trkpt>
      <trkpt lat="48.54499" lon="2.09253">
        <ele>148</ele>
        <time>2022-01-15T10:50:14Z</time>
      </trkpt>
      <trkpt lat="48.545" lon="2.09248">
        <ele>148</ele>
        <time>2022-01-15T10:50:11Z</time>
      </trkpt>
      <trkpt lat="48.54501" lon="2.09243">
        <ele>148</ele>
        <time>2022-01-15T10:50:08Z</time>
      </trkpt>
      <trkpt lat="48.54502" lon="2.09238">
        <ele>148</ele>
        <time>2022-01-15T10:50:05Z</time>
      </trkpt>
      <trkpt lat="48.54504" lon="2.09233">
        <ele>148</ele>
        <time>2022-01-15T10:50:02Z</time>
      </trkpt>
      <trkpt lat="48.54506" lon="2.09228">
        <ele>148</ele>
        <time>2022-01-15T10:49:59Z</time>
      </trkpt>
      <trkpt lat="48.54508" lon="2.09224">
        <ele>148</ele>
        <time>2022-01-15T10:49:56Z</time>
      </trkpt>
      <trkpt lat="48.54511" lon="2.0922">
        <ele>148</ele>
        <time>2022-01-15T10:49:53Z</time>
      </trkpt>
      <trkpt lat="48.54514" lon="2.09216">
        <ele>148</ele>
        <time>2022-01-15T10:49:50Z</time>
      </trkpt>
      <trkpt lat="48.54516" lon="2.09213">
        <ele>148</ele>
        <time>2022-01-15T10:49:47Z</time>
      </trkpt>
      <trkpt lat="48.54519" lon="2.0921">
        <ele>148</ele>
        <time>2022-01-15T10:49:44Z</time>
      </trkpt>
      <trkpt lat="48.54521" lon="2.09207">
        <ele>148</ele>
        <time>2022-01-15T10:49:41Z</time>
      </trkpt>
      <trkpt lat="48.54524" lon="2.09203">
        <ele>148</ele>
        <time>2022-01-15T10:49:37Z</time>
      </trkpt>
      <trkpt lat="48.54527" lon="2.09198">
        <ele>147</ele>
        <time>2022-01-15T10:49:34Z</time>
      </trkpt>
      <trkpt lat="48.54529" lon="2.09194">
        <ele>147</ele>
        <time>2022-01-15T10:49:31Z</time>
      </trkpt>
      <trkpt lat="48.54532" lon="2.0919">
        <ele>147</ele>
        <time>2022-01-15T10:49:28Z</time>
      </trkpt>
      <trkpt lat="48.54534" lon="2.09187">
        <ele>147</ele>
        <time>2022-01-15T10:49:26Z</time>
      </trkpt>
      <trkpt lat="48.54535" lon="2.09183">
        <ele>147</ele>
        <time>2022-01-15T10:49:24Z</time>
      </trkpt>
      <trkpt lat="48.54538" lon="2.09179">
        <ele>147</ele>
        <time>2022-01-15T10:49:22Z</time>
      </trkpt>
      <trkpt lat="48.5454" lon="2.09176">
        <ele>147</ele>
        <time>2022-01-15T10:49:19Z</time>
      </trkpt>
      <trkpt lat="48.54542" lon="2.09171">
        <ele>147</ele>
        <time>2022-01-15T10:49:17Z</time>
      </trkpt>
      <trkpt lat="48.54543" lon="2.09168">
        <ele>147</ele>
        <time>2022-01-15T10:49:15Z</time>
      </trkpt>
      <trkpt lat="48.54545" lon="2.09164">
        <ele>147</ele>
        <time>2022-01-15T10:49:13Z</time>
      </trkpt>
      <trkpt lat="48.54547" lon="2.09159">
        <ele>147</ele>
        <time>2022-01-15T10:49:10Z</time>
      </trkpt>
      <trkpt lat="48.54549" lon="2.09155">
        <ele>147</ele>
        <time>2022-01-15T10:49:08Z</time>
      </trkpt>
      <trkpt lat="48.54551" lon="2.0915">
        <ele>147</ele>
        <time>2022-01-15T10:49:05Z</time>
      </trkpt>
      <trkpt lat="48.54552" lon="2.09145">
        <ele>147</ele>
        <time>2022-01-15T10:49:03Z</time>
      </trkpt>
      <trkpt lat="48.54553" lon="2.09141">
        <ele>147</ele>
        <time>2022-01-15T10:49:01Z</time>
      </trkpt>
      <trkpt lat="48.54554" lon="2.09136">
        <ele>147</ele>
        <time>2022-01-15T10:48:59Z</time>
      </trkpt>
      <trkpt lat="48.54555" lon="2.09131">
        <ele>148</ele>
        <time>2022-01-15T10:48:57Z</time>
      </trkpt>
      <trkpt lat="48.54556" lon="2.09126">
        <ele>148</ele>
        <time>2022-01-15T10:48:53Z</time>
      </trkpt>
      <trkpt lat="48.54557" lon="2.09122">
        <ele>148</ele>
        <time>2022-01-15T10:48:51Z</time>
      </trkpt>
      <trkpt lat="48.54558" lon="2.09118">
        <ele>148</ele>
        <time>2022-01-15T10:48:49Z</time>
      </trkpt>
      <trkpt lat="48.5456" lon="2.09114">
        <ele>148</ele>
        <time>2022-01-15T10:48:47Z</time>
      </trkpt>
      <trkpt lat="48.54561" lon="2.09109">
        <ele>148</ele>
        <time>2022-01-15T10:48:45Z</time>
      </trkpt>
      <trkpt lat="48.54562" lon="2.09105">
        <ele>148</ele>
        <time>2022-01-15T10:48:43Z</time>
      </trkpt>
      <trkpt lat="48.54564" lon="2.091">
        <ele>148</ele>
        <time>2022-01-15T10:48:41Z</time>
      </trkpt>
      <trkpt lat="48.54565" lon="2.09096">
        <ele>148</ele>
        <time>2022-01-15T10:48:38Z</time>
      </trkpt>
      <trkpt lat="48.54566" lon="2.09092">
        <ele>148</ele>
        <time>2022-01-15T10:48:35Z</time>
      </trkpt>
      <trkpt lat="48.54567" lon="2.09087">
        <ele>148</ele>
        <time>2022-01-15T10:48:33Z</time>
      </trkpt>
      <trkpt lat="48.54568" lon="2.09082">
        <ele>148</ele>
        <time>2022-01-15T10:48:31Z</time>
      </trkpt>
      <trkpt lat="48.5457" lon="2.09077">
        <ele>149</ele>
        <time>2022-01-15T10:48:29Z</time>
      </trkpt>
      <trkpt lat="48.54572" lon="2.09073">
        <ele>149</ele>
        <time>2022-01-15T10:48:26Z</time>
      </trkpt>
      <trkpt lat="48.54573" lon="2.09069">
        <ele>149</ele>
        <time>2022-01-15T10:48:24Z</time>
      </trkpt>
      <trkpt lat="48.54575" lon="2.09064">
        <ele>149</ele>
        <time>2022-01-15T10:48:21Z</time>
      </trkpt>
      <trkpt lat="48.54576" lon="2.0906">
        <ele>149</ele>
        <time>2022-01-15T10:48:19Z</time>
      </trkpt>
      <trkpt lat="48.54577" lon="2.09056">
        <ele>149</ele>
        <time>2022-01-15T10:48:17Z</time>
      </trkpt>
      <trkpt lat="48.54579" lon="2.09052">
        <ele>149</ele>
        <time>2022-01-15T10:48:14Z</time>
      </trkpt>
      <trkpt lat="48.54581" lon="2.09047">
        <ele>149</ele>
        <time>2022-01-15T10:48:12Z</time>
      </trkpt>
      <trkpt lat="48.54582" lon="2.09042">
        <ele>149</ele>
        <time>2022-01-15T10:48:10Z</time>
      </trkpt>
      <trkpt lat="48.54584" lon="2.09038">
        <ele>149</ele>
        <time>2022-01-15T10:48:08Z</time>
      </trkpt>
      <trkpt lat="48.54586" lon="2.09033">
        <ele>149</ele>
        <time>2022-01-15T10:48:06Z</time>
      </trkpt>
      <trkpt lat="48.54587" lon="2.09028">
        <ele>149</ele>
        <time>2022-01-15T10:48:04Z</time>
      </trkpt>
      <trkpt lat="48.54589" lon="2.09022">
        <ele>150</ele>
        <time>2022-01-15T10:48:02Z</time>
      </trkpt>
      <trkpt lat="48.54591" lon="2.09016">
        <ele>150</ele>
        <time>2022-01-15T10:47:59Z</time>
      </trkpt>
      <trkpt lat="48.54591" lon="2.09011">
        <ele>150</ele>
        <time>2022-01-15T10:47:56Z</time>
      </trkpt>
      <trkpt lat="48.54593" lon="2.09006">
        <ele>150</ele>
        <time>2022-01-15T10:47:53Z</time>
      </trkpt>
      <trkpt lat="48.54594" lon="2.09001">
        <ele>150</ele>
        <time>2022-01-15T10:47:51Z</time>
      </trkpt>
      <trkpt lat="48.54595" lon="2.08996">
        <ele>150</ele>
        <time>2022-01-15T10:47:49Z</time>
      </trkpt>
      <trkpt lat="48.54596" lon="2.08992">
        <ele>150</ele>
        <time>2022-01-15T10:47:47Z</time>
      </trkpt>
      <trkpt lat="48.54597" lon="2.08987">
        <ele>150</ele>
        <time>2022-01-15T10:47:44Z</time>
      </trkpt>
      <trkpt lat="48.54598" lon="2.08982">
        <ele>150</ele>
        <time>2022-01-15T10:47:42Z</time>
      </trkpt>
      <trkpt lat="48.54599" lon="2.08978">
        <ele>150</ele>
        <time>2022-01-15T10:47:40Z</time>
      </trkpt>
      <trkpt lat="48.54601" lon="2.08973">
        <ele>150</ele>
        <time>2022-01-15T10:47:38Z</time>
      </trkpt>
      <trkpt lat="48.54602" lon="2.08968">
        <ele>150</ele>
        <time>2022-01-15T10:47:35Z</time>
      </trkpt>
      <trkpt lat="48.54604" lon="2.08963">
        <ele>150</ele>
        <time>2022-01-15T10:47:33Z</time>
      </trkpt>
      <trkpt lat="48.54605" lon="2.08959">
        <ele>150</ele>
        <time>2022-01-15T10:47:31Z</time>
      </trkpt>
      <trkpt lat="48.54607" lon="2.08955">
        <ele>150</ele>
        <time>2022-01-15T10:47:29Z</time>
      </trkpt>
      <trkpt lat="48.54608" lon="2.08951">
        <ele>150</ele>
        <time>2022-01-15T10:47:27Z</time>
      </trkpt>
      <trkpt lat="48.54609" lon="2.08946">
        <ele>150</ele>
        <time>2022-01-15T10:47:25Z</time>
      </trkpt>
      <trkpt lat="48.5461" lon="2.08942">
        <ele>150</ele>
        <time>2022-01-15T10:47:23Z</time>
      </trkpt>
      <trkpt lat="48.54611" lon="2.08937">
        <ele>150</ele>
        <time>2022-01-15T10:47:21Z</time>
      </trkpt>
      <trkpt lat="48.54613" lon="2.08932">
        <ele>150</ele>
        <time>2022-01-15T10:47:18Z</time>
      </trkpt>
      <trkpt lat="48.54615" lon="2.08928">
        <ele>151</ele>
        <time>2022-01-15T10:47:15Z</time>
      </trkpt>
      <trkpt lat="48.54616" lon="2.08924">
        <ele>151</ele>
        <time>2022-01-15T10:47:12Z</time>
      </trkpt>
      <trkpt lat="48.54618" lon="2.08921">
        <ele>151</ele>
        <time>2022-01-15T10:47:10Z</time>
      </trkpt>
      <trkpt lat="48.5462" lon="2.08917">
        <ele>151</ele>
        <time>2022-01-15T10:47:07Z</time>
      </trkpt>
      <trkpt lat="48.54621" lon="2.08912">
        <ele>151</ele>
        <time>2022-01-15T10:47:05Z</time>
      </trkpt>
      <trkpt lat="48.54623" lon="2.08908">
        <ele>151</ele>
        <time>2022-01-15T10:47:03Z</time>
      </trkpt>
      <trkpt lat="48.54624" lon="2.08903">
        <ele>151</ele>
        <time>2022-01-15T10:47:00Z</time>
      </trkpt>
      <trkpt lat="48.54626" lon="2.08898">
        <ele>151</ele>
        <time>2022-01-15T10:46:57Z</time>
      </trkpt>
      <trkpt lat="48.54628" lon="2.08894">
        <ele>151</ele>
        <time>2022-01-15T10:46:55Z</time>
      </trkpt>
      <trkpt lat="48.54629" lon="2.08889">
        <ele>151</ele>
        <time>2022-01-15T10:46:52Z</time>
      </trkpt>
      <trkpt lat="48.54631" lon="2.08884">
        <ele>151</ele>
        <time>2022-01-15T10:46:48Z</time>
      </trkpt>
      <trkpt lat="48.54633" lon="2.08879">
        <ele>151</ele>
        <time>2022-01-15T10:46:46Z</time>
      </trkpt>
      <trkpt lat="48.54634" lon="2.08874">
        <ele>151</ele>
        <time>2022-01-15T10:46:43Z</time>
      </trkpt>
      <trkpt lat="48.54635" lon="2.08869">
        <ele>151</ele>
        <time>2022-01-15T10:46:41Z</time>
      </trkpt>
      <trkpt lat="48.54635" lon="2.08865">
        <ele>151</ele>
        <time>2022-01-15T10:46:38Z</time>
      </trkpt>
      <trkpt lat="48.54636" lon="2.0886">
        <ele>151</ele>
        <time>2022-01-15T10:46:35Z</time>
      </trkpt>
      <trkpt lat="48.54638" lon="2.08855">
        <ele>151</ele>
        <time>2022-01-15T10:46:33Z</time>
      </trkpt>
      <trkpt lat="48.54639" lon="2.08851">
        <ele>151</ele>
        <time>2022-01-15T10:46:31Z</time>
      </trkpt>
      <trkpt lat="48.5464" lon="2.08846">
        <ele>151</ele>
        <time>2022-01-15T10:46:29Z</time>
      </trkpt>
      <trkpt lat="48.54642" lon="2.08841">
        <ele>151</ele>
        <time>2022-01-15T10:46:27Z</time>
      </trkpt>
      <trkpt lat="48.54643" lon="2.08836">
        <ele>151</ele>
        <time>2022-01-15T10:46:25Z</time>
      </trkpt>
      <trkpt lat="48.54644" lon="2.08831">
        <ele>152</ele>
        <time>2022-01-15T10:46:22Z</time>
      </trkpt>
      <trkpt lat="48.54645" lon="2.08826">
        <ele>152</ele>
        <time>2022-01-15T10:46:20Z</time>
      </trkpt>
      <trkpt lat="48.54646" lon="2.08821">
        <ele>152</ele>
        <time>2022-01-15T10:46:17Z</time>
      </trkpt>
      <trkpt lat="48.54647" lon="2.08816">
        <ele>152</ele>
        <time>2022-01-15T10:46:15Z</time>
      </trkpt>
      <trkpt lat="48.54648" lon="2.0881">
        <ele>152</ele>
        <time>2022-01-15T10:46:12Z</time>
      </trkpt>
      <trkpt lat="48.5465" lon="2.08806">
        <ele>152</ele>
        <time>2022-01-15T10:46:10Z</time>
      </trkpt>
      <trkpt lat="48.54651" lon="2.08802">
        <ele>152</ele>
        <time>2022-01-15T10:46:08Z</time>
      </trkpt>
      <trkpt lat="48.54652" lon="2.08797">
        <ele>152</ele>
        <time>2022-01-15T10:46:06Z</time>
      </trkpt>
      <trkpt lat="48.54653" lon="2.08792">
        <ele>152</ele>
        <time>2022-01-15T10:46:04Z</time>
      </trkpt>
      <trkpt lat="48.54653" lon="2.08787">
        <ele>152</ele>
        <time>2022-01-15T10:46:01Z</time>
      </trkpt>
      <trkpt lat="48.54654" lon="2.08782">
        <ele>152</ele>
        <time>2022-01-15T10:45:59Z</time>
      </trkpt>
      <trkpt lat="48.54655" lon="2.08778">
        <ele>152</ele>
        <time>2022-01-15T10:45:57Z</time>
      </trkpt>
      <trkpt lat="48.54655" lon="2.08773">
        <ele>152</ele>
        <time>2022-01-15T10:45:55Z</time>
      </trkpt>
      <trkpt lat="48.54656" lon="2.08768">
        <ele>152</ele>
        <time>2022-01-15T10:45:52Z</time>
      </trkpt>
      <trkpt lat="48.54656" lon="2.08763">
        <ele>152</ele>
        <time>2022-01-15T10:45:50Z</time>
      </trkpt>
      <trkpt lat="48.54656" lon="2.08758">
        <ele>152</ele>
        <time>2022-01-15T10:45:48Z</time>
      </trkpt>
      <trkpt lat="48.54656" lon="2.08753">
        <ele>152</ele>
        <time>2022-01-15T10:45:46Z</time>
      </trkpt>
      <trkpt lat="48.54657" lon="2.08748">
        <ele>152</ele>
        <time>2022-01-15T10:45:44Z</time>
      </trkpt>
      <trkpt lat="48.54657" lon="2.08743">
        <ele>153</ele>
        <time>2022-01-15T10:45:41Z</time>
      </trkpt>
      <trkpt lat="48.54657" lon="2.08737">
        <ele>153</ele>
        <time>2022-01-15T10:45:38Z</time>
      </trkpt>
      <trkpt lat="48.54657" lon="2.08733">
        <ele>153</ele>
        <time>2022-01-15T10:45:35Z</time>
      </trkpt>
      <trkpt lat="48.54657" lon="2.08728">
        <ele>153</ele>
        <time>2022-01-15T10:45:33Z</time>
      </trkpt>
      <trkpt lat="48.54657" lon="2.08724">
        <ele>153</ele>
        <time>2022-01-15T10:45:31Z</time>
      </trkpt>
      <trkpt lat="48.54656" lon="2.08719">
        <ele>153</ele>
        <time>2022-01-15T10:45:29Z</time>
      </trkpt>
      <trkpt lat="48.54656" lon="2.08713">
        <ele>153</ele>
        <time>2022-01-15T10:45:26Z</time>
      </trkpt>
      <trkpt lat="48.54655" lon="2.08708">
        <ele>153</ele>
        <time>2022-01-15T10:45:24Z</time>
      </trkpt>
      <trkpt lat="48.54654" lon="2.08702">
        <ele>153</ele>
        <time>2022-01-15T10:45:21Z</time>
      </trkpt>
      <trkpt lat="48.54654" lon="2.08696">
        <ele>153</ele>
        <time>2022-01-15T10:45:18Z</time>
      </trkpt>
      <trkpt lat="48.54654" lon="2.08691">
        <ele>153</ele>
        <time>2022-01-15T10:45:16Z</time>
      </trkpt>
      <trkpt lat="48.54654" lon="2.08686">
        <ele>153</ele>
        <time>2022-01-15T10:45:14Z</time>
      </trkpt>
      <trkpt lat="48.54653" lon="2.08682">
        <ele>153</ele>
        <time>2022-01-15T10:45:12Z</time>
      </trkpt>
      <trkpt lat="48.54652" lon="2.08678">
        <ele>153</ele>
        <time>2022-01-15T10:45:10Z</time>
      </trkpt>
      <trkpt lat="48.54651" lon="2.08673">
        <ele>153</ele>
        <time>2022-01-15T10:45:07Z</time>
      </trkpt>
      <trkpt lat="48.54651" lon="2.08669">
        <ele>153</ele>
        <time>2022-01-15T10:45:05Z</time>
      </trkpt>
      <trkpt lat="48.5465" lon="2.08664">
        <ele>153</ele>
        <time>2022-01-15T10:45:03Z</time>
      </trkpt>
      <trkpt lat="48.54649" lon="2.0866">
        <ele>153</ele>
        <time>2022-01-15T10:45:01Z</time>
      </trkpt>
      <trkpt lat="48.54648" lon="2.08656">
        <ele>153</ele>
        <time>2022-01-15T10:44:59Z</time>
      </trkpt>
      <trkpt lat="48.54648" lon="2.08651">
        <ele>153</ele>
        <time>2022-01-15T10:44:57Z</time>
      </trkpt>
      <trkpt lat="48.54647" lon="2.08646">
        <ele>153</ele>
        <time>2022-01-15T10:44:55Z</time>
      </trkpt>
      <trkpt lat="48.54646" lon="2.08641">
        <ele>154</ele>
        <time>2022-01-15T10:44:52Z</time>
      </trkpt>
      <trkpt lat="48.54645" lon="2.08636">
        <ele>154</ele>
        <time>2022-01-15T10:44:50Z</time>
      </trkpt>
      <trkpt lat="48.54644" lon="2.08631">
        <ele>154</ele>
        <time>2022-01-15T10:44:47Z</time>
      </trkpt>
      <trkpt lat="48.54643" lon="2.08626">
        <ele>154</ele>
        <time>2022-01-15T10:44:45Z</time>
      </trkpt>
      <trkpt lat="48.54641" lon="2.08622">
        <ele>154</ele>
        <time>2022-01-15T10:44:42Z</time>
      </trkpt>
      <trkpt lat="48.54641" lon="2.08617">
        <ele>154</ele>
        <time>2022-01-15T10:44:40Z</time>
      </trkpt>
      <trkpt lat="48.54639" lon="2.08614">
        <ele>154</ele>
        <time>2022-01-15T10:44:38Z</time>
      </trkpt>
      <trkpt lat="48.54638" lon="2.08609">
        <ele>154</ele>
        <time>2022-01-15T10:44:34Z</time>
      </trkpt>
      <trkpt lat="48.54637" lon="2.08605">
        <ele>154</ele>
        <time>2022-01-15T10:44:32Z</time>
      </trkpt>
      <trkpt lat="48.54636" lon="2.08601">
        <ele>154</ele>
        <time>2022-01-15T10:44:30Z</time>
      </trkpt>
      <trkpt lat="48.54635" lon="2.08595">
        <ele>154</ele>
        <time>2022-01-15T10:44:27Z</time>
      </trkpt>
      <trkpt lat="48.54634" lon="2.0859">
        <ele>154</ele>
        <time>2022-01-15T10:44:24Z</time>
      </trkpt>
      <trkpt lat="48.54632" lon="2.08585">
        <ele>154</ele>
        <time>2022-01-15T10:44:22Z</time>
      </trkpt>
      <trkpt lat="48.54631" lon="2.08581">
        <ele>154</ele>
        <time>2022-01-15T10:44:20Z</time>
      </trkpt>
      <trkpt lat="48.5463" lon="2.08577">
        <ele>154</ele>
        <time>2022-01-15T10:44:18Z</time>
      </trkpt>
      <trkpt lat="48.54629" lon="2.08572">
        <ele>154</ele>
        <time>2022-01-15T10:44:16Z</time>
      </trkpt>
      <trkpt lat="48.54627" lon="2.08568">
        <ele>154</ele>
        <time>2022-01-15T10:44:14Z</time>
      </trkpt>
      <trkpt lat="48.54626" lon="2.08564">
        <ele>154</ele>
        <time>2022-01-15T10:44:12Z</time>
      </trkpt>
      <trkpt lat="48.54625" lon="2.0856">
        <ele>154</ele>
        <time>2022-01-15T10:44:10Z</time>
      </trkpt>
      <trkpt lat="48.54625" lon="2.08555">
        <ele>154</ele>
        <time>2022-01-15T10:44:07Z</time>
      </trkpt>
      <trkpt lat="48.54623" lon="2.08551">
        <ele>154</ele>
        <time>2022-01-15T10:44:05Z</time>
      </trkpt>
      <trkpt lat="48.54622" lon="2.08547">
        <ele>154</ele>
        <time>2022-01-15T10:44:03Z</time>
      </trkpt>
      <trkpt lat="48.54622" lon="2.08543">
        <ele>154</ele>
        <time>2022-01-15T10:44:01Z</time>
      </trkpt>
      <trkpt lat="48.54621" lon="2.08539">
        <ele>154</ele>
        <time>2022-01-15T10:43:59Z</time>
      </trkpt>
      <trkpt lat="48.5462" lon="2.08535">
        <ele>154</ele>
        <time>2022-01-15T10:43:57Z</time>
      </trkpt>
      <trkpt lat="48.54618" lon="2.08531">
        <ele>154</ele>
        <time>2022-01-15T10:43:55Z</time>
      </trkpt>
      <trkpt lat="48.54617" lon="2.08526">
        <ele>154</ele>
        <time>2022-01-15T10:43:52Z</time>
      </trkpt>
      <trkpt lat="48.54615" lon="2.08522">
        <ele>154</ele>
        <time>2022-01-15T10:43:50Z</time>
      </trkpt>
      <trkpt lat="48.54614" lon="2.08518">
        <ele>154</ele>
        <time>2022-01-15T10:43:48Z</time>
      </trkpt>
      <trkpt lat="48.54613" lon="2.08514">
        <ele>154</ele>
        <time>2022-01-15T10:43:46Z</time>
      </trkpt>
      <trkpt lat="48.54611" lon="2.08509">
        <ele>154</ele>
        <time>2022-01-15T10:43:44Z</time>
      </trkpt>
      <trkpt lat="48.5461" lon="2.08504">
        <ele>154</ele>
        <time>2022-01-15T10:43:41Z</time>
      </trkpt>
      <trkpt lat="48.54609" lon="2.085">
        <ele>154</ele>
        <time>2022-01-15T10:43:39Z</time>
      </trkpt>
      <trkpt lat="48.54607" lon="2.08495">
        <ele>154</ele>
        <time>2022-01-15T10:43:36Z</time>
      </trkpt>
      <trkpt lat="48.54605" lon="2.0849">
        <ele>155</ele>
        <time>2022-01-15T10:43:33Z</time>
      </trkpt>
      <trkpt lat="48.54603" lon="2.08486">
        <ele>155</ele>
        <time>2022-01-15T10:43:30Z</time>
      </trkpt>
      <trkpt lat="48.54601" lon="2.08482">
        <ele>155</ele>
        <time>2022-01-15T10:43:28Z</time>
      </trkpt>
      <trkpt lat="48.546" lon="2.08479">
        <ele>155</ele>
        <time>2022-01-15T10:43:26Z</time>
      </trkpt>
      <trkpt lat="48.54598" lon="2.08475">
        <ele>155</ele>
        <time>2022-01-15T10:43:24Z</time>
      </trkpt>
      <trkpt lat="48.54596" lon="2.08472">
        <ele>155</ele>
        <time>2022-01-15T10:43:22Z</time>
      </trkpt>
      <trkpt lat="48.54595" lon="2.08469">
        <ele>155</ele>
        <time>2022-01-15T10:43:19Z</time>
      </trkpt>
      <trkpt lat="48.54593" lon="2.08467">
        <ele>155</ele>
        <time>2022-01-15T10:42:50Z</time>
      </trkpt>
      <trkpt lat="48.54593" lon="2.0847">
        <ele>155</ele>
        <time>2022-01-15T10:42:34Z</time>
      </trkpt>
      <trkpt lat="48.54593" lon="2.08466">
        <ele>155</ele>
        <time>2022-01-15T10:42:23Z</time>
      </trkpt>
      <trkpt lat="48.54591" lon="2.08463">
        <ele>155</ele>
        <time>2022-01-15T10:42:20Z</time>
      </trkpt>
      <trkpt lat="48.54589" lon="2.0846">
        <ele>155</ele>
        <time>2022-01-15T10:42:17Z</time>
      </trkpt>
      <trkpt lat="48.54587" lon="2.08457">
        <ele>155</ele>
        <time>2022-01-15T10:42:14Z</time>
      </trkpt>
      <trkpt lat="48.54585" lon="2.08453">
        <ele>155</ele>
        <time>2022-01-15T10:42:11Z</time>
      </trkpt>
      <trkpt lat="48.54584" lon="2.08449">
        <ele>155</ele>
        <time>2022-01-15T10:42:05Z</time>
      </trkpt>
      <trkpt lat="48.54583" lon="2.08444">
        <ele>155</ele>
        <time>2022-01-15T10:41:59Z</time>
      </trkpt>
      <trkpt lat="48.54582" lon="2.0844">
        <ele>155</ele>
        <time>2022-01-15T10:41:55Z</time>
      </trkpt>
      <trkpt lat="48.5458" lon="2.08436">
        <ele>155</ele>
        <time>2022-01-15T10:41:52Z</time>
      </trkpt>
      <trkpt lat="48.54578" lon="2.08433">
        <ele>155</ele>
        <time>2022-01-15T10:41:49Z</time>
      </trkpt>
      <trkpt lat="48.54576" lon="2.08429">
        <ele>155</ele>
        <time>2022-01-15T10:41:46Z</time>
      </trkpt>
      <trkpt lat="48.54574" lon="2.08426">
        <ele>155</ele>
        <time>2022-01-15T10:41:43Z</time>
      </trkpt>
      <trkpt lat="48.54571" lon="2.08422">
        <ele>155</ele>
        <time>2022-01-15T10:41:40Z</time>
      </trkpt>
      <trkpt lat="48.54569" lon="2.08418">
        <ele>155</ele>
        <time>2022-01-15T10:41:37Z</time>
      </trkpt>
      <trkpt lat="48.54568" lon="2.08414">
        <ele>155</ele>
        <time>2022-01-15T10:41:34Z</time>
      </trkpt>
      <trkpt lat="48.54567" lon="2.0841">
        <ele>155</ele>
        <time>2022-01-15T10:41:27Z</time>
      </trkpt>
      <trkpt lat="48.54566" lon="2.08406">
        <ele>155</ele>
        <time>2022-01-15T10:41:23Z</time>
      </trkpt>
      <trkpt lat="48.54564" lon="2.08403">
        <ele>155</ele>
        <time>2022-01-15T10:41:21Z</time>
      </trkpt>
      <trkpt lat="48.54562" lon="2.08399">
        <ele>155</ele>
        <time>2022-01-15T10:41:19Z</time>
      </trkpt>
      <trkpt lat="48.5456" lon="2.08394">
        <ele>155</ele>
        <time>2022-01-15T10:41:16Z</time>
      </trkpt>
      <trkpt lat="48.54558" lon="2.0839">
        <ele>155</ele>
        <time>2022-01-15T10:41:14Z</time>
      </trkpt>
      <trkpt lat="48.54556" lon="2.08387">
        <ele>155</ele>
        <time>2022-01-15T10:41:12Z</time>
      </trkpt>
      <trkpt lat="48.54555" lon="2.08383">
        <ele>155</ele>
        <time>2022-01-15T10:41:10Z</time>
      </trkpt>
      <trkpt lat="48.54553" lon="2.08379">
        <ele>156</ele>
        <time>2022-01-15T10:41:08Z</time>
      </trkpt>
      <trkpt lat="48.54552" lon="2.08374">
        <ele>156</ele>
        <time>2022-01-15T10:41:05Z</time>
      </trkpt>
      <trkpt lat="48.5455" lon="2.0837">
        <ele>156</ele>
        <time>2022-01-15T10:41:02Z</time>
      </trkpt>
      <trkpt lat="48.54548" lon="2.08365">
        <ele>156</ele>
        <time>2022-01-15T10:41:00Z</time>
      </trkpt>
      <trkpt lat="48.54546" lon="2.0836">
        <ele>156</ele>
        <time>2022-01-15T10:40:57Z</time>
      </trkpt>
      <trkpt lat="48.54544" lon="2.08356">
        <ele>156</ele>
        <time>2022-01-15T10:40:54Z</time>
      </trkpt>
      <trkpt lat="48.54543" lon="2.08351">
        <ele>156</ele>
        <time>2022-01-15T10:40:52Z</time>
      </trkpt>
      <trkpt lat="48.54542" lon="2.08347">
        <ele>156</ele>
        <time>2022-01-15T10:40:50Z</time>
      </trkpt>
      <trkpt lat="48.54541" lon="2.08341">
        <ele>156</ele>
        <time>2022-01-15T10:40:47Z</time>
      </trkpt>
      <trkpt lat="48.5454" lon="2.08336">
        <ele>156</ele>
        <time>2022-01-15T10:40:44Z</time>
      </trkpt>
      <trkpt lat="48.54539" lon="2.08331">
        <ele>156</ele>
        <time>2022-01-15T10:40:41Z</time>
      </trkpt>
      <trkpt lat="48.54537" lon="2.08327">
        <ele>156</ele>
        <time>2022-01-15T10:40:39Z</time>
      </trkpt>
      <trkpt lat="48.54535" lon="2.08324">
        <ele>156</ele>
        <time>2022-01-15T10:40:37Z</time>
      </trkpt>
      <trkpt lat="48.54533" lon="2.0832">
        <ele>156</ele>
        <time>2022-01-15T10:40:35Z</time>
      </trkpt>
      <trkpt lat="48.54532" lon="2.08316">
        <ele>156</ele>
        <time>2022-01-15T10:40:33Z</time>
      </trkpt>
      <trkpt lat="48.5453" lon="2.08313">
        <ele>156</ele>
        <time>2022-01-15T10:40:31Z</time>
      </trkpt>
      <trkpt lat="48.54528" lon="2.08309">
        <ele>156</ele>
        <time>2022-01-15T10:40:29Z</time>
      </trkpt>
      <trkpt lat="48.54527" lon="2.08304">
        <ele>156</ele>
        <time>2022-01-15T10:40:27Z</time>
      </trkpt>
      <trkpt lat="48.54526" lon="2.083">
        <ele>156</ele>
        <time>2022-01-15T10:40:25Z</time>
      </trkpt>
      <trkpt lat="48.54525" lon="2.08296">
        <ele>156</ele>
        <time>2022-01-15T10:40:23Z</time>
      </trkpt>
      <trkpt lat="48.54524" lon="2.08292">
        <ele>156</ele>
        <time>2022-01-15T10:40:21Z</time>
      </trkpt>
      <trkpt lat="48.54523" lon="2.08287">
        <ele>156</ele>
        <time>2022-01-15T10:40:19Z</time>
      </trkpt>
      <trkpt lat="48.54522" lon="2.08283">
        <ele>156</ele>
        <time>2022-01-15T10:40:17Z</time>
      </trkpt>
      <trkpt lat="48.54522" lon="2.08279">
        <ele>156</ele>
        <time>2022-01-15T10:40:15Z</time>
      </trkpt>
      <trkpt lat="48.54522" lon="2.08275">
        <ele>156</ele>
        <time>2022-01-15T10:40:13Z</time>
      </trkpt>
      <trkpt lat="48.54522" lon="2.0827">
        <ele>157</ele>
        <time>2022-01-15T10:40:11Z</time>
      </trkpt>
      <trkpt lat="48.54521" lon="2.08266">
        <ele>157</ele>
        <time>2022-01-15T10:40:09Z</time>
      </trkpt>
      <trkpt lat="48.54519" lon="2.08262">
        <ele>157</ele>
        <time>2022-01-15T10:40:07Z</time>
      </trkpt>
      <trkpt lat="48.54519" lon="2.08258">
        <ele>157</ele>
        <time>2022-01-15T10:40:05Z</time>
      </trkpt>
      <trkpt lat="48.54518" lon="2.08254">
        <ele>157</ele>
        <time>2022-01-15T10:40:03Z</time>
      </trkpt>
      <trkpt lat="48.54517" lon="2.0825">
        <ele>157</ele>
        <time>2022-01-15T10:40:01Z</time>
      </trkpt>
      <trkpt lat="48.54517" lon="2.08246">
        <ele>157</ele>
        <time>2022-01-15T10:39:59Z</time>
      </trkpt>
      <trkpt lat="48.54516" lon="2.08241">
        <ele>157</ele>
        <time>2022-01-15T10:39:57Z</time>
      </trkpt>
      <trkpt lat="48.54515" lon="2.08237">
        <ele>157</ele>
        <time>2022-01-15T10:39:55Z</time>
      </trkpt>
      <trkpt lat="48.54514" lon="2.08233">
        <ele>157</ele>
        <time>2022-01-15T10:39:53Z</time>
      </trkpt>
      <trkpt lat="48.54513" lon="2.08229">
        <ele>157</ele>
        <time>2022-01-15T10:39:51Z</time>
      </trkpt>
      <trkpt lat="48.54512" lon="2.08225">
        <ele>157</ele>
        <time>2022-01-15T10:39:49Z</time>
      </trkpt>
      <trkpt lat="48.54511" lon="2.08221">
        <ele>157</ele>
        <time>2022-01-15T10:39:47Z</time>
      </trkpt>
      <trkpt lat="48.5451" lon="2.08217">
        <ele>157</ele>
        <time>2022-01-15T10:39:45Z</time>
      </trkpt>
      <trkpt lat="48.54509" lon="2.08212">
        <ele>157</ele>
        <time>2022-01-15T10:39:42Z</time>
      </trkpt>
      <trkpt lat="48.54508" lon="2.08207">
        <ele>157</ele>
        <time>2022-01-15T10:39:40Z</time>
      </trkpt>
      <trkpt lat="48.54507" lon="2.08203">
        <ele>157</ele>
        <time>2022-01-15T10:39:37Z</time>
      </trkpt>
      <trkpt lat="48.54506" lon="2.08198">
        <ele>157</ele>
        <time>2022-01-15T10:39:35Z</time>
      </trkpt>
      <trkpt lat="48.54505" lon="2.08193">
        <ele>157</ele>
        <time>2022-01-15T10:39:32Z</time>
      </trkpt>
      <trkpt lat="48.54504" lon="2.08188">
        <ele>158</ele>
        <time>2022-01-15T10:39:30Z</time>
      </trkpt>
      <trkpt lat="48.54504" lon="2.08184">
        <ele>158</ele>
        <time>2022-01-15T10:39:28Z</time>
      </trkpt>
      <trkpt lat="48.54503" lon="2.08179">
        <ele>158</ele>
        <time>2022-01-15T10:39:26Z</time>
      </trkpt>
      <trkpt lat="48.54502" lon="2.08175">
        <ele>158</ele>
        <time>2022-01-15T10:39:24Z</time>
      </trkpt>
      <trkpt lat="48.545" lon="2.08169">
        <ele>158</ele>
        <time>2022-01-15T10:39:21Z</time>
      </trkpt>
      <trkpt lat="48.54499" lon="2.08164">
        <ele>158</ele>
        <time>2022-01-15T10:39:18Z</time>
      </trkpt>
      <trkpt lat="48.54498" lon="2.08159">
        <ele>158</ele>
        <time>2022-01-15T10:39:15Z</time>
      </trkpt>
      <trkpt lat="48.54497" lon="2.08155">
        <ele>158</ele>
        <time>2022-01-15T10:39:12Z</time>
      </trkpt>
      <trkpt lat="48.54496" lon="2.08152">
        <ele>158</ele>
        <time>2022-01-15T10:39:00Z</time>
      </trkpt>
      <trkpt lat="48.54497" lon="2.08149">
        <ele>158</ele>
        <time>2022-01-15T10:38:29Z</time>
      </trkpt>
      <trkpt lat="48.545" lon="2.08147">
        <ele>158</ele>
        <time>2022-01-15T10:37:54Z</time>
      </trkpt>
      <trkpt lat="48.54503" lon="2.08146">
        <ele>158</ele>
        <time>2022-01-15T10:37:50Z</time>
      </trkpt>
      <trkpt lat="48.54506" lon="2.08147">
        <ele>158</ele>
        <time>2022-01-15T10:37:47Z</time>
      </trkpt>
      <trkpt lat="48.54509" lon="2.08147">
        <ele>158</ele>
        <time>2022-01-15T10:37:44Z</time>
      </trkpt>
      <trkpt lat="48.54513" lon="2.08147">
        <ele>158</ele>
        <time>2022-01-15T10:37:41Z</time>
      </trkpt>
      <trkpt lat="48.54516" lon="2.08147">
        <ele>158</ele>
        <time>2022-01-15T10:37:38Z</time>
      </trkpt>
      <trkpt lat="48.5452" lon="2.08147">
        <ele>158</ele>
        <time>2022-01-15T10:37:35Z</time>
      </trkpt>
      <trkpt lat="48.54523" lon="2.08147">
        <ele>158</ele>
        <time>2022-01-15T10:37:32Z</time>
      </trkpt>
      <trkpt lat="48.54527" lon="2.08147">
        <ele>158</ele>
        <time>2022-01-15T10:37:29Z</time>
      </trkpt>
      <trkpt lat="48.54531" lon="2.08147">
        <ele>158</ele>
        <time>2022-01-15T10:37:26Z</time>
      </trkpt>
      <trkpt lat="48.54534" lon="2.08147">
        <ele>157</ele>
        <time>2022-01-15T10:37:24Z</time>
      </trkpt>
      <trkpt lat="48.54537" lon="2.08147">
        <ele>157</ele>
        <time>2022-01-15T10:37:22Z</time>
      </trkpt>
      <trkpt lat="48.54541" lon="2.08147">
        <ele>157</ele>
        <time>2022-01-15T10:37:19Z</time>
      </trkpt>
      <trkpt lat="48.54545" lon="2.08147">
        <ele>157</ele>
        <time>2022-01-15T10:37:16Z</time>
      </trkpt>
      <trkpt lat="48.54549" lon="2.08146">
        <ele>157</ele>
        <time>2022-01-15T10:37:13Z</time>
      </trkpt>
      <trkpt lat="48.54552" lon="2.08146">
        <ele>157</ele>
        <time>2022-01-15T10:37:10Z</time>
      </trkpt>
      <trkpt lat="48.54556" lon="2.08146">
        <ele>157</ele>
        <time>2022-01-15T10:37:07Z</time>
      </trkpt>
      <trkpt lat="48.54559" lon="2.08146">
        <ele>157</ele>
        <time>2022-01-15T10:37:05Z</time>
      </trkpt>
      <trkpt lat="48.54562" lon="2.08145">
        <ele>157</ele>
        <time>2022-01-15T10:37:03Z</time>
      </trkpt>
      <trkpt lat="48.54565" lon="2.08145">
        <ele>157</ele>
        <time>2022-01-15T10:37:01Z</time>
      </trkpt>
      <trkpt lat="48.54569" lon="2.08146">
        <ele>157</ele>
        <time>2022-01-15T10:36:58Z</time>
      </trkpt>
      <trkpt lat="48.54572" lon="2.08146">
        <ele>157</ele>
        <time>2022-01-15T10:36:56Z</time>
      </trkpt>
      <trkpt lat="48.54575" lon="2.08146">
        <ele>157</ele>
        <time>2022-01-15T10:36:53Z</time>
      </trkpt>
      <trkpt lat="48.54578" lon="2.08145">
        <ele>157</ele>
        <time>2022-01-15T10:36:51Z</time>
      </trkpt>
      <trkpt lat="48.54582" lon="2.08145">
        <ele>157</ele>
        <time>2022-01-15T10:36:49Z</time>
      </trkpt>
      <trkpt lat="48.54586" lon="2.08145">
        <ele>157</ele>
        <time>2022-01-15T10:36:46Z</time>
      </trkpt>
      <trkpt lat="48.54589" lon="2.08145">
        <ele>157</ele>
        <time>2022-01-15T10:36:43Z</time>
      </trkpt>
      <trkpt lat="48.54592" lon="2.08144">
        <ele>157</ele>
        <time>2022-01-15T10:36:41Z</time>
      </trkpt>
      <trkpt lat="48.54595" lon="2.08144">
        <ele>157</ele>
        <time>2022-01-15T10:36:39Z</time>
      </trkpt>
      <trkpt lat="48.54598" lon="2.08144">
        <ele>157</ele>
        <time>2022-01-15T10:36:37Z</time>
      </trkpt>
      <trkpt lat="48.54601" lon="2.08144">
        <ele>157</ele>
        <time>2022-01-15T10:36:34Z</time>
      </trkpt>
      <trkpt lat="48.54605" lon="2.08143">
        <ele>157</ele>
        <time>2022-01-15T10:36:32Z</time>
      </trkpt>
      <trkpt lat="48.54608" lon="2.08143">
        <ele>157</ele>
        <time>2022-01-15T10:36:29Z</time>
      </trkpt>
      <trkpt lat="48.54611" lon="2.08143">
        <ele>157</ele>
        <time>2022-01-15T10:36:27Z</time>
      </trkpt>
      <trkpt lat="48.54614" lon="2.08143">
        <ele>157</ele>
        <time>2022-01-15T10:36:25Z</time>
      </trkpt>
      <trkpt lat="48.54617" lon="2.08143">
        <ele>157</ele>
        <time>2022-01-15T10:36:23Z</time>
      </trkpt>
      <trkpt lat="48.5462" lon="2.08142">
        <ele>157</ele>
        <time>2022-01-15T10:36:21Z</time>
      </trkpt>
      <trkpt lat="48.54623" lon="2.08142">
        <ele>157</ele>
        <time>2022-01-15T10:36:19Z</time>
      </trkpt>
      <trkpt lat="48.54626" lon="2.08142">
        <ele>157</ele>
        <time>2022-01-15T10:36:17Z</time>
      </trkpt>
      <trkpt lat="48.54628" lon="2.08143">
        <ele>157</ele>
        <time>2022-01-15T10:36:15Z</time>
      </trkpt>
      <trkpt lat="48.54631" lon="2.08143">
        <ele>156</ele>
        <time>2022-01-15T10:36:13Z</time>
      </trkpt>
      <trkpt lat="48.54634" lon="2.08143">
        <ele>156</ele>
        <time>2022-01-15T10:36:11Z</time>
      </trkpt>
      <trkpt lat="48.54637" lon="2.08143">
        <ele>156</ele>
        <time>2022-01-15T10:36:09Z</time>
      </trkpt>
      <trkpt lat="48.5464" lon="2.08142">
        <ele>156</ele>
        <time>2022-01-15T10:36:07Z</time>
      </trkpt>
      <trkpt lat="48.54643" lon="2.08142">
        <ele>156</ele>
        <time>2022-01-15T10:36:05Z</time>
      </trkpt>
      <trkpt lat="48.54645" lon="2.08142">
        <ele>156</ele>
        <time>2022-01-15T10:36:03Z</time>
      </trkpt>
      <trkpt lat="48.54648" lon="2.08142">
        <ele>156</ele>
        <time>2022-01-15T10:36:01Z</time>
      </trkpt>
      <trkpt lat="48.54651" lon="2.08142">
        <ele>156</ele>
        <time>2022-01-15T10:35:59Z</time>
      </trkpt>
      <trkpt lat="48.54654" lon="2.08142">
        <ele>156</ele>
        <time>2022-01-15T10:35:57Z</time>
      </trkpt>
      <trkpt lat="48.54658" lon="2.08142">
        <ele>156</ele>
        <time>2022-01-15T10:35:54Z</time>
      </trkpt>
      <trkpt lat="48.54661" lon="2.08142">
        <ele>156</ele>
        <time>2022-01-15T10:35:52Z</time>
      </trkpt>
      <trkpt lat="48.54664" lon="2.08141">
        <ele>155</ele>
        <time>2022-01-15T10:35:50Z</time>
      </trkpt>
      <trkpt lat="48.54666" lon="2.08141">
        <ele>155</ele>
        <time>2022-01-15T10:35:48Z</time>
      </trkpt>
      <trkpt lat="48.54669" lon="2.08141">
        <ele>155</ele>
        <time>2022-01-15T10:35:46Z</time>
      </trkpt>
      <trkpt lat="48.54672" lon="2.08141">
        <ele>155</ele>
        <time>2022-01-15T10:35:44Z</time>
      </trkpt>
      <trkpt lat="48.54675" lon="2.08141">
        <ele>155</ele>
        <time>2022-01-15T10:35:42Z</time>
      </trkpt>
      <trkpt lat="48.54678" lon="2.08141">
        <ele>155</ele>
        <time>2022-01-15T10:35:40Z</time>
      </trkpt>
      <trkpt lat="48.54681" lon="2.08141">
        <ele>155</ele>
        <time>2022-01-15T10:35:38Z</time>
      </trkpt>
      <trkpt lat="48.54684" lon="2.08141">
        <ele>155</ele>
        <time>2022-01-15T10:35:36Z</time>
      </trkpt>
      <trkpt lat="48.54687" lon="2.0814">
        <ele>155</ele>
        <time>2022-01-15T10:35:34Z</time>
      </trkpt>
      <trkpt lat="48.5469" lon="2.0814">
        <ele>155</ele>
        <time>2022-01-15T10:35:32Z</time>
      </trkpt>
      <trkpt lat="48.54692" lon="2.0814">
        <ele>155</ele>
        <time>2022-01-15T10:35:30Z</time>
      </trkpt>
      <trkpt lat="48.54695" lon="2.0814">
        <ele>155</ele>
        <time>2022-01-15T10:35:28Z</time>
      </trkpt>
      <trkpt lat="48.54698" lon="2.08139">
        <ele>155</ele>
        <time>2022-01-15T10:35:26Z</time>
      </trkpt>
      <trkpt lat="48.54701" lon="2.08139">
        <ele>154</ele>
        <time>2022-01-15T10:35:24Z</time>
      </trkpt>
      <trkpt lat="48.54704" lon="2.0814">
        <ele>154</ele>
        <time>2022-01-15T10:35:22Z</time>
      </trkpt>
      <trkpt lat="48.54707" lon="2.08139">
        <ele>154</ele>
        <time>2022-01-15T10:35:20Z</time>
      </trkpt>
      <trkpt lat="48.5471" lon="2.08139">
        <ele>154</ele>
        <time>2022-01-15T10:35:18Z</time>
      </trkpt>
      <trkpt lat="48.54712" lon="2.08139">
        <ele>154</ele>
        <time>2022-01-15T10:35:16Z</time>
      </trkpt>
      <trkpt lat="48.54715" lon="2.08139">
        <ele>154</ele>
        <time>2022-01-15T10:35:14Z</time>
      </trkpt>
      <trkpt lat="48.54718" lon="2.08139">
        <ele>154</ele>
        <time>2022-01-15T10:35:12Z</time>
      </trkpt>
      <trkpt lat="48.54721" lon="2.08139">
        <ele>154</ele>
        <time>2022-01-15T10:35:10Z</time>
      </trkpt>
      <trkpt lat="48.54724" lon="2.08139">
        <ele>154</ele>
        <time>2022-01-15T10:35:08Z</time>
      </trkpt>
      <trkpt lat="48.54727" lon="2.08139">
        <ele>154</ele>
        <time>2022-01-15T10:35:06Z</time>
      </trkpt>
      <trkpt lat="48.54729" lon="2.08138">
        <ele>154</ele>
        <time>2022-01-15T10:35:04Z</time>
      </trkpt>
      <trkpt lat="48.54732" lon="2.08138">
        <ele>154</ele>
        <time>2022-01-15T10:35:02Z</time>
      </trkpt>
      <trkpt lat="48.54735" lon="2.08138">
        <ele>154</ele>
        <time>2022-01-15T10:35:00Z</time>
      </trkpt>
      <trkpt lat="48.54738" lon="2.08138">
        <ele>153</ele>
        <time>2022-01-15T10:34:58Z</time>
      </trkpt>
      <trkpt lat="48.54741" lon="2.08138">
        <ele>153</ele>
        <time>2022-01-15T10:34:56Z</time>
      </trkpt>
      <trkpt lat="48.54744" lon="2.08139">
        <ele>153</ele>
        <time>2022-01-15T10:34:54Z</time>
      </trkpt>
      <trkpt lat="48.54746" lon="2.08138">
        <ele>153</ele>
        <time>2022-01-15T10:34:52Z</time>
      </trkpt>
      <trkpt lat="48.54749" lon="2.08138">
        <ele>153</ele>
        <time>2022-01-15T10:34:50Z</time>
      </trkpt>
      <trkpt lat="48.54752" lon="2.08138">
        <ele>153</ele>
        <time>2022-01-15T10:34:48Z</time>
      </trkpt>
      <trkpt lat="48.54755" lon="2.08138">
        <ele>153</ele>
        <time>2022-01-15T10:34:46Z</time>
      </trkpt>
      <trkpt lat="48.54758" lon="2.08138">
        <ele>153</ele>
        <time>2022-01-15T10:34:44Z</time>
      </trkpt>
      <trkpt lat="48.54761" lon="2.08138">
        <ele>153</ele>
        <time>2022-01-15T10:34:42Z</time>
      </trkpt>
      <trkpt lat="48.54764" lon="2.08137">
        <ele>153</ele>
        <time>2022-01-15T10:34:40Z</time>
      </trkpt>
      <trkpt lat="48.54767" lon="2.08137">
        <ele>153</ele>
        <time>2022-01-15T10:34:38Z</time>
      </trkpt>
      <trkpt lat="48.5477" lon="2.08137">
        <ele>153</ele>
        <time>2022-01-15T10:34:36Z</time>
      </trkpt>
      <trkpt lat="48.54773" lon="2.08137">
        <ele>153</ele>
        <time>2022-01-15T10:34:34Z</time>
      </trkpt>
      <trkpt lat="48.54776" lon="2.08137">
        <ele>153</ele>
        <time>2022-01-15T10:34:32Z</time>
      </trkpt>
      <trkpt lat="48.54779" lon="2.08137">
        <ele>153</ele>
        <time>2022-01-15T10:34:30Z</time>
      </trkpt>
      <trkpt lat="48.54782" lon="2.08137">
        <ele>153</ele>
        <time>2022-01-15T10:34:28Z</time>
      </trkpt>
      <trkpt lat="48.54785" lon="2.08137">
        <ele>153</ele>
        <time>2022-01-15T10:34:26Z</time>
      </trkpt>
      <trkpt lat="48.54788" lon="2.08137">
        <ele>153</ele>
        <time>2022-01-15T10:34:24Z</time>
      </trkpt>
      <trkpt lat="48.54791" lon="2.08137">
        <ele>153</ele>
        <time>2022-01-15T10:34:22Z</time>
      </trkpt>
      <trkpt lat="48.54794" lon="2.08137">
        <ele>152</ele>
        <time>2022-01-15T10:34:20Z</time>
      </trkpt>
      <trkpt lat="48.54797" lon="2.08136">
        <ele>152</ele>
        <time>2022-01-15T10:34:18Z</time>
      </trkpt>
      <trkpt lat="48.548" lon="2.08136">
        <ele>152</ele>
        <time>2022-01-15T10:34:16Z</time>
      </trkpt>
      <trkpt lat="48.54803" lon="2.08137">
        <ele>152</ele>
        <time>2022-01-15T10:34:14Z</time>
      </trkpt>
      <trkpt lat="48.54806" lon="2.08137">
        <ele>152</ele>
        <time>2022-01-15T10:34:12Z</time>
      </trkpt>
      <trkpt lat="48.54809" lon="2.08137">
        <ele>152</ele>
        <time>2022-01-15T10:34:10Z</time>
      </trkpt>
      <trkpt lat="48.54812" lon="2.08136">
        <ele>152</ele>
        <time>2022-01-15T10:34:08Z</time>
      </trkpt>
      <trkpt lat="48.54815" lon="2.08136">
        <ele>152</ele>
        <time>2022-01-15T10:34:06Z</time>
      </trkpt>
      <trkpt lat="48.54818" lon="2.08136">
        <ele>152</ele>
        <time>2022-01-15T10:34:04Z</time>
      </trkpt>
      <trkpt lat="48.54821" lon="2.08136">
        <ele>152</ele>
        <time>2022-01-15T10:34:02Z</time>
      </trkpt>
      <trkpt lat="48.54824" lon="2.08136">
        <ele>152</ele>
        <time>2022-01-15T10:34:00Z</time>
      </trkpt>
      <trkpt lat="48.54827" lon="2.08136">
        <ele>152</ele>
        <time>2022-01-15T10:33:58Z</time>
      </trkpt>
      <trkpt lat="48.5483" lon="2.08136">
        <ele>152</ele>
        <time>2022-01-15T10:33:56Z</time>
      </trkpt>
      <trkpt lat="48.54833" lon="2.08136">
        <ele>152</ele>
        <time>2022-01-15T10:33:54Z</time>
      </trkpt>
      <trkpt lat="48.54836" lon="2.08136">
        <ele>152</ele>
        <time>2022-01-15T10:33:52Z</time>
      </trkpt>
      <trkpt lat="48.54839" lon="2.08136">
        <ele>152</ele>
        <time>2022-01-15T10:33:50Z</time>
      </trkpt>
      <trkpt lat="48.54842" lon="2.08135">
        <ele>152</ele>
        <time>2022-01-15T10:33:48Z</time>
      </trkpt>
      <trkpt lat="48.54844" lon="2.08135">
        <ele>152</ele>
        <time>2022-01-15T10:33:46Z</time>
      </trkpt>
      <trkpt lat="48.54847" lon="2.08135">
        <ele>152</ele>
        <time>2022-01-15T10:33:44Z</time>
      </trkpt>
      <trkpt lat="48.5485" lon="2.08135">
        <ele>152</ele>
        <time>2022-01-15T10:33:42Z</time>
      </trkpt>
      <trkpt lat="48.54853" lon="2.08135">
        <ele>152</ele>
        <time>2022-01-15T10:33:40Z</time>
      </trkpt>
      <trkpt lat="48.54857" lon="2.08135">
        <ele>152</ele>
        <time>2022-01-15T10:33:38Z</time>
      </trkpt>
      <trkpt lat="48.5486" lon="2.08135">
        <ele>152</ele>
        <time>2022-01-15T10:33:36Z</time>
      </trkpt>
      <trkpt lat="48.54863" lon="2.08134">
        <ele>152</ele>
        <time>2022-01-15T10:33:34Z</time>
      </trkpt>
      <trkpt lat="48.54866" lon="2.08134">
        <ele>152</ele>
        <time>2022-01-15T10:33:32Z</time>
      </trkpt>
      <trkpt lat="48.54868" lon="2.08133">
        <ele>152</ele>
        <time>2022-01-15T10:33:30Z</time>
      </trkpt>
      <trkpt lat="48.54872" lon="2.08134">
        <ele>152</ele>
        <time>2022-01-15T10:33:28Z</time>
      </trkpt>
      <trkpt lat="48.54875" lon="2.08134">
        <ele>152</ele>
        <time>2022-01-15T10:33:26Z</time>
      </trkpt>
      <trkpt lat="48.54878" lon="2.08133">
        <ele>152</ele>
        <time>2022-01-15T10:33:24Z</time>
      </trkpt>
      <trkpt lat="48.54881" lon="2.08133">
        <ele>152</ele>
        <time>2022-01-15T10:33:22Z</time>
      </trkpt>
      <trkpt lat="48.54884" lon="2.08133">
        <ele>152</ele>
        <time>2022-01-15T10:33:20Z</time>
      </trkpt>
      <trkpt lat="48.54887" lon="2.08133">
        <ele>152</ele>
        <time>2022-01-15T10:33:18Z</time>
      </trkpt>
      <trkpt lat="48.5489" lon="2.08133">
        <ele>152</ele>
        <time>2022-01-15T10:33:16Z</time>
      </trkpt>
      <trkpt lat="48.54893" lon="2.08133">
        <ele>152</ele>
        <time>2022-01-15T10:33:14Z</time>
      </trkpt>
      <trkpt lat="48.54896" lon="2.08133">
        <ele>152</ele>
        <time>2022-01-15T10:33:12Z</time>
      </trkpt>
      <trkpt lat="48.54899" lon="2.08133">
        <ele>152</ele>
        <time>2022-01-15T10:33:10Z</time>
      </trkpt>
      <trkpt lat="48.54902" lon="2.08132">
        <ele>152</ele>
        <time>2022-01-15T10:33:08Z</time>
      </trkpt>
      <trkpt lat="48.54904" lon="2.08132">
        <ele>152</ele>
        <time>2022-01-15T10:33:06Z</time>
      </trkpt>
      <trkpt lat="48.54907" lon="2.08132">
        <ele>152</ele>
        <time>2022-01-15T10:33:04Z</time>
      </trkpt>
      <trkpt lat="48.5491" lon="2.08132">
        <ele>152</ele>
        <time>2022-01-15T10:33:02Z</time>
      </trkpt>
      <trkpt lat="48.54913" lon="2.08132">
        <ele>151</ele>
        <time>2022-01-15T10:33:00Z</time>
      </trkpt>
      <trkpt lat="48.54917" lon="2.08132">
        <ele>151</ele>
        <time>2022-01-15T10:32:58Z</time>
      </trkpt>
      <trkpt lat="48.5492" lon="2.08132">
        <ele>151</ele>
        <time>2022-01-15T10:32:56Z</time>
      </trkpt>
      <trkpt lat="48.54923" lon="2.08132">
        <ele>151</ele>
        <time>2022-01-15T10:32:54Z</time>
      </trkpt>
      <trkpt lat="48.54926" lon="2.08132">
        <ele>151</ele>
        <time>2022-01-15T10:32:52Z</time>
      </trkpt>
      <trkpt lat="48.54929" lon="2.08132">
        <ele>151</ele>
        <time>2022-01-15T10:32:50Z</time>
      </trkpt>
      <trkpt lat="48.54932" lon="2.08131">
        <ele>151</ele>
        <time>2022-01-15T10:32:48Z</time>
      </trkpt>
      <trkpt lat="48.54934" lon="2.08131">
        <ele>151</ele>
        <time>2022-01-15T10:32:46Z</time>
      </trkpt>
      <trkpt lat="48.54937" lon="2.08131">
        <ele>151</ele>
        <time>2022-01-15T10:32:44Z</time>
      </trkpt>
      <trkpt lat="48.54941" lon="2.08131">
        <ele>151</ele>
        <time>2022-01-15T10:32:42Z</time>
      </trkpt>
      <trkpt lat="48.54944" lon="2.08131">
        <ele>151</ele>
        <time>2022-01-15T10:32:40Z</time>
      </trkpt>
      <trkpt lat="48.54947" lon="2.08131">
        <ele>151</ele>
        <time>2022-01-15T10:32:38Z</time>
      </trkpt>
      <trkpt lat="48.5495" lon="2.0813">
        <ele>151</ele>
        <time>2022-01-15T10:32:36Z</time>
      </trkpt>
      <trkpt lat="48.54953" lon="2.0813">
        <ele>151</ele>
        <time>2022-01-15T10:32:34Z</time>
      </trkpt>
      <trkpt lat="48.54956" lon="2.0813">
        <ele>151</ele>
        <time>2022-01-15T10:32:32Z</time>
      </trkpt>
      <trkpt lat="48.54959" lon="2.0813">
        <ele>151</ele>
        <time>2022-01-15T10:32:30Z</time>
      </trkpt>
      <trkpt lat="48.54962" lon="2.0813">
        <ele>151</ele>
        <time>2022-01-15T10:32:28Z</time>
      </trkpt>
      <trkpt lat="48.54965" lon="2.0813">
        <ele>151</ele>
        <time>2022-01-15T10:32:26Z</time>
      </trkpt>
      <trkpt lat="48.54968" lon="2.0813">
        <ele>151</ele>
        <time>2022-01-15T10:32:24Z</time>
      </trkpt>
      <trkpt lat="48.54971" lon="2.0813">
        <ele>151</ele>
        <time>2022-01-15T10:32:22Z</time>
      </trkpt>
      <trkpt lat="48.54974" lon="2.08129">
        <ele>150</ele>
        <time>2022-01-15T10:32:20Z</time>
      </trkpt>
      <trkpt lat="48.54977" lon="2.08129">
        <ele>150</ele>
        <time>2022-01-15T10:32:18Z</time>
      </trkpt>
      <trkpt lat="48.5498" lon="2.08129">
        <ele>150</ele>
        <time>2022-01-15T10:32:16Z</time>
      </trkpt>
      <trkpt lat="48.54983" lon="2.08128">
        <ele>150</ele>
        <time>2022-01-15T10:32:14Z</time>
      </trkpt>
      <trkpt lat="48.54986" lon="2.08128">
        <ele>150</ele>
        <time>2022-01-15T10:32:12Z</time>
      </trkpt>
      <trkpt lat="48.54989" lon="2.08128">
        <ele>150</ele>
        <time>2022-01-15T10:32:10Z</time>
      </trkpt>
      <trkpt lat="48.54992" lon="2.08127">
        <ele>150</ele>
        <time>2022-01-15T10:32:08Z</time>
      </trkpt>
      <trkpt lat="48.54995" lon="2.08127">
        <ele>150</ele>
        <time>2022-01-15T10:32:06Z</time>
      </trkpt>
      <trkpt lat="48.54998" lon="2.08127">
        <ele>150</ele>
        <time>2022-01-15T10:32:04Z</time>
      </trkpt>
      <trkpt lat="48.55001" lon="2.08127">
        <ele>150</ele>
        <time>2022-01-15T10:32:02Z</time>
      </trkpt>
      <trkpt lat="48.55004" lon="2.08127">
        <ele>150</ele>
        <time>2022-01-15T10:32:00Z</time>
      </trkpt>
      <trkpt lat="48.55007" lon="2.08127">
        <ele>150</ele>
        <time>2022-01-15T10:31:58Z</time>
      </trkpt>
      <trkpt lat="48.55009" lon="2.08127">
        <ele>150</ele>
        <time>2022-01-15T10:31:56Z</time>
      </trkpt>
      <trkpt lat="48.55012" lon="2.08127">
        <ele>150</ele>
        <time>2022-01-15T10:31:54Z</time>
      </trkpt>
      <trkpt lat="48.55016" lon="2.08127">
        <ele>150</ele>
        <time>2022-01-15T10:31:52Z</time>
      </trkpt>
      <trkpt lat="48.55019" lon="2.08127">
        <ele>150</ele>
        <time>2022-01-15T10:31:49Z</time>
      </trkpt>
      <trkpt lat="48.55023" lon="2.08127">
        <ele>150</ele>
        <time>2022-01-15T10:31:47Z</time>
      </trkpt>
      <trkpt lat="48.55026" lon="2.08127">
        <ele>150</ele>
        <time>2022-01-15T10:31:45Z</time>
      </trkpt>
      <trkpt lat="48.55029" lon="2.08127">
        <ele>150</ele>
        <time>2022-01-15T10:31:43Z</time>
      </trkpt>
      <trkpt lat="48.55033" lon="2.08126">
        <ele>150</ele>
        <time>2022-01-15T10:31:40Z</time>
      </trkpt>
      <trkpt lat="48.55036" lon="2.08126">
        <ele>150</ele>
        <time>2022-01-15T10:31:38Z</time>
      </trkpt>
      <trkpt lat="48.55039" lon="2.08126">
        <ele>150</ele>
        <time>2022-01-15T10:31:36Z</time>
      </trkpt>
      <trkpt lat="48.55042" lon="2.08125">
        <ele>150</ele>
        <time>2022-01-15T10:31:34Z</time>
      </trkpt>
      <trkpt lat="48.55045" lon="2.08125">
        <ele>150</ele>
        <time>2022-01-15T10:31:32Z</time>
      </trkpt>
      <trkpt lat="48.55048" lon="2.08125">
        <ele>150</ele>
        <time>2022-01-15T10:31:30Z</time>
      </trkpt>
      <trkpt lat="48.55051" lon="2.08125">
        <ele>150</ele>
        <time>2022-01-15T10:31:28Z</time>
      </trkpt>
      <trkpt lat="48.55054" lon="2.08125">
        <ele>150</ele>
        <time>2022-01-15T10:31:26Z</time>
      </trkpt>
      <trkpt lat="48.55057" lon="2.08124">
        <ele>150</ele>
        <time>2022-01-15T10:31:24Z</time>
      </trkpt>
      <trkpt lat="48.5506" lon="2.08125">
        <ele>149</ele>
        <time>2022-01-15T10:31:22Z</time>
      </trkpt>
      <trkpt lat="48.55064" lon="2.08125">
        <ele>149</ele>
        <time>2022-01-15T10:31:19Z</time>
      </trkpt>
      <trkpt lat="48.55067" lon="2.08125">
        <ele>149</ele>
        <time>2022-01-15T10:31:17Z</time>
      </trkpt>
      <trkpt lat="48.5507" lon="2.08125">
        <ele>149</ele>
        <time>2022-01-15T10:31:15Z</time>
      </trkpt>
      <trkpt lat="48.55073" lon="2.08125">
        <ele>149</ele>
        <time>2022-01-15T10:31:13Z</time>
      </trkpt>
      <trkpt lat="48.55075" lon="2.08125">
        <ele>149</ele>
        <time>2022-01-15T10:31:11Z</time>
      </trkpt>
      <trkpt lat="48.55078" lon="2.08125">
        <ele>149</ele>
        <time>2022-01-15T10:31:09Z</time>
      </trkpt>
      <trkpt lat="48.55081" lon="2.08125">
        <ele>150</ele>
        <time>2022-01-15T10:31:07Z</time>
      </trkpt>
      <trkpt lat="48.55084" lon="2.08125">
        <ele>150</ele>
        <time>2022-01-15T10:31:05Z</time>
      </trkpt>
      <trkpt lat="48.55087" lon="2.08125">
        <ele>150</ele>
        <time>2022-01-15T10:31:03Z</time>
      </trkpt>
      <trkpt lat="48.5509" lon="2.08124">
        <ele>150</ele>
        <time>2022-01-15T10:31:01Z</time>
      </trkpt>
      <trkpt lat="48.55093" lon="2.08124">
        <ele>150</ele>
        <time>2022-01-15T10:30:59Z</time>
      </trkpt>
      <trkpt lat="48.55096" lon="2.08125">
        <ele>150</ele>
        <time>2022-01-15T10:30:57Z</time>
      </trkpt>
      <trkpt lat="48.55099" lon="2.08124">
        <ele>150</ele>
        <time>2022-01-15T10:30:55Z</time>
      </trkpt>
      <trkpt lat="48.55103" lon="2.08124">
        <ele>150</ele>
        <time>2022-01-15T10:30:52Z</time>
      </trkpt>
      <trkpt lat="48.55106" lon="2.08124">
        <ele>150</ele>
        <time>2022-01-15T10:30:50Z</time>
      </trkpt>
      <trkpt lat="48.55109" lon="2.08124">
        <ele>150</ele>
        <time>2022-01-15T10:30:48Z</time>
      </trkpt>
      <trkpt lat="48.55113" lon="2.08123">
        <ele>150</ele>
        <time>2022-01-15T10:30:45Z</time>
      </trkpt>
      <trkpt lat="48.55116" lon="2.08122">
        <ele>150</ele>
        <time>2022-01-15T10:30:43Z</time>
      </trkpt>
      <trkpt lat="48.5512" lon="2.08122">
        <ele>150</ele>
        <time>2022-01-15T10:30:40Z</time>
      </trkpt>
      <trkpt lat="48.55124" lon="2.08122">
        <ele>151</ele>
        <time>2022-01-15T10:30:37Z</time>
      </trkpt>
      <trkpt lat="48.55127" lon="2.08121">
        <ele>151</ele>
        <time>2022-01-15T10:30:34Z</time>
      </trkpt>
      <trkpt lat="48.5513" lon="2.08121">
        <ele>151</ele>
        <time>2022-01-15T10:30:32Z</time>
      </trkpt>
      <trkpt lat="48.55133" lon="2.08121">
        <ele>151</ele>
        <time>2022-01-15T10:30:29Z</time>
      </trkpt>
      <trkpt lat="48.55137" lon="2.0812">
        <ele>151</ele>
        <time>2022-01-15T10:30:09Z</time>
      </trkpt>
      <trkpt lat="48.5514" lon="2.0812">
        <ele>151</ele>
        <time>2022-01-15T10:30:06Z</time>
      </trkpt>
      <trkpt lat="48.55144" lon="2.0812">
        <ele>151</ele>
        <time>2022-01-15T10:30:03Z</time>
      </trkpt>
      <trkpt lat="48.55147" lon="2.0812">
        <ele>151</ele>
        <time>2022-01-15T10:29:59Z</time>
      </trkpt>
      <trkpt lat="48.5515" lon="2.08119">
        <ele>152</ele>
        <time>2022-01-15T10:29:55Z</time>
      </trkpt>
      <trkpt lat="48.55154" lon="2.0812">
        <ele>152</ele>
        <time>2022-01-15T10:29:50Z</time>
      </trkpt>
      <trkpt lat="48.55157" lon="2.08119">
        <ele>152</ele>
        <time>2022-01-15T10:29:47Z</time>
      </trkpt>
      <trkpt lat="48.55161" lon="2.08119">
        <ele>152</ele>
        <time>2022-01-15T10:29:44Z</time>
      </trkpt>
      <trkpt lat="48.55165" lon="2.08119">
        <ele>152</ele>
        <time>2022-01-15T10:29:41Z</time>
      </trkpt>
      <trkpt lat="48.55169" lon="2.08119">
        <ele>152</ele>
        <time>2022-01-15T10:29:38Z</time>
      </trkpt>
      <trkpt lat="48.55173" lon="2.08119">
        <ele>153</ele>
        <time>2022-01-15T10:29:36Z</time>
      </trkpt>
      <trkpt lat="48.55176" lon="2.08119">
        <ele>153</ele>
        <time>2022-01-15T10:29:33Z</time>
      </trkpt>
      <trkpt lat="48.55179" lon="2.08118">
        <ele>153</ele>
        <time>2022-01-15T10:29:31Z</time>
      </trkpt>
      <trkpt lat="48.55183" lon="2.08118">
        <ele>153</ele>
        <time>2022-01-15T10:29:28Z</time>
      </trkpt>
      <trkpt lat="48.55185" lon="2.08119">
        <ele>153</ele>
        <time>2022-01-15T10:29:26Z</time>
      </trkpt>
      <trkpt lat="48.55188" lon="2.08121">
        <ele>153</ele>
        <time>2022-01-15T10:29:24Z</time>
      </trkpt>
      <trkpt lat="48.55189" lon="2.08126">
        <ele>153</ele>
        <time>2022-01-15T10:29:22Z</time>
      </trkpt>
      <trkpt lat="48.55189" lon="2.0813">
        <ele>153</ele>
        <time>2022-01-15T10:29:20Z</time>
      </trkpt>
      <trkpt lat="48.55189" lon="2.08136">
        <ele>153</ele>
        <time>2022-01-15T10:29:17Z</time>
      </trkpt>
      <trkpt lat="48.55189" lon="2.0814">
        <ele>153</ele>
        <time>2022-01-15T10:29:15Z</time>
      </trkpt>
      <trkpt lat="48.55189" lon="2.08144">
        <ele>154</ele>
        <time>2022-01-15T10:29:13Z</time>
      </trkpt>
      <trkpt lat="48.55189" lon="2.08149">
        <ele>154</ele>
        <time>2022-01-15T10:29:11Z</time>
      </trkpt>
      <trkpt lat="48.55189" lon="2.08153">
        <ele>154</ele>
        <time>2022-01-15T10:29:09Z</time>
      </trkpt>
      <trkpt lat="48.55189" lon="2.08157">
        <ele>154</ele>
        <time>2022-01-15T10:29:07Z</time>
      </trkpt>
      <trkpt lat="48.55189" lon="2.08161">
        <ele>154</ele>
        <time>2022-01-15T10:29:05Z</time>
      </trkpt>
      <trkpt lat="48.5519" lon="2.08166">
        <ele>154</ele>
        <time>2022-01-15T10:29:03Z</time>
      </trkpt>
      <trkpt lat="48.5519" lon="2.08171">
        <ele>154</ele>
        <time>2022-01-15T10:29:01Z</time>
      </trkpt>
      <trkpt lat="48.5519" lon="2.08175">
        <ele>154</ele>
        <time>2022-01-15T10:28:59Z</time>
      </trkpt>
      <trkpt lat="48.5519" lon="2.08181">
        <ele>154</ele>
        <time>2022-01-15T10:28:56Z</time>
      </trkpt>
      <trkpt lat="48.5519" lon="2.08185">
        <ele>154</ele>
        <time>2022-01-15T10:28:54Z</time>
      </trkpt>
      <trkpt lat="48.5519" lon="2.08189">
        <ele>154</ele>
        <time>2022-01-15T10:28:52Z</time>
      </trkpt>
      <trkpt lat="48.5519" lon="2.08193">
        <ele>154</ele>
        <time>2022-01-15T10:28:50Z</time>
      </trkpt>
      <trkpt lat="48.5519" lon="2.08198">
        <ele>154</ele>
        <time>2022-01-15T10:28:48Z</time>
      </trkpt>
      <trkpt lat="48.5519" lon="2.08202">
        <ele>154</ele>
        <time>2022-01-15T10:28:46Z</time>
      </trkpt>
      <trkpt lat="48.5519" lon="2.08206">
        <ele>154</ele>
        <time>2022-01-15T10:28:44Z</time>
      </trkpt>
      <trkpt lat="48.5519" lon="2.08211">
        <ele>154</ele>
        <time>2022-01-15T10:28:42Z</time>
      </trkpt>
      <trkpt lat="48.5519" lon="2.08215">
        <ele>154</ele>
        <time>2022-01-15T10:28:40Z</time>
      </trkpt>
      <trkpt lat="48.5519" lon="2.08219">
        <ele>154</ele>
        <time>2022-01-15T10:28:38Z</time>
      </trkpt>
      <trkpt lat="48.5519" lon="2.08224">
        <ele>154</ele>
        <time>2022-01-15T10:28:36Z</time>
      </trkpt>
      <trkpt lat="48.55191" lon="2.08228">
        <ele>154</ele>
        <time>2022-01-15T10:28:34Z</time>
      </trkpt>
      <trkpt lat="48.55191" lon="2.08232">
        <ele>154</ele>
        <time>2022-01-15T10:28:32Z</time>
      </trkpt>
      <trkpt lat="48.55191" lon="2.08237">
        <ele>154</ele>
        <time>2022-01-15T10:28:30Z</time>
      </trkpt>
      <trkpt lat="48.55191" lon="2.08241">
        <ele>154</ele>
        <time>2022-01-15T10:28:28Z</time>
      </trkpt>
      <trkpt lat="48.55191" lon="2.08246">
        <ele>154</ele>
        <time>2022-01-15T10:28:26Z</time>
      </trkpt>
      <trkpt lat="48.55191" lon="2.0825">
        <ele>154</ele>
        <time>2022-01-15T10:28:24Z</time>
      </trkpt>
      <trkpt lat="48.55191" lon="2.08254">
        <ele>154</ele>
        <time>2022-01-15T10:28:22Z</time>
      </trkpt>
      <trkpt lat="48.55191" lon="2.08259">
        <ele>154</ele>
        <time>2022-01-15T10:28:20Z</time>
      </trkpt>
      <trkpt lat="48.55192" lon="2.08263">
        <ele>154</ele>
        <time>2022-01-15T10:28:18Z</time>
      </trkpt>
      <trkpt lat="48.55191" lon="2.08268">
        <ele>154</ele>
        <time>2022-01-15T10:28:16Z</time>
      </trkpt>
      <trkpt lat="48.55192" lon="2.08272">
        <ele>154</ele>
        <time>2022-01-15T10:28:14Z</time>
      </trkpt>
      <trkpt lat="48.55192" lon="2.08276">
        <ele>154</ele>
        <time>2022-01-15T10:28:12Z</time>
      </trkpt>
      <trkpt lat="48.55192" lon="2.08281">
        <ele>154</ele>
        <time>2022-01-15T10:28:10Z</time>
      </trkpt>
      <trkpt lat="48.55193" lon="2.08285">
        <ele>154</ele>
        <time>2022-01-15T10:28:08Z</time>
      </trkpt>
      <trkpt lat="48.55193" lon="2.0829">
        <ele>154</ele>
        <time>2022-01-15T10:28:06Z</time>
      </trkpt>
      <trkpt lat="48.55193" lon="2.08294">
        <ele>154</ele>
        <time>2022-01-15T10:28:04Z</time>
      </trkpt>
      <trkpt lat="48.55193" lon="2.08298">
        <ele>154</ele>
        <time>2022-01-15T10:28:02Z</time>
      </trkpt>
      <trkpt lat="48.55193" lon="2.08302">
        <ele>154</ele>
        <time>2022-01-15T10:28:00Z</time>
      </trkpt>
      <trkpt lat="48.55193" lon="2.08307">
        <ele>154</ele>
        <time>2022-01-15T10:27:58Z</time>
      </trkpt>
      <trkpt lat="48.55193" lon="2.08311">
        <ele>155</ele>
        <time>2022-01-15T10:27:56Z</time>
      </trkpt>
      <trkpt lat="48.55194" lon="2.08316">
        <ele>155</ele>
        <time>2022-01-15T10:27:54Z</time>
      </trkpt>
      <trkpt lat="48.55194" lon="2.0832">
        <ele>155</ele>
        <time>2022-01-15T10:27:52Z</time>
      </trkpt>
      <trkpt lat="48.55194" lon="2.08325">
        <ele>155</ele>
        <time>2022-01-15T10:27:50Z</time>
      </trkpt>
      <trkpt lat="48.55193" lon="2.08331">
        <ele>155</ele>
        <time>2022-01-15T10:27:47Z</time>
      </trkpt>
      <trkpt lat="48.55194" lon="2.08335">
        <ele>155</ele>
        <time>2022-01-15T10:27:45Z</time>
      </trkpt>
      <trkpt lat="48.55194" lon="2.0834">
        <ele>155</ele>
        <time>2022-01-15T10:27:43Z</time>
      </trkpt>
      <trkpt lat="48.55194" lon="2.08344">
        <ele>155</ele>
        <time>2022-01-15T10:27:41Z</time>
      </trkpt>
      <trkpt lat="48.55194" lon="2.08349">
        <ele>155</ele>
        <time>2022-01-15T10:27:39Z</time>
      </trkpt>
      <trkpt lat="48.55195" lon="2.08353">
        <ele>155</ele>
        <time>2022-01-15T10:27:37Z</time>
      </trkpt>
      <trkpt lat="48.55195" lon="2.08358">
        <ele>155</ele>
        <time>2022-01-15T10:27:35Z</time>
      </trkpt>
      <trkpt lat="48.55195" lon="2.08362">
        <ele>155</ele>
        <time>2022-01-15T10:27:33Z</time>
      </trkpt>
      <trkpt lat="48.55195" lon="2.08367">
        <ele>155</ele>
        <time>2022-01-15T10:27:31Z</time>
      </trkpt>
      <trkpt lat="48.55195" lon="2.08371">
        <ele>155</ele>
        <time>2022-01-15T10:27:29Z</time>
      </trkpt>
      <trkpt lat="48.55195" lon="2.08377">
        <ele>155</ele>
        <time>2022-01-15T10:27:26Z</time>
      </trkpt>
      <trkpt lat="48.55196" lon="2.08383">
        <ele>155</ele>
        <time>2022-01-15T10:27:23Z</time>
      </trkpt>
      <trkpt lat="48.55196" lon="2.08387">
        <ele>155</ele>
        <time>2022-01-15T10:27:21Z</time>
      </trkpt>
      <trkpt lat="48.55196" lon="2.08392">
        <ele>155</ele>
        <time>2022-01-15T10:27:19Z</time>
      </trkpt>
      <trkpt lat="48.55197" lon="2.08398">
        <ele>155</ele>
        <time>2022-01-15T10:27:16Z</time>
      </trkpt>
      <trkpt lat="48.55197" lon="2.08403">
        <ele>155</ele>
        <time>2022-01-15T10:27:14Z</time>
      </trkpt>
      <trkpt lat="48.55198" lon="2.08408">
        <ele>155</ele>
        <time>2022-01-15T10:27:12Z</time>
      </trkpt>
      <trkpt lat="48.55198" lon="2.08413">
        <ele>155</ele>
        <time>2022-01-15T10:27:10Z</time>
      </trkpt>
      <trkpt lat="48.55198" lon="2.08418">
        <ele>155</ele>
        <time>2022-01-15T10:27:08Z</time>
      </trkpt>
      <trkpt lat="48.55199" lon="2.08423">
        <ele>155</ele>
        <time>2022-01-15T10:27:06Z</time>
      </trkpt>
      <trkpt lat="48.552" lon="2.08429">
        <ele>155</ele>
        <time>2022-01-15T10:27:03Z</time>
      </trkpt>
      <trkpt lat="48.55201" lon="2.08434">
        <ele>155</ele>
        <time>2022-01-15T10:27:00Z</time>
      </trkpt>
      <trkpt lat="48.55201" lon="2.08438">
        <ele>156</ele>
        <time>2022-01-15T10:26:57Z</time>
      </trkpt>
      <trkpt lat="48.55201" lon="2.0844">
        <ele>156</ele>
        <time>2022-01-15T10:26:54Z</time>
      </trkpt>
      <trkpt lat="48.55199" lon="2.08439">
        <ele>155</ele>
        <time>2022-01-15T10:26:37Z</time>
      </trkpt>
      <trkpt lat="48.55198" lon="2.08441">
        <ele>155</ele>
        <time>2022-01-15T10:25:50Z</time>
      </trkpt>
      <trkpt lat="48.552" lon="2.08446">
        <ele>155</ele>
        <time>2022-01-15T10:25:36Z</time>
      </trkpt>
      <trkpt lat="48.55201" lon="2.0845">
        <ele>155</ele>
        <time>2022-01-15T10:25:30Z</time>
      </trkpt>
      <trkpt lat="48.55204" lon="2.08452">
        <ele>155</ele>
        <time>2022-01-15T10:25:27Z</time>
      </trkpt>
      <trkpt lat="48.55207" lon="2.08453">
        <ele>156</ele>
        <time>2022-01-15T10:25:24Z</time>
      </trkpt>
      <trkpt lat="48.5521" lon="2.08452">
        <ele>156</ele>
        <time>2022-01-15T10:25:22Z</time>
      </trkpt>
      <trkpt lat="48.55214" lon="2.08452">
        <ele>156</ele>
        <time>2022-01-15T10:25:20Z</time>
      </trkpt>
      <trkpt lat="48.55217" lon="2.08452">
        <ele>156</ele>
        <time>2022-01-15T10:25:18Z</time>
      </trkpt>
      <trkpt lat="48.55221" lon="2.08451">
        <ele>156</ele>
        <time>2022-01-15T10:25:15Z</time>
      </trkpt>
      <trkpt lat="48.55224" lon="2.08451">
        <ele>156</ele>
        <time>2022-01-15T10:25:13Z</time>
      </trkpt>
      <trkpt lat="48.55227" lon="2.08451">
        <ele>156</ele>
        <time>2022-01-15T10:25:11Z</time>
      </trkpt>
      <trkpt lat="48.5523" lon="2.0845">
        <ele>156</ele>
        <time>2022-01-15T10:25:09Z</time>
      </trkpt>
      <trkpt lat="48.55233" lon="2.08449">
        <ele>156</ele>
        <time>2022-01-15T10:25:07Z</time>
      </trkpt>
      <trkpt lat="48.55237" lon="2.08449">
        <ele>156</ele>
        <time>2022-01-15T10:25:05Z</time>
      </trkpt>
      <trkpt lat="48.5524" lon="2.08449">
        <ele>156</ele>
        <time>2022-01-15T10:25:03Z</time>
      </trkpt>
      <trkpt lat="48.55244" lon="2.08449">
        <ele>156</ele>
        <time>2022-01-15T10:25:00Z</time>
      </trkpt>
      <trkpt lat="48.55247" lon="2.08449">
        <ele>156</ele>
        <time>2022-01-15T10:24:58Z</time>
      </trkpt>
      <trkpt lat="48.55251" lon="2.08449">
        <ele>157</ele>
        <time>2022-01-15T10:24:56Z</time>
      </trkpt>
      <trkpt lat="48.55255" lon="2.0845">
        <ele>157</ele>
        <time>2022-01-15T10:24:53Z</time>
      </trkpt>
      <trkpt lat="48.55258" lon="2.08451">
        <ele>157</ele>
        <time>2022-01-15T10:24:50Z</time>
      </trkpt>
      <trkpt lat="48.55262" lon="2.08451">
        <ele>157</ele>
        <time>2022-01-15T10:24:47Z</time>
      </trkpt>
      <trkpt lat="48.55265" lon="2.08452">
        <ele>157</ele>
        <time>2022-01-15T10:24:45Z</time>
      </trkpt>
      <trkpt lat="48.55269" lon="2.08452">
        <ele>157</ele>
        <time>2022-01-15T10:24:43Z</time>
      </trkpt>
      <trkpt lat="48.55273" lon="2.08452">
        <ele>157</ele>
        <time>2022-01-15T10:24:40Z</time>
      </trkpt>
      <trkpt lat="48.55277" lon="2.08452">
        <ele>157</ele>
        <time>2022-01-15T10:24:37Z</time>
      </trkpt>
      <trkpt lat="48.5528" lon="2.08452">
        <ele>157</ele>
        <time>2022-01-15T10:24:35Z</time>
      </trkpt>
      <trkpt lat="48.55284" lon="2.08452">
        <ele>157</ele>
        <time>2022-01-15T10:24:33Z</time>
      </trkpt>
      <trkpt lat="48.55288" lon="2.08452">
        <ele>157</ele>
        <time>2022-01-15T10:24:30Z</time>
      </trkpt>
      <trkpt lat="48.55292" lon="2.08453">
        <ele>157</ele>
        <time>2022-01-15T10:24:27Z</time>
      </trkpt>
      <trkpt lat="48.55295" lon="2.08453">
        <ele>157</ele>
        <time>2022-01-15T10:24:25Z</time>
      </trkpt>
      <trkpt lat="48.55299" lon="2.08453">
        <ele>158</ele>
        <time>2022-01-15T10:24:22Z</time>
      </trkpt>
      <trkpt lat="48.55302" lon="2.08453">
        <ele>158</ele>
        <time>2022-01-15T10:24:19Z</time>
      </trkpt>
      <trkpt lat="48.55305" lon="2.08453">
        <ele>158</ele>
        <time>2022-01-15T10:24:17Z</time>
      </trkpt>
      <trkpt lat="48.55309" lon="2.08454">
        <ele>158</ele>
        <time>2022-01-15T10:24:14Z</time>
      </trkpt>
      <trkpt lat="48.55313" lon="2.08455">
        <ele>158</ele>
        <time>2022-01-15T10:24:12Z</time>
      </trkpt>
      <trkpt lat="48.55317" lon="2.08455">
        <ele>158</ele>
        <time>2022-01-15T10:24:09Z</time>
      </trkpt>
      <trkpt lat="48.5532" lon="2.08456">
        <ele>158</ele>
        <time>2022-01-15T10:24:06Z</time>
      </trkpt>
      <trkpt lat="48.55323" lon="2.08458">
        <ele>158</ele>
        <time>2022-01-15T10:24:04Z</time>
      </trkpt>
      <trkpt lat="48.55326" lon="2.08459">
        <ele>158</ele>
        <time>2022-01-15T10:24:02Z</time>
      </trkpt>
      <trkpt lat="48.5533" lon="2.0846">
        <ele>158</ele>
        <time>2022-01-15T10:23:59Z</time>
      </trkpt>
      <trkpt lat="48.55334" lon="2.08461">
        <ele>158</ele>
        <time>2022-01-15T10:23:56Z</time>
      </trkpt>
      <trkpt lat="48.55337" lon="2.08462">
        <ele>158</ele>
        <time>2022-01-15T10:23:54Z</time>
      </trkpt>
      <trkpt lat="48.55341" lon="2.08462">
        <ele>158</ele>
        <time>2022-01-15T10:23:52Z</time>
      </trkpt>
      <trkpt lat="48.55344" lon="2.08463">
        <ele>158</ele>
        <time>2022-01-15T10:23:49Z</time>
      </trkpt>
      <trkpt lat="48.55347" lon="2.08464">
        <ele>158</ele>
        <time>2022-01-15T10:23:47Z</time>
      </trkpt>
      <trkpt lat="48.55351" lon="2.08464">
        <ele>158</ele>
        <time>2022-01-15T10:23:45Z</time>
      </trkpt>
      <trkpt lat="48.55355" lon="2.08464">
        <ele>158</ele>
        <time>2022-01-15T10:23:42Z</time>
      </trkpt>
      <trkpt lat="48.55359" lon="2.08465">
        <ele>158</ele>
        <time>2022-01-15T10:23:39Z</time>
      </trkpt>
      <trkpt lat="48.55363" lon="2.08465">
        <ele>158</ele>
        <time>2022-01-15T10:23:36Z</time>
      </trkpt>
      <trkpt lat="48.55366" lon="2.08465">
        <ele>158</ele>
        <time>2022-01-15T10:23:34Z</time>
      </trkpt>
      <trkpt lat="48.55371" lon="2.08466">
        <ele>158</ele>
        <time>2022-01-15T10:23:31Z</time>
      </trkpt>
      <trkpt lat="48.55374" lon="2.08466">
        <ele>158</ele>
        <time>2022-01-15T10:23:27Z</time>
      </trkpt>
      <trkpt lat="48.55378" lon="2.08465">
        <ele>158</ele>
        <time>2022-01-15T10:23:24Z</time>
      </trkpt>
      <trkpt lat="48.55382" lon="2.08465">
        <ele>158</ele>
        <time>2022-01-15T10:23:21Z</time>
      </trkpt>
      <trkpt lat="48.55385" lon="2.08465">
        <ele>158</ele>
        <time>2022-01-15T10:23:18Z</time>
      </trkpt>
      <trkpt lat="48.55389" lon="2.08465">
        <ele>159</ele>
        <time>2022-01-15T10:23:15Z</time>
      </trkpt>
      <trkpt lat="48.55391" lon="2.08465">
        <ele>159</ele>
        <time>2022-01-15T10:23:13Z</time>
      </trkpt>
      <trkpt lat="48.55394" lon="2.08465">
        <ele>159</ele>
        <time>2022-01-15T10:23:11Z</time>
      </trkpt>
      <trkpt lat="48.55397" lon="2.08465">
        <ele>159</ele>
        <time>2022-01-15T10:23:09Z</time>
      </trkpt>
      <trkpt lat="48.554" lon="2.08464">
        <ele>159</ele>
        <time>2022-01-15T10:23:07Z</time>
      </trkpt>
      <trkpt lat="48.55403" lon="2.08464">
        <ele>159</ele>
        <time>2022-01-15T10:23:05Z</time>
      </trkpt>
      <trkpt lat="48.55406" lon="2.08465">
        <ele>159</ele>
        <time>2022-01-15T10:23:02Z</time>
      </trkpt>
      <trkpt lat="48.5541" lon="2.08464">
        <ele>159</ele>
        <time>2022-01-15T10:22:59Z</time>
      </trkpt>
      <trkpt lat="48.55412" lon="2.08463">
        <ele>159</ele>
        <time>2022-01-15T10:22:57Z</time>
      </trkpt>
      <trkpt lat="48.55416" lon="2.08462">
        <ele>159</ele>
        <time>2022-01-15T10:22:54Z</time>
      </trkpt>
      <trkpt lat="48.55419" lon="2.0846">
        <ele>159</ele>
        <time>2022-01-15T10:22:51Z</time>
      </trkpt>
      <trkpt lat="48.55422" lon="2.0846">
        <ele>159</ele>
        <time>2022-01-15T10:22:44Z</time>
      </trkpt>
      <trkpt lat="48.55425" lon="2.0846">
        <ele>159</ele>
        <time>2022-01-15T10:22:41Z</time>
      </trkpt>
      <trkpt lat="48.55428" lon="2.08461">
        <ele>159</ele>
        <time>2022-01-15T10:22:38Z</time>
      </trkpt>
      <trkpt lat="48.55432" lon="2.08462">
        <ele>159</ele>
        <time>2022-01-15T10:22:36Z</time>
      </trkpt>
      <trkpt lat="48.55435" lon="2.08464">
        <ele>159</ele>
        <time>2022-01-15T10:22:32Z</time>
      </trkpt>
      <trkpt lat="48.55437" lon="2.08469">
        <ele>159</ele>
        <time>2022-01-15T10:22:29Z</time>
      </trkpt>
      <trkpt lat="48.55439" lon="2.08471">
        <ele>159</ele>
        <time>2022-01-15T10:22:26Z</time>
      </trkpt>
      <trkpt lat="48.55442" lon="2.08472">
        <ele>159</ele>
        <time>2022-01-15T10:22:24Z</time>
      </trkpt>
      <trkpt lat="48.55446" lon="2.08472">
        <ele>159</ele>
        <time>2022-01-15T10:22:21Z</time>
      </trkpt>
      <trkpt lat="48.5545" lon="2.08471">
        <ele>159</ele>
        <time>2022-01-15T10:22:17Z</time>
      </trkpt>
      <trkpt lat="48.55452" lon="2.0847">
        <ele>159</ele>
        <time>2022-01-15T10:22:14Z</time>
      </trkpt>
      <trkpt lat="48.55455" lon="2.08468">
        <ele>159</ele>
        <time>2022-01-15T10:22:10Z</time>
      </trkpt>
      <trkpt lat="48.55458" lon="2.08467">
        <ele>159</ele>
        <time>2022-01-15T10:22:07Z</time>
      </trkpt>
      <trkpt lat="48.55462" lon="2.08467">
        <ele>158</ele>
        <time>2022-01-15T10:22:04Z</time>
      </trkpt>
      <trkpt lat="48.55465" lon="2.08466">
        <ele>158</ele>
        <time>2022-01-15T10:22:01Z</time>
      </trkpt>
      <trkpt lat="48.55469" lon="2.08465">
        <ele>158</ele>
        <time>2022-01-15T10:21:58Z</time>
      </trkpt>
      <trkpt lat="48.55472" lon="2.08464">
        <ele>158</ele>
        <time>2022-01-15T10:21:55Z</time>
      </trkpt>
      <trkpt lat="48.55475" lon="2.08464">
        <ele>158</ele>
        <time>2022-01-15T10:21:53Z</time>
      </trkpt>
      <trkpt lat="48.55478" lon="2.08464">
        <ele>159</ele>
        <time>2022-01-15T10:21:51Z</time>
      </trkpt>
      <trkpt lat="48.55482" lon="2.08465">
        <ele>159</ele>
        <time>2022-01-15T10:21:47Z</time>
      </trkpt>
      <trkpt lat="48.55486" lon="2.08466">
        <ele>159</ele>
        <time>2022-01-15T10:21:44Z</time>
      </trkpt>
      <trkpt lat="48.55489" lon="2.08466">
        <ele>159</ele>
        <time>2022-01-15T10:21:41Z</time>
      </trkpt>
      <trkpt lat="48.55492" lon="2.08464">
        <ele>159</ele>
        <time>2022-01-15T10:21:36Z</time>
      </trkpt>
      <trkpt lat="48.55494" lon="2.08462">
        <ele>159</ele>
        <time>2022-01-15T10:21:34Z</time>
      </trkpt>
      <trkpt lat="48.55497" lon="2.08461">
        <ele>159</ele>
        <time>2022-01-15T10:21:31Z</time>
      </trkpt>
      <trkpt lat="48.555" lon="2.08461">
        <ele>159</ele>
        <time>2022-01-15T10:21:28Z</time>
      </trkpt>
      <trkpt lat="48.55503" lon="2.08462">
        <ele>159</ele>
        <time>2022-01-15T10:21:25Z</time>
      </trkpt>
      <trkpt lat="48.55507" lon="2.08462">
        <ele>159</ele>
        <time>2022-01-15T10:21:22Z</time>
      </trkpt>
      <trkpt lat="48.5551" lon="2.08464">
        <ele>159</ele>
        <time>2022-01-15T10:21:19Z</time>
      </trkpt>
      <trkpt lat="48.55513" lon="2.08465">
        <ele>159</ele>
        <time>2022-01-15T10:21:16Z</time>
      </trkpt>
      <trkpt lat="48.55516" lon="2.08466">
        <ele>159</ele>
        <time>2022-01-15T10:21:13Z</time>
      </trkpt>
      <trkpt lat="48.5552" lon="2.08467">
        <ele>159</ele>
        <time>2022-01-15T10:21:09Z</time>
      </trkpt>
      <trkpt lat="48.55523" lon="2.08467">
        <ele>159</ele>
        <time>2022-01-15T10:21:07Z</time>
      </trkpt>
      <trkpt lat="48.55526" lon="2.08468">
        <ele>159</ele>
        <time>2022-01-15T10:21:04Z</time>
      </trkpt>
      <trkpt lat="48.55529" lon="2.08468">
        <ele>159</ele>
        <time>2022-01-15T10:21:02Z</time>
      </trkpt>
      <trkpt lat="48.55533" lon="2.08467">
        <ele>159</ele>
        <time>2022-01-15T10:20:59Z</time>
      </trkpt>
      <trkpt lat="48.55536" lon="2.08468">
        <ele>158</ele>
        <time>2022-01-15T10:20:56Z</time>
      </trkpt>
      <trkpt lat="48.5554" lon="2.08468">
        <ele>158</ele>
        <time>2022-01-15T10:20:53Z</time>
      </trkpt>
      <trkpt lat="48.55543" lon="2.08467">
        <ele>158</ele>
        <time>2022-01-15T10:20:50Z</time>
      </trkpt>
      <trkpt lat="48.55546" lon="2.08467">
        <ele>158</ele>
        <time>2022-01-15T10:20:48Z</time>
      </trkpt>
      <trkpt lat="48.5555" lon="2.08467">
        <ele>158</ele>
        <time>2022-01-15T10:20:45Z</time>
      </trkpt>
      <trkpt lat="48.55553" lon="2.08466">
        <ele>158</ele>
        <time>2022-01-15T10:20:43Z</time>
      </trkpt>
      <trkpt lat="48.55556" lon="2.08466">
        <ele>158</ele>
        <time>2022-01-15T10:20:40Z</time>
      </trkpt>
      <trkpt lat="48.55559" lon="2.08466">
        <ele>158</ele>
        <time>2022-01-15T10:20:38Z</time>
      </trkpt>
      <trkpt lat="48.55563" lon="2.08466">
        <ele>158</ele>
        <time>2022-01-15T10:20:36Z</time>
      </trkpt>
      <trkpt lat="48.55566" lon="2.08465">
        <ele>158</ele>
        <time>2022-01-15T10:20:34Z</time>
      </trkpt>
      <trkpt lat="48.55569" lon="2.08465">
        <ele>158</ele>
        <time>2022-01-15T10:20:31Z</time>
      </trkpt>
      <trkpt lat="48.55572" lon="2.08464">
        <ele>158</ele>
        <time>2022-01-15T10:20:29Z</time>
      </trkpt>
      <trkpt lat="48.55576" lon="2.08464">
        <ele>158</ele>
        <time>2022-01-15T10:20:26Z</time>
      </trkpt>
      <trkpt lat="48.55579" lon="2.08464">
        <ele>158</ele>
        <time>2022-01-15T10:20:24Z</time>
      </trkpt>
      <trkpt lat="48.55582" lon="2.08465">
        <ele>158</ele>
        <time>2022-01-15T10:20:22Z</time>
      </trkpt>
      <trkpt lat="48.55585" lon="2.08464">
        <ele>158</ele>
        <time>2022-01-15T10:20:20Z</time>
      </trkpt>
      <trkpt lat="48.55589" lon="2.08464">
        <ele>157</ele>
        <time>2022-01-15T10:20:17Z</time>
      </trkpt>
      <trkpt lat="48.55592" lon="2.08465">
        <ele>157</ele>
        <time>2022-01-15T10:20:15Z</time>
      </trkpt>
      <trkpt lat="48.55595" lon="2.08465">
        <ele>157</ele>
        <time>2022-01-15T10:20:13Z</time>
      </trkpt>
      <trkpt lat="48.55598" lon="2.08465">
        <ele>157</ele>
        <time>2022-01-15T10:20:10Z</time>
      </trkpt>
      <trkpt lat="48.55601" lon="2.08464">
        <ele>157</ele>
        <time>2022-01-15T10:20:07Z</time>
      </trkpt>
      <trkpt lat="48.55604" lon="2.08464">
        <ele>157</ele>
        <time>2022-01-15T10:20:05Z</time>
      </trkpt>
      <trkpt lat="48.55608" lon="2.08464">
        <ele>157</ele>
        <time>2022-01-15T10:20:03Z</time>
      </trkpt>
      <trkpt lat="48.55612" lon="2.08463">
        <ele>157</ele>
        <time>2022-01-15T10:19:59Z</time>
      </trkpt>
      <trkpt lat="48.55615" lon="2.08463">
        <ele>157</ele>
        <time>2022-01-15T10:19:57Z</time>
      </trkpt>
      <trkpt lat="48.55619" lon="2.08462">
        <ele>157</ele>
        <time>2022-01-15T10:19:54Z</time>
      </trkpt>
      <trkpt lat="48.55622" lon="2.08459">
        <ele>156</ele>
        <time>2022-01-15T10:19:51Z</time>
      </trkpt>
      <trkpt lat="48.55625" lon="2.08458">
        <ele>156</ele>
        <time>2022-01-15T10:19:46Z</time>
      </trkpt>
      <trkpt lat="48.55628" lon="2.08459">
        <ele>156</ele>
        <time>2022-01-15T10:19:42Z</time>
      </trkpt>
      <trkpt lat="48.55631" lon="2.08459">
        <ele>156</ele>
        <time>2022-01-15T10:19:39Z</time>
      </trkpt>
      <trkpt lat="48.55634" lon="2.08459">
        <ele>156</ele>
        <time>2022-01-15T10:19:36Z</time>
      </trkpt>
      <trkpt lat="48.55637" lon="2.08459">
        <ele>156</ele>
        <time>2022-01-15T10:19:34Z</time>
      </trkpt>
      <trkpt lat="48.5564" lon="2.08459">
        <ele>156</ele>
        <time>2022-01-15T10:19:32Z</time>
      </trkpt>
      <trkpt lat="48.55643" lon="2.0846">
        <ele>156</ele>
        <time>2022-01-15T10:19:29Z</time>
      </trkpt>
      <trkpt lat="48.55646" lon="2.0846">
        <ele>155</ele>
        <time>2022-01-15T10:19:27Z</time>
      </trkpt>
      <trkpt lat="48.55649" lon="2.08461">
        <ele>155</ele>
        <time>2022-01-15T10:19:25Z</time>
      </trkpt>
      <trkpt lat="48.55652" lon="2.08461">
        <ele>155</ele>
        <time>2022-01-15T10:19:22Z</time>
      </trkpt>
      <trkpt lat="48.55655" lon="2.08461">
        <ele>155</ele>
        <time>2022-01-15T10:19:20Z</time>
      </trkpt>
      <trkpt lat="48.55658" lon="2.0846">
        <ele>155</ele>
        <time>2022-01-15T10:19:17Z</time>
      </trkpt>
      <trkpt lat="48.55661" lon="2.08457">
        <ele>155</ele>
        <time>2022-01-15T10:19:13Z</time>
      </trkpt>
      <trkpt lat="48.55661" lon="2.08452">
        <ele>155</ele>
        <time>2022-01-15T10:19:11Z</time>
      </trkpt>
      <trkpt lat="48.55663" lon="2.0845">
        <ele>155</ele>
        <time>2022-01-15T10:19:06Z</time>
      </trkpt>
      <trkpt lat="48.55665" lon="2.0845">
        <ele>155</ele>
        <time>2022-01-15T10:19:04Z</time>
      </trkpt>
      <trkpt lat="48.55668" lon="2.08448">
        <ele>155</ele>
        <time>2022-01-15T10:19:02Z</time>
      </trkpt>
      <trkpt lat="48.5567" lon="2.08445">
        <ele>155</ele>
        <time>2022-01-15T10:19:00Z</time>
      </trkpt>
      <trkpt lat="48.55672" lon="2.0844">
        <ele>155</ele>
        <time>2022-01-15T10:18:58Z</time>
      </trkpt>
      <trkpt lat="48.55674" lon="2.08435">
        <ele>154</ele>
        <time>2022-01-15T10:18:55Z</time>
      </trkpt>
      <trkpt lat="48.55676" lon="2.08431">
        <ele>154</ele>
        <time>2022-01-15T10:18:53Z</time>
      </trkpt>
      <trkpt lat="48.55677" lon="2.08428">
        <ele>154</ele>
        <time>2022-01-15T10:18:51Z</time>
      </trkpt>
      <trkpt lat="48.55679" lon="2.08424">
        <ele>154</ele>
        <time>2022-01-15T10:18:48Z</time>
      </trkpt>
      <trkpt lat="48.5568" lon="2.0842">
        <ele>154</ele>
        <time>2022-01-15T10:18:47Z</time>
      </trkpt>
      <trkpt lat="48.55682" lon="2.08415">
        <ele>154</ele>
        <time>2022-01-15T10:18:45Z</time>
      </trkpt>
      <trkpt lat="48.55683" lon="2.08411">
        <ele>154</ele>
        <time>2022-01-15T10:18:42Z</time>
      </trkpt>
      <trkpt lat="48.55685" lon="2.08408">
        <ele>154</ele>
        <time>2022-01-15T10:18:40Z</time>
      </trkpt>
      <trkpt lat="48.55688" lon="2.08405">
        <ele>154</ele>
        <time>2022-01-15T10:18:38Z</time>
      </trkpt>
      <trkpt lat="48.55692" lon="2.08402">
        <ele>153</ele>
        <time>2022-01-15T10:18:34Z</time>
      </trkpt>
      <trkpt lat="48.55696" lon="2.08399">
        <ele>153</ele>
        <time>2022-01-15T10:18:31Z</time>
      </trkpt>
      <trkpt lat="48.55699" lon="2.08397">
        <ele>153</ele>
        <time>2022-01-15T10:18:28Z</time>
      </trkpt>
      <trkpt lat="48.55702" lon="2.08395">
        <ele>152</ele>
        <time>2022-01-15T10:18:25Z</time>
      </trkpt>
      <trkpt lat="48.55705" lon="2.08393">
        <ele>152</ele>
        <time>2022-01-15T10:18:22Z</time>
      </trkpt>
      <trkpt lat="48.55708" lon="2.08391">
        <ele>151</ele>
        <time>2022-01-15T10:18:20Z</time>
      </trkpt>
      <trkpt lat="48.55711" lon="2.0839">
        <ele>151</ele>
        <time>2022-01-15T10:18:18Z</time>
      </trkpt>
      <trkpt lat="48.55715" lon="2.08388">
        <ele>150</ele>
        <time>2022-01-15T10:18:14Z</time>
      </trkpt>
      <trkpt lat="48.55718" lon="2.08385">
        <ele>149</ele>
        <time>2022-01-15T10:18:12Z</time>
      </trkpt>
      <trkpt lat="48.5572" lon="2.08383">
        <ele>149</ele>
        <time>2022-01-15T10:18:09Z</time>
      </trkpt>
      <trkpt lat="48.55724" lon="2.08381">
        <ele>148</ele>
        <time>2022-01-15T10:18:07Z</time>
      </trkpt>
      <trkpt lat="48.55727" lon="2.0838">
        <ele>148</ele>
        <time>2022-01-15T10:18:04Z</time>
      </trkpt>
      <trkpt lat="48.5573" lon="2.08379">
        <ele>147</ele>
        <time>2022-01-15T10:18:01Z</time>
      </trkpt>
      <trkpt lat="48.55733" lon="2.08377">
        <ele>146</ele>
        <time>2022-01-15T10:17:58Z</time>
      </trkpt>
      <trkpt lat="48.55736" lon="2.08374">
        <ele>145</ele>
        <time>2022-01-15T10:17:55Z</time>
      </trkpt>
      <trkpt lat="48.55739" lon="2.08372">
        <ele>145</ele>
        <time>2022-01-15T10:17:53Z</time>
      </trkpt>
      <trkpt lat="48.55742" lon="2.0837">
        <ele>145</ele>
        <time>2022-01-15T10:17:51Z</time>
      </trkpt>
      <trkpt lat="48.55745" lon="2.08368">
        <ele>144</ele>
        <time>2022-01-15T10:17:48Z</time>
      </trkpt>
      <trkpt lat="48.55748" lon="2.08366">
        <ele>143</ele>
        <time>2022-01-15T10:17:45Z</time>
      </trkpt>
      <trkpt lat="48.55751" lon="2.08363">
        <ele>143</ele>
        <time>2022-01-15T10:17:43Z</time>
      </trkpt>
      <trkpt lat="48.55754" lon="2.08362">
        <ele>142</ele>
        <time>2022-01-15T10:17:41Z</time>
      </trkpt>
      <trkpt lat="48.55758" lon="2.0836">
        <ele>141</ele>
        <time>2022-01-15T10:17:38Z</time>
      </trkpt>
      <trkpt lat="48.55761" lon="2.0836">
        <ele>141</ele>
        <time>2022-01-15T10:17:35Z</time>
      </trkpt>
      <trkpt lat="48.55765" lon="2.08361">
        <ele>141</ele>
        <time>2022-01-15T10:17:33Z</time>
      </trkpt>
      <trkpt lat="48.55769" lon="2.08362">
        <ele>140</ele>
        <time>2022-01-15T10:17:30Z</time>
      </trkpt>
      <trkpt lat="48.55772" lon="2.08363">
        <ele>139</ele>
        <time>2022-01-15T10:17:27Z</time>
      </trkpt>
      <trkpt lat="48.55776" lon="2.08364">
        <ele>139</ele>
        <time>2022-01-15T10:17:24Z</time>
      </trkpt>
      <trkpt lat="48.55779" lon="2.08364">
        <ele>139</ele>
        <time>2022-01-15T10:17:22Z</time>
      </trkpt>
      <trkpt lat="48.55782" lon="2.08365">
        <ele>138</ele>
        <time>2022-01-15T10:17:19Z</time>
      </trkpt>
      <trkpt lat="48.55786" lon="2.08365">
        <ele>138</ele>
        <time>2022-01-15T10:17:17Z</time>
      </trkpt>
      <trkpt lat="48.55789" lon="2.08365">
        <ele>138</ele>
        <time>2022-01-15T10:17:14Z</time>
      </trkpt>
      <trkpt lat="48.55793" lon="2.08365">
        <ele>138</ele>
        <time>2022-01-15T10:17:11Z</time>
      </trkpt>
      <trkpt lat="48.55796" lon="2.08365">
        <ele>137</ele>
        <time>2022-01-15T10:17:09Z</time>
      </trkpt>
      <trkpt lat="48.55799" lon="2.08364">
        <ele>137</ele>
        <time>2022-01-15T10:17:06Z</time>
      </trkpt>
      <trkpt lat="48.55802" lon="2.08364">
        <ele>137</ele>
        <time>2022-01-15T10:17:04Z</time>
      </trkpt>
      <trkpt lat="48.55805" lon="2.08363">
        <ele>137</ele>
        <time>2022-01-15T10:17:02Z</time>
      </trkpt>
      <trkpt lat="48.55809" lon="2.08362">
        <ele>137</ele>
        <time>2022-01-15T10:17:00Z</time>
      </trkpt>
      <trkpt lat="48.55812" lon="2.08362">
        <ele>137</ele>
        <time>2022-01-15T10:16:58Z</time>
      </trkpt>
      <trkpt lat="48.55816" lon="2.08361">
        <ele>137</ele>
        <time>2022-01-15T10:16:56Z</time>
      </trkpt>
      <trkpt lat="48.5582" lon="2.08361">
        <ele>137</ele>
        <time>2022-01-15T10:16:53Z</time>
      </trkpt>
      <trkpt lat="48.55824" lon="2.08361">
        <ele>137</ele>
        <time>2022-01-15T10:16:50Z</time>
      </trkpt>
      <trkpt lat="48.55828" lon="2.08361">
        <ele>136</ele>
        <time>2022-01-15T10:16:47Z</time>
      </trkpt>
      <trkpt lat="48.55831" lon="2.08362">
        <ele>136</ele>
        <time>2022-01-15T10:16:45Z</time>
      </trkpt>
      <trkpt lat="48.55834" lon="2.08362">
        <ele>136</ele>
        <time>2022-01-15T10:16:43Z</time>
      </trkpt>
      <trkpt lat="48.55837" lon="2.08363">
        <ele>136</ele>
        <time>2022-01-15T10:16:41Z</time>
      </trkpt>
      <trkpt lat="48.55841" lon="2.08364">
        <ele>136</ele>
        <time>2022-01-15T10:16:38Z</time>
      </trkpt>
      <trkpt lat="48.55845" lon="2.08365">
        <ele>136</ele>
        <time>2022-01-15T10:16:35Z</time>
      </trkpt>
      <trkpt lat="48.55848" lon="2.08365">
        <ele>136</ele>
        <time>2022-01-15T10:16:33Z</time>
      </trkpt>
      <trkpt lat="48.55851" lon="2.08365">
        <ele>136</ele>
        <time>2022-01-15T10:16:31Z</time>
      </trkpt>
      <trkpt lat="48.55854" lon="2.08365">
        <ele>136</ele>
        <time>2022-01-15T10:16:29Z</time>
      </trkpt>
      <trkpt lat="48.55857" lon="2.08366">
        <ele>136</ele>
        <time>2022-01-15T10:16:27Z</time>
      </trkpt>
      <trkpt lat="48.5586" lon="2.08366">
        <ele>136</ele>
        <time>2022-01-15T10:16:25Z</time>
      </trkpt>
      <trkpt lat="48.55864" lon="2.08366">
        <ele>136</ele>
        <time>2022-01-15T10:16:23Z</time>
      </trkpt>
      <trkpt lat="48.55867" lon="2.08367">
        <ele>136</ele>
        <time>2022-01-15T10:16:21Z</time>
      </trkpt>
      <trkpt lat="48.5587" lon="2.08367">
        <ele>136</ele>
        <time>2022-01-15T10:16:19Z</time>
      </trkpt>
      <trkpt lat="48.55874" lon="2.08367">
        <ele>136</ele>
        <time>2022-01-15T10:16:16Z</time>
      </trkpt>
      <trkpt lat="48.55876" lon="2.08368">
        <ele>136</ele>
        <time>2022-01-15T10:16:14Z</time>
      </trkpt>
      <trkpt lat="48.55879" lon="2.08369">
        <ele>136</ele>
        <time>2022-01-15T10:16:12Z</time>
      </trkpt>
      <trkpt lat="48.55882" lon="2.0837">
        <ele>136</ele>
        <time>2022-01-15T10:16:10Z</time>
      </trkpt>
      <trkpt lat="48.55885" lon="2.08371">
        <ele>136</ele>
        <time>2022-01-15T10:16:08Z</time>
      </trkpt>
      <trkpt lat="48.55889" lon="2.08372">
        <ele>136</ele>
        <time>2022-01-15T10:16:05Z</time>
      </trkpt>
      <trkpt lat="48.55892" lon="2.08372">
        <ele>136</ele>
        <time>2022-01-15T10:16:03Z</time>
      </trkpt>
      <trkpt lat="48.55896" lon="2.08372">
        <ele>135</ele>
        <time>2022-01-15T10:16:00Z</time>
      </trkpt>
      <trkpt lat="48.559" lon="2.08371">
        <ele>135</ele>
        <time>2022-01-15T10:15:57Z</time>
      </trkpt>
      <trkpt lat="48.55903" lon="2.08372">
        <ele>134</ele>
        <time>2022-01-15T10:15:54Z</time>
      </trkpt>
      <trkpt lat="48.55907" lon="2.08372">
        <ele>134</ele>
        <time>2022-01-15T10:15:51Z</time>
      </trkpt>
      <trkpt lat="48.5591" lon="2.08372">
        <ele>134</ele>
        <time>2022-01-15T10:15:49Z</time>
      </trkpt>
      <trkpt lat="48.55914" lon="2.08372">
        <ele>133</ele>
        <time>2022-01-15T10:15:46Z</time>
      </trkpt>
      <trkpt lat="48.55917" lon="2.08372">
        <ele>133</ele>
        <time>2022-01-15T10:15:44Z</time>
      </trkpt>
      <trkpt lat="48.5592" lon="2.08373">
        <ele>133</ele>
        <time>2022-01-15T10:15:41Z</time>
      </trkpt>
      <trkpt lat="48.55924" lon="2.08373">
        <ele>133</ele>
        <time>2022-01-15T10:15:38Z</time>
      </trkpt>
      <trkpt lat="48.55927" lon="2.08373">
        <ele>132</ele>
        <time>2022-01-15T10:15:35Z</time>
      </trkpt>
      <trkpt lat="48.55931" lon="2.08373">
        <ele>132</ele>
        <time>2022-01-15T10:15:33Z</time>
      </trkpt>
      <trkpt lat="48.55934" lon="2.08374">
        <ele>132</ele>
        <time>2022-01-15T10:15:31Z</time>
      </trkpt>
      <trkpt lat="48.55938" lon="2.08374">
        <ele>131</ele>
        <time>2022-01-15T10:15:28Z</time>
      </trkpt>
      <trkpt lat="48.55941" lon="2.08374">
        <ele>131</ele>
        <time>2022-01-15T10:15:26Z</time>
      </trkpt>
      <trkpt lat="48.55945" lon="2.08375">
        <ele>131</ele>
        <time>2022-01-15T10:15:24Z</time>
      </trkpt>
      <trkpt lat="48.55948" lon="2.08375">
        <ele>130</ele>
        <time>2022-01-15T10:15:22Z</time>
      </trkpt>
      <trkpt lat="48.55952" lon="2.08376">
        <ele>130</ele>
        <time>2022-01-15T10:15:20Z</time>
      </trkpt>
      <trkpt lat="48.55955" lon="2.08376">
        <ele>130</ele>
        <time>2022-01-15T10:15:18Z</time>
      </trkpt>
      <trkpt lat="48.55959" lon="2.08377">
        <ele>129</ele>
        <time>2022-01-15T10:15:15Z</time>
      </trkpt>
      <trkpt lat="48.55962" lon="2.08376">
        <ele>129</ele>
        <time>2022-01-15T10:15:13Z</time>
      </trkpt>
      <trkpt lat="48.55965" lon="2.08377">
        <ele>129</ele>
        <time>2022-01-15T10:15:11Z</time>
      </trkpt>
      <trkpt lat="48.55969" lon="2.08377">
        <ele>129</ele>
        <time>2022-01-15T10:15:08Z</time>
      </trkpt>
      <trkpt lat="48.55972" lon="2.08378">
        <ele>128</ele>
        <time>2022-01-15T10:15:06Z</time>
      </trkpt>
      <trkpt lat="48.55976" lon="2.08378">
        <ele>128</ele>
        <time>2022-01-15T10:15:03Z</time>
      </trkpt>
      <trkpt lat="48.5598" lon="2.0838">
        <ele>128</ele>
        <time>2022-01-15T10:15:00Z</time>
      </trkpt>
      <trkpt lat="48.55984" lon="2.0838">
        <ele>127</ele>
        <time>2022-01-15T10:14:57Z</time>
      </trkpt>
      <trkpt lat="48.55987" lon="2.08381">
        <ele>127</ele>
        <time>2022-01-15T10:14:55Z</time>
      </trkpt>
      <trkpt lat="48.55991" lon="2.08382">
        <ele>127</ele>
        <time>2022-01-15T10:14:51Z</time>
      </trkpt>
      <trkpt lat="48.55994" lon="2.08384">
        <ele>126</ele>
        <time>2022-01-15T10:14:49Z</time>
      </trkpt>
      <trkpt lat="48.55997" lon="2.08386">
        <ele>126</ele>
        <time>2022-01-15T10:14:47Z</time>
      </trkpt>
      <trkpt lat="48.55999" lon="2.08389">
        <ele>126</ele>
        <time>2022-01-15T10:14:45Z</time>
      </trkpt>
      <trkpt lat="48.56003" lon="2.0839">
        <ele>126</ele>
        <time>2022-01-15T10:14:43Z</time>
      </trkpt>
      <trkpt lat="48.56007" lon="2.08393">
        <ele>126</ele>
        <time>2022-01-15T10:14:39Z</time>
      </trkpt>
      <trkpt lat="48.5601" lon="2.08395">
        <ele>125</ele>
        <time>2022-01-15T10:14:36Z</time>
      </trkpt>
      <trkpt lat="48.56012" lon="2.08398">
        <ele>125</ele>
        <time>2022-01-15T10:14:34Z</time>
      </trkpt>
      <trkpt lat="48.56015" lon="2.084">
        <ele>125</ele>
        <time>2022-01-15T10:14:32Z</time>
      </trkpt>
      <trkpt lat="48.56018" lon="2.08402">
        <ele>125</ele>
        <time>2022-01-15T10:14:30Z</time>
      </trkpt>
      <trkpt lat="48.56022" lon="2.08405">
        <ele>125</ele>
        <time>2022-01-15T10:14:27Z</time>
      </trkpt>
      <trkpt lat="48.56025" lon="2.08407">
        <ele>125</ele>
        <time>2022-01-15T10:14:25Z</time>
      </trkpt>
      <trkpt lat="48.56028" lon="2.0841">
        <ele>125</ele>
        <time>2022-01-15T10:14:23Z</time>
      </trkpt>
      <trkpt lat="48.56031" lon="2.08412">
        <ele>124</ele>
        <time>2022-01-15T10:14:20Z</time>
      </trkpt>
      <trkpt lat="48.56035" lon="2.08413">
        <ele>124</ele>
        <time>2022-01-15T10:14:18Z</time>
      </trkpt>
      <trkpt lat="48.56038" lon="2.08415">
        <ele>124</ele>
        <time>2022-01-15T10:14:16Z</time>
      </trkpt>
      <trkpt lat="48.56042" lon="2.08416">
        <ele>124</ele>
        <time>2022-01-15T10:14:13Z</time>
      </trkpt>
      <trkpt lat="48.56046" lon="2.08417">
        <ele>124</ele>
        <time>2022-01-15T10:14:11Z</time>
      </trkpt>
      <trkpt lat="48.56049" lon="2.08418">
        <ele>124</ele>
        <time>2022-01-15T10:14:08Z</time>
      </trkpt>
      <trkpt lat="48.56052" lon="2.0842">
        <ele>124</ele>
        <time>2022-01-15T10:14:06Z</time>
      </trkpt>
      <trkpt lat="48.56055" lon="2.08421">
        <ele>124</ele>
        <time>2022-01-15T10:14:04Z</time>
      </trkpt>
      <trkpt lat="48.56059" lon="2.08423">
        <ele>124</ele>
        <time>2022-01-15T10:14:02Z</time>
      </trkpt>
      <trkpt lat="48.56062" lon="2.08424">
        <ele>124</ele>
        <time>2022-01-15T10:14:00Z</time>
      </trkpt>
      <trkpt lat="48.56065" lon="2.08426">
        <ele>124</ele>
        <time>2022-01-15T10:13:57Z</time>
      </trkpt>
      <trkpt lat="48.56069" lon="2.08427">
        <ele>124</ele>
        <time>2022-01-15T10:13:54Z</time>
      </trkpt>
      <trkpt lat="48.56072" lon="2.08428">
        <ele>123</ele>
        <time>2022-01-15T10:13:52Z</time>
      </trkpt>
      <trkpt lat="48.56076" lon="2.08429">
        <ele>123</ele>
        <time>2022-01-15T10:13:50Z</time>
      </trkpt>
      <trkpt lat="48.56079" lon="2.08431">
        <ele>123</ele>
        <time>2022-01-15T10:13:47Z</time>
      </trkpt>
      <trkpt lat="48.56082" lon="2.08431">
        <ele>123</ele>
        <time>2022-01-15T10:13:45Z</time>
      </trkpt>
      <trkpt lat="48.56086" lon="2.08432">
        <ele>123</ele>
        <time>2022-01-15T10:13:43Z</time>
      </trkpt>
      <trkpt lat="48.56089" lon="2.08433">
        <ele>123</ele>
        <time>2022-01-15T10:13:40Z</time>
      </trkpt>
      <trkpt lat="48.56092" lon="2.08434">
        <ele>123</ele>
        <time>2022-01-15T10:13:38Z</time>
      </trkpt>
      <trkpt lat="48.56095" lon="2.08435">
        <ele>123</ele>
        <time>2022-01-15T10:13:36Z</time>
      </trkpt>
      <trkpt lat="48.56099" lon="2.08436">
        <ele>122</ele>
        <time>2022-01-15T10:13:32Z</time>
      </trkpt>
      <trkpt lat="48.56102" lon="2.08437">
        <ele>122</ele>
        <time>2022-01-15T10:13:29Z</time>
      </trkpt>
      <trkpt lat="48.56106" lon="2.08438">
        <ele>122</ele>
        <time>2022-01-15T10:13:26Z</time>
      </trkpt>
      <trkpt lat="48.56109" lon="2.08439">
        <ele>121</ele>
        <time>2022-01-15T10:13:24Z</time>
      </trkpt>
      <trkpt lat="48.56113" lon="2.0844">
        <ele>121</ele>
        <time>2022-01-15T10:13:21Z</time>
      </trkpt>
      <trkpt lat="48.56116" lon="2.08441">
        <ele>121</ele>
        <time>2022-01-15T10:13:19Z</time>
      </trkpt>
      <trkpt lat="48.5612" lon="2.08441">
        <ele>120</ele>
        <time>2022-01-15T10:13:16Z</time>
      </trkpt>
      <trkpt lat="48.56124" lon="2.08441">
        <ele>120</ele>
        <time>2022-01-15T10:13:13Z</time>
      </trkpt>
      <trkpt lat="48.56127" lon="2.0844">
        <ele>119</ele>
        <time>2022-01-15T10:13:10Z</time>
      </trkpt>
      <trkpt lat="48.56131" lon="2.08439">
        <ele>119</ele>
        <time>2022-01-15T10:13:07Z</time>
      </trkpt>
      <trkpt lat="48.56134" lon="2.08438">
        <ele>119</ele>
        <time>2022-01-15T10:13:05Z</time>
      </trkpt>
      <trkpt lat="48.56138" lon="2.08437">
        <ele>119</ele>
        <time>2022-01-15T10:13:03Z</time>
      </trkpt>
      <trkpt lat="48.56142" lon="2.08437">
        <ele>118</ele>
        <time>2022-01-15T10:13:00Z</time>
      </trkpt>
      <trkpt lat="48.56145" lon="2.08437">
        <ele>118</ele>
        <time>2022-01-15T10:12:57Z</time>
      </trkpt>
      <trkpt lat="48.56148" lon="2.08436">
        <ele>118</ele>
        <time>2022-01-15T10:12:55Z</time>
      </trkpt>
      <trkpt lat="48.56152" lon="2.08436">
        <ele>118</ele>
        <time>2022-01-15T10:12:53Z</time>
      </trkpt>
      <trkpt lat="48.56155" lon="2.08436">
        <ele>118</ele>
        <time>2022-01-15T10:12:50Z</time>
      </trkpt>
      <trkpt lat="48.56159" lon="2.08436">
        <ele>117</ele>
        <time>2022-01-15T10:12:47Z</time>
      </trkpt>
      <trkpt lat="48.56162" lon="2.08436">
        <ele>117</ele>
        <time>2022-01-15T10:12:44Z</time>
      </trkpt>
      <trkpt lat="48.56165" lon="2.08435">
        <ele>117</ele>
        <time>2022-01-15T10:12:42Z</time>
      </trkpt>
      <trkpt lat="48.56168" lon="2.08435">
        <ele>117</ele>
        <time>2022-01-15T10:12:39Z</time>
      </trkpt>
      <trkpt lat="48.56172" lon="2.08434">
        <ele>117</ele>
        <time>2022-01-15T10:12:37Z</time>
      </trkpt>
      <trkpt lat="48.56175" lon="2.08433">
        <ele>117</ele>
        <time>2022-01-15T10:12:35Z</time>
      </trkpt>
      <trkpt lat="48.56179" lon="2.08432">
        <ele>117</ele>
        <time>2022-01-15T10:12:32Z</time>
      </trkpt>
      <trkpt lat="48.56183" lon="2.08431">
        <ele>117</ele>
        <time>2022-01-15T10:12:29Z</time>
      </trkpt>
      <trkpt lat="48.56186" lon="2.08431">
        <ele>117</ele>
        <time>2022-01-15T10:12:27Z</time>
      </trkpt>
      <trkpt lat="48.5619" lon="2.0843">
        <ele>116</ele>
        <time>2022-01-15T10:12:24Z</time>
      </trkpt>
      <trkpt lat="48.56193" lon="2.08429">
        <ele>116</ele>
        <time>2022-01-15T10:12:21Z</time>
      </trkpt>
      <trkpt lat="48.56197" lon="2.08428">
        <ele>116</ele>
        <time>2022-01-15T10:12:18Z</time>
      </trkpt>
      <trkpt lat="48.562" lon="2.08427">
        <ele>116</ele>
        <time>2022-01-15T10:12:15Z</time>
      </trkpt>
      <trkpt lat="48.56203" lon="2.08426">
        <ele>116</ele>
        <time>2022-01-15T10:12:13Z</time>
      </trkpt>
      <trkpt lat="48.56206" lon="2.08425">
        <ele>116</ele>
        <time>2022-01-15T10:12:10Z</time>
      </trkpt>
      <trkpt lat="48.56209" lon="2.08425">
        <ele>116</ele>
        <time>2022-01-15T10:12:07Z</time>
      </trkpt>
      <trkpt lat="48.56212" lon="2.08424">
        <ele>116</ele>
        <time>2022-01-15T10:12:05Z</time>
      </trkpt>
      <trkpt lat="48.56215" lon="2.08423">
        <ele>116</ele>
        <time>2022-01-15T10:12:03Z</time>
      </trkpt>
      <trkpt lat="48.56218" lon="2.08423">
        <ele>116</ele>
        <time>2022-01-15T10:12:00Z</time>
      </trkpt>
      <trkpt lat="48.56221" lon="2.08423">
        <ele>115</ele>
        <time>2022-01-15T10:11:55Z</time>
      </trkpt>
      <trkpt lat="48.56223" lon="2.08424">
        <ele>115</ele>
        <time>2022-01-15T10:11:49Z</time>
      </trkpt>
      <trkpt lat="48.56223" lon="2.08423">
        <ele>115</ele>
        <time>2022-01-15T10:11:41Z</time>
      </trkpt>
      <trkpt lat="48.56221" lon="2.08427">
        <ele>114</ele>
        <time>2022-01-15T10:11:37Z</time>
      </trkpt>
      <trkpt lat="48.56219" lon="2.08431">
        <ele>114</ele>
        <time>2022-01-15T10:11:35Z</time>
      </trkpt>
      <trkpt lat="48.56217" lon="2.08435">
        <ele>114</ele>
        <time>2022-01-15T10:11:32Z</time>
      </trkpt>
      <trkpt lat="48.56215" lon="2.0844">
        <ele>113</ele>
        <time>2022-01-15T10:11:29Z</time>
      </trkpt>
      <trkpt lat="48.56213" lon="2.08444">
        <ele>113</ele>
        <time>2022-01-15T10:11:27Z</time>
      </trkpt>
      <trkpt lat="48.56212" lon="2.08449">
        <ele>113</ele>
        <time>2022-01-15T10:11:25Z</time>
      </trkpt>
      <trkpt lat="48.56212" lon="2.08456">
        <ele>112</ele>
        <time>2022-01-15T10:11:22Z</time>
      </trkpt>
      <trkpt lat="48.56212" lon="2.08462">
        <ele>112</ele>
        <time>2022-01-15T10:11:19Z</time>
      </trkpt>
      <trkpt lat="48.56212" lon="2.08468">
        <ele>111</ele>
        <time>2022-01-15T10:11:16Z</time>
      </trkpt>
      <trkpt lat="48.56213" lon="2.08473">
        <ele>111</ele>
        <time>2022-01-15T10:11:13Z</time>
      </trkpt>
      <trkpt lat="48.56213" lon="2.08479">
        <ele>111</ele>
        <time>2022-01-15T10:11:11Z</time>
      </trkpt>
      <trkpt lat="48.56214" lon="2.08485">
        <ele>110</ele>
        <time>2022-01-15T10:11:08Z</time>
      </trkpt>
      <trkpt lat="48.56214" lon="2.0849">
        <ele>110</ele>
        <time>2022-01-15T10:11:05Z</time>
      </trkpt>
      <trkpt lat="48.56215" lon="2.08495">
        <ele>109</ele>
        <time>2022-01-15T10:11:03Z</time>
      </trkpt>
      <trkpt lat="48.56216" lon="2.085">
        <ele>109</ele>
        <time>2022-01-15T10:11:00Z</time>
      </trkpt>
      <trkpt lat="48.56216" lon="2.08505">
        <ele>109</ele>
        <time>2022-01-15T10:10:58Z</time>
      </trkpt>
      <trkpt lat="48.56216" lon="2.08511">
        <ele>108</ele>
        <time>2022-01-15T10:10:53Z</time>
      </trkpt>
      <trkpt lat="48.56217" lon="2.08517">
        <ele>108</ele>
        <time>2022-01-15T10:10:51Z</time>
      </trkpt>
      <trkpt lat="48.56218" lon="2.08522">
        <ele>107</ele>
        <time>2022-01-15T10:10:48Z</time>
      </trkpt>
      <trkpt lat="48.56219" lon="2.08528">
        <ele>107</ele>
        <time>2022-01-15T10:10:45Z</time>
      </trkpt>
      <trkpt lat="48.5622" lon="2.08533">
        <ele>107</ele>
        <time>2022-01-15T10:10:43Z</time>
      </trkpt>
      <trkpt lat="48.56221" lon="2.08538">
        <ele>107</ele>
        <time>2022-01-15T10:10:41Z</time>
      </trkpt>
      <trkpt lat="48.56222" lon="2.08544">
        <ele>106</ele>
        <time>2022-01-15T10:10:38Z</time>
      </trkpt>
      <trkpt lat="48.56222" lon="2.0855">
        <ele>106</ele>
        <time>2022-01-15T10:10:36Z</time>
      </trkpt>
      <trkpt lat="48.56223" lon="2.08554">
        <ele>106</ele>
        <time>2022-01-15T10:10:34Z</time>
      </trkpt>
      <trkpt lat="48.56223" lon="2.0856">
        <ele>105</ele>
        <time>2022-01-15T10:10:30Z</time>
      </trkpt>
      <trkpt lat="48.56224" lon="2.08567">
        <ele>105</ele>
        <time>2022-01-15T10:10:28Z</time>
      </trkpt>
      <trkpt lat="48.56225" lon="2.08572">
        <ele>105</ele>
        <time>2022-01-15T10:10:26Z</time>
      </trkpt>
      <trkpt lat="48.56224" lon="2.08579">
        <ele>105</ele>
        <time>2022-01-15T10:10:23Z</time>
      </trkpt>
      <trkpt lat="48.56225" lon="2.08584">
        <ele>105</ele>
        <time>2022-01-15T10:10:20Z</time>
      </trkpt>
      <trkpt lat="48.56225" lon="2.08589">
        <ele>104</ele>
        <time>2022-01-15T10:10:17Z</time>
      </trkpt>
      <trkpt lat="48.56225" lon="2.08594">
        <ele>104</ele>
        <time>2022-01-15T10:10:15Z</time>
      </trkpt>
      <trkpt lat="48.56226" lon="2.08598">
        <ele>104</ele>
        <time>2022-01-15T10:10:13Z</time>
      </trkpt>
      <trkpt lat="48.56227" lon="2.08603">
        <ele>104</ele>
        <time>2022-01-15T10:10:11Z</time>
      </trkpt>
      <trkpt lat="48.56227" lon="2.0861">
        <ele>104</ele>
        <time>2022-01-15T10:10:08Z</time>
      </trkpt>
      <trkpt lat="48.56227" lon="2.08614">
        <ele>104</ele>
        <time>2022-01-15T10:10:06Z</time>
      </trkpt>
      <trkpt lat="48.56228" lon="2.08619">
        <ele>104</ele>
        <time>2022-01-15T10:10:04Z</time>
      </trkpt>
      <trkpt lat="48.56229" lon="2.08624">
        <ele>104</ele>
        <time>2022-01-15T10:10:02Z</time>
      </trkpt>
      <trkpt lat="48.56229" lon="2.0863">
        <ele>104</ele>
        <time>2022-01-15T10:10:00Z</time>
      </trkpt>
      <trkpt lat="48.5623" lon="2.08635">
        <ele>104</ele>
        <time>2022-01-15T10:09:57Z</time>
      </trkpt>
      <trkpt lat="48.5623" lon="2.08639">
        <ele>103</ele>
        <time>2022-01-15T10:09:55Z</time>
      </trkpt>
      <trkpt lat="48.56232" lon="2.08644">
        <ele>103</ele>
        <time>2022-01-15T10:09:53Z</time>
      </trkpt>
      <trkpt lat="48.56233" lon="2.08648">
        <ele>103</ele>
        <time>2022-01-15T10:09:51Z</time>
      </trkpt>
      <trkpt lat="48.56234" lon="2.08654">
        <ele>103</ele>
        <time>2022-01-15T10:09:48Z</time>
      </trkpt>
      <trkpt lat="48.56235" lon="2.08658">
        <ele>103</ele>
        <time>2022-01-15T10:09:46Z</time>
      </trkpt>
      <trkpt lat="48.56236" lon="2.08663">
        <ele>103</ele>
        <time>2022-01-15T10:09:44Z</time>
      </trkpt>
      <trkpt lat="48.56237" lon="2.08667">
        <ele>102</ele>
        <time>2022-01-15T10:09:43Z</time>
      </trkpt>
      <trkpt lat="48.56238" lon="2.08672">
        <ele>102</ele>
        <time>2022-01-15T10:09:40Z</time>
      </trkpt>
      <trkpt lat="48.56239" lon="2.08677">
        <ele>102</ele>
        <time>2022-01-15T10:09:37Z</time>
      </trkpt>
      <trkpt lat="48.56239" lon="2.08682">
        <ele>101</ele>
        <time>2022-01-15T10:09:34Z</time>
      </trkpt>
      <trkpt lat="48.56238" lon="2.08688">
        <ele>101</ele>
        <time>2022-01-15T10:09:31Z</time>
      </trkpt>
      <trkpt lat="48.56237" lon="2.08692">
        <ele>101</ele>
        <time>2022-01-15T10:09:28Z</time>
      </trkpt>
      <trkpt lat="48.56237" lon="2.08698">
        <ele>101</ele>
        <time>2022-01-15T10:09:26Z</time>
      </trkpt>
      <trkpt lat="48.56236" lon="2.08703">
        <ele>101</ele>
        <time>2022-01-15T10:09:24Z</time>
      </trkpt>
      <trkpt lat="48.56236" lon="2.08708">
        <ele>101</ele>
        <time>2022-01-15T10:09:21Z</time>
      </trkpt>
      <trkpt lat="48.56236" lon="2.08713">
        <ele>101</ele>
        <time>2022-01-15T10:09:19Z</time>
      </trkpt>
      <trkpt lat="48.56237" lon="2.08718">
        <ele>101</ele>
        <time>2022-01-15T10:09:18Z</time>
      </trkpt>
      <trkpt lat="48.56237" lon="2.08724">
        <ele>101</ele>
        <time>2022-01-15T10:09:16Z</time>
      </trkpt>
      <trkpt lat="48.56238" lon="2.0873">
        <ele>101</ele>
        <time>2022-01-15T10:09:13Z</time>
      </trkpt>
      <trkpt lat="48.56238" lon="2.08735">
        <ele>101</ele>
        <time>2022-01-15T10:09:11Z</time>
      </trkpt>
      <trkpt lat="48.56238" lon="2.0874">
        <ele>101</ele>
        <time>2022-01-15T10:09:09Z</time>
      </trkpt>
      <trkpt lat="48.56238" lon="2.08746">
        <ele>101</ele>
        <time>2022-01-15T10:09:07Z</time>
      </trkpt>
      <trkpt lat="48.56238" lon="2.08752">
        <ele>101</ele>
        <time>2022-01-15T10:09:04Z</time>
      </trkpt>
      <trkpt lat="48.56238" lon="2.08757">
        <ele>101</ele>
        <time>2022-01-15T10:09:01Z</time>
      </trkpt>
      <trkpt lat="48.56237" lon="2.08762">
        <ele>101</ele>
        <time>2022-01-15T10:08:59Z</time>
      </trkpt>
      <trkpt lat="48.56237" lon="2.08767">
        <ele>101</ele>
        <time>2022-01-15T10:08:57Z</time>
      </trkpt>
      <trkpt lat="48.56237" lon="2.08772">
        <ele>101</ele>
        <time>2022-01-15T10:08:55Z</time>
      </trkpt>
      <trkpt lat="48.56237" lon="2.08777">
        <ele>101</ele>
        <time>2022-01-15T10:08:53Z</time>
      </trkpt>
      <trkpt lat="48.56238" lon="2.08781">
        <ele>101</ele>
        <time>2022-01-15T10:08:51Z</time>
      </trkpt>
      <trkpt lat="48.56238" lon="2.08786">
        <ele>101</ele>
        <time>2022-01-15T10:08:49Z</time>
      </trkpt>
      <trkpt lat="48.56238" lon="2.0879">
        <ele>101</ele>
        <time>2022-01-15T10:08:47Z</time>
      </trkpt>
      <trkpt lat="48.56238" lon="2.08794">
        <ele>101</ele>
        <time>2022-01-15T10:08:45Z</time>
      </trkpt>
      <trkpt lat="48.56237" lon="2.08799">
        <ele>101</ele>
        <time>2022-01-15T10:08:43Z</time>
      </trkpt>
      <trkpt lat="48.56237" lon="2.08803">
        <ele>102</ele>
        <time>2022-01-15T10:08:41Z</time>
      </trkpt>
      <trkpt lat="48.56236" lon="2.08808">
        <ele>102</ele>
        <time>2022-01-15T10:08:39Z</time>
      </trkpt>
      <trkpt lat="48.56235" lon="2.08813">
        <ele>102</ele>
        <time>2022-01-15T10:08:37Z</time>
      </trkpt>
      <trkpt lat="48.56233" lon="2.08817">
        <ele>102</ele>
        <time>2022-01-15T10:08:34Z</time>
      </trkpt>
      <trkpt lat="48.5623" lon="2.0882">
        <ele>102</ele>
        <time>2022-01-15T10:08:32Z</time>
      </trkpt>
      <trkpt lat="48.56227" lon="2.08824">
        <ele>102</ele>
        <time>2022-01-15T10:08:29Z</time>
      </trkpt>
      <trkpt lat="48.56226" lon="2.08828">
        <ele>102</ele>
        <time>2022-01-15T10:08:27Z</time>
      </trkpt>
      <trkpt lat="48.56224" lon="2.08832">
        <ele>102</ele>
        <time>2022-01-15T10:08:25Z</time>
      </trkpt>
      <trkpt lat="48.56222" lon="2.08836">
        <ele>103</ele>
        <time>2022-01-15T10:08:23Z</time>
      </trkpt>
      <trkpt lat="48.56221" lon="2.0884">
        <ele>103</ele>
        <time>2022-01-15T10:08:21Z</time>
      </trkpt>
      <trkpt lat="48.56218" lon="2.08843">
        <ele>103</ele>
        <time>2022-01-15T10:08:19Z</time>
      </trkpt>
      <trkpt lat="48.56216" lon="2.08846">
        <ele>103</ele>
        <time>2022-01-15T10:08:17Z</time>
      </trkpt>
      <trkpt lat="48.56214" lon="2.0885">
        <ele>104</ele>
        <time>2022-01-15T10:08:14Z</time>
      </trkpt>
      <trkpt lat="48.56212" lon="2.08853">
        <ele>104</ele>
        <time>2022-01-15T10:08:12Z</time>
      </trkpt>
      <trkpt lat="48.5621" lon="2.08857">
        <ele>104</ele>
        <time>2022-01-15T10:08:10Z</time>
      </trkpt>
      <trkpt lat="48.56208" lon="2.08862">
        <ele>104</ele>
        <time>2022-01-15T10:08:07Z</time>
      </trkpt>
      <trkpt lat="48.56208" lon="2.08868">
        <ele>104</ele>
        <time>2022-01-15T10:08:05Z</time>
      </trkpt>
      <trkpt lat="48.56208" lon="2.08872">
        <ele>104</ele>
        <time>2022-01-15T10:08:03Z</time>
      </trkpt>
      <trkpt lat="48.56208" lon="2.08877">
        <ele>105</ele>
        <time>2022-01-15T10:08:01Z</time>
      </trkpt>
      <trkpt lat="48.56209" lon="2.08883">
        <ele>105</ele>
        <time>2022-01-15T10:07:58Z</time>
      </trkpt>
      <trkpt lat="48.56209" lon="2.08889">
        <ele>105</ele>
        <time>2022-01-15T10:07:55Z</time>
      </trkpt>
      <trkpt lat="48.56209" lon="2.08893">
        <ele>105</ele>
        <time>2022-01-15T10:07:52Z</time>
      </trkpt>
      <trkpt lat="48.56209" lon="2.08898">
        <ele>105</ele>
        <time>2022-01-15T10:07:47Z</time>
      </trkpt>
      <trkpt lat="48.5621" lon="2.08903">
        <ele>105</ele>
        <time>2022-01-15T10:07:45Z</time>
      </trkpt>
      <trkpt lat="48.5621" lon="2.08909">
        <ele>106</ele>
        <time>2022-01-15T10:07:42Z</time>
      </trkpt>
      <trkpt lat="48.5621" lon="2.08915">
        <ele>106</ele>
        <time>2022-01-15T10:07:39Z</time>
      </trkpt>
      <trkpt lat="48.56211" lon="2.08921">
        <ele>106</ele>
        <time>2022-01-15T10:07:36Z</time>
      </trkpt>
      <trkpt lat="48.56211" lon="2.08926">
        <ele>106</ele>
        <time>2022-01-15T10:07:34Z</time>
      </trkpt>
      <trkpt lat="48.56212" lon="2.08932">
        <ele>106</ele>
        <time>2022-01-15T10:07:32Z</time>
      </trkpt>
      <trkpt lat="48.56212" lon="2.08936">
        <ele>106</ele>
        <time>2022-01-15T10:07:30Z</time>
      </trkpt>
      <trkpt lat="48.56212" lon="2.08943">
        <ele>107</ele>
        <time>2022-01-15T10:07:28Z</time>
      </trkpt>
      <trkpt lat="48.56213" lon="2.08947">
        <ele>107</ele>
        <time>2022-01-15T10:07:26Z</time>
      </trkpt>
      <trkpt lat="48.56214" lon="2.08953">
        <ele>107</ele>
        <time>2022-01-15T10:07:24Z</time>
      </trkpt>
      <trkpt lat="48.56214" lon="2.08958">
        <ele>107</ele>
        <time>2022-01-15T10:07:22Z</time>
      </trkpt>
      <trkpt lat="48.56214" lon="2.08963">
        <ele>107</ele>
        <time>2022-01-15T10:07:20Z</time>
      </trkpt>
      <trkpt lat="48.56214" lon="2.08968">
        <ele>108</ele>
        <time>2022-01-15T10:07:17Z</time>
      </trkpt>
      <trkpt lat="48.56214" lon="2.08973">
        <ele>108</ele>
        <time>2022-01-15T10:07:15Z</time>
      </trkpt>
      <trkpt lat="48.56216" lon="2.08978">
        <ele>108</ele>
        <time>2022-01-15T10:07:13Z</time>
      </trkpt>
      <trkpt lat="48.56216" lon="2.08983">
        <ele>108</ele>
        <time>2022-01-15T10:07:11Z</time>
      </trkpt>
      <trkpt lat="48.56217" lon="2.08989">
        <ele>108</ele>
        <time>2022-01-15T10:07:09Z</time>
      </trkpt>
      <trkpt lat="48.56217" lon="2.08994">
        <ele>109</ele>
        <time>2022-01-15T10:07:06Z</time>
      </trkpt>
      <trkpt lat="48.56218" lon="2.08999">
        <ele>109</ele>
        <time>2022-01-15T10:07:04Z</time>
      </trkpt>
      <trkpt lat="48.56218" lon="2.09004">
        <ele>109</ele>
        <time>2022-01-15T10:07:02Z</time>
      </trkpt>
      <trkpt lat="48.56218" lon="2.09009">
        <ele>109</ele>
        <time>2022-01-15T10:07:00Z</time>
      </trkpt>
      <trkpt lat="48.56219" lon="2.09015">
        <ele>109</ele>
        <time>2022-01-15T10:06:57Z</time>
      </trkpt>
      <trkpt lat="48.56219" lon="2.09021">
        <ele>110</ele>
        <time>2022-01-15T10:06:55Z</time>
      </trkpt>
      <trkpt lat="48.5622" lon="2.09027">
        <ele>110</ele>
        <time>2022-01-15T10:06:52Z</time>
      </trkpt>
      <trkpt lat="48.5622" lon="2.09032">
        <ele>110</ele>
        <time>2022-01-15T10:06:50Z</time>
      </trkpt>
      <trkpt lat="48.56221" lon="2.09036">
        <ele>110</ele>
        <time>2022-01-15T10:06:48Z</time>
      </trkpt>
      <trkpt lat="48.5622" lon="2.09041">
        <ele>111</ele>
        <time>2022-01-15T10:06:46Z</time>
      </trkpt>
      <trkpt lat="48.56221" lon="2.09046">
        <ele>111</ele>
        <time>2022-01-15T10:06:44Z</time>
      </trkpt>
      <trkpt lat="48.56221" lon="2.09052">
        <ele>111</ele>
        <time>2022-01-15T10:06:42Z</time>
      </trkpt>
      <trkpt lat="48.56221" lon="2.09058">
        <ele>111</ele>
        <time>2022-01-15T10:06:39Z</time>
      </trkpt>
      <trkpt lat="48.56222" lon="2.09064">
        <ele>112</ele>
        <time>2022-01-15T10:06:36Z</time>
      </trkpt>
      <trkpt lat="48.56223" lon="2.0907">
        <ele>112</ele>
        <time>2022-01-15T10:06:34Z</time>
      </trkpt>
      <trkpt lat="48.56223" lon="2.09074">
        <ele>112</ele>
        <time>2022-01-15T10:06:32Z</time>
      </trkpt>
      <trkpt lat="48.56224" lon="2.09079">
        <ele>113</ele>
        <time>2022-01-15T10:06:29Z</time>
      </trkpt>
      <trkpt lat="48.56225" lon="2.09084">
        <ele>113</ele>
        <time>2022-01-15T10:06:27Z</time>
      </trkpt>
      <trkpt lat="48.56226" lon="2.09089">
        <ele>113</ele>
        <time>2022-01-15T10:06:25Z</time>
      </trkpt>
      <trkpt lat="48.56227" lon="2.09093">
        <ele>114</ele>
        <time>2022-01-15T10:06:23Z</time>
      </trkpt>
      <trkpt lat="48.56228" lon="2.09097">
        <ele>114</ele>
        <time>2022-01-15T10:06:21Z</time>
      </trkpt>
      <trkpt lat="48.56229" lon="2.09102">
        <ele>114</ele>
        <time>2022-01-15T10:06:19Z</time>
      </trkpt>
      <trkpt lat="48.5623" lon="2.09106">
        <ele>114</ele>
        <time>2022-01-15T10:06:06Z</time>
      </trkpt>
      <trkpt lat="48.56229" lon="2.0911">
        <ele>115</ele>
        <time>2022-01-15T10:05:51Z</time>
      </trkpt>
      <trkpt lat="48.56228" lon="2.09113">
        <ele>115</ele>
        <time>2022-01-15T10:05:40Z</time>
      </trkpt>
      <trkpt lat="48.56226" lon="2.09114">
        <ele>115</ele>
        <time>2022-01-15T10:05:29Z</time>
      </trkpt>
      <trkpt lat="48.56226" lon="2.09118">
        <ele>115</ele>
        <time>2022-01-15T10:05:17Z</time>
      </trkpt>
      <trkpt lat="48.56225" lon="2.09122">
        <ele>116</ele>
        <time>2022-01-15T10:05:09Z</time>
      </trkpt>
      <trkpt lat="48.56224" lon="2.09126">
        <ele>116</ele>
        <time>2022-01-15T10:05:05Z</time>
      </trkpt>
      <trkpt lat="48.56223" lon="2.09128">
        <ele>116</ele>
        <time>2022-01-15T10:04:56Z</time>
      </trkpt>
      <trkpt lat="48.56219" lon="2.09127">
        <ele>116</ele>
        <time>2022-01-15T10:04:53Z</time>
      </trkpt>
      <trkpt lat="48.56216" lon="2.09125">
        <ele>116</ele>
        <time>2022-01-15T10:04:51Z</time>
      </trkpt>
      <trkpt lat="48.56213" lon="2.09124">
        <ele>116</ele>
        <time>2022-01-15T10:04:48Z</time>
      </trkpt>
      <trkpt lat="48.56209" lon="2.09123">
        <ele>116</ele>
        <time>2022-01-15T10:04:45Z</time>
      </trkpt>
      <trkpt lat="48.56206" lon="2.09123">
        <ele>116</ele>
        <time>2022-01-15T10:04:43Z</time>
      </trkpt>
      <trkpt lat="48.56202" lon="2.09123">
        <ele>116</ele>
        <time>2022-01-15T10:04:40Z</time>
      </trkpt>
      <trkpt lat="48.56199" lon="2.09122">
        <ele>117</ele>
        <time>2022-01-15T10:04:38Z</time>
      </trkpt>
      <trkpt lat="48.56195" lon="2.09122">
        <ele>117</ele>
        <time>2022-01-15T10:04:36Z</time>
      </trkpt>
      <trkpt lat="48.56192" lon="2.09122">
        <ele>117</ele>
        <time>2022-01-15T10:04:34Z</time>
      </trkpt>
      <trkpt lat="48.56188" lon="2.09121">
        <ele>117</ele>
        <time>2022-01-15T10:04:33Z</time>
      </trkpt>
      <trkpt lat="48.56184" lon="2.09121">
        <ele>117</ele>
        <time>2022-01-15T10:04:31Z</time>
      </trkpt>
      <trkpt lat="48.5618" lon="2.0912">
        <ele>117</ele>
        <time>2022-01-15T10:04:28Z</time>
      </trkpt>
      <trkpt lat="48.56177" lon="2.09119">
        <ele>117</ele>
        <time>2022-01-15T10:04:26Z</time>
      </trkpt>
      <trkpt lat="48.56173" lon="2.09119">
        <ele>117</ele>
        <time>2022-01-15T10:04:23Z</time>
      </trkpt>
      <trkpt lat="48.56169" lon="2.09119">
        <ele>118</ele>
        <time>2022-01-15T10:04:20Z</time>
      </trkpt>
      <trkpt lat="48.56166" lon="2.09118">
        <ele>118</ele>
        <time>2022-01-15T10:04:18Z</time>
      </trkpt>
      <trkpt lat="48.56162" lon="2.09118">
        <ele>118</ele>
        <time>2022-01-15T10:04:16Z</time>
      </trkpt>
      <trkpt lat="48.56159" lon="2.09117">
        <ele>118</ele>
        <time>2022-01-15T10:04:14Z</time>
      </trkpt>
      <trkpt lat="48.56155" lon="2.09117">
        <ele>118</ele>
        <time>2022-01-15T10:04:12Z</time>
      </trkpt>
      <trkpt lat="48.56151" lon="2.09117">
        <ele>118</ele>
        <time>2022-01-15T10:04:10Z</time>
      </trkpt>
      <trkpt lat="48.56147" lon="2.09117">
        <ele>118</ele>
        <time>2022-01-15T10:04:08Z</time>
      </trkpt>
      <trkpt lat="48.56143" lon="2.09117">
        <ele>118</ele>
        <time>2022-01-15T10:04:06Z</time>
      </trkpt>
      <trkpt lat="48.56139" lon="2.09116">
        <ele>119</ele>
        <time>2022-01-15T10:04:04Z</time>
      </trkpt>
      <trkpt lat="48.56135" lon="2.09116">
        <ele>119</ele>
        <time>2022-01-15T10:04:01Z</time>
      </trkpt>
      <trkpt lat="48.56131" lon="2.09116">
        <ele>119</ele>
        <time>2022-01-15T10:03:59Z</time>
      </trkpt>
      <trkpt lat="48.56127" lon="2.09115">
        <ele>119</ele>
        <time>2022-01-15T10:03:56Z</time>
      </trkpt>
      <trkpt lat="48.56124" lon="2.09114">
        <ele>119</ele>
        <time>2022-01-15T10:03:54Z</time>
      </trkpt>
      <trkpt lat="48.5612" lon="2.09113">
        <ele>119</ele>
        <time>2022-01-15T10:03:52Z</time>
      </trkpt>
      <trkpt lat="48.56117" lon="2.09113">
        <ele>119</ele>
        <time>2022-01-15T10:03:50Z</time>
      </trkpt>
      <trkpt lat="48.56113" lon="2.09114">
        <ele>120</ele>
        <time>2022-01-15T10:03:48Z</time>
      </trkpt>
      <trkpt lat="48.5611" lon="2.09114">
        <ele>120</ele>
        <time>2022-01-15T10:03:46Z</time>
      </trkpt>
      <trkpt lat="48.56106" lon="2.09114">
        <ele>120</ele>
        <time>2022-01-15T10:03:43Z</time>
      </trkpt>
      <trkpt lat="48.56102" lon="2.09115">
        <ele>120</ele>
        <time>2022-01-15T10:03:41Z</time>
      </trkpt>
      <trkpt lat="48.56098" lon="2.09116">
        <ele>120</ele>
        <time>2022-01-15T10:03:39Z</time>
      </trkpt>
      <trkpt lat="48.56094" lon="2.09117">
        <ele>120</ele>
        <time>2022-01-15T10:03:37Z</time>
      </trkpt>
      <trkpt lat="48.5609" lon="2.09118">
        <ele>121</ele>
        <time>2022-01-15T10:03:34Z</time>
      </trkpt>
      <trkpt lat="48.56086" lon="2.0912">
        <ele>121</ele>
        <time>2022-01-15T10:03:31Z</time>
      </trkpt>
      <trkpt lat="48.56082" lon="2.09121">
        <ele>121</ele>
        <time>2022-01-15T10:03:29Z</time>
      </trkpt>
      <trkpt lat="48.56078" lon="2.09122">
        <ele>121</ele>
        <time>2022-01-15T10:03:26Z</time>
      </trkpt>
      <trkpt lat="48.56075" lon="2.09123">
        <ele>122</ele>
        <time>2022-01-15T10:03:24Z</time>
      </trkpt>
      <trkpt lat="48.56071" lon="2.09125">
        <ele>122</ele>
        <time>2022-01-15T10:03:21Z</time>
      </trkpt>
      <trkpt lat="48.56067" lon="2.09126">
        <ele>122</ele>
        <time>2022-01-15T10:03:18Z</time>
      </trkpt>
      <trkpt lat="48.56064" lon="2.09128">
        <ele>122</ele>
        <time>2022-01-15T10:03:16Z</time>
      </trkpt>
      <trkpt lat="48.56061" lon="2.0913">
        <ele>122</ele>
        <time>2022-01-15T10:03:14Z</time>
      </trkpt>
      <trkpt lat="48.56058" lon="2.09131">
        <ele>123</ele>
        <time>2022-01-15T10:03:12Z</time>
      </trkpt>
      <trkpt lat="48.56054" lon="2.09133">
        <ele>123</ele>
        <time>2022-01-15T10:03:09Z</time>
      </trkpt>
      <trkpt lat="48.56051" lon="2.09136">
        <ele>123</ele>
        <time>2022-01-15T10:03:07Z</time>
      </trkpt>
      <trkpt lat="48.56047" lon="2.09138">
        <ele>123</ele>
        <time>2022-01-15T10:03:04Z</time>
      </trkpt>
      <trkpt lat="48.56044" lon="2.0914">
        <ele>124</ele>
        <time>2022-01-15T10:03:01Z</time>
      </trkpt>
      <trkpt lat="48.56041" lon="2.09141">
        <ele>124</ele>
        <time>2022-01-15T10:02:59Z</time>
      </trkpt>
      <trkpt lat="48.56038" lon="2.09143">
        <ele>124</ele>
        <time>2022-01-15T10:02:57Z</time>
      </trkpt>
      <trkpt lat="48.56035" lon="2.09144">
        <ele>124</ele>
        <time>2022-01-15T10:02:55Z</time>
      </trkpt>
      <trkpt lat="48.56031" lon="2.09145">
        <ele>124</ele>
        <time>2022-01-15T10:02:53Z</time>
      </trkpt>
      <trkpt lat="48.56028" lon="2.09147">
        <ele>125</ele>
        <time>2022-01-15T10:02:51Z</time>
      </trkpt>
      <trkpt lat="48.56025" lon="2.09148">
        <ele>125</ele>
        <time>2022-01-15T10:02:49Z</time>
      </trkpt>
      <trkpt lat="48.56022" lon="2.0915">
        <ele>125</ele>
        <time>2022-01-15T10:02:47Z</time>
      </trkpt>
      <trkpt lat="48.56019" lon="2.09151">
        <ele>125</ele>
        <time>2022-01-15T10:02:44Z</time>
      </trkpt>
      <trkpt lat="48.56016" lon="2.09152">
        <ele>125</ele>
        <time>2022-01-15T10:02:43Z</time>
      </trkpt>
      <trkpt lat="48.56013" lon="2.09154">
        <ele>126</ele>
        <time>2022-01-15T10:02:40Z</time>
      </trkpt>
      <trkpt lat="48.5601" lon="2.09156">
        <ele>126</ele>
        <time>2022-01-15T10:02:38Z</time>
      </trkpt>
      <trkpt lat="48.56006" lon="2.09157">
        <ele>126</ele>
        <time>2022-01-15T10:02:36Z</time>
      </trkpt>
      <trkpt lat="48.56002" lon="2.09158">
        <ele>127</ele>
        <time>2022-01-15T10:02:34Z</time>
      </trkpt>
      <trkpt lat="48.55999" lon="2.0916">
        <ele>127</ele>
        <time>2022-01-15T10:02:32Z</time>
      </trkpt>
      <trkpt lat="48.55996" lon="2.09162">
        <ele>128</ele>
        <time>2022-01-15T10:02:29Z</time>
      </trkpt>
      <trkpt lat="48.55992" lon="2.09165">
        <ele>128</ele>
        <time>2022-01-15T10:02:27Z</time>
      </trkpt>
      <trkpt lat="48.55989" lon="2.09167">
        <ele>129</ele>
        <time>2022-01-15T10:02:25Z</time>
      </trkpt>
      <trkpt lat="48.55985" lon="2.09169">
        <ele>129</ele>
        <time>2022-01-15T10:02:22Z</time>
      </trkpt>
      <trkpt lat="48.55982" lon="2.09171">
        <ele>129</ele>
        <time>2022-01-15T10:02:20Z</time>
      </trkpt>
      <trkpt lat="48.55979" lon="2.09175">
        <ele>130</ele>
        <time>2022-01-15T10:02:17Z</time>
      </trkpt>
      <trkpt lat="48.55976" lon="2.09177">
        <ele>130</ele>
        <time>2022-01-15T10:02:15Z</time>
      </trkpt>
      <trkpt lat="48.55973" lon="2.09179">
        <ele>130</ele>
        <time>2022-01-15T10:02:13Z</time>
      </trkpt>
      <trkpt lat="48.5597" lon="2.0918">
        <ele>130</ele>
        <time>2022-01-15T10:02:11Z</time>
      </trkpt>
      <trkpt lat="48.55967" lon="2.09182">
        <ele>130</ele>
        <time>2022-01-15T10:02:09Z</time>
      </trkpt>
      <trkpt lat="48.55964" lon="2.09184">
        <ele>131</ele>
        <time>2022-01-15T10:02:07Z</time>
      </trkpt>
      <trkpt lat="48.55961" lon="2.09187">
        <ele>131</ele>
        <time>2022-01-15T10:02:05Z</time>
      </trkpt>
      <trkpt lat="48.55958" lon="2.09189">
        <ele>131</ele>
        <time>2022-01-15T10:02:03Z</time>
      </trkpt>
      <trkpt lat="48.55955" lon="2.09191">
        <ele>131</ele>
        <time>2022-01-15T10:02:00Z</time>
      </trkpt>
      <trkpt lat="48.55952" lon="2.09191">
        <ele>131</ele>
        <time>2022-01-15T10:01:58Z</time>
      </trkpt>
      <trkpt lat="48.55948" lon="2.09191">
        <ele>131</ele>
        <time>2022-01-15T10:01:56Z</time>
      </trkpt>
      <trkpt lat="48.55945" lon="2.09191">
        <ele>131</ele>
        <time>2022-01-15T10:01:54Z</time>
      </trkpt>
      <trkpt lat="48.55942" lon="2.09192">
        <ele>132</ele>
        <time>2022-01-15T10:01:51Z</time>
      </trkpt>
      <trkpt lat="48.55939" lon="2.09193">
        <ele>132</ele>
        <time>2022-01-15T10:01:49Z</time>
      </trkpt>
      <trkpt lat="48.55936" lon="2.09195">
        <ele>132</ele>
        <time>2022-01-15T10:01:47Z</time>
      </trkpt>
      <trkpt lat="48.55932" lon="2.09196">
        <ele>132</ele>
        <time>2022-01-15T10:01:45Z</time>
      </trkpt>
      <trkpt lat="48.55929" lon="2.09197">
        <ele>132</ele>
        <time>2022-01-15T10:01:43Z</time>
      </trkpt>
      <trkpt lat="48.55925" lon="2.09198">
        <ele>132</ele>
        <time>2022-01-15T10:01:41Z</time>
      </trkpt>
      <trkpt lat="48.55921" lon="2.09198">
        <ele>132</ele>
        <time>2022-01-15T10:01:39Z</time>
      </trkpt>
      <trkpt lat="48.55917" lon="2.09198">
        <ele>132</ele>
        <time>2022-01-15T10:01:37Z</time>
      </trkpt>
      <trkpt lat="48.55914" lon="2.09199">
        <ele>133</ele>
        <time>2022-01-15T10:01:35Z</time>
      </trkpt>
      <trkpt lat="48.55911" lon="2.09199">
        <ele>133</ele>
        <time>2022-01-15T10:01:33Z</time>
      </trkpt>
      <trkpt lat="48.55908" lon="2.09199">
        <ele>133</ele>
        <time>2022-01-15T10:01:31Z</time>
      </trkpt>
      <trkpt lat="48.55904" lon="2.09198">
        <ele>133</ele>
        <time>2022-01-15T10:01:28Z</time>
      </trkpt>
      <trkpt lat="48.55901" lon="2.09198">
        <ele>133</ele>
        <time>2022-01-15T10:01:26Z</time>
      </trkpt>
      <trkpt lat="48.55897" lon="2.09198">
        <ele>134</ele>
        <time>2022-01-15T10:01:21Z</time>
      </trkpt>
      <trkpt lat="48.55894" lon="2.09197">
        <ele>134</ele>
        <time>2022-01-15T10:01:19Z</time>
      </trkpt>
      <trkpt lat="48.55891" lon="2.09197">
        <ele>134</ele>
        <time>2022-01-15T10:01:17Z</time>
      </trkpt>
      <trkpt lat="48.55887" lon="2.09196">
        <ele>134</ele>
        <time>2022-01-15T10:01:15Z</time>
      </trkpt>
      <trkpt lat="48.55883" lon="2.09195">
        <ele>134</ele>
        <time>2022-01-15T10:01:13Z</time>
      </trkpt>
      <trkpt lat="48.55879" lon="2.09194">
        <ele>135</ele>
        <time>2022-01-15T10:01:11Z</time>
      </trkpt>
      <trkpt lat="48.55875" lon="2.09193">
        <ele>135</ele>
        <time>2022-01-15T10:01:08Z</time>
      </trkpt>
      <trkpt lat="48.55872" lon="2.09192">
        <ele>135</ele>
        <time>2022-01-15T10:01:06Z</time>
      </trkpt>
      <trkpt lat="48.55869" lon="2.09192">
        <ele>135</ele>
        <time>2022-01-15T10:01:04Z</time>
      </trkpt>
      <trkpt lat="48.55866" lon="2.0919">
        <ele>135</ele>
        <time>2022-01-15T10:01:02Z</time>
      </trkpt>
      <trkpt lat="48.55863" lon="2.09188">
        <ele>135</ele>
        <time>2022-01-15T10:01:00Z</time>
      </trkpt>
      <trkpt lat="48.5586" lon="2.09187">
        <ele>135</ele>
        <time>2022-01-15T10:00:57Z</time>
      </trkpt>
      <trkpt lat="48.55857" lon="2.09187">
        <ele>135</ele>
        <time>2022-01-15T10:00:56Z</time>
      </trkpt>
      <trkpt lat="48.55854" lon="2.09185">
        <ele>135</ele>
        <time>2022-01-15T10:00:53Z</time>
      </trkpt>
      <trkpt lat="48.55851" lon="2.09184">
        <ele>135</ele>
        <time>2022-01-15T10:00:50Z</time>
      </trkpt>
      <trkpt lat="48.55848" lon="2.09183">
        <ele>135</ele>
        <time>2022-01-15T10:00:48Z</time>
      </trkpt>
      <trkpt lat="48.55845" lon="2.09183">
        <ele>135</ele>
        <time>2022-01-15T10:00:46Z</time>
      </trkpt>
      <trkpt lat="48.55842" lon="2.09183">
        <ele>135</ele>
        <time>2022-01-15T10:00:44Z</time>
      </trkpt>
      <trkpt lat="48.55839" lon="2.09183">
        <ele>135</ele>
        <time>2022-01-15T10:00:41Z</time>
      </trkpt>
      <trkpt lat="48.55836" lon="2.09181">
        <ele>135</ele>
        <time>2022-01-15T10:00:38Z</time>
      </trkpt>
      <trkpt lat="48.55833" lon="2.09179">
        <ele>135</ele>
        <time>2022-01-15T10:00:34Z</time>
      </trkpt>
      <trkpt lat="48.55829" lon="2.09178">
        <ele>135</ele>
        <time>2022-01-15T10:00:31Z</time>
      </trkpt>
      <trkpt lat="48.55826" lon="2.09176">
        <ele>136</ele>
        <time>2022-01-15T10:00:28Z</time>
      </trkpt>
      <trkpt lat="48.55823" lon="2.09174">
        <ele>136</ele>
        <time>2022-01-15T10:00:25Z</time>
      </trkpt>
      <trkpt lat="48.55819" lon="2.09172">
        <ele>136</ele>
        <time>2022-01-15T10:00:22Z</time>
      </trkpt>
      <trkpt lat="48.55816" lon="2.09169">
        <ele>136</ele>
        <time>2022-01-15T10:00:19Z</time>
      </trkpt>
      <trkpt lat="48.55813" lon="2.09168">
        <ele>136</ele>
        <time>2022-01-15T10:00:17Z</time>
      </trkpt>
      <trkpt lat="48.55811" lon="2.09165">
        <ele>137</ele>
        <time>2022-01-15T10:00:14Z</time>
      </trkpt>
      <trkpt lat="48.55808" lon="2.09163">
        <ele>137</ele>
        <time>2022-01-15T10:00:11Z</time>
      </trkpt>
      <trkpt lat="48.55804" lon="2.09161">
        <ele>137</ele>
        <time>2022-01-15T10:00:08Z</time>
      </trkpt>
      <trkpt lat="48.55801" lon="2.09159">
        <ele>137</ele>
        <time>2022-01-15T10:00:05Z</time>
      </trkpt>
      <trkpt lat="48.55799" lon="2.09156">
        <ele>138</ele>
        <time>2022-01-15T10:00:02Z</time>
      </trkpt>
      <trkpt lat="48.55797" lon="2.09152">
        <ele>138</ele>
        <time>2022-01-15T09:59:59Z</time>
      </trkpt>
      <trkpt lat="48.55797" lon="2.09148">
        <ele>138</ele>
        <time>2022-01-15T09:59:54Z</time>
      </trkpt>
      <trkpt lat="48.55796" lon="2.09144">
        <ele>139</ele>
        <time>2022-01-15T09:59:50Z</time>
      </trkpt>
      <trkpt lat="48.55795" lon="2.0914">
        <ele>139</ele>
        <time>2022-01-15T09:59:45Z</time>
      </trkpt>
      <trkpt lat="48.55793" lon="2.09136">
        <ele>140</ele>
        <time>2022-01-15T09:59:41Z</time>
      </trkpt>
      <trkpt lat="48.55791" lon="2.09132">
        <ele>140</ele>
        <time>2022-01-15T09:59:38Z</time>
      </trkpt>
      <trkpt lat="48.55788" lon="2.0913">
        <ele>140</ele>
        <time>2022-01-15T09:59:36Z</time>
      </trkpt>
      <trkpt lat="48.55785" lon="2.09128">
        <ele>140</ele>
        <time>2022-01-15T09:59:33Z</time>
      </trkpt>
      <trkpt lat="48.55783" lon="2.09126">
        <ele>141</ele>
        <time>2022-01-15T09:59:31Z</time>
      </trkpt>
      <trkpt lat="48.55779" lon="2.09126">
        <ele>141</ele>
        <time>2022-01-15T09:59:26Z</time>
      </trkpt>
      <trkpt lat="48.55776" lon="2.09126">
        <ele>141</ele>
        <time>2022-01-15T09:59:23Z</time>
      </trkpt>
      <trkpt lat="48.55773" lon="2.09126">
        <ele>142</ele>
        <time>2022-01-15T09:59:20Z</time>
      </trkpt>
      <trkpt lat="48.5577" lon="2.09124">
        <ele>142</ele>
        <time>2022-01-15T09:59:17Z</time>
      </trkpt>
      <trkpt lat="48.55767" lon="2.09122">
        <ele>143</ele>
        <time>2022-01-15T09:59:14Z</time>
      </trkpt>
      <trkpt lat="48.55765" lon="2.09119">
        <ele>143</ele>
        <time>2022-01-15T09:59:11Z</time>
      </trkpt>
      <trkpt lat="48.55762" lon="2.09116">
        <ele>144</ele>
        <time>2022-01-15T09:59:09Z</time>
      </trkpt>
      <trkpt lat="48.5576" lon="2.09113">
        <ele>144</ele>
        <time>2022-01-15T09:59:07Z</time>
      </trkpt>
      <trkpt lat="48.55757" lon="2.0911">
        <ele>144</ele>
        <time>2022-01-15T09:59:05Z</time>
      </trkpt>
      <trkpt lat="48.55754" lon="2.09108">
        <ele>144</ele>
        <time>2022-01-15T09:59:02Z</time>
      </trkpt>
      <trkpt lat="48.55751" lon="2.09107">
        <ele>144</ele>
        <time>2022-01-15T09:58:59Z</time>
      </trkpt>
      <trkpt lat="48.55748" lon="2.09106">
        <ele>145</ele>
        <time>2022-01-15T09:58:55Z</time>
      </trkpt>
      <trkpt lat="48.55745" lon="2.09104">
        <ele>145</ele>
        <time>2022-01-15T09:58:53Z</time>
      </trkpt>
      <trkpt lat="48.55741" lon="2.09101">
        <ele>146</ele>
        <time>2022-01-15T09:58:50Z</time>
      </trkpt>
      <trkpt lat="48.55736" lon="2.09101">
        <ele>146</ele>
        <time>2022-01-15T09:58:46Z</time>
      </trkpt>
      <trkpt lat="48.55732" lon="2.09102">
        <ele>146</ele>
        <time>2022-01-15T09:58:43Z</time>
      </trkpt>
      <trkpt lat="48.55729" lon="2.09101">
        <ele>147</ele>
        <time>2022-01-15T09:58:39Z</time>
      </trkpt>
      <trkpt lat="48.55726" lon="2.09101">
        <ele>147</ele>
        <time>2022-01-15T09:58:36Z</time>
      </trkpt>
      <trkpt lat="48.55723" lon="2.09102">
        <ele>147</ele>
        <time>2022-01-15T09:58:33Z</time>
      </trkpt>
      <trkpt lat="48.5572" lon="2.09103">
        <ele>148</ele>
        <time>2022-01-15T09:58:28Z</time>
      </trkpt>
      <trkpt lat="48.55717" lon="2.09101">
        <ele>148</ele>
        <time>2022-01-15T09:58:24Z</time>
      </trkpt>
      <trkpt lat="48.55714" lon="2.09099">
        <ele>148</ele>
        <time>2022-01-15T09:58:21Z</time>
      </trkpt>
      <trkpt lat="48.5571" lon="2.09097">
        <ele>149</ele>
        <time>2022-01-15T09:58:18Z</time>
      </trkpt>
      <trkpt lat="48.55708" lon="2.09094">
        <ele>149</ele>
        <time>2022-01-15T09:58:15Z</time>
      </trkpt>
      <trkpt lat="48.55706" lon="2.0909">
        <ele>150</ele>
        <time>2022-01-15T09:58:13Z</time>
      </trkpt>
      <trkpt lat="48.55703" lon="2.09086">
        <ele>150</ele>
        <time>2022-01-15T09:58:10Z</time>
      </trkpt>
      <trkpt lat="48.55701" lon="2.09081">
        <ele>151</ele>
        <time>2022-01-15T09:58:07Z</time>
      </trkpt>
      <trkpt lat="48.55699" lon="2.09077">
        <ele>151</ele>
        <time>2022-01-15T09:58:05Z</time>
      </trkpt>
      <trkpt lat="48.55697" lon="2.09072">
        <ele>152</ele>
        <time>2022-01-15T09:58:02Z</time>
      </trkpt>
      <trkpt lat="48.55695" lon="2.09066">
        <ele>152</ele>
        <time>2022-01-15T09:57:59Z</time>
      </trkpt>
      <trkpt lat="48.55695" lon="2.09061">
        <ele>153</ele>
        <time>2022-01-15T09:57:56Z</time>
      </trkpt>
      <trkpt lat="48.55695" lon="2.09056">
        <ele>153</ele>
        <time>2022-01-15T09:57:54Z</time>
      </trkpt>
      <trkpt lat="48.55694" lon="2.0905">
        <ele>154</ele>
        <time>2022-01-15T09:57:51Z</time>
      </trkpt>
      <trkpt lat="48.55694" lon="2.09045">
        <ele>154</ele>
        <time>2022-01-15T09:57:49Z</time>
      </trkpt>
      <trkpt lat="48.55694" lon="2.0904">
        <ele>154</ele>
        <time>2022-01-15T09:57:47Z</time>
      </trkpt>
      <trkpt lat="48.55693" lon="2.09034">
        <ele>154</ele>
        <time>2022-01-15T09:57:45Z</time>
      </trkpt>
      <trkpt lat="48.55692" lon="2.09029">
        <ele>154</ele>
        <time>2022-01-15T09:57:42Z</time>
      </trkpt>
      <trkpt lat="48.5569" lon="2.09024">
        <ele>155</ele>
        <time>2022-01-15T09:57:40Z</time>
      </trkpt>
      <trkpt lat="48.55688" lon="2.0902">
        <ele>155</ele>
        <time>2022-01-15T09:57:37Z</time>
      </trkpt>
      <trkpt lat="48.55685" lon="2.09018">
        <ele>155</ele>
        <time>2022-01-15T09:57:35Z</time>
      </trkpt>
      <trkpt lat="48.55682" lon="2.09016">
        <ele>155</ele>
        <time>2022-01-15T09:57:33Z</time>
      </trkpt>
      <trkpt lat="48.55679" lon="2.09013">
        <ele>155</ele>
        <time>2022-01-15T09:57:30Z</time>
      </trkpt>
      <trkpt lat="48.55676" lon="2.09012">
        <ele>155</ele>
        <time>2022-01-15T09:57:28Z</time>
      </trkpt>
      <trkpt lat="48.55673" lon="2.09009">
        <ele>156</ele>
        <time>2022-01-15T09:57:25Z</time>
      </trkpt>
      <trkpt lat="48.5567" lon="2.09007">
        <ele>156</ele>
        <time>2022-01-15T09:57:23Z</time>
      </trkpt>
      <trkpt lat="48.55667" lon="2.09005">
        <ele>156</ele>
        <time>2022-01-15T09:57:21Z</time>
      </trkpt>
      <trkpt lat="48.55663" lon="2.09003">
        <ele>156</ele>
        <time>2022-01-15T09:57:19Z</time>
      </trkpt>
      <trkpt lat="48.5566" lon="2.09001">
        <ele>156</ele>
        <time>2022-01-15T09:57:17Z</time>
      </trkpt>
      <trkpt lat="48.55656" lon="2.08998">
        <ele>156</ele>
        <time>2022-01-15T09:57:15Z</time>
      </trkpt>
      <trkpt lat="48.55654" lon="2.08996">
        <ele>156</ele>
        <time>2022-01-15T09:57:13Z</time>
      </trkpt>
      <trkpt lat="48.55651" lon="2.08993">
        <ele>156</ele>
        <time>2022-01-15T09:57:11Z</time>
      </trkpt>
      <trkpt lat="48.55649" lon="2.08989">
        <ele>156</ele>
        <time>2022-01-15T09:57:08Z</time>
      </trkpt>
      <trkpt lat="48.55647" lon="2.08986">
        <ele>156</ele>
        <time>2022-01-15T09:57:06Z</time>
      </trkpt>
      <trkpt lat="48.55644" lon="2.08982">
        <ele>157</ele>
        <time>2022-01-15T09:57:03Z</time>
      </trkpt>
      <trkpt lat="48.55642" lon="2.08978">
        <ele>157</ele>
        <time>2022-01-15T09:57:01Z</time>
      </trkpt>
      <trkpt lat="48.55639" lon="2.08974">
        <ele>157</ele>
        <time>2022-01-15T09:56:58Z</time>
      </trkpt>
      <trkpt lat="48.55636" lon="2.08971">
        <ele>157</ele>
        <time>2022-01-15T09:56:56Z</time>
      </trkpt>
      <trkpt lat="48.55633" lon="2.08968">
        <ele>157</ele>
        <time>2022-01-15T09:56:53Z</time>
      </trkpt>
      <trkpt lat="48.5563" lon="2.08966">
        <ele>157</ele>
        <time>2022-01-15T09:56:50Z</time>
      </trkpt>
      <trkpt lat="48.55627" lon="2.08963">
        <ele>157</ele>
        <time>2022-01-15T09:56:47Z</time>
      </trkpt>
      <trkpt lat="48.55624" lon="2.08962">
        <ele>157</ele>
        <time>2022-01-15T09:56:45Z</time>
      </trkpt>
      <trkpt lat="48.5562" lon="2.0896">
        <ele>157</ele>
        <time>2022-01-15T09:56:43Z</time>
      </trkpt>
      <trkpt lat="48.55617" lon="2.08958">
        <ele>157</ele>
        <time>2022-01-15T09:56:41Z</time>
      </trkpt>
      <trkpt lat="48.55614" lon="2.08958">
        <ele>157</ele>
        <time>2022-01-15T09:56:38Z</time>
      </trkpt>
      <trkpt lat="48.5561" lon="2.08956">
        <ele>157</ele>
        <time>2022-01-15T09:56:35Z</time>
      </trkpt>
      <trkpt lat="48.55607" lon="2.08953">
        <ele>157</ele>
        <time>2022-01-15T09:56:33Z</time>
      </trkpt>
      <trkpt lat="48.55604" lon="2.0895">
        <ele>157</ele>
        <time>2022-01-15T09:56:30Z</time>
      </trkpt>
      <trkpt lat="48.55601" lon="2.08948">
        <ele>157</ele>
        <time>2022-01-15T09:56:27Z</time>
      </trkpt>
      <trkpt lat="48.55598" lon="2.08946">
        <ele>158</ele>
        <time>2022-01-15T09:56:24Z</time>
      </trkpt>
      <trkpt lat="48.55596" lon="2.08942">
        <ele>158</ele>
        <time>2022-01-15T09:56:21Z</time>
      </trkpt>
      <trkpt lat="48.55593" lon="2.08939">
        <ele>158</ele>
        <time>2022-01-15T09:56:18Z</time>
      </trkpt>
      <trkpt lat="48.5559" lon="2.08937">
        <ele>158</ele>
        <time>2022-01-15T09:56:16Z</time>
      </trkpt>
      <trkpt lat="48.55588" lon="2.08934">
        <ele>158</ele>
        <time>2022-01-15T09:56:14Z</time>
      </trkpt>
      <trkpt lat="48.55584" lon="2.08931">
        <ele>158</ele>
        <time>2022-01-15T09:56:12Z</time>
      </trkpt>
      <trkpt lat="48.55581" lon="2.08928">
        <ele>158</ele>
        <time>2022-01-15T09:56:08Z</time>
      </trkpt>
      <trkpt lat="48.55578" lon="2.08925">
        <ele>158</ele>
        <time>2022-01-15T09:56:06Z</time>
      </trkpt>
      <trkpt lat="48.55576" lon="2.08921">
        <ele>158</ele>
        <time>2022-01-15T09:56:03Z</time>
      </trkpt>
      <trkpt lat="48.55573" lon="2.08918">
        <ele>158</ele>
        <time>2022-01-15T09:56:01Z</time>
      </trkpt>
      <trkpt lat="48.5557" lon="2.08914">
        <ele>158</ele>
        <time>2022-01-15T09:55:58Z</time>
      </trkpt>
      <trkpt lat="48.55567" lon="2.08911">
        <ele>158</ele>
        <time>2022-01-15T09:55:54Z</time>
      </trkpt>
      <trkpt lat="48.55565" lon="2.08907">
        <ele>158</ele>
        <time>2022-01-15T09:55:52Z</time>
      </trkpt>
      <trkpt lat="48.55562" lon="2.08904">
        <ele>158</ele>
        <time>2022-01-15T09:55:50Z</time>
      </trkpt>
      <trkpt lat="48.5556" lon="2.08899">
        <ele>158</ele>
        <time>2022-01-15T09:55:48Z</time>
      </trkpt>
      <trkpt lat="48.55558" lon="2.08895">
        <ele>159</ele>
        <time>2022-01-15T09:55:46Z</time>
      </trkpt>
      <trkpt lat="48.55556" lon="2.08891">
        <ele>159</ele>
        <time>2022-01-15T09:55:44Z</time>
      </trkpt>
      <trkpt lat="48.55553" lon="2.08886">
        <ele>159</ele>
        <time>2022-01-15T09:55:41Z</time>
      </trkpt>
      <trkpt lat="48.55551" lon="2.08883">
        <ele>159</ele>
        <time>2022-01-15T09:55:39Z</time>
      </trkpt>
      <trkpt lat="48.55547" lon="2.08879">
        <ele>159</ele>
        <time>2022-01-15T09:55:36Z</time>
      </trkpt>
      <trkpt lat="48.55544" lon="2.08876">
        <ele>159</ele>
        <time>2022-01-15T09:55:33Z</time>
      </trkpt>
      <trkpt lat="48.55541" lon="2.08875">
        <ele>159</ele>
        <time>2022-01-15T09:55:31Z</time>
      </trkpt>
      <trkpt lat="48.55537" lon="2.08873">
        <ele>159</ele>
        <time>2022-01-15T09:55:29Z</time>
      </trkpt>
      <trkpt lat="48.55533" lon="2.0887">
        <ele>159</ele>
        <time>2022-01-15T09:55:26Z</time>
      </trkpt>
      <trkpt lat="48.55529" lon="2.08868">
        <ele>159</ele>
        <time>2022-01-15T09:55:23Z</time>
      </trkpt>
      <trkpt lat="48.55526" lon="2.08866">
        <ele>159</ele>
        <time>2022-01-15T09:55:21Z</time>
      </trkpt>
      <trkpt lat="48.55522" lon="2.08863">
        <ele>159</ele>
        <time>2022-01-15T09:55:18Z</time>
      </trkpt>
      <trkpt lat="48.55519" lon="2.0886">
        <ele>159</ele>
        <time>2022-01-15T09:55:15Z</time>
      </trkpt>
      <trkpt lat="48.55515" lon="2.08858">
        <ele>159</ele>
        <time>2022-01-15T09:55:13Z</time>
      </trkpt>
      <trkpt lat="48.55512" lon="2.08857">
        <ele>159</ele>
        <time>2022-01-15T09:55:11Z</time>
      </trkpt>
      <trkpt lat="48.55509" lon="2.08856">
        <ele>159</ele>
        <time>2022-01-15T09:55:07Z</time>
      </trkpt>
      <trkpt lat="48.55506" lon="2.08855">
        <ele>159</ele>
        <time>2022-01-15T09:55:05Z</time>
      </trkpt>
      <trkpt lat="48.55502" lon="2.08852">
        <ele>159</ele>
        <time>2022-01-15T09:55:02Z</time>
      </trkpt>
      <trkpt lat="48.55499" lon="2.0885">
        <ele>159</ele>
        <time>2022-01-15T09:54:59Z</time>
      </trkpt>
      <trkpt lat="48.55496" lon="2.08847">
        <ele>159</ele>
        <time>2022-01-15T09:54:55Z</time>
      </trkpt>
      <trkpt lat="48.55494" lon="2.08844">
        <ele>159</ele>
        <time>2022-01-15T09:54:53Z</time>
      </trkpt>
      <trkpt lat="48.55491" lon="2.0884">
        <ele>159</ele>
        <time>2022-01-15T09:54:49Z</time>
      </trkpt>
      <trkpt lat="48.55489" lon="2.08837">
        <ele>159</ele>
        <time>2022-01-15T09:54:47Z</time>
      </trkpt>
      <trkpt lat="48.55486" lon="2.08835">
        <ele>159</ele>
        <time>2022-01-15T09:54:45Z</time>
      </trkpt>
      <trkpt lat="48.55483" lon="2.08834">
        <ele>159</ele>
        <time>2022-01-15T09:54:43Z</time>
      </trkpt>
      <trkpt lat="48.55479" lon="2.08832">
        <ele>159</ele>
        <time>2022-01-15T09:54:40Z</time>
      </trkpt>
      <trkpt lat="48.55475" lon="2.0883">
        <ele>159</ele>
        <time>2022-01-15T09:54:37Z</time>
      </trkpt>
      <trkpt lat="48.55473" lon="2.08828">
        <ele>159</ele>
        <time>2022-01-15T09:54:35Z</time>
      </trkpt>
      <trkpt lat="48.5547" lon="2.08826">
        <ele>159</ele>
        <time>2022-01-15T09:54:33Z</time>
      </trkpt>
      <trkpt lat="48.55467" lon="2.08824">
        <ele>159</ele>
        <time>2022-01-15T09:54:31Z</time>
      </trkpt>
      <trkpt lat="48.55463" lon="2.08821">
        <ele>159</ele>
        <time>2022-01-15T09:54:28Z</time>
      </trkpt>
      <trkpt lat="48.55459" lon="2.08819">
        <ele>159</ele>
        <time>2022-01-15T09:54:24Z</time>
      </trkpt>
      <trkpt lat="48.55455" lon="2.08816">
        <ele>159</ele>
        <time>2022-01-15T09:54:20Z</time>
      </trkpt>
      <trkpt lat="48.55453" lon="2.08814">
        <ele>159</ele>
        <time>2022-01-15T09:54:18Z</time>
      </trkpt>
      <trkpt lat="48.5545" lon="2.08812">
        <ele>159</ele>
        <time>2022-01-15T09:54:16Z</time>
      </trkpt>
      <trkpt lat="48.55447" lon="2.08812">
        <ele>159</ele>
        <time>2022-01-15T09:54:14Z</time>
      </trkpt>
      <trkpt lat="48.55443" lon="2.0881">
        <ele>159</ele>
        <time>2022-01-15T09:54:12Z</time>
      </trkpt>
      <trkpt lat="48.5544" lon="2.08808">
        <ele>159</ele>
        <time>2022-01-15T09:54:09Z</time>
      </trkpt>
      <trkpt lat="48.55437" lon="2.08805">
        <ele>159</ele>
        <time>2022-01-15T09:54:07Z</time>
      </trkpt>
      <trkpt lat="48.55433" lon="2.08803">
        <ele>159</ele>
        <time>2022-01-15T09:54:04Z</time>
      </trkpt>
      <trkpt lat="48.5543" lon="2.08801">
        <ele>159</ele>
        <time>2022-01-15T09:54:01Z</time>
      </trkpt>
      <trkpt lat="48.55426" lon="2.088">
        <ele>159</ele>
        <time>2022-01-15T09:53:59Z</time>
      </trkpt>
      <trkpt lat="48.55422" lon="2.088">
        <ele>159</ele>
        <time>2022-01-15T09:53:56Z</time>
      </trkpt>
      <trkpt lat="48.55418" lon="2.088">
        <ele>159</ele>
        <time>2022-01-15T09:53:53Z</time>
      </trkpt>
      <trkpt lat="48.55415" lon="2.088">
        <ele>159</ele>
        <time>2022-01-15T09:53:51Z</time>
      </trkpt>
      <trkpt lat="48.55412" lon="2.088">
        <ele>159</ele>
        <time>2022-01-15T09:53:48Z</time>
      </trkpt>
      <trkpt lat="48.55409" lon="2.08799">
        <ele>159</ele>
        <time>2022-01-15T09:53:46Z</time>
      </trkpt>
      <trkpt lat="48.55405" lon="2.08799">
        <ele>159</ele>
        <time>2022-01-15T09:53:44Z</time>
      </trkpt>
      <trkpt lat="48.55401" lon="2.08798">
        <ele>159</ele>
        <time>2022-01-15T09:53:41Z</time>
      </trkpt>
      <trkpt lat="48.55397" lon="2.08797">
        <ele>159</ele>
        <time>2022-01-15T09:53:38Z</time>
      </trkpt>
      <trkpt lat="48.55394" lon="2.08797">
        <ele>159</ele>
        <time>2022-01-15T09:53:36Z</time>
      </trkpt>
      <trkpt lat="48.55391" lon="2.08795">
        <ele>158</ele>
        <time>2022-01-15T09:53:34Z</time>
      </trkpt>
      <trkpt lat="48.55387" lon="2.08793">
        <ele>158</ele>
        <time>2022-01-15T09:53:32Z</time>
      </trkpt>
      <trkpt lat="48.55384" lon="2.08792">
        <ele>158</ele>
        <time>2022-01-15T09:53:29Z</time>
      </trkpt>
      <trkpt lat="48.55381" lon="2.0879">
        <ele>158</ele>
        <time>2022-01-15T09:53:26Z</time>
      </trkpt>
      <trkpt lat="48.55379" lon="2.08787">
        <ele>158</ele>
        <time>2022-01-15T09:53:24Z</time>
      </trkpt>
      <trkpt lat="48.55376" lon="2.08785">
        <ele>158</ele>
        <time>2022-01-15T09:53:22Z</time>
      </trkpt>
      <trkpt lat="48.55373" lon="2.08783">
        <ele>158</ele>
        <time>2022-01-15T09:53:20Z</time>
      </trkpt>
      <trkpt lat="48.5537" lon="2.08782">
        <ele>158</ele>
        <time>2022-01-15T09:53:17Z</time>
      </trkpt>
      <trkpt lat="48.55368" lon="2.08779">
        <ele>158</ele>
        <time>2022-01-15T09:53:14Z</time>
      </trkpt>
      <trkpt lat="48.55365" lon="2.08777">
        <ele>158</ele>
        <time>2022-01-15T09:53:13Z</time>
      </trkpt>
      <trkpt lat="48.55362" lon="2.08775">
        <ele>158</ele>
        <time>2022-01-15T09:53:11Z</time>
      </trkpt>
      <trkpt lat="48.55358" lon="2.08773">
        <ele>158</ele>
        <time>2022-01-15T09:53:08Z</time>
      </trkpt>
      <trkpt lat="48.55355" lon="2.08772">
        <ele>158</ele>
        <time>2022-01-15T09:53:05Z</time>
      </trkpt>
      <trkpt lat="48.55351" lon="2.0877">
        <ele>158</ele>
        <time>2022-01-15T09:53:02Z</time>
      </trkpt>
      <trkpt lat="48.55347" lon="2.0877">
        <ele>158</ele>
        <time>2022-01-15T09:53:00Z</time>
      </trkpt>
      <trkpt lat="48.55343" lon="2.08769">
        <ele>157</ele>
        <time>2022-01-15T09:52:57Z</time>
      </trkpt>
      <trkpt lat="48.55339" lon="2.08769">
        <ele>157</ele>
        <time>2022-01-15T09:52:55Z</time>
      </trkpt>
      <trkpt lat="48.55334" lon="2.08769">
        <ele>157</ele>
        <time>2022-01-15T09:52:52Z</time>
      </trkpt>
      <trkpt lat="48.55331" lon="2.08768">
        <ele>157</ele>
        <time>2022-01-15T09:52:49Z</time>
      </trkpt>
      <trkpt lat="48.55328" lon="2.08767">
        <ele>157</ele>
        <time>2022-01-15T09:52:47Z</time>
      </trkpt>
      <trkpt lat="48.55325" lon="2.08767">
        <ele>157</ele>
        <time>2022-01-15T09:52:44Z</time>
      </trkpt>
      <trkpt lat="48.55321" lon="2.08766">
        <ele>157</ele>
        <time>2022-01-15T09:52:41Z</time>
      </trkpt>
      <trkpt lat="48.55318" lon="2.08766">
        <ele>157</ele>
        <time>2022-01-15T09:52:39Z</time>
      </trkpt>
      <trkpt lat="48.55315" lon="2.08766">
        <ele>157</ele>
        <time>2022-01-15T09:52:37Z</time>
      </trkpt>
      <trkpt lat="48.55311" lon="2.08765">
        <ele>157</ele>
        <time>2022-01-15T09:52:34Z</time>
      </trkpt>
      <trkpt lat="48.55308" lon="2.08764">
        <ele>157</ele>
        <time>2022-01-15T09:52:32Z</time>
      </trkpt>
      <trkpt lat="48.55304" lon="2.08763">
        <ele>157</ele>
        <time>2022-01-15T09:52:30Z</time>
      </trkpt>
      <trkpt lat="48.55301" lon="2.08763">
        <ele>157</ele>
        <time>2022-01-15T09:52:27Z</time>
      </trkpt>
      <trkpt lat="48.55298" lon="2.08762">
        <ele>157</ele>
        <time>2022-01-15T09:52:24Z</time>
      </trkpt>
      <trkpt lat="48.55294" lon="2.08762">
        <ele>157</ele>
        <time>2022-01-15T09:52:22Z</time>
      </trkpt>
      <trkpt lat="48.5529" lon="2.08762">
        <ele>157</ele>
        <time>2022-01-15T09:52:20Z</time>
      </trkpt>
      <trkpt lat="48.55287" lon="2.08762">
        <ele>156</ele>
        <time>2022-01-15T09:52:17Z</time>
      </trkpt>
      <trkpt lat="48.55284" lon="2.08763">
        <ele>156</ele>
        <time>2022-01-15T09:52:15Z</time>
      </trkpt>
      <trkpt lat="48.5528" lon="2.08763">
        <ele>156</ele>
        <time>2022-01-15T09:52:13Z</time>
      </trkpt>
      <trkpt lat="48.55278" lon="2.08764">
        <ele>156</ele>
        <time>2022-01-15T09:52:11Z</time>
      </trkpt>
      <trkpt lat="48.55275" lon="2.08765">
        <ele>156</ele>
        <time>2022-01-15T09:52:09Z</time>
      </trkpt>
      <trkpt lat="48.55271" lon="2.08764">
        <ele>156</ele>
        <time>2022-01-15T09:52:06Z</time>
      </trkpt>
      <trkpt lat="48.55268" lon="2.08765">
        <ele>156</ele>
        <time>2022-01-15T09:52:04Z</time>
      </trkpt>
      <trkpt lat="48.55264" lon="2.08765">
        <ele>156</ele>
        <time>2022-01-15T09:52:01Z</time>
      </trkpt>
      <trkpt lat="48.55261" lon="2.08766">
        <ele>156</ele>
        <time>2022-01-15T09:51:57Z</time>
      </trkpt>
      <trkpt lat="48.55257" lon="2.08765">
        <ele>156</ele>
        <time>2022-01-15T09:51:55Z</time>
      </trkpt>
      <trkpt lat="48.55254" lon="2.08765">
        <ele>156</ele>
        <time>2022-01-15T09:51:53Z</time>
      </trkpt>
      <trkpt lat="48.55251" lon="2.08765">
        <ele>156</ele>
        <time>2022-01-15T09:51:50Z</time>
      </trkpt>
      <trkpt lat="48.55247" lon="2.08764">
        <ele>156</ele>
        <time>2022-01-15T09:51:47Z</time>
      </trkpt>
      <trkpt lat="48.55244" lon="2.08763">
        <ele>156</ele>
        <time>2022-01-15T09:51:44Z</time>
      </trkpt>
      <trkpt lat="48.5524" lon="2.08763">
        <ele>156</ele>
        <time>2022-01-15T09:51:41Z</time>
      </trkpt>
      <trkpt lat="48.55236" lon="2.08763">
        <ele>156</ele>
        <time>2022-01-15T09:51:38Z</time>
      </trkpt>
      <trkpt lat="48.55232" lon="2.08763">
        <ele>155</ele>
        <time>2022-01-15T09:51:35Z</time>
      </trkpt>
      <trkpt lat="48.55229" lon="2.08764">
        <ele>155</ele>
        <time>2022-01-15T09:51:32Z</time>
      </trkpt>
      <trkpt lat="48.55226" lon="2.08764">
        <ele>155</ele>
        <time>2022-01-15T09:51:30Z</time>
      </trkpt>
      <trkpt lat="48.55223" lon="2.08764">
        <ele>155</ele>
        <time>2022-01-15T09:51:28Z</time>
      </trkpt>
      <trkpt lat="48.5522" lon="2.08765">
        <ele>155</ele>
        <time>2022-01-15T09:51:24Z</time>
      </trkpt>
      <trkpt lat="48.55216" lon="2.08766">
        <ele>155</ele>
        <time>2022-01-15T09:51:19Z</time>
      </trkpt>
      <trkpt lat="48.55214" lon="2.08766">
        <ele>155</ele>
        <time>2022-01-15T09:51:15Z</time>
      </trkpt>
      <trkpt lat="48.55211" lon="2.08765">
        <ele>155</ele>
        <time>2022-01-15T09:51:08Z</time>
      </trkpt>
      <trkpt lat="48.5521" lon="2.08765">
        <ele>155</ele>
        <time>2022-01-15T09:50:41Z</time>
      </trkpt>
      <trkpt lat="48.55208" lon="2.0876">
        <ele>155</ele>
        <time>2022-01-15T09:50:24Z</time>
      </trkpt>
      <trkpt lat="48.55206" lon="2.0876">
        <ele>155</ele>
        <time>2022-01-15T09:50:22Z</time>
      </trkpt>
      <trkpt lat="48.55206" lon="2.08764">
        <ele>155</ele>
        <time>2022-01-15T09:50:17Z</time>
      </trkpt>
      <trkpt lat="48.55206" lon="2.08768">
        <ele>155</ele>
        <time>2022-01-15T09:50:09Z</time>
      </trkpt>
      <trkpt lat="48.55206" lon="2.08773">
        <ele>155</ele>
        <time>2022-01-15T09:50:06Z</time>
      </trkpt>
      <trkpt lat="48.55204" lon="2.08777">
        <ele>155</ele>
        <time>2022-01-15T09:50:03Z</time>
      </trkpt>
      <trkpt lat="48.55204" lon="2.08782">
        <ele>155</ele>
        <time>2022-01-15T09:50:01Z</time>
      </trkpt>
      <trkpt lat="48.55202" lon="2.08786">
        <ele>155</ele>
        <time>2022-01-15T09:49:58Z</time>
      </trkpt>
      <trkpt lat="48.55202" lon="2.0879">
        <ele>155</ele>
        <time>2022-01-15T09:49:55Z</time>
      </trkpt>
      <trkpt lat="48.55202" lon="2.08795">
        <ele>155</ele>
        <time>2022-01-15T09:49:53Z</time>
      </trkpt>
      <trkpt lat="48.55203" lon="2.088">
        <ele>155</ele>
        <time>2022-01-15T09:49:51Z</time>
      </trkpt>
      <trkpt lat="48.55203" lon="2.08805">
        <ele>155</ele>
        <time>2022-01-15T09:49:49Z</time>
      </trkpt>
      <trkpt lat="48.55201" lon="2.0881">
        <ele>155</ele>
        <time>2022-01-15T09:49:47Z</time>
      </trkpt>
      <trkpt lat="48.552" lon="2.08816">
        <ele>155</ele>
        <time>2022-01-15T09:49:44Z</time>
      </trkpt>
      <trkpt lat="48.552" lon="2.08821">
        <ele>156</ele>
        <time>2022-01-15T09:49:42Z</time>
      </trkpt>
      <trkpt lat="48.55199" lon="2.08825">
        <ele>156</ele>
        <time>2022-01-15T09:49:40Z</time>
      </trkpt>
      <trkpt lat="48.55198" lon="2.0883">
        <ele>156</ele>
        <time>2022-01-15T09:49:36Z</time>
      </trkpt>
      <trkpt lat="48.55197" lon="2.08835">
        <ele>156</ele>
        <time>2022-01-15T09:49:34Z</time>
      </trkpt>
      <trkpt lat="48.55196" lon="2.0884">
        <ele>156</ele>
        <time>2022-01-15T09:49:32Z</time>
      </trkpt>
      <trkpt lat="48.55195" lon="2.08845">
        <ele>156</ele>
        <time>2022-01-15T09:49:30Z</time>
      </trkpt>
      <trkpt lat="48.55194" lon="2.08852">
        <ele>156</ele>
        <time>2022-01-15T09:49:28Z</time>
      </trkpt>
      <trkpt lat="48.55195" lon="2.08858">
        <ele>156</ele>
        <time>2022-01-15T09:49:25Z</time>
      </trkpt>
      <trkpt lat="48.55195" lon="2.08864">
        <ele>156</ele>
        <time>2022-01-15T09:49:23Z</time>
      </trkpt>
      <trkpt lat="48.55194" lon="2.0887">
        <ele>156</ele>
        <time>2022-01-15T09:49:20Z</time>
      </trkpt>
      <trkpt lat="48.55194" lon="2.08876">
        <ele>156</ele>
        <time>2022-01-15T09:49:17Z</time>
      </trkpt>
      <trkpt lat="48.55193" lon="2.0888">
        <ele>156</ele>
        <time>2022-01-15T09:49:15Z</time>
      </trkpt>
      <trkpt lat="48.55193" lon="2.08885">
        <ele>156</ele>
        <time>2022-01-15T09:49:13Z</time>
      </trkpt>
      <trkpt lat="48.55192" lon="2.0889">
        <ele>156</ele>
        <time>2022-01-15T09:49:11Z</time>
      </trkpt>
      <trkpt lat="48.55192" lon="2.08896">
        <ele>156</ele>
        <time>2022-01-15T09:49:09Z</time>
      </trkpt>
      <trkpt lat="48.55191" lon="2.08901">
        <ele>156</ele>
        <time>2022-01-15T09:49:06Z</time>
      </trkpt>
      <trkpt lat="48.55192" lon="2.08906">
        <ele>156</ele>
        <time>2022-01-15T09:49:04Z</time>
      </trkpt>
      <trkpt lat="48.55192" lon="2.08911">
        <ele>156</ele>
        <time>2022-01-15T09:49:02Z</time>
      </trkpt>
      <trkpt lat="48.55193" lon="2.08917">
        <ele>156</ele>
        <time>2022-01-15T09:49:00Z</time>
      </trkpt>
      <trkpt lat="48.55193" lon="2.08921">
        <ele>156</ele>
        <time>2022-01-15T09:48:58Z</time>
      </trkpt>
      <trkpt lat="48.55194" lon="2.08926">
        <ele>156</ele>
        <time>2022-01-15T09:48:56Z</time>
      </trkpt>
      <trkpt lat="48.55194" lon="2.08931">
        <ele>156</ele>
        <time>2022-01-15T09:48:54Z</time>
      </trkpt>
      <trkpt lat="48.55195" lon="2.08936">
        <ele>156</ele>
        <time>2022-01-15T09:48:51Z</time>
      </trkpt>
      <trkpt lat="48.55197" lon="2.0894">
        <ele>156</ele>
        <time>2022-01-15T09:48:49Z</time>
      </trkpt>
      <trkpt lat="48.55198" lon="2.08945">
        <ele>156</ele>
        <time>2022-01-15T09:48:46Z</time>
      </trkpt>
      <trkpt lat="48.55199" lon="2.08951">
        <ele>156</ele>
        <time>2022-01-15T09:48:44Z</time>
      </trkpt>
      <trkpt lat="48.552" lon="2.08957">
        <ele>156</ele>
        <time>2022-01-15T09:48:42Z</time>
      </trkpt>
      <trkpt lat="48.552" lon="2.08962">
        <ele>156</ele>
        <time>2022-01-15T09:48:39Z</time>
      </trkpt>
      <trkpt lat="48.552" lon="2.08967">
        <ele>156</ele>
        <time>2022-01-15T09:48:37Z</time>
      </trkpt>
      <trkpt lat="48.552" lon="2.08972">
        <ele>156</ele>
        <time>2022-01-15T09:48:35Z</time>
      </trkpt>
      <trkpt lat="48.55201" lon="2.08977">
        <ele>156</ele>
        <time>2022-01-15T09:48:33Z</time>
      </trkpt>
      <trkpt lat="48.55201" lon="2.08982">
        <ele>156</ele>
        <time>2022-01-15T09:48:30Z</time>
      </trkpt>
      <trkpt lat="48.55202" lon="2.08987">
        <ele>156</ele>
        <time>2022-01-15T09:48:28Z</time>
      </trkpt>
      <trkpt lat="48.55203" lon="2.08992">
        <ele>156</ele>
        <time>2022-01-15T09:48:27Z</time>
      </trkpt>
      <trkpt lat="48.55203" lon="2.08998">
        <ele>156</ele>
        <time>2022-01-15T09:48:24Z</time>
      </trkpt>
      <trkpt lat="48.55202" lon="2.09003">
        <ele>156</ele>
        <time>2022-01-15T09:48:22Z</time>
      </trkpt>
      <trkpt lat="48.55203" lon="2.09008">
        <ele>156</ele>
        <time>2022-01-15T09:48:20Z</time>
      </trkpt>
      <trkpt lat="48.55204" lon="2.09013">
        <ele>156</ele>
        <time>2022-01-15T09:48:18Z</time>
      </trkpt>
      <trkpt lat="48.55206" lon="2.09018">
        <ele>156</ele>
        <time>2022-01-15T09:48:15Z</time>
      </trkpt>
      <trkpt lat="48.55207" lon="2.09023">
        <ele>156</ele>
        <time>2022-01-15T09:48:13Z</time>
      </trkpt>
      <trkpt lat="48.55208" lon="2.09029">
        <ele>156</ele>
        <time>2022-01-15T09:48:11Z</time>
      </trkpt>
      <trkpt lat="48.55209" lon="2.09034">
        <ele>156</ele>
        <time>2022-01-15T09:48:08Z</time>
      </trkpt>
      <trkpt lat="48.55209" lon="2.09039">
        <ele>157</ele>
        <time>2022-01-15T09:48:05Z</time>
      </trkpt>
      <trkpt lat="48.55209" lon="2.09045">
        <ele>157</ele>
        <time>2022-01-15T09:48:02Z</time>
      </trkpt>
      <trkpt lat="48.55209" lon="2.0905">
        <ele>157</ele>
        <time>2022-01-15T09:48:00Z</time>
      </trkpt>
      <trkpt lat="48.55209" lon="2.09055">
        <ele>157</ele>
        <time>2022-01-15T09:47:58Z</time>
      </trkpt>
      <trkpt lat="48.55209" lon="2.09059">
        <ele>157</ele>
        <time>2022-01-15T09:47:56Z</time>
      </trkpt>
      <trkpt lat="48.55208" lon="2.09064">
        <ele>157</ele>
        <time>2022-01-15T09:47:54Z</time>
      </trkpt>
      <trkpt lat="48.55207" lon="2.09069">
        <ele>157</ele>
        <time>2022-01-15T09:47:51Z</time>
      </trkpt>
      <trkpt lat="48.55206" lon="2.09074">
        <ele>157</ele>
        <time>2022-01-15T09:47:48Z</time>
      </trkpt>
      <trkpt lat="48.55206" lon="2.09078">
        <ele>157</ele>
        <time>2022-01-15T09:47:47Z</time>
      </trkpt>
      <trkpt lat="48.55207" lon="2.09084">
        <ele>157</ele>
        <time>2022-01-15T09:47:44Z</time>
      </trkpt>
      <trkpt lat="48.55207" lon="2.0909">
        <ele>157</ele>
        <time>2022-01-15T09:47:41Z</time>
      </trkpt>
      <trkpt lat="48.55208" lon="2.09095">
        <ele>157</ele>
        <time>2022-01-15T09:47:38Z</time>
      </trkpt>
      <trkpt lat="48.55209" lon="2.091">
        <ele>157</ele>
        <time>2022-01-15T09:47:36Z</time>
      </trkpt>
      <trkpt lat="48.5521" lon="2.09106">
        <ele>157</ele>
        <time>2022-01-15T09:47:33Z</time>
      </trkpt>
      <trkpt lat="48.5521" lon="2.09111">
        <ele>157</ele>
        <time>2022-01-15T09:47:31Z</time>
      </trkpt>
      <trkpt lat="48.5521" lon="2.09118">
        <ele>157</ele>
        <time>2022-01-15T09:47:28Z</time>
      </trkpt>
      <trkpt lat="48.55211" lon="2.09124">
        <ele>157</ele>
        <time>2022-01-15T09:47:25Z</time>
      </trkpt>
      <trkpt lat="48.55212" lon="2.09129">
        <ele>157</ele>
        <time>2022-01-15T09:47:23Z</time>
      </trkpt>
      <trkpt lat="48.55213" lon="2.09134">
        <ele>157</ele>
        <time>2022-01-15T09:47:21Z</time>
      </trkpt>
      <trkpt lat="48.55214" lon="2.0914">
        <ele>157</ele>
        <time>2022-01-15T09:47:18Z</time>
      </trkpt>
      <trkpt lat="48.55214" lon="2.09146">
        <ele>157</ele>
        <time>2022-01-15T09:47:16Z</time>
      </trkpt>
      <trkpt lat="48.55215" lon="2.09152">
        <ele>157</ele>
        <time>2022-01-15T09:47:14Z</time>
      </trkpt>
      <trkpt lat="48.55215" lon="2.09159">
        <ele>158</ele>
        <time>2022-01-15T09:47:11Z</time>
      </trkpt>
      <trkpt lat="48.55216" lon="2.09163">
        <ele>158</ele>
        <time>2022-01-15T09:47:09Z</time>
      </trkpt>
      <trkpt lat="48.55217" lon="2.09168">
        <ele>158</ele>
        <time>2022-01-15T09:47:07Z</time>
      </trkpt>
      <trkpt lat="48.55218" lon="2.09172">
        <ele>158</ele>
        <time>2022-01-15T09:47:05Z</time>
      </trkpt>
      <trkpt lat="48.55219" lon="2.09177">
        <ele>158</ele>
        <time>2022-01-15T09:47:03Z</time>
      </trkpt>
      <trkpt lat="48.55221" lon="2.09181">
        <ele>158</ele>
        <time>2022-01-15T09:47:00Z</time>
      </trkpt>
      <trkpt lat="48.55222" lon="2.09186">
        <ele>158</ele>
        <time>2022-01-15T09:46:58Z</time>
      </trkpt>
      <trkpt lat="48.55223" lon="2.09192">
        <ele>158</ele>
        <time>2022-01-15T09:46:56Z</time>
      </trkpt>
      <trkpt lat="48.55224" lon="2.09199">
        <ele>158</ele>
        <time>2022-01-15T09:46:53Z</time>
      </trkpt>
      <trkpt lat="48.55225" lon="2.09204">
        <ele>158</ele>
        <time>2022-01-15T09:46:50Z</time>
      </trkpt>
      <trkpt lat="48.55226" lon="2.09208">
        <ele>158</ele>
        <time>2022-01-15T09:46:48Z</time>
      </trkpt>
      <trkpt lat="48.55227" lon="2.09212">
        <ele>158</ele>
        <time>2022-01-15T09:46:46Z</time>
      </trkpt>
      <trkpt lat="48.55229" lon="2.09216">
        <ele>158</ele>
        <time>2022-01-15T09:46:42Z</time>
      </trkpt>
      <trkpt lat="48.55231" lon="2.0922">
        <ele>158</ele>
        <time>2022-01-15T09:46:40Z</time>
      </trkpt>
      <trkpt lat="48.55232" lon="2.09223">
        <ele>158</ele>
        <time>2022-01-15T09:46:38Z</time>
      </trkpt>
      <trkpt lat="48.55234" lon="2.09226">
        <ele>158</ele>
        <time>2022-01-15T09:46:35Z</time>
      </trkpt>
      <trkpt lat="48.55236" lon="2.0923">
        <ele>158</ele>
        <time>2022-01-15T09:46:32Z</time>
      </trkpt>
      <trkpt lat="48.55237" lon="2.09235">
        <ele>158</ele>
        <time>2022-01-15T09:46:29Z</time>
      </trkpt>
      <trkpt lat="48.55238" lon="2.09238">
        <ele>158</ele>
        <time>2022-01-15T09:46:26Z</time>
      </trkpt>
      <trkpt lat="48.55239" lon="2.09242">
        <ele>158</ele>
        <time>2022-01-15T09:46:24Z</time>
      </trkpt>
      <trkpt lat="48.55241" lon="2.09247">
        <ele>158</ele>
        <time>2022-01-15T09:46:21Z</time>
      </trkpt>
      <trkpt lat="48.55243" lon="2.09251">
        <ele>158</ele>
        <time>2022-01-15T09:46:18Z</time>
      </trkpt>
      <trkpt lat="48.55244" lon="2.09255">
        <ele>158</ele>
        <time>2022-01-15T09:46:15Z</time>
      </trkpt>
      <trkpt lat="48.55246" lon="2.09259">
        <ele>158</ele>
        <time>2022-01-15T09:46:12Z</time>
      </trkpt>
      <trkpt lat="48.55248" lon="2.09262">
        <ele>158</ele>
        <time>2022-01-15T09:46:10Z</time>
      </trkpt>
      <trkpt lat="48.5525" lon="2.09267">
        <ele>158</ele>
        <time>2022-01-15T09:46:07Z</time>
      </trkpt>
      <trkpt lat="48.55252" lon="2.09272">
        <ele>158</ele>
        <time>2022-01-15T09:46:04Z</time>
      </trkpt>
      <trkpt lat="48.55253" lon="2.09276">
        <ele>158</ele>
        <time>2022-01-15T09:46:01Z</time>
      </trkpt>
      <trkpt lat="48.55256" lon="2.0928">
        <ele>158</ele>
        <time>2022-01-15T09:45:58Z</time>
      </trkpt>
      <trkpt lat="48.55257" lon="2.09284">
        <ele>158</ele>
        <time>2022-01-15T09:45:55Z</time>
      </trkpt>
      <trkpt lat="48.55258" lon="2.09288">
        <ele>158</ele>
        <time>2022-01-15T09:45:52Z</time>
      </trkpt>
      <trkpt lat="48.55259" lon="2.09293">
        <ele>158</ele>
        <time>2022-01-15T09:45:49Z</time>
      </trkpt>
      <trkpt lat="48.55262" lon="2.09297">
        <ele>158</ele>
        <time>2022-01-15T09:45:47Z</time>
      </trkpt>
      <trkpt lat="48.55264" lon="2.09302">
        <ele>158</ele>
        <time>2022-01-15T09:45:44Z</time>
      </trkpt>
      <trkpt lat="48.55266" lon="2.09306">
        <ele>158</ele>
        <time>2022-01-15T09:45:42Z</time>
      </trkpt>
      <trkpt lat="48.55268" lon="2.09311">
        <ele>158</ele>
        <time>2022-01-15T09:45:39Z</time>
      </trkpt>
      <trkpt lat="48.55269" lon="2.09315">
        <ele>158</ele>
        <time>2022-01-15T09:45:37Z</time>
      </trkpt>
      <trkpt lat="48.5527" lon="2.09319">
        <ele>158</ele>
        <time>2022-01-15T09:45:35Z</time>
      </trkpt>
      <trkpt lat="48.55272" lon="2.09323">
        <ele>158</ele>
        <time>2022-01-15T09:45:32Z</time>
      </trkpt>
      <trkpt lat="48.55273" lon="2.09328">
        <ele>158</ele>
        <time>2022-01-15T09:45:29Z</time>
      </trkpt>
      <trkpt lat="48.55275" lon="2.09331">
        <ele>158</ele>
        <time>2022-01-15T09:45:27Z</time>
      </trkpt>
      <trkpt lat="48.55277" lon="2.09336">
        <ele>159</ele>
        <time>2022-01-15T09:45:25Z</time>
      </trkpt>
      <trkpt lat="48.55278" lon="2.09341">
        <ele>159</ele>
        <time>2022-01-15T09:45:22Z</time>
      </trkpt>
      <trkpt lat="48.5528" lon="2.09345">
        <ele>159</ele>
        <time>2022-01-15T09:45:19Z</time>
      </trkpt>
      <trkpt lat="48.55282" lon="2.0935">
        <ele>158</ele>
        <time>2022-01-15T09:45:16Z</time>
      </trkpt>
      <trkpt lat="48.55283" lon="2.09354">
        <ele>158</ele>
        <time>2022-01-15T09:45:14Z</time>
      </trkpt>
      <trkpt lat="48.55284" lon="2.09358">
        <ele>158</ele>
        <time>2022-01-15T09:45:12Z</time>
      </trkpt>
      <trkpt lat="48.55286" lon="2.09363">
        <ele>158</ele>
        <time>2022-01-15T09:45:10Z</time>
      </trkpt>
      <trkpt lat="48.55287" lon="2.09367">
        <ele>158</ele>
        <time>2022-01-15T09:45:07Z</time>
      </trkpt>
      <trkpt lat="48.55289" lon="2.09371">
        <ele>158</ele>
        <time>2022-01-15T09:45:05Z</time>
      </trkpt>
      <trkpt lat="48.55291" lon="2.09375">
        <ele>158</ele>
        <time>2022-01-15T09:45:03Z</time>
      </trkpt>
      <trkpt lat="48.55293" lon="2.09379">
        <ele>158</ele>
        <time>2022-01-15T09:45:01Z</time>
      </trkpt>
      <trkpt lat="48.55294" lon="2.09383">
        <ele>159</ele>
        <time>2022-01-15T09:44:59Z</time>
      </trkpt>
      <trkpt lat="48.55296" lon="2.09388">
        <ele>159</ele>
        <time>2022-01-15T09:44:57Z</time>
      </trkpt>
      <trkpt lat="48.55298" lon="2.09392">
        <ele>159</ele>
        <time>2022-01-15T09:44:55Z</time>
      </trkpt>
      <trkpt lat="48.553" lon="2.09397">
        <ele>159</ele>
        <time>2022-01-15T09:44:53Z</time>
      </trkpt>
      <trkpt lat="48.55302" lon="2.09401">
        <ele>159</ele>
        <time>2022-01-15T09:44:51Z</time>
      </trkpt>
      <trkpt lat="48.55304" lon="2.09405">
        <ele>159</ele>
        <time>2022-01-15T09:44:48Z</time>
      </trkpt>
      <trkpt lat="48.55305" lon="2.09409">
        <ele>159</ele>
        <time>2022-01-15T09:44:46Z</time>
      </trkpt>
      <trkpt lat="48.55307" lon="2.09413">
        <ele>159</ele>
        <time>2022-01-15T09:44:44Z</time>
      </trkpt>
      <trkpt lat="48.55309" lon="2.09418">
        <ele>159</ele>
        <time>2022-01-15T09:44:42Z</time>
      </trkpt>
      <trkpt lat="48.5531" lon="2.09422">
        <ele>159</ele>
        <time>2022-01-15T09:44:39Z</time>
      </trkpt>
      <trkpt lat="48.55312" lon="2.09427">
        <ele>159</ele>
        <time>2022-01-15T09:44:36Z</time>
      </trkpt>
      <trkpt lat="48.55313" lon="2.09431">
        <ele>159</ele>
        <time>2022-01-15T09:44:34Z</time>
      </trkpt>
      <trkpt lat="48.55314" lon="2.09436">
        <ele>159</ele>
        <time>2022-01-15T09:44:32Z</time>
      </trkpt>
      <trkpt lat="48.55316" lon="2.09441">
        <ele>159</ele>
        <time>2022-01-15T09:44:30Z</time>
      </trkpt>
      <trkpt lat="48.55318" lon="2.09446">
        <ele>159</ele>
        <time>2022-01-15T09:44:28Z</time>
      </trkpt>
      <trkpt lat="48.5532" lon="2.09451">
        <ele>159</ele>
        <time>2022-01-15T09:44:25Z</time>
      </trkpt>
      <trkpt lat="48.55321" lon="2.09455">
        <ele>159</ele>
        <time>2022-01-15T09:44:23Z</time>
      </trkpt>
      <trkpt lat="48.55323" lon="2.0946">
        <ele>159</ele>
        <time>2022-01-15T09:44:20Z</time>
      </trkpt>
      <trkpt lat="48.55325" lon="2.09464">
        <ele>159</ele>
        <time>2022-01-15T09:44:17Z</time>
      </trkpt>
      <trkpt lat="48.55326" lon="2.09468">
        <ele>159</ele>
        <time>2022-01-15T09:44:15Z</time>
      </trkpt>
      <trkpt lat="48.55327" lon="2.09472">
        <ele>159</ele>
        <time>2022-01-15T09:44:13Z</time>
      </trkpt>
      <trkpt lat="48.55329" lon="2.09477">
        <ele>159</ele>
        <time>2022-01-15T09:44:10Z</time>
      </trkpt>
      <trkpt lat="48.5533" lon="2.09481">
        <ele>159</ele>
        <time>2022-01-15T09:44:07Z</time>
      </trkpt>
      <trkpt lat="48.55332" lon="2.09485">
        <ele>159</ele>
        <time>2022-01-15T09:44:05Z</time>
      </trkpt>
      <trkpt lat="48.55334" lon="2.09489">
        <ele>159</ele>
        <time>2022-01-15T09:44:03Z</time>
      </trkpt>
      <trkpt lat="48.55335" lon="2.09493">
        <ele>159</ele>
        <time>2022-01-15T09:44:00Z</time>
      </trkpt>
      <trkpt lat="48.55336" lon="2.09499">
        <ele>159</ele>
        <time>2022-01-15T09:43:57Z</time>
      </trkpt>
      <trkpt lat="48.55335" lon="2.09503">
        <ele>159</ele>
        <time>2022-01-15T09:43:54Z</time>
      </trkpt>
      <trkpt lat="48.55334" lon="2.09508">
        <ele>159</ele>
        <time>2022-01-15T09:43:51Z</time>
      </trkpt>
      <trkpt lat="48.55333" lon="2.09511">
        <ele>159</ele>
        <time>2022-01-15T09:43:49Z</time>
      </trkpt>
      <trkpt lat="48.55335" lon="2.09516">
        <ele>159</ele>
        <time>2022-01-15T09:43:45Z</time>
      </trkpt>
      <trkpt lat="48.55337" lon="2.09519">
        <ele>159</ele>
        <time>2022-01-15T09:43:43Z</time>
      </trkpt>
      <trkpt lat="48.5534" lon="2.09522">
        <ele>159</ele>
        <time>2022-01-15T09:43:40Z</time>
      </trkpt>
      <trkpt lat="48.55343" lon="2.09522">
        <ele>159</ele>
        <time>2022-01-15T09:43:38Z</time>
      </trkpt>
      <trkpt lat="48.55345" lon="2.09523">
        <ele>159</ele>
        <time>2022-01-15T09:43:36Z</time>
      </trkpt>
      <trkpt lat="48.55347" lon="2.09527">
        <ele>159</ele>
        <time>2022-01-15T09:43:33Z</time>
      </trkpt>
      <trkpt lat="48.55349" lon="2.09531">
        <ele>159</ele>
        <time>2022-01-15T09:43:30Z</time>
      </trkpt>
      <trkpt lat="48.5535" lon="2.09536">
        <ele>159</ele>
        <time>2022-01-15T09:43:28Z</time>
      </trkpt>
      <trkpt lat="48.55351" lon="2.0954">
        <ele>159</ele>
        <time>2022-01-15T09:43:23Z</time>
      </trkpt>
      <trkpt lat="48.55352" lon="2.09544">
        <ele>159</ele>
        <time>2022-01-15T09:43:20Z</time>
      </trkpt>
      <trkpt lat="48.55354" lon="2.09546">
        <ele>159</ele>
        <time>2022-01-15T09:43:17Z</time>
      </trkpt>
      <trkpt lat="48.55357" lon="2.09547">
        <ele>159</ele>
        <time>2022-01-15T09:43:15Z</time>
      </trkpt>
      <trkpt lat="48.55359" lon="2.0955">
        <ele>159</ele>
        <time>2022-01-15T09:43:12Z</time>
      </trkpt>
      <trkpt lat="48.55362" lon="2.09553">
        <ele>159</ele>
        <time>2022-01-15T09:43:10Z</time>
      </trkpt>
      <trkpt lat="48.55365" lon="2.09556">
        <ele>159</ele>
        <time>2022-01-15T09:43:07Z</time>
      </trkpt>
      <trkpt lat="48.55368" lon="2.09559">
        <ele>159</ele>
        <time>2022-01-15T09:43:04Z</time>
      </trkpt>
      <trkpt lat="48.5537" lon="2.09563">
        <ele>159</ele>
        <time>2022-01-15T09:43:02Z</time>
      </trkpt>
      <trkpt lat="48.55372" lon="2.09567">
        <ele>159</ele>
        <time>2022-01-15T09:43:00Z</time>
      </trkpt>
      <trkpt lat="48.55373" lon="2.09572">
        <ele>159</ele>
        <time>2022-01-15T09:42:57Z</time>
      </trkpt>
      <trkpt lat="48.55373" lon="2.09578">
        <ele>159</ele>
        <time>2022-01-15T09:42:55Z</time>
      </trkpt>
      <trkpt lat="48.55373" lon="2.09583">
        <ele>159</ele>
        <time>2022-01-15T09:42:53Z</time>
      </trkpt>
      <trkpt lat="48.55374" lon="2.09589">
        <ele>159</ele>
        <time>2022-01-15T09:42:50Z</time>
      </trkpt>
      <trkpt lat="48.55376" lon="2.09594">
        <ele>159</ele>
        <time>2022-01-15T09:42:48Z</time>
      </trkpt>
      <trkpt lat="48.55377" lon="2.096">
        <ele>159</ele>
        <time>2022-01-15T09:42:45Z</time>
      </trkpt>
      <trkpt lat="48.55378" lon="2.09604">
        <ele>159</ele>
        <time>2022-01-15T09:42:42Z</time>
      </trkpt>
      <trkpt lat="48.5538" lon="2.09608">
        <ele>159</ele>
        <time>2022-01-15T09:42:40Z</time>
      </trkpt>
      <trkpt lat="48.55382" lon="2.09612">
        <ele>159</ele>
        <time>2022-01-15T09:42:38Z</time>
      </trkpt>
      <trkpt lat="48.55383" lon="2.09616">
        <ele>159</ele>
        <time>2022-01-15T09:42:36Z</time>
      </trkpt>
      <trkpt lat="48.55386" lon="2.09621">
        <ele>159</ele>
        <time>2022-01-15T09:42:33Z</time>
      </trkpt>
      <trkpt lat="48.55387" lon="2.09626">
        <ele>159</ele>
        <time>2022-01-15T09:42:30Z</time>
      </trkpt>
      <trkpt lat="48.55389" lon="2.0963">
        <ele>159</ele>
        <time>2022-01-15T09:42:28Z</time>
      </trkpt>
      <trkpt lat="48.55391" lon="2.09634">
        <ele>159</ele>
        <time>2022-01-15T09:42:26Z</time>
      </trkpt>
      <trkpt lat="48.55393" lon="2.09638">
        <ele>159</ele>
        <time>2022-01-15T09:42:24Z</time>
      </trkpt>
      <trkpt lat="48.55396" lon="2.09642">
        <ele>159</ele>
        <time>2022-01-15T09:42:21Z</time>
      </trkpt>
      <trkpt lat="48.55398" lon="2.09647">
        <ele>159</ele>
        <time>2022-01-15T09:42:18Z</time>
      </trkpt>
      <trkpt lat="48.554" lon="2.0965">
        <ele>159</ele>
        <time>2022-01-15T09:42:16Z</time>
      </trkpt>
      <trkpt lat="48.55403" lon="2.09654">
        <ele>159</ele>
        <time>2022-01-15T09:42:13Z</time>
      </trkpt>
      <trkpt lat="48.55405" lon="2.09658">
        <ele>159</ele>
        <time>2022-01-15T09:42:11Z</time>
      </trkpt>
      <trkpt lat="48.55406" lon="2.09663">
        <ele>159</ele>
        <time>2022-01-15T09:42:08Z</time>
      </trkpt>
      <trkpt lat="48.55406" lon="2.09668">
        <ele>159</ele>
        <time>2022-01-15T09:42:06Z</time>
      </trkpt>
      <trkpt lat="48.55406" lon="2.09673">
        <ele>159</ele>
        <time>2022-01-15T09:42:03Z</time>
      </trkpt>
      <trkpt lat="48.55405" lon="2.09677">
        <ele>159</ele>
        <time>2022-01-15T09:42:01Z</time>
      </trkpt>
      <trkpt lat="48.55405" lon="2.09683">
        <ele>159</ele>
        <time>2022-01-15T09:41:58Z</time>
      </trkpt>
      <trkpt lat="48.55405" lon="2.09687">
        <ele>159</ele>
        <time>2022-01-15T09:41:56Z</time>
      </trkpt>
      <trkpt lat="48.55406" lon="2.09692">
        <ele>159</ele>
        <time>2022-01-15T09:41:54Z</time>
      </trkpt>
      <trkpt lat="48.55407" lon="2.09698">
        <ele>159</ele>
        <time>2022-01-15T09:41:50Z</time>
      </trkpt>
      <trkpt lat="48.55408" lon="2.09702">
        <ele>159</ele>
        <time>2022-01-15T09:41:47Z</time>
      </trkpt>
      <trkpt lat="48.55408" lon="2.09707">
        <ele>159</ele>
        <time>2022-01-15T09:41:43Z</time>
      </trkpt>
      <trkpt lat="48.55409" lon="2.09713">
        <ele>159</ele>
        <time>2022-01-15T09:41:41Z</time>
      </trkpt>
      <trkpt lat="48.55409" lon="2.09718">
        <ele>159</ele>
        <time>2022-01-15T09:41:39Z</time>
      </trkpt>
      <trkpt lat="48.5541" lon="2.09723">
        <ele>159</ele>
        <time>2022-01-15T09:41:37Z</time>
      </trkpt>
      <trkpt lat="48.55411" lon="2.09728">
        <ele>159</ele>
        <time>2022-01-15T09:41:35Z</time>
      </trkpt>
      <trkpt lat="48.55412" lon="2.09733">
        <ele>159</ele>
        <time>2022-01-15T09:41:33Z</time>
      </trkpt>
      <trkpt lat="48.55413" lon="2.09738">
        <ele>159</ele>
        <time>2022-01-15T09:41:30Z</time>
      </trkpt>
      <trkpt lat="48.55414" lon="2.09744">
        <ele>159</ele>
        <time>2022-01-15T09:41:26Z</time>
      </trkpt>
      <trkpt lat="48.55415" lon="2.0975">
        <ele>159</ele>
        <time>2022-01-15T09:41:23Z</time>
      </trkpt>
      <trkpt lat="48.55416" lon="2.09756">
        <ele>159</ele>
        <time>2022-01-15T09:41:21Z</time>
      </trkpt>
      <trkpt lat="48.55417" lon="2.09761">
        <ele>159</ele>
        <time>2022-01-15T09:41:19Z</time>
      </trkpt>
      <trkpt lat="48.55417" lon="2.09767">
        <ele>159</ele>
        <time>2022-01-15T09:41:17Z</time>
      </trkpt>
      <trkpt lat="48.55417" lon="2.09773">
        <ele>159</ele>
        <time>2022-01-15T09:41:15Z</time>
      </trkpt>
      <trkpt lat="48.55417" lon="2.09778">
        <ele>159</ele>
        <time>2022-01-15T09:41:12Z</time>
      </trkpt>
      <trkpt lat="48.55418" lon="2.09783">
        <ele>159</ele>
        <time>2022-01-15T09:41:10Z</time>
      </trkpt>
      <trkpt lat="48.55418" lon="2.09787">
        <ele>159</ele>
        <time>2022-01-15T09:41:07Z</time>
      </trkpt>
      <trkpt lat="48.55419" lon="2.09792">
        <ele>159</ele>
        <time>2022-01-15T09:41:05Z</time>
      </trkpt>
      <trkpt lat="48.5542" lon="2.09797">
        <ele>159</ele>
        <time>2022-01-15T09:41:02Z</time>
      </trkpt>
      <trkpt lat="48.55421" lon="2.09802">
        <ele>159</ele>
        <time>2022-01-15T09:41:00Z</time>
      </trkpt>
      <trkpt lat="48.55421" lon="2.09809">
        <ele>159</ele>
        <time>2022-01-15T09:40:57Z</time>
      </trkpt>
      <trkpt lat="48.55421" lon="2.09814">
        <ele>159</ele>
        <time>2022-01-15T09:40:55Z</time>
      </trkpt>
      <trkpt lat="48.55421" lon="2.0982">
        <ele>159</ele>
        <time>2022-01-15T09:40:52Z</time>
      </trkpt>
      <trkpt lat="48.55421" lon="2.09826">
        <ele>159</ele>
        <time>2022-01-15T09:40:50Z</time>
      </trkpt>
      <trkpt lat="48.55421" lon="2.0983">
        <ele>159</ele>
        <time>2022-01-15T09:40:47Z</time>
      </trkpt>
      <trkpt lat="48.55422" lon="2.09835">
        <ele>159</ele>
        <time>2022-01-15T09:40:45Z</time>
      </trkpt>
      <trkpt lat="48.55423" lon="2.09839">
        <ele>159</ele>
        <time>2022-01-15T09:40:43Z</time>
      </trkpt>
      <trkpt lat="48.55425" lon="2.09844">
        <ele>159</ele>
        <time>2022-01-15T09:40:41Z</time>
      </trkpt>
      <trkpt lat="48.55426" lon="2.09849">
        <ele>159</ele>
        <time>2022-01-15T09:40:39Z</time>
      </trkpt>
      <trkpt lat="48.55427" lon="2.09855">
        <ele>159</ele>
        <time>2022-01-15T09:40:36Z</time>
      </trkpt>
      <trkpt lat="48.55427" lon="2.0986">
        <ele>159</ele>
        <time>2022-01-15T09:40:33Z</time>
      </trkpt>
      <trkpt lat="48.55428" lon="2.09865">
        <ele>159</ele>
        <time>2022-01-15T09:40:31Z</time>
      </trkpt>
      <trkpt lat="48.55428" lon="2.09869">
        <ele>159</ele>
        <time>2022-01-15T09:40:29Z</time>
      </trkpt>
      <trkpt lat="48.5543" lon="2.09873">
        <ele>159</ele>
        <time>2022-01-15T09:40:27Z</time>
      </trkpt>
      <trkpt lat="48.55431" lon="2.09878">
        <ele>159</ele>
        <time>2022-01-15T09:40:25Z</time>
      </trkpt>
      <trkpt lat="48.55432" lon="2.09882">
        <ele>159</ele>
        <time>2022-01-15T09:40:23Z</time>
      </trkpt>
      <trkpt lat="48.55434" lon="2.09886">
        <ele>159</ele>
        <time>2022-01-15T09:40:21Z</time>
      </trkpt>
      <trkpt lat="48.55435" lon="2.09891">
        <ele>159</ele>
        <time>2022-01-15T09:40:19Z</time>
      </trkpt>
      <trkpt lat="48.55436" lon="2.09896">
        <ele>159</ele>
        <time>2022-01-15T09:40:17Z</time>
      </trkpt>
      <trkpt lat="48.55438" lon="2.09902">
        <ele>159</ele>
        <time>2022-01-15T09:40:14Z</time>
      </trkpt>
      <trkpt lat="48.55439" lon="2.09906">
        <ele>159</ele>
        <time>2022-01-15T09:40:12Z</time>
      </trkpt>
      <trkpt lat="48.55441" lon="2.09911">
        <ele>159</ele>
        <time>2022-01-15T09:40:09Z</time>
      </trkpt>
      <trkpt lat="48.55442" lon="2.09916">
        <ele>159</ele>
        <time>2022-01-15T09:40:06Z</time>
      </trkpt>
      <trkpt lat="48.55443" lon="2.09921">
        <ele>159</ele>
        <time>2022-01-15T09:40:03Z</time>
      </trkpt>
      <trkpt lat="48.55445" lon="2.09926">
        <ele>159</ele>
        <time>2022-01-15T09:40:01Z</time>
      </trkpt>
      <trkpt lat="48.55446" lon="2.0993">
        <ele>159</ele>
        <time>2022-01-15T09:39:59Z</time>
      </trkpt>
      <trkpt lat="48.55448" lon="2.09935">
        <ele>159</ele>
        <time>2022-01-15T09:39:57Z</time>
      </trkpt>
      <trkpt lat="48.55449" lon="2.09941">
        <ele>159</ele>
        <time>2022-01-15T09:39:53Z</time>
      </trkpt>
      <trkpt lat="48.55451" lon="2.09946">
        <ele>159</ele>
        <time>2022-01-15T09:39:51Z</time>
      </trkpt>
      <trkpt lat="48.55453" lon="2.09951">
        <ele>159</ele>
        <time>2022-01-15T09:39:48Z</time>
      </trkpt>
      <trkpt lat="48.55454" lon="2.09955">
        <ele>159</ele>
        <time>2022-01-15T09:39:46Z</time>
      </trkpt>
      <trkpt lat="48.55455" lon="2.0996">
        <ele>159</ele>
        <time>2022-01-15T09:39:43Z</time>
      </trkpt>
      <trkpt lat="48.55456" lon="2.09965">
        <ele>159</ele>
        <time>2022-01-15T09:39:41Z</time>
      </trkpt>
      <trkpt lat="48.55457" lon="2.09969">
        <ele>159</ele>
        <time>2022-01-15T09:39:39Z</time>
      </trkpt>
      <trkpt lat="48.55459" lon="2.09974">
        <ele>159</ele>
        <time>2022-01-15T09:39:36Z</time>
      </trkpt>
      <trkpt lat="48.55461" lon="2.09979">
        <ele>159</ele>
        <time>2022-01-15T09:39:34Z</time>
      </trkpt>
      <trkpt lat="48.55462" lon="2.09983">
        <ele>159</ele>
        <time>2022-01-15T09:39:32Z</time>
      </trkpt>
      <trkpt lat="48.55463" lon="2.09989">
        <ele>159</ele>
        <time>2022-01-15T09:39:30Z</time>
      </trkpt>
      <trkpt lat="48.55464" lon="2.09994">
        <ele>159</ele>
        <time>2022-01-15T09:39:26Z</time>
      </trkpt>
      <trkpt lat="48.55466" lon="2.09998">
        <ele>159</ele>
        <time>2022-01-15T09:39:23Z</time>
      </trkpt>
      <trkpt lat="48.55467" lon="2.10003">
        <ele>159</ele>
        <time>2022-01-15T09:39:21Z</time>
      </trkpt>
      <trkpt lat="48.55469" lon="2.10008">
        <ele>159</ele>
        <time>2022-01-15T09:39:19Z</time>
      </trkpt>
      <trkpt lat="48.5547" lon="2.10013">
        <ele>159</ele>
        <time>2022-01-15T09:39:17Z</time>
      </trkpt>
      <trkpt lat="48.55472" lon="2.10017">
        <ele>159</ele>
        <time>2022-01-15T09:39:15Z</time>
      </trkpt>
      <trkpt lat="48.55473" lon="2.10021">
        <ele>159</ele>
        <time>2022-01-15T09:39:13Z</time>
      </trkpt>
      <trkpt lat="48.55474" lon="2.10025">
        <ele>159</ele>
        <time>2022-01-15T09:39:09Z</time>
      </trkpt>
      <trkpt lat="48.55477" lon="2.1003">
        <ele>159</ele>
        <time>2022-01-15T09:39:06Z</time>
      </trkpt>
      <trkpt lat="48.55478" lon="2.10035">
        <ele>159</ele>
        <time>2022-01-15T09:39:04Z</time>
      </trkpt>
      <trkpt lat="48.55478" lon="2.10041">
        <ele>159</ele>
        <time>2022-01-15T09:39:01Z</time>
      </trkpt>
      <trkpt lat="48.55479" lon="2.10045">
        <ele>159</ele>
        <time>2022-01-15T09:38:59Z</time>
      </trkpt>
      <trkpt lat="48.5548" lon="2.1005">
        <ele>159</ele>
        <time>2022-01-15T09:38:56Z</time>
      </trkpt>
      <trkpt lat="48.5548" lon="2.10055">
        <ele>159</ele>
        <time>2022-01-15T09:38:53Z</time>
      </trkpt>
      <trkpt lat="48.55481" lon="2.1006">
        <ele>159</ele>
        <time>2022-01-15T09:38:51Z</time>
      </trkpt>
      <trkpt lat="48.55483" lon="2.10065">
        <ele>159</ele>
        <time>2022-01-15T09:38:49Z</time>
      </trkpt>
      <trkpt lat="48.55484" lon="2.1007">
        <ele>159</ele>
        <time>2022-01-15T09:38:47Z</time>
      </trkpt>
      <trkpt lat="48.55485" lon="2.10075">
        <ele>159</ele>
        <time>2022-01-15T09:38:45Z</time>
      </trkpt>
      <trkpt lat="48.55486" lon="2.10079">
        <ele>159</ele>
        <time>2022-01-15T09:38:43Z</time>
      </trkpt>
      <trkpt lat="48.55488" lon="2.10085">
        <ele>159</ele>
        <time>2022-01-15T09:38:40Z</time>
      </trkpt>
      <trkpt lat="48.55489" lon="2.1009">
        <ele>159</ele>
        <time>2022-01-15T09:38:38Z</time>
      </trkpt>
      <trkpt lat="48.5549" lon="2.10095">
        <ele>159</ele>
        <time>2022-01-15T09:38:36Z</time>
      </trkpt>
      <trkpt lat="48.5549" lon="2.10102">
        <ele>159</ele>
        <time>2022-01-15T09:38:32Z</time>
      </trkpt>
      <trkpt lat="48.55491" lon="2.10107">
        <ele>159</ele>
        <time>2022-01-15T09:38:28Z</time>
      </trkpt>
      <trkpt lat="48.55492" lon="2.10111">
        <ele>159</ele>
        <time>2022-01-15T09:38:25Z</time>
      </trkpt>
      <trkpt lat="48.55493" lon="2.10115">
        <ele>159</ele>
        <time>2022-01-15T09:38:23Z</time>
      </trkpt>
      <trkpt lat="48.55495" lon="2.10119">
        <ele>159</ele>
        <time>2022-01-15T09:38:20Z</time>
      </trkpt>
      <trkpt lat="48.55498" lon="2.10123">
        <ele>159</ele>
        <time>2022-01-15T09:38:17Z</time>
      </trkpt>
      <trkpt lat="48.555" lon="2.10128">
        <ele>159</ele>
        <time>2022-01-15T09:38:14Z</time>
      </trkpt>
      <trkpt lat="48.55502" lon="2.10133">
        <ele>159</ele>
        <time>2022-01-15T09:38:12Z</time>
      </trkpt>
      <trkpt lat="48.55504" lon="2.10138">
        <ele>159</ele>
        <time>2022-01-15T09:38:10Z</time>
      </trkpt>
      <trkpt lat="48.55505" lon="2.10144">
        <ele>159</ele>
        <time>2022-01-15T09:38:08Z</time>
      </trkpt>
      <trkpt lat="48.55506" lon="2.10149">
        <ele>158</ele>
        <time>2022-01-15T09:38:06Z</time>
      </trkpt>
      <trkpt lat="48.55506" lon="2.10154">
        <ele>158</ele>
        <time>2022-01-15T09:38:04Z</time>
      </trkpt>
      <trkpt lat="48.55506" lon="2.1016">
        <ele>159</ele>
        <time>2022-01-15T09:38:01Z</time>
      </trkpt>
      <trkpt lat="48.55508" lon="2.10165">
        <ele>159</ele>
        <time>2022-01-15T09:37:59Z</time>
      </trkpt>
      <trkpt lat="48.5551" lon="2.1017">
        <ele>158</ele>
        <time>2022-01-15T09:37:56Z</time>
      </trkpt>
      <trkpt lat="48.55511" lon="2.10174">
        <ele>158</ele>
        <time>2022-01-15T09:37:54Z</time>
      </trkpt>
      <trkpt lat="48.55512" lon="2.10178">
        <ele>158</ele>
        <time>2022-01-15T09:37:52Z</time>
      </trkpt>
      <trkpt lat="48.55513" lon="2.10184">
        <ele>158</ele>
        <time>2022-01-15T09:37:50Z</time>
      </trkpt>
      <trkpt lat="48.55515" lon="2.10188">
        <ele>158</ele>
        <time>2022-01-15T09:37:47Z</time>
      </trkpt>
      <trkpt lat="48.55516" lon="2.10193">
        <ele>158</ele>
        <time>2022-01-15T09:37:45Z</time>
      </trkpt>
      <trkpt lat="48.55516" lon="2.10198">
        <ele>158</ele>
        <time>2022-01-15T09:37:41Z</time>
      </trkpt>
      <trkpt lat="48.55516" lon="2.10203">
        <ele>158</ele>
        <time>2022-01-15T09:37:39Z</time>
      </trkpt>
      <trkpt lat="48.55516" lon="2.10208">
        <ele>158</ele>
        <time>2022-01-15T09:37:37Z</time>
      </trkpt>
      <trkpt lat="48.55516" lon="2.10212">
        <ele>158</ele>
        <time>2022-01-15T09:37:35Z</time>
      </trkpt>
      <trkpt lat="48.55515" lon="2.10217">
        <ele>158</ele>
        <time>2022-01-15T09:37:33Z</time>
      </trkpt>
      <trkpt lat="48.55514" lon="2.10222">
        <ele>158</ele>
        <time>2022-01-15T09:37:31Z</time>
      </trkpt>
      <trkpt lat="48.55514" lon="2.10227">
        <ele>158</ele>
        <time>2022-01-15T09:37:29Z</time>
      </trkpt>
      <trkpt lat="48.55514" lon="2.10233">
        <ele>158</ele>
        <time>2022-01-15T09:37:27Z</time>
      </trkpt>
      <trkpt lat="48.55515" lon="2.10239">
        <ele>158</ele>
        <time>2022-01-15T09:37:25Z</time>
      </trkpt>
      <trkpt lat="48.55516" lon="2.10245">
        <ele>158</ele>
        <time>2022-01-15T09:37:23Z</time>
      </trkpt>
      <trkpt lat="48.55519" lon="2.10249">
        <ele>158</ele>
        <time>2022-01-15T09:37:21Z</time>
      </trkpt>
      <trkpt lat="48.55521" lon="2.10253">
        <ele>158</ele>
        <time>2022-01-15T09:37:19Z</time>
      </trkpt>
      <trkpt lat="48.55522" lon="2.10257">
        <ele>158</ele>
        <time>2022-01-15T09:37:17Z</time>
      </trkpt>
      <trkpt lat="48.55524" lon="2.10262">
        <ele>158</ele>
        <time>2022-01-15T09:37:15Z</time>
      </trkpt>
      <trkpt lat="48.55524" lon="2.10268">
        <ele>158</ele>
        <time>2022-01-15T09:37:12Z</time>
      </trkpt>
      <trkpt lat="48.55525" lon="2.10273">
        <ele>158</ele>
        <time>2022-01-15T09:37:09Z</time>
      </trkpt>
      <trkpt lat="48.55526" lon="2.10277">
        <ele>158</ele>
        <time>2022-01-15T09:37:07Z</time>
      </trkpt>
      <trkpt lat="48.55527" lon="2.10281">
        <ele>158</ele>
        <time>2022-01-15T09:37:05Z</time>
      </trkpt>
      <trkpt lat="48.55529" lon="2.10286">
        <ele>157</ele>
        <time>2022-01-15T09:37:04Z</time>
      </trkpt>
      <trkpt lat="48.55529" lon="2.1029">
        <ele>158</ele>
        <time>2022-01-15T09:37:02Z</time>
      </trkpt>
      <trkpt lat="48.55531" lon="2.10295">
        <ele>158</ele>
        <time>2022-01-15T09:37:00Z</time>
      </trkpt>
      <trkpt lat="48.55532" lon="2.10299">
        <ele>158</ele>
        <time>2022-01-15T09:36:58Z</time>
      </trkpt>
      <trkpt lat="48.55533" lon="2.10304">
        <ele>158</ele>
        <time>2022-01-15T09:36:56Z</time>
      </trkpt>
      <trkpt lat="48.55535" lon="2.10308">
        <ele>158</ele>
        <time>2022-01-15T09:36:54Z</time>
      </trkpt>
      <trkpt lat="48.55537" lon="2.10312">
        <ele>158</ele>
        <time>2022-01-15T09:36:52Z</time>
      </trkpt>
      <trkpt lat="48.55539" lon="2.10317">
        <ele>157</ele>
        <time>2022-01-15T09:36:49Z</time>
      </trkpt>
      <trkpt lat="48.55541" lon="2.10321">
        <ele>157</ele>
        <time>2022-01-15T09:36:47Z</time>
      </trkpt>
      <trkpt lat="48.55544" lon="2.10326">
        <ele>157</ele>
        <time>2022-01-15T09:36:44Z</time>
      </trkpt>
      <trkpt lat="48.55545" lon="2.1033">
        <ele>157</ele>
        <time>2022-01-15T09:36:42Z</time>
      </trkpt>
      <trkpt lat="48.55547" lon="2.10336">
        <ele>157</ele>
        <time>2022-01-15T09:36:40Z</time>
      </trkpt>
      <trkpt lat="48.55548" lon="2.10342">
        <ele>157</ele>
        <time>2022-01-15T09:36:38Z</time>
      </trkpt>
      <trkpt lat="48.55549" lon="2.10347">
        <ele>157</ele>
        <time>2022-01-15T09:36:36Z</time>
      </trkpt>
      <trkpt lat="48.55551" lon="2.10352">
        <ele>157</ele>
        <time>2022-01-15T09:36:33Z</time>
      </trkpt>
      <trkpt lat="48.55553" lon="2.10356">
        <ele>157</ele>
        <time>2022-01-15T09:36:31Z</time>
      </trkpt>
      <trkpt lat="48.55554" lon="2.1036">
        <ele>157</ele>
        <time>2022-01-15T09:36:29Z</time>
      </trkpt>
      <trkpt lat="48.55555" lon="2.10365">
        <ele>157</ele>
        <time>2022-01-15T09:36:27Z</time>
      </trkpt>
      <trkpt lat="48.55556" lon="2.10369">
        <ele>157</ele>
        <time>2022-01-15T09:36:25Z</time>
      </trkpt>
      <trkpt lat="48.55558" lon="2.10374">
        <ele>157</ele>
        <time>2022-01-15T09:36:23Z</time>
      </trkpt>
      <trkpt lat="48.5556" lon="2.10378">
        <ele>157</ele>
        <time>2022-01-15T09:36:21Z</time>
      </trkpt>
      <trkpt lat="48.55562" lon="2.10382">
        <ele>157</ele>
        <time>2022-01-15T09:36:19Z</time>
      </trkpt>
      <trkpt lat="48.55563" lon="2.10386">
        <ele>157</ele>
        <time>2022-01-15T09:36:17Z</time>
      </trkpt>
      <trkpt lat="48.55565" lon="2.1039">
        <ele>157</ele>
        <time>2022-01-15T09:36:14Z</time>
      </trkpt>
      <trkpt lat="48.55566" lon="2.10394">
        <ele>157</ele>
        <time>2022-01-15T09:36:12Z</time>
      </trkpt>
      <trkpt lat="48.55568" lon="2.10399">
        <ele>157</ele>
        <time>2022-01-15T09:36:09Z</time>
      </trkpt>
      <trkpt lat="48.5557" lon="2.10404">
        <ele>157</ele>
        <time>2022-01-15T09:36:06Z</time>
      </trkpt>
      <trkpt lat="48.55572" lon="2.10409">
        <ele>157</ele>
        <time>2022-01-15T09:36:04Z</time>
      </trkpt>
      <trkpt lat="48.55573" lon="2.10413">
        <ele>157</ele>
        <time>2022-01-15T09:36:02Z</time>
      </trkpt>
      <trkpt lat="48.55575" lon="2.10418">
        <ele>157</ele>
        <time>2022-01-15T09:35:59Z</time>
      </trkpt>
      <trkpt lat="48.55577" lon="2.10423">
        <ele>157</ele>
        <time>2022-01-15T09:35:56Z</time>
      </trkpt>
      <trkpt lat="48.55579" lon="2.10428">
        <ele>157</ele>
        <time>2022-01-15T09:35:53Z</time>
      </trkpt>
      <trkpt lat="48.55581" lon="2.10435">
        <ele>156</ele>
        <time>2022-01-15T09:35:49Z</time>
      </trkpt>
      <trkpt lat="48.55583" lon="2.10439">
        <ele>156</ele>
        <time>2022-01-15T09:35:47Z</time>
      </trkpt>
      <trkpt lat="48.55585" lon="2.10444">
        <ele>156</ele>
        <time>2022-01-15T09:35:45Z</time>
      </trkpt>
      <trkpt lat="48.55587" lon="2.10449">
        <ele>156</ele>
        <time>2022-01-15T09:35:42Z</time>
      </trkpt>
      <trkpt lat="48.55589" lon="2.10454">
        <ele>156</ele>
        <time>2022-01-15T09:35:40Z</time>
      </trkpt>
      <trkpt lat="48.55592" lon="2.10459">
        <ele>156</ele>
        <time>2022-01-15T09:35:37Z</time>
      </trkpt>
      <trkpt lat="48.55594" lon="2.10463">
        <ele>156</ele>
        <time>2022-01-15T09:35:35Z</time>
      </trkpt>
      <trkpt lat="48.55597" lon="2.10468">
        <ele>156</ele>
        <time>2022-01-15T09:35:32Z</time>
      </trkpt>
      <trkpt lat="48.55599" lon="2.10473">
        <ele>156</ele>
        <time>2022-01-15T09:35:29Z</time>
      </trkpt>
      <trkpt lat="48.55601" lon="2.10476">
        <ele>156</ele>
        <time>2022-01-15T09:35:27Z</time>
      </trkpt>
      <trkpt lat="48.55603" lon="2.10481">
        <ele>156</ele>
        <time>2022-01-15T09:35:25Z</time>
      </trkpt>
      <trkpt lat="48.55604" lon="2.10485">
        <ele>156</ele>
        <time>2022-01-15T09:35:23Z</time>
      </trkpt>
      <trkpt lat="48.55605" lon="2.10489">
        <ele>156</ele>
        <time>2022-01-15T09:35:21Z</time>
      </trkpt>
      <trkpt lat="48.55606" lon="2.10495">
        <ele>156</ele>
        <time>2022-01-15T09:35:18Z</time>
      </trkpt>
      <trkpt lat="48.55607" lon="2.10501">
        <ele>156</ele>
        <time>2022-01-15T09:35:15Z</time>
      </trkpt>
      <trkpt lat="48.55608" lon="2.10505">
        <ele>156</ele>
        <time>2022-01-15T09:35:12Z</time>
      </trkpt>
      <trkpt lat="48.5561" lon="2.1051">
        <ele>156</ele>
        <time>2022-01-15T09:35:10Z</time>
      </trkpt>
      <trkpt lat="48.55612" lon="2.10515">
        <ele>156</ele>
        <time>2022-01-15T09:35:08Z</time>
      </trkpt>
      <trkpt lat="48.55613" lon="2.10519">
        <ele>156</ele>
        <time>2022-01-15T09:35:06Z</time>
      </trkpt>
      <trkpt lat="48.55615" lon="2.10524">
        <ele>156</ele>
        <time>2022-01-15T09:35:03Z</time>
      </trkpt>
      <trkpt lat="48.55617" lon="2.10528">
        <ele>156</ele>
        <time>2022-01-15T09:35:01Z</time>
      </trkpt>
      <trkpt lat="48.55619" lon="2.10533">
        <ele>156</ele>
        <time>2022-01-15T09:34:59Z</time>
      </trkpt>
      <trkpt lat="48.55621" lon="2.10538">
        <ele>156</ele>
        <time>2022-01-15T09:34:57Z</time>
      </trkpt>
      <trkpt lat="48.55622" lon="2.10542">
        <ele>156</ele>
        <time>2022-01-15T09:34:55Z</time>
      </trkpt>
      <trkpt lat="48.55624" lon="2.10547">
        <ele>156</ele>
        <time>2022-01-15T09:34:52Z</time>
      </trkpt>
      <trkpt lat="48.55625" lon="2.10551">
        <ele>155</ele>
        <time>2022-01-15T09:34:50Z</time>
      </trkpt>
      <trkpt lat="48.55627" lon="2.10556">
        <ele>155</ele>
        <time>2022-01-15T09:34:48Z</time>
      </trkpt>
      <trkpt lat="48.55629" lon="2.10561">
        <ele>155</ele>
        <time>2022-01-15T09:34:46Z</time>
      </trkpt>
      <trkpt lat="48.5563" lon="2.10565">
        <ele>155</ele>
        <time>2022-01-15T09:34:43Z</time>
      </trkpt>
      <trkpt lat="48.55632" lon="2.1057">
        <ele>155</ele>
        <time>2022-01-15T09:34:41Z</time>
      </trkpt>
      <trkpt lat="48.55634" lon="2.10575">
        <ele>155</ele>
        <time>2022-01-15T09:34:39Z</time>
      </trkpt>
      <trkpt lat="48.55635" lon="2.10579">
        <ele>155</ele>
        <time>2022-01-15T09:34:37Z</time>
      </trkpt>
      <trkpt lat="48.55637" lon="2.10584">
        <ele>155</ele>
        <time>2022-01-15T09:34:35Z</time>
      </trkpt>
      <trkpt lat="48.55639" lon="2.10588">
        <ele>155</ele>
        <time>2022-01-15T09:34:33Z</time>
      </trkpt>
      <trkpt lat="48.55641" lon="2.10594">
        <ele>155</ele>
        <time>2022-01-15T09:34:30Z</time>
      </trkpt>
      <trkpt lat="48.55643" lon="2.10598">
        <ele>155</ele>
        <time>2022-01-15T09:34:28Z</time>
      </trkpt>
      <trkpt lat="48.55645" lon="2.10603">
        <ele>155</ele>
        <time>2022-01-15T09:34:25Z</time>
      </trkpt>
      <trkpt lat="48.55646" lon="2.10607">
        <ele>155</ele>
        <time>2022-01-15T09:34:23Z</time>
      </trkpt>
      <trkpt lat="48.55647" lon="2.10611">
        <ele>155</ele>
        <time>2022-01-15T09:34:21Z</time>
      </trkpt>
      <trkpt lat="48.55648" lon="2.10616">
        <ele>155</ele>
        <time>2022-01-15T09:34:19Z</time>
      </trkpt>
      <trkpt lat="48.5565" lon="2.1062">
        <ele>155</ele>
        <time>2022-01-15T09:34:17Z</time>
      </trkpt>
      <trkpt lat="48.55651" lon="2.10625">
        <ele>155</ele>
        <time>2022-01-15T09:34:15Z</time>
      </trkpt>
      <trkpt lat="48.55652" lon="2.1063">
        <ele>155</ele>
        <time>2022-01-15T09:34:13Z</time>
      </trkpt>
      <trkpt lat="48.55654" lon="2.10634">
        <ele>155</ele>
        <time>2022-01-15T09:34:10Z</time>
      </trkpt>
      <trkpt lat="48.55656" lon="2.10638">
        <ele>155</ele>
        <time>2022-01-15T09:34:08Z</time>
      </trkpt>
      <trkpt lat="48.55658" lon="2.10642">
        <ele>155</ele>
        <time>2022-01-15T09:34:06Z</time>
      </trkpt>
      <trkpt lat="48.5566" lon="2.10646">
        <ele>155</ele>
        <time>2022-01-15T09:34:04Z</time>
      </trkpt>
      <trkpt lat="48.55662" lon="2.1065">
        <ele>155</ele>
        <time>2022-01-15T09:34:01Z</time>
      </trkpt>
      <trkpt lat="48.55663" lon="2.10653">
        <ele>155</ele>
        <time>2022-01-15T09:33:59Z</time>
      </trkpt>
      <trkpt lat="48.55666" lon="2.10655">
        <ele>155</ele>
        <time>2022-01-15T09:33:57Z</time>
      </trkpt>
      <trkpt lat="48.55668" lon="2.10654">
        <ele>155</ele>
        <time>2022-01-15T09:33:54Z</time>
      </trkpt>
      <trkpt lat="48.5567" lon="2.10657">
        <ele>155</ele>
        <time>2022-01-15T09:33:51Z</time>
      </trkpt>
      <trkpt lat="48.55669" lon="2.10662">
        <ele>155</ele>
        <time>2022-01-15T09:33:48Z</time>
      </trkpt>
      <trkpt lat="48.55667" lon="2.10665">
        <ele>155</ele>
        <time>2022-01-15T09:33:46Z</time>
      </trkpt>
      <trkpt lat="48.55666" lon="2.1067">
        <ele>155</ele>
        <time>2022-01-15T09:33:44Z</time>
      </trkpt>
      <trkpt lat="48.55667" lon="2.10674">
        <ele>155</ele>
        <time>2022-01-15T09:33:42Z</time>
      </trkpt>
      <trkpt lat="48.55668" lon="2.10678">
        <ele>155</ele>
        <time>2022-01-15T09:33:40Z</time>
      </trkpt>
      <trkpt lat="48.5567" lon="2.10682">
        <ele>154</ele>
        <time>2022-01-15T09:33:38Z</time>
      </trkpt>
      <trkpt lat="48.55672" lon="2.10686">
        <ele>154</ele>
        <time>2022-01-15T09:33:36Z</time>
      </trkpt>
      <trkpt lat="48.55673" lon="2.10691">
        <ele>154</ele>
        <time>2022-01-15T09:33:33Z</time>
      </trkpt>
      <trkpt lat="48.55675" lon="2.10695">
        <ele>154</ele>
        <time>2022-01-15T09:33:31Z</time>
      </trkpt>
      <trkpt lat="48.55677" lon="2.10699">
        <ele>154</ele>
        <time>2022-01-15T09:33:28Z</time>
      </trkpt>
      <trkpt lat="48.55679" lon="2.10704">
        <ele>154</ele>
        <time>2022-01-15T09:33:26Z</time>
      </trkpt>
      <trkpt lat="48.55681" lon="2.10708">
        <ele>154</ele>
        <time>2022-01-15T09:33:24Z</time>
      </trkpt>
      <trkpt lat="48.55683" lon="2.10711">
        <ele>154</ele>
        <time>2022-01-15T09:33:22Z</time>
      </trkpt>
      <trkpt lat="48.55686" lon="2.10715">
        <ele>154</ele>
        <time>2022-01-15T09:33:20Z</time>
      </trkpt>
      <trkpt lat="48.55688" lon="2.10718">
        <ele>154</ele>
        <time>2022-01-15T09:33:18Z</time>
      </trkpt>
      <trkpt lat="48.5569" lon="2.10723">
        <ele>154</ele>
        <time>2022-01-15T09:33:16Z</time>
      </trkpt>
      <trkpt lat="48.55692" lon="2.10727">
        <ele>154</ele>
        <time>2022-01-15T09:33:12Z</time>
      </trkpt>
      <trkpt lat="48.55694" lon="2.1073">
        <ele>154</ele>
        <time>2022-01-15T09:33:10Z</time>
      </trkpt>
      <trkpt lat="48.55696" lon="2.10733">
        <ele>154</ele>
        <time>2022-01-15T09:33:08Z</time>
      </trkpt>
      <trkpt lat="48.55699" lon="2.10735">
        <ele>154</ele>
        <time>2022-01-15T09:33:05Z</time>
      </trkpt>
      <trkpt lat="48.55702" lon="2.10738">
        <ele>154</ele>
        <time>2022-01-15T09:33:03Z</time>
      </trkpt>
      <trkpt lat="48.55705" lon="2.10742">
        <ele>154</ele>
        <time>2022-01-15T09:33:01Z</time>
      </trkpt>
      <trkpt lat="48.55708" lon="2.10746">
        <ele>153</ele>
        <time>2022-01-15T09:32:57Z</time>
      </trkpt>
      <trkpt lat="48.55709" lon="2.1075">
        <ele>153</ele>
        <time>2022-01-15T09:32:55Z</time>
      </trkpt>
      <trkpt lat="48.55709" lon="2.10756">
        <ele>153</ele>
        <time>2022-01-15T09:32:53Z</time>
      </trkpt>
      <trkpt lat="48.55709" lon="2.1076">
        <ele>153</ele>
        <time>2022-01-15T09:32:51Z</time>
      </trkpt>
      <trkpt lat="48.55709" lon="2.10765">
        <ele>153</ele>
        <time>2022-01-15T09:32:49Z</time>
      </trkpt>
      <trkpt lat="48.5571" lon="2.10769">
        <ele>153</ele>
        <time>2022-01-15T09:32:47Z</time>
      </trkpt>
      <trkpt lat="48.55712" lon="2.10773">
        <ele>153</ele>
        <time>2022-01-15T09:32:45Z</time>
      </trkpt>
      <trkpt lat="48.55713" lon="2.10778">
        <ele>153</ele>
        <time>2022-01-15T09:32:43Z</time>
      </trkpt>
      <trkpt lat="48.55715" lon="2.10782">
        <ele>153</ele>
        <time>2022-01-15T09:32:41Z</time>
      </trkpt>
      <trkpt lat="48.55716" lon="2.10785">
        <ele>153</ele>
        <time>2022-01-15T09:32:39Z</time>
      </trkpt>
      <trkpt lat="48.55717" lon="2.10789">
        <ele>153</ele>
        <time>2022-01-15T09:32:37Z</time>
      </trkpt>
      <trkpt lat="48.55719" lon="2.10793">
        <ele>153</ele>
        <time>2022-01-15T09:32:35Z</time>
      </trkpt>
      <trkpt lat="48.55722" lon="2.10795">
        <ele>153</ele>
        <time>2022-01-15T09:32:33Z</time>
      </trkpt>
      <trkpt lat="48.55725" lon="2.10798">
        <ele>153</ele>
        <time>2022-01-15T09:32:31Z</time>
      </trkpt>
      <trkpt lat="48.55728" lon="2.108">
        <ele>153</ele>
        <time>2022-01-15T09:32:29Z</time>
      </trkpt>
      <trkpt lat="48.55731" lon="2.10803">
        <ele>153</ele>
        <time>2022-01-15T09:32:26Z</time>
      </trkpt>
      <trkpt lat="48.55732" lon="2.10807">
        <ele>153</ele>
        <time>2022-01-15T09:32:24Z</time>
      </trkpt>
      <trkpt lat="48.55733" lon="2.10812">
        <ele>153</ele>
        <time>2022-01-15T09:32:22Z</time>
      </trkpt>
      <trkpt lat="48.55734" lon="2.10816">
        <ele>153</ele>
        <time>2022-01-15T09:32:20Z</time>
      </trkpt>
      <trkpt lat="48.55734" lon="2.10821">
        <ele>153</ele>
        <time>2022-01-15T09:32:18Z</time>
      </trkpt>
      <trkpt lat="48.55734" lon="2.10826">
        <ele>153</ele>
        <time>2022-01-15T09:32:16Z</time>
      </trkpt>
      <trkpt lat="48.55733" lon="2.10832">
        <ele>153</ele>
        <time>2022-01-15T09:32:13Z</time>
      </trkpt>
      <trkpt lat="48.55733" lon="2.10837">
        <ele>153</ele>
        <time>2022-01-15T09:32:10Z</time>
      </trkpt>
      <trkpt lat="48.55733" lon="2.10842">
        <ele>153</ele>
        <time>2022-01-15T09:32:07Z</time>
      </trkpt>
      <trkpt lat="48.55734" lon="2.10846">
        <ele>153</ele>
        <time>2022-01-15T09:32:05Z</time>
      </trkpt>
      <trkpt lat="48.55736" lon="2.1085">
        <ele>153</ele>
        <time>2022-01-15T09:32:02Z</time>
      </trkpt>
      <trkpt lat="48.55736" lon="2.10854">
        <ele>153</ele>
        <time>2022-01-15T09:32:00Z</time>
      </trkpt>
      <trkpt lat="48.55736" lon="2.10858">
        <ele>153</ele>
        <time>2022-01-15T09:31:57Z</time>
      </trkpt>
      <trkpt lat="48.55734" lon="2.10861">
        <ele>153</ele>
        <time>2022-01-15T09:31:55Z</time>
      </trkpt>
      <trkpt lat="48.55732" lon="2.10864">
        <ele>153</ele>
        <time>2022-01-15T09:31:52Z</time>
      </trkpt>
      <trkpt lat="48.55731" lon="2.10869">
        <ele>153</ele>
        <time>2022-01-15T09:31:49Z</time>
      </trkpt>
      <trkpt lat="48.55733" lon="2.10874">
        <ele>153</ele>
        <time>2022-01-15T09:31:47Z</time>
      </trkpt>
      <trkpt lat="48.55735" lon="2.10878">
        <ele>153</ele>
        <time>2022-01-15T09:31:44Z</time>
      </trkpt>
      <trkpt lat="48.55736" lon="2.10883">
        <ele>153</ele>
        <time>2022-01-15T09:31:41Z</time>
      </trkpt>
      <trkpt lat="48.55738" lon="2.10887">
        <ele>153</ele>
        <time>2022-01-15T09:31:39Z</time>
      </trkpt>
      <trkpt lat="48.55739" lon="2.10892">
        <ele>153</ele>
        <time>2022-01-15T09:31:36Z</time>
      </trkpt>
      <trkpt lat="48.5574" lon="2.10897">
        <ele>152</ele>
        <time>2022-01-15T09:31:34Z</time>
      </trkpt>
      <trkpt lat="48.5574" lon="2.10902">
        <ele>152</ele>
        <time>2022-01-15T09:31:32Z</time>
      </trkpt>
      <trkpt lat="48.55739" lon="2.10907">
        <ele>152</ele>
        <time>2022-01-15T09:31:29Z</time>
      </trkpt>
      <trkpt lat="48.55738" lon="2.10911">
        <ele>152</ele>
        <time>2022-01-15T09:31:26Z</time>
      </trkpt>
      <trkpt lat="48.55737" lon="2.10916">
        <ele>152</ele>
        <time>2022-01-15T09:31:23Z</time>
      </trkpt>
      <trkpt lat="48.55737" lon="2.10921">
        <ele>152</ele>
        <time>2022-01-15T09:31:21Z</time>
      </trkpt>
      <trkpt lat="48.55736" lon="2.10926">
        <ele>152</ele>
        <time>2022-01-15T09:31:18Z</time>
      </trkpt>
      <trkpt lat="48.55734" lon="2.1093">
        <ele>152</ele>
        <time>2022-01-15T09:31:16Z</time>
      </trkpt>
      <trkpt lat="48.55733" lon="2.10935">
        <ele>152</ele>
        <time>2022-01-15T09:31:13Z</time>
      </trkpt>
      <trkpt lat="48.55732" lon="2.1094">
        <ele>152</ele>
        <time>2022-01-15T09:31:10Z</time>
      </trkpt>
      <trkpt lat="48.55731" lon="2.10944">
        <ele>152</ele>
        <time>2022-01-15T09:31:08Z</time>
      </trkpt>
      <trkpt lat="48.5573" lon="2.10948">
        <ele>152</ele>
        <time>2022-01-15T09:31:06Z</time>
      </trkpt>
      <trkpt lat="48.55729" lon="2.10952">
        <ele>152</ele>
        <time>2022-01-15T09:31:04Z</time>
      </trkpt>
      <trkpt lat="48.55727" lon="2.10955">
        <ele>152</ele>
        <time>2022-01-15T09:31:01Z</time>
      </trkpt>
      <trkpt lat="48.55726" lon="2.1096">
        <ele>151</ele>
        <time>2022-01-15T09:30:59Z</time>
      </trkpt>
      <trkpt lat="48.55724" lon="2.10965">
        <ele>151</ele>
        <time>2022-01-15T09:30:56Z</time>
      </trkpt>
      <trkpt lat="48.55723" lon="2.1097">
        <ele>151</ele>
        <time>2022-01-15T09:30:54Z</time>
      </trkpt>
      <trkpt lat="48.55722" lon="2.10974">
        <ele>151</ele>
        <time>2022-01-15T09:30:52Z</time>
      </trkpt>
      <trkpt lat="48.55722" lon="2.10979">
        <ele>151</ele>
        <time>2022-01-15T09:30:50Z</time>
      </trkpt>
      <trkpt lat="48.55721" lon="2.10985">
        <ele>151</ele>
        <time>2022-01-15T09:30:47Z</time>
      </trkpt>
      <trkpt lat="48.55721" lon="2.1099">
        <ele>150</ele>
        <time>2022-01-15T09:30:45Z</time>
      </trkpt>
      <trkpt lat="48.5572" lon="2.10994">
        <ele>150</ele>
        <time>2022-01-15T09:30:43Z</time>
      </trkpt>
      <trkpt lat="48.5572" lon="2.10999">
        <ele>150</ele>
        <time>2022-01-15T09:30:41Z</time>
      </trkpt>
      <trkpt lat="48.55721" lon="2.11003">
        <ele>150</ele>
        <time>2022-01-15T09:30:39Z</time>
      </trkpt>
      <trkpt lat="48.55722" lon="2.11008">
        <ele>150</ele>
        <time>2022-01-15T09:30:37Z</time>
      </trkpt>
      <trkpt lat="48.55722" lon="2.11012">
        <ele>150</ele>
        <time>2022-01-15T09:30:35Z</time>
      </trkpt>
      <trkpt lat="48.55723" lon="2.11017">
        <ele>150</ele>
        <time>2022-01-15T09:30:32Z</time>
      </trkpt>
      <trkpt lat="48.55723" lon="2.11021">
        <ele>150</ele>
        <time>2022-01-15T09:30:30Z</time>
      </trkpt>
      <trkpt lat="48.55724" lon="2.11027">
        <ele>150</ele>
        <time>2022-01-15T09:30:27Z</time>
      </trkpt>
      <trkpt lat="48.55725" lon="2.11032">
        <ele>150</ele>
        <time>2022-01-15T09:30:24Z</time>
      </trkpt>
      <trkpt lat="48.55726" lon="2.11037">
        <ele>150</ele>
        <time>2022-01-15T09:30:21Z</time>
      </trkpt>
      <trkpt lat="48.55727" lon="2.11042">
        <ele>150</ele>
        <time>2022-01-15T09:30:19Z</time>
      </trkpt>
      <trkpt lat="48.55728" lon="2.11046">
        <ele>150</ele>
        <time>2022-01-15T09:30:17Z</time>
      </trkpt>
      <trkpt lat="48.55729" lon="2.1105">
        <ele>150</ele>
        <time>2022-01-15T09:30:14Z</time>
      </trkpt>
      <trkpt lat="48.5573" lon="2.11054">
        <ele>150</ele>
        <time>2022-01-15T09:30:12Z</time>
      </trkpt>
      <trkpt lat="48.5573" lon="2.11059">
        <ele>150</ele>
        <time>2022-01-15T09:30:09Z</time>
      </trkpt>
      <trkpt lat="48.55731" lon="2.11064">
        <ele>150</ele>
        <time>2022-01-15T09:30:06Z</time>
      </trkpt>
      <trkpt lat="48.55732" lon="2.11069">
        <ele>150</ele>
        <time>2022-01-15T09:30:03Z</time>
      </trkpt>
      <trkpt lat="48.55732" lon="2.11073">
        <ele>149</ele>
        <time>2022-01-15T09:30:01Z</time>
      </trkpt>
      <trkpt lat="48.55732" lon="2.11078">
        <ele>149</ele>
        <time>2022-01-15T09:29:59Z</time>
      </trkpt>
      <trkpt lat="48.55733" lon="2.11083">
        <ele>149</ele>
        <time>2022-01-15T09:29:56Z</time>
      </trkpt>
      <trkpt lat="48.55733" lon="2.11087">
        <ele>149</ele>
        <time>2022-01-15T09:29:54Z</time>
      </trkpt>
      <trkpt lat="48.55734" lon="2.11091">
        <ele>149</ele>
        <time>2022-01-15T09:29:50Z</time>
      </trkpt>
      <trkpt lat="48.55734" lon="2.11097">
        <ele>149</ele>
        <time>2022-01-15T09:29:47Z</time>
      </trkpt>
      <trkpt lat="48.55735" lon="2.11101">
        <ele>150</ele>
        <time>2022-01-15T09:29:45Z</time>
      </trkpt>
      <trkpt lat="48.55736" lon="2.11107">
        <ele>150</ele>
        <time>2022-01-15T09:29:42Z</time>
      </trkpt>
      <trkpt lat="48.55735" lon="2.11112">
        <ele>150</ele>
        <time>2022-01-15T09:29:39Z</time>
      </trkpt>
      <trkpt lat="48.55736" lon="2.11117">
        <ele>150</ele>
        <time>2022-01-15T09:29:36Z</time>
      </trkpt>
      <trkpt lat="48.55736" lon="2.11121">
        <ele>150</ele>
        <time>2022-01-15T09:29:33Z</time>
      </trkpt>
      <trkpt lat="48.55736" lon="2.11126">
        <ele>150</ele>
        <time>2022-01-15T09:29:31Z</time>
      </trkpt>
      <trkpt lat="48.55737" lon="2.11131">
        <ele>150</ele>
        <time>2022-01-15T09:29:28Z</time>
      </trkpt>
      <trkpt lat="48.55737" lon="2.11137">
        <ele>150</ele>
        <time>2022-01-15T09:29:25Z</time>
      </trkpt>
      <trkpt lat="48.55736" lon="2.11143">
        <ele>150</ele>
        <time>2022-01-15T09:29:21Z</time>
      </trkpt>
      <trkpt lat="48.55736" lon="2.11148">
        <ele>150</ele>
        <time>2022-01-15T09:29:18Z</time>
      </trkpt>
      <trkpt lat="48.55737" lon="2.11153">
        <ele>150</ele>
        <time>2022-01-15T09:29:14Z</time>
      </trkpt>
      <trkpt lat="48.55736" lon="2.11157">
        <ele>150</ele>
        <time>2022-01-15T09:29:11Z</time>
      </trkpt>
      <trkpt lat="48.55736" lon="2.11162">
        <ele>150</ele>
        <time>2022-01-15T09:29:08Z</time>
      </trkpt>
      <trkpt lat="48.55736" lon="2.11167">
        <ele>150</ele>
        <time>2022-01-15T09:29:06Z</time>
      </trkpt>
      <trkpt lat="48.55737" lon="2.11171">
        <ele>150</ele>
        <time>2022-01-15T09:29:03Z</time>
      </trkpt>
      <trkpt lat="48.55737" lon="2.11177">
        <ele>150</ele>
        <time>2022-01-15T09:29:00Z</time>
      </trkpt>
      <trkpt lat="48.55737" lon="2.11181">
        <ele>150</ele>
        <time>2022-01-15T09:28:57Z</time>
      </trkpt>
      <trkpt lat="48.55738" lon="2.11187">
        <ele>150</ele>
        <time>2022-01-15T09:28:52Z</time>
      </trkpt>
      <trkpt lat="48.55738" lon="2.11191">
        <ele>150</ele>
        <time>2022-01-15T09:28:50Z</time>
      </trkpt>
      <trkpt lat="48.55739" lon="2.11195">
        <ele>150</ele>
        <time>2022-01-15T09:28:44Z</time>
      </trkpt>
      <trkpt lat="48.55739" lon="2.112">
        <ele>150</ele>
        <time>2022-01-15T09:28:41Z</time>
      </trkpt>
      <trkpt lat="48.55739" lon="2.11205">
        <ele>150</ele>
        <time>2022-01-15T09:28:38Z</time>
      </trkpt>
      <trkpt lat="48.55739" lon="2.11209">
        <ele>150</ele>
        <time>2022-01-15T09:28:34Z</time>
      </trkpt>
      <trkpt lat="48.5574" lon="2.11214">
        <ele>150</ele>
        <time>2022-01-15T09:28:32Z</time>
      </trkpt>
      <trkpt lat="48.55741" lon="2.11218">
        <ele>150</ele>
        <time>2022-01-15T09:28:30Z</time>
      </trkpt>
      <trkpt lat="48.55741" lon="2.11223">
        <ele>150</ele>
        <time>2022-01-15T09:28:28Z</time>
      </trkpt>
      <trkpt lat="48.55742" lon="2.11228">
        <ele>150</ele>
        <time>2022-01-15T09:28:25Z</time>
      </trkpt>
      <trkpt lat="48.55742" lon="2.11233">
        <ele>150</ele>
        <time>2022-01-15T09:28:23Z</time>
      </trkpt>
      <trkpt lat="48.55743" lon="2.11237">
        <ele>150</ele>
        <time>2022-01-15T09:28:21Z</time>
      </trkpt>
      <trkpt lat="48.55743" lon="2.11242">
        <ele>150</ele>
        <time>2022-01-15T09:28:19Z</time>
      </trkpt>
      <trkpt lat="48.55743" lon="2.11247">
        <ele>150</ele>
        <time>2022-01-15T09:28:15Z</time>
      </trkpt>
      <trkpt lat="48.55743" lon="2.11252">
        <ele>150</ele>
        <time>2022-01-15T09:28:07Z</time>
      </trkpt>
      <trkpt lat="48.55743" lon="2.11257">
        <ele>150</ele>
        <time>2022-01-15T09:28:01Z</time>
      </trkpt>
      <trkpt lat="48.55744" lon="2.11261">
        <ele>150</ele>
        <time>2022-01-15T09:27:54Z</time>
      </trkpt>
      <trkpt lat="48.55745" lon="2.11266">
        <ele>150</ele>
        <time>2022-01-15T09:27:50Z</time>
      </trkpt>
      <trkpt lat="48.55746" lon="2.11271">
        <ele>150</ele>
        <time>2022-01-15T09:27:39Z</time>
      </trkpt>
      <trkpt lat="48.55747" lon="2.11275">
        <ele>150</ele>
        <time>2022-01-15T09:27:33Z</time>
      </trkpt>
      <trkpt lat="48.55748" lon="2.11279">
        <ele>150</ele>
        <time>2022-01-15T09:27:28Z</time>
      </trkpt>
      <trkpt lat="48.55749" lon="2.11282">
        <ele>150</ele>
        <time>2022-01-15T09:27:24Z</time>
      </trkpt>
      <trkpt lat="48.55748" lon="2.11285">
        <ele>150</ele>
        <time>2022-01-15T09:27:19Z</time>
      </trkpt>
      <trkpt lat="48.55745" lon="2.11285">
        <ele>149</ele>
        <time>2022-01-15T09:27:15Z</time>
      </trkpt>
      <trkpt lat="48.55742" lon="2.11285">
        <ele>149</ele>
        <time>2022-01-15T09:27:12Z</time>
      </trkpt>
      <trkpt lat="48.55739" lon="2.11284">
        <ele>149</ele>
        <time>2022-01-15T09:27:10Z</time>
      </trkpt>
      <trkpt lat="48.55736" lon="2.11284">
        <ele>149</ele>
        <time>2022-01-15T09:27:08Z</time>
      </trkpt>
      <trkpt lat="48.55732" lon="2.11283">
        <ele>149</ele>
        <time>2022-01-15T09:27:05Z</time>
      </trkpt>
      <trkpt lat="48.55729" lon="2.11282">
        <ele>149</ele>
        <time>2022-01-15T09:27:02Z</time>
      </trkpt>
      <trkpt lat="48.55726" lon="2.11281">
        <ele>148</ele>
        <time>2022-01-15T09:26:58Z</time>
      </trkpt>
      <trkpt lat="48.55723" lon="2.1128">
        <ele>147</ele>
        <time>2022-01-15T09:26:55Z</time>
      </trkpt>
      <trkpt lat="48.5572" lon="2.11282">
        <ele>146</ele>
        <time>2022-01-15T09:26:51Z</time>
      </trkpt>
      <trkpt lat="48.55718" lon="2.11286">
        <ele>145</ele>
        <time>2022-01-15T09:26:47Z</time>
      </trkpt>
      <trkpt lat="48.55717" lon="2.1129">
        <ele>144</ele>
        <time>2022-01-15T09:26:42Z</time>
      </trkpt>
      <trkpt lat="48.55715" lon="2.11293">
        <ele>143</ele>
        <time>2022-01-15T09:26:35Z</time>
      </trkpt>
      <trkpt lat="48.55712" lon="2.11296">
        <ele>141</ele>
        <time>2022-01-15T09:26:28Z</time>
      </trkpt>
      <trkpt lat="48.55709" lon="2.11296">
        <ele>140</ele>
        <time>2022-01-15T09:26:25Z</time>
      </trkpt>
      <trkpt lat="48.55706" lon="2.11297">
        <ele>140</ele>
        <time>2022-01-15T09:26:22Z</time>
      </trkpt>
      <trkpt lat="48.55703" lon="2.11297">
        <ele>138</ele>
        <time>2022-01-15T09:26:17Z</time>
      </trkpt>
      <trkpt lat="48.557" lon="2.11298">
        <ele>137</ele>
        <time>2022-01-15T09:26:13Z</time>
      </trkpt>
      <trkpt lat="48.55697" lon="2.11297">
        <ele>136</ele>
        <time>2022-01-15T09:26:07Z</time>
      </trkpt>
      <trkpt lat="48.55694" lon="2.11294">
        <ele>135</ele>
        <time>2022-01-15T09:26:03Z</time>
      </trkpt>
      <trkpt lat="48.55691" lon="2.11293">
        <ele>135</ele>
        <time>2022-01-15T09:26:01Z</time>
      </trkpt>
      <trkpt lat="48.55689" lon="2.1129">
        <ele>135</ele>
        <time>2022-01-15T09:25:59Z</time>
      </trkpt>
      <trkpt lat="48.55687" lon="2.11287">
        <ele>134</ele>
        <time>2022-01-15T09:25:55Z</time>
      </trkpt>
      <trkpt lat="48.55684" lon="2.11288">
        <ele>133</ele>
        <time>2022-01-15T09:25:52Z</time>
      </trkpt>
      <trkpt lat="48.55681" lon="2.1129">
        <ele>132</ele>
        <time>2022-01-15T09:25:47Z</time>
      </trkpt>
      <trkpt lat="48.55678" lon="2.11291">
        <ele>131</ele>
        <time>2022-01-15T09:25:43Z</time>
      </trkpt>
      <trkpt lat="48.55676" lon="2.11292">
        <ele>129</ele>
        <time>2022-01-15T09:25:38Z</time>
      </trkpt>
      <trkpt lat="48.55674" lon="2.11296">
        <ele>128</ele>
        <time>2022-01-15T09:25:33Z</time>
      </trkpt>
      <trkpt lat="48.55672" lon="2.11299">
        <ele>127</ele>
        <time>2022-01-15T09:25:28Z</time>
      </trkpt>
      <trkpt lat="48.55669" lon="2.11301">
        <ele>126</ele>
        <time>2022-01-15T09:25:24Z</time>
      </trkpt>
      <trkpt lat="48.55666" lon="2.113">
        <ele>124</ele>
        <time>2022-01-15T09:25:15Z</time>
      </trkpt>
      <trkpt lat="48.55663" lon="2.11298">
        <ele>122</ele>
        <time>2022-01-15T09:25:07Z</time>
      </trkpt>
      <trkpt lat="48.5566" lon="2.11296">
        <ele>121</ele>
        <time>2022-01-15T09:25:04Z</time>
      </trkpt>
      <trkpt lat="48.55657" lon="2.11296">
        <ele>119</ele>
        <time>2022-01-15T09:24:58Z</time>
      </trkpt>
      <trkpt lat="48.55655" lon="2.113">
        <ele>118</ele>
        <time>2022-01-15T09:24:54Z</time>
      </trkpt>
      <trkpt lat="48.55653" lon="2.11301">
        <ele>117</ele>
        <time>2022-01-15T09:24:49Z</time>
      </trkpt>
      <trkpt lat="48.5565" lon="2.11304">
        <ele>116</ele>
        <time>2022-01-15T09:24:46Z</time>
      </trkpt>
      <trkpt lat="48.55648" lon="2.11305">
        <ele>115</ele>
        <time>2022-01-15T09:24:43Z</time>
      </trkpt>
      <trkpt lat="48.55645" lon="2.11304">
        <ele>114</ele>
        <time>2022-01-15T09:24:39Z</time>
      </trkpt>
      <trkpt lat="48.55642" lon="2.11302">
        <ele>114</ele>
        <time>2022-01-15T09:24:36Z</time>
      </trkpt>
      <trkpt lat="48.55639" lon="2.113">
        <ele>114</ele>
        <time>2022-01-15T09:24:35Z</time>
      </trkpt>
      <trkpt lat="48.55635" lon="2.11299">
        <ele>113</ele>
        <time>2022-01-15T09:24:30Z</time>
      </trkpt>
      <trkpt lat="48.55631" lon="2.11297">
        <ele>113</ele>
        <time>2022-01-15T09:24:28Z</time>
      </trkpt>
      <trkpt lat="48.55628" lon="2.11296">
        <ele>113</ele>
        <time>2022-01-15T09:24:25Z</time>
      </trkpt>
      <trkpt lat="48.55624" lon="2.11294">
        <ele>112</ele>
        <time>2022-01-15T09:24:22Z</time>
      </trkpt>
      <trkpt lat="48.55621" lon="2.11293">
        <ele>112</ele>
        <time>2022-01-15T09:24:20Z</time>
      </trkpt>
      <trkpt lat="48.55618" lon="2.11293">
        <ele>112</ele>
        <time>2022-01-15T09:24:16Z</time>
      </trkpt>
      <trkpt lat="48.55615" lon="2.11291">
        <ele>111</ele>
        <time>2022-01-15T09:24:13Z</time>
      </trkpt>
      <trkpt lat="48.55612" lon="2.1129">
        <ele>111</ele>
        <time>2022-01-15T09:24:11Z</time>
      </trkpt>
      <trkpt lat="48.55609" lon="2.11289">
        <ele>111</ele>
        <time>2022-01-15T09:24:08Z</time>
      </trkpt>
      <trkpt lat="48.55606" lon="2.11287">
        <ele>110</ele>
        <time>2022-01-15T09:24:06Z</time>
      </trkpt>
      <trkpt lat="48.55602" lon="2.11285">
        <ele>110</ele>
        <time>2022-01-15T09:24:03Z</time>
      </trkpt>
      <trkpt lat="48.55599" lon="2.11284">
        <ele>109</ele>
        <time>2022-01-15T09:23:59Z</time>
      </trkpt>
      <trkpt lat="48.55597" lon="2.11281">
        <ele>108</ele>
        <time>2022-01-15T09:23:55Z</time>
      </trkpt>
      <trkpt lat="48.55593" lon="2.1128">
        <ele>108</ele>
        <time>2022-01-15T09:23:53Z</time>
      </trkpt>
      <trkpt lat="48.5559" lon="2.11281">
        <ele>107</ele>
        <time>2022-01-15T09:23:50Z</time>
      </trkpt>
      <trkpt lat="48.55586" lon="2.11281">
        <ele>107</ele>
        <time>2022-01-15T09:23:48Z</time>
      </trkpt>
      <trkpt lat="48.55582" lon="2.11281">
        <ele>106</ele>
        <time>2022-01-15T09:23:45Z</time>
      </trkpt>
      <trkpt lat="48.5558" lon="2.1128">
        <ele>106</ele>
        <time>2022-01-15T09:23:42Z</time>
      </trkpt>
      <trkpt lat="48.55577" lon="2.1128">
        <ele>105</ele>
        <time>2022-01-15T09:23:39Z</time>
      </trkpt>
      <trkpt lat="48.55574" lon="2.1128">
        <ele>105</ele>
        <time>2022-01-15T09:23:36Z</time>
      </trkpt>
      <trkpt lat="48.55571" lon="2.1128">
        <ele>105</ele>
        <time>2022-01-15T09:23:30Z</time>
      </trkpt>
      <trkpt lat="48.55569" lon="2.11281">
        <ele>105</ele>
        <time>2022-01-15T09:23:20Z</time>
      </trkpt>
      <trkpt lat="48.55568" lon="2.11282">
        <ele>105</ele>
        <time>2022-01-15T09:23:17Z</time>
      </trkpt>
      <trkpt lat="48.55567" lon="2.11277">
        <ele>105</ele>
        <time>2022-01-15T09:23:14Z</time>
      </trkpt>
      <trkpt lat="48.55568" lon="2.11272">
        <ele>105</ele>
        <time>2022-01-15T09:23:12Z</time>
      </trkpt>
      <trkpt lat="48.55569" lon="2.11268">
        <ele>105</ele>
        <time>2022-01-15T09:23:10Z</time>
      </trkpt>
      <trkpt lat="48.55571" lon="2.11265">
        <ele>105</ele>
        <time>2022-01-15T09:23:08Z</time>
      </trkpt>
      <trkpt lat="48.55572" lon="2.11261">
        <ele>105</ele>
        <time>2022-01-15T09:23:06Z</time>
      </trkpt>
      <trkpt lat="48.55574" lon="2.11256">
        <ele>105</ele>
        <time>2022-01-15T09:23:04Z</time>
      </trkpt>
      <trkpt lat="48.55575" lon="2.11252">
        <ele>105</ele>
        <time>2022-01-15T09:23:02Z</time>
      </trkpt>
      <trkpt lat="48.55576" lon="2.11248">
        <ele>106</ele>
        <time>2022-01-15T09:23:00Z</time>
      </trkpt>
      <trkpt lat="48.55578" lon="2.11244">
        <ele>106</ele>
        <time>2022-01-15T09:22:58Z</time>
      </trkpt>
      <trkpt lat="48.55579" lon="2.11239">
        <ele>106</ele>
        <time>2022-01-15T09:22:56Z</time>
      </trkpt>
      <trkpt lat="48.5558" lon="2.11235">
        <ele>106</ele>
        <time>2022-01-15T09:22:54Z</time>
      </trkpt>
      <trkpt lat="48.55582" lon="2.1123">
        <ele>106</ele>
        <time>2022-01-15T09:22:52Z</time>
      </trkpt>
      <trkpt lat="48.55583" lon="2.11226">
        <ele>106</ele>
        <time>2022-01-15T09:22:50Z</time>
      </trkpt>
      <trkpt lat="48.55583" lon="2.11221">
        <ele>107</ele>
        <time>2022-01-15T09:22:48Z</time>
      </trkpt>
      <trkpt lat="48.55584" lon="2.11216">
        <ele>107</ele>
        <time>2022-01-15T09:22:46Z</time>
      </trkpt>
      <trkpt lat="48.55585" lon="2.11211">
        <ele>107</ele>
        <time>2022-01-15T09:22:44Z</time>
      </trkpt>
      <trkpt lat="48.55585" lon="2.11207">
        <ele>107</ele>
        <time>2022-01-15T09:22:42Z</time>
      </trkpt>
      <trkpt lat="48.55586" lon="2.11202">
        <ele>107</ele>
        <time>2022-01-15T09:22:40Z</time>
      </trkpt>
      <trkpt lat="48.55586" lon="2.11197">
        <ele>107</ele>
        <time>2022-01-15T09:22:38Z</time>
      </trkpt>
      <trkpt lat="48.55586" lon="2.11192">
        <ele>108</ele>
        <time>2022-01-15T09:22:36Z</time>
      </trkpt>
      <trkpt lat="48.55586" lon="2.11188">
        <ele>108</ele>
        <time>2022-01-15T09:22:34Z</time>
      </trkpt>
      <trkpt lat="48.55586" lon="2.11183">
        <ele>108</ele>
        <time>2022-01-15T09:22:32Z</time>
      </trkpt>
      <trkpt lat="48.55586" lon="2.11178">
        <ele>108</ele>
        <time>2022-01-15T09:22:30Z</time>
      </trkpt>
      <trkpt lat="48.55586" lon="2.11173">
        <ele>108</ele>
        <time>2022-01-15T09:22:28Z</time>
      </trkpt>
      <trkpt lat="48.55586" lon="2.11167">
        <ele>109</ele>
        <time>2022-01-15T09:22:26Z</time>
      </trkpt>
      <trkpt lat="48.55586" lon="2.11162">
        <ele>109</ele>
        <time>2022-01-15T09:22:24Z</time>
      </trkpt>
      <trkpt lat="48.55585" lon="2.11157">
        <ele>109</ele>
        <time>2022-01-15T09:22:22Z</time>
      </trkpt>
      <trkpt lat="48.55585" lon="2.11152">
        <ele>109</ele>
        <time>2022-01-15T09:22:20Z</time>
      </trkpt>
      <trkpt lat="48.55584" lon="2.11147">
        <ele>109</ele>
        <time>2022-01-15T09:22:18Z</time>
      </trkpt>
      <trkpt lat="48.55583" lon="2.11142">
        <ele>110</ele>
        <time>2022-01-15T09:22:16Z</time>
      </trkpt>
      <trkpt lat="48.55582" lon="2.11137">
        <ele>110</ele>
        <time>2022-01-15T09:22:14Z</time>
      </trkpt>
      <trkpt lat="48.55581" lon="2.11133">
        <ele>110</ele>
        <time>2022-01-15T09:22:12Z</time>
      </trkpt>
      <trkpt lat="48.5558" lon="2.11129">
        <ele>110</ele>
        <time>2022-01-15T09:22:10Z</time>
      </trkpt>
      <trkpt lat="48.55579" lon="2.11124">
        <ele>110</ele>
        <time>2022-01-15T09:22:08Z</time>
      </trkpt>
      <trkpt lat="48.55578" lon="2.1112">
        <ele>110</ele>
        <time>2022-01-15T09:22:06Z</time>
      </trkpt>
      <trkpt lat="48.55577" lon="2.11116">
        <ele>111</ele>
        <time>2022-01-15T09:22:04Z</time>
      </trkpt>
      <trkpt lat="48.55576" lon="2.11111">
        <ele>111</ele>
        <time>2022-01-15T09:22:02Z</time>
      </trkpt>
      <trkpt lat="48.55575" lon="2.11107">
        <ele>111</ele>
        <time>2022-01-15T09:22:00Z</time>
      </trkpt>
      <trkpt lat="48.55574" lon="2.11103">
        <ele>111</ele>
        <time>2022-01-15T09:21:58Z</time>
      </trkpt>
      <trkpt lat="48.55573" lon="2.11099">
        <ele>112</ele>
        <time>2022-01-15T09:21:56Z</time>
      </trkpt>
      <trkpt lat="48.55572" lon="2.11095">
        <ele>112</ele>
        <time>2022-01-15T09:21:54Z</time>
      </trkpt>
      <trkpt lat="48.55571" lon="2.1109">
        <ele>112</ele>
        <time>2022-01-15T09:21:52Z</time>
      </trkpt>
      <trkpt lat="48.5557" lon="2.11086">
        <ele>112</ele>
        <time>2022-01-15T09:21:50Z</time>
      </trkpt>
      <trkpt lat="48.55569" lon="2.11082">
        <ele>112</ele>
        <time>2022-01-15T09:21:48Z</time>
      </trkpt>
      <trkpt lat="48.55567" lon="2.11078">
        <ele>112</ele>
        <time>2022-01-15T09:21:46Z</time>
      </trkpt>
      <trkpt lat="48.55566" lon="2.11073">
        <ele>112</ele>
        <time>2022-01-15T09:21:44Z</time>
      </trkpt>
      <trkpt lat="48.55565" lon="2.11069">
        <ele>113</ele>
        <time>2022-01-15T09:21:42Z</time>
      </trkpt>
      <trkpt lat="48.55563" lon="2.11065">
        <ele>113</ele>
        <time>2022-01-15T09:21:40Z</time>
      </trkpt>
      <trkpt lat="48.55562" lon="2.1106">
        <ele>113</ele>
        <time>2022-01-15T09:21:38Z</time>
      </trkpt>
      <trkpt lat="48.55561" lon="2.11056">
        <ele>113</ele>
        <time>2022-01-15T09:21:36Z</time>
      </trkpt>
      <trkpt lat="48.55559" lon="2.11052">
        <ele>113</ele>
        <time>2022-01-15T09:21:34Z</time>
      </trkpt>
      <trkpt lat="48.55558" lon="2.11048">
        <ele>113</ele>
        <time>2022-01-15T09:21:32Z</time>
      </trkpt>
      <trkpt lat="48.55556" lon="2.11043">
        <ele>113</ele>
        <time>2022-01-15T09:21:30Z</time>
      </trkpt>
      <trkpt lat="48.55555" lon="2.11039">
        <ele>114</ele>
        <time>2022-01-15T09:21:28Z</time>
      </trkpt>
      <trkpt lat="48.55554" lon="2.11035">
        <ele>114</ele>
        <time>2022-01-15T09:21:26Z</time>
      </trkpt>
      <trkpt lat="48.55552" lon="2.1103">
        <ele>114</ele>
        <time>2022-01-15T09:21:24Z</time>
      </trkpt>
      <trkpt lat="48.55551" lon="2.11026">
        <ele>114</ele>
        <time>2022-01-15T09:21:22Z</time>
      </trkpt>
      <trkpt lat="48.55549" lon="2.11022">
        <ele>114</ele>
        <time>2022-01-15T09:21:20Z</time>
      </trkpt>
      <trkpt lat="48.55548" lon="2.11018">
        <ele>114</ele>
        <time>2022-01-15T09:21:18Z</time>
      </trkpt>
      <trkpt lat="48.55546" lon="2.11014">
        <ele>114</ele>
        <time>2022-01-15T09:21:16Z</time>
      </trkpt>
      <trkpt lat="48.55545" lon="2.1101">
        <ele>115</ele>
        <time>2022-01-15T09:21:14Z</time>
      </trkpt>
      <trkpt lat="48.55543" lon="2.11006">
        <ele>115</ele>
        <time>2022-01-15T09:21:12Z</time>
      </trkpt>
      <trkpt lat="48.55542" lon="2.11002">
        <ele>115</ele>
        <time>2022-01-15T09:21:10Z</time>
      </trkpt>
      <trkpt lat="48.55541" lon="2.10998">
        <ele>115</ele>
        <time>2022-01-15T09:21:08Z</time>
      </trkpt>
      <trkpt lat="48.55539" lon="2.10994">
        <ele>115</ele>
        <time>2022-01-15T09:21:06Z</time>
      </trkpt>
      <trkpt lat="48.55538" lon="2.10989">
        <ele>115</ele>
        <time>2022-01-15T09:21:04Z</time>
      </trkpt>
      <trkpt lat="48.55537" lon="2.10985">
        <ele>115</ele>
        <time>2022-01-15T09:21:02Z</time>
      </trkpt>
      <trkpt lat="48.55536" lon="2.10981">
        <ele>115</ele>
        <time>2022-01-15T09:21:00Z</time>
      </trkpt>
      <trkpt lat="48.55534" lon="2.10977">
        <ele>115</ele>
        <time>2022-01-15T09:20:58Z</time>
      </trkpt>
      <trkpt lat="48.55533" lon="2.10973">
        <ele>116</ele>
        <time>2022-01-15T09:20:56Z</time>
      </trkpt>
      <trkpt lat="48.55531" lon="2.10969">
        <ele>116</ele>
        <time>2022-01-15T09:20:54Z</time>
      </trkpt>
      <trkpt lat="48.5553" lon="2.10964">
        <ele>116</ele>
        <time>2022-01-15T09:20:52Z</time>
      </trkpt>
      <trkpt lat="48.55529" lon="2.1096">
        <ele>116</ele>
        <time>2022-01-15T09:20:50Z</time>
      </trkpt>
      <trkpt lat="48.55528" lon="2.10956">
        <ele>116</ele>
        <time>2022-01-15T09:20:48Z</time>
      </trkpt>
      <trkpt lat="48.55526" lon="2.10952">
        <ele>116</ele>
        <time>2022-01-15T09:20:46Z</time>
      </trkpt>
      <trkpt lat="48.55525" lon="2.10948">
        <ele>116</ele>
        <time>2022-01-15T09:20:44Z</time>
      </trkpt>
      <trkpt lat="48.55524" lon="2.10944">
        <ele>117</ele>
        <time>2022-01-15T09:20:42Z</time>
      </trkpt>
      <trkpt lat="48.55523" lon="2.1094">
        <ele>117</ele>
        <time>2022-01-15T09:20:40Z</time>
      </trkpt>
      <trkpt lat="48.55522" lon="2.10936">
        <ele>117</ele>
        <time>2022-01-15T09:20:38Z</time>
      </trkpt>
      <trkpt lat="48.55521" lon="2.10931">
        <ele>117</ele>
        <time>2022-01-15T09:20:36Z</time>
      </trkpt>
      <trkpt lat="48.55519" lon="2.10927">
        <ele>117</ele>
        <time>2022-01-15T09:20:34Z</time>
      </trkpt>
      <trkpt lat="48.55518" lon="2.10923">
        <ele>117</ele>
        <time>2022-01-15T09:20:32Z</time>
      </trkpt>
      <trkpt lat="48.55517" lon="2.10919">
        <ele>117</ele>
        <time>2022-01-15T09:20:30Z</time>
      </trkpt>
      <trkpt lat="48.55516" lon="2.10914">
        <ele>117</ele>
        <time>2022-01-15T09:20:28Z</time>
      </trkpt>
      <trkpt lat="48.55515" lon="2.1091">
        <ele>118</ele>
        <time>2022-01-15T09:20:26Z</time>
      </trkpt>
      <trkpt lat="48.55514" lon="2.10905">
        <ele>118</ele>
        <time>2022-01-15T09:20:24Z</time>
      </trkpt>
      <trkpt lat="48.55513" lon="2.10901">
        <ele>118</ele>
        <time>2022-01-15T09:20:22Z</time>
      </trkpt>
      <trkpt lat="48.55512" lon="2.10897">
        <ele>118</ele>
        <time>2022-01-15T09:20:20Z</time>
      </trkpt>
      <trkpt lat="48.55511" lon="2.10892">
        <ele>118</ele>
        <time>2022-01-15T09:20:18Z</time>
      </trkpt>
      <trkpt lat="48.55509" lon="2.10888">
        <ele>118</ele>
        <time>2022-01-15T09:20:16Z</time>
      </trkpt>
      <trkpt lat="48.55508" lon="2.10884">
        <ele>118</ele>
        <time>2022-01-15T09:20:14Z</time>
      </trkpt>
      <trkpt lat="48.55507" lon="2.10879">
        <ele>119</ele>
        <time>2022-01-15T09:20:12Z</time>
      </trkpt>
      <trkpt lat="48.55506" lon="2.10875">
        <ele>119</ele>
        <time>2022-01-15T09:20:10Z</time>
      </trkpt>
      <trkpt lat="48.55505" lon="2.10871">
        <ele>119</ele>
        <time>2022-01-15T09:20:08Z</time>
      </trkpt>
      <trkpt lat="48.55504" lon="2.10866">
        <ele>119</ele>
        <time>2022-01-15T09:20:06Z</time>
      </trkpt>
      <trkpt lat="48.55503" lon="2.10862">
        <ele>119</ele>
        <time>2022-01-15T09:20:04Z</time>
      </trkpt>
      <trkpt lat="48.55502" lon="2.10857">
        <ele>119</ele>
        <time>2022-01-15T09:20:02Z</time>
      </trkpt>
      <trkpt lat="48.55501" lon="2.10853">
        <ele>119</ele>
        <time>2022-01-15T09:20:00Z</time>
      </trkpt>
      <trkpt lat="48.55499" lon="2.10848">
        <ele>119</ele>
        <time>2022-01-15T09:19:58Z</time>
      </trkpt>
      <trkpt lat="48.55498" lon="2.10844">
        <ele>119</ele>
        <time>2022-01-15T09:19:56Z</time>
      </trkpt>
      <trkpt lat="48.55497" lon="2.1084">
        <ele>120</ele>
        <time>2022-01-15T09:19:54Z</time>
      </trkpt>
      <trkpt lat="48.55496" lon="2.10836">
        <ele>120</ele>
        <time>2022-01-15T09:19:52Z</time>
      </trkpt>
      <trkpt lat="48.55495" lon="2.10832">
        <ele>120</ele>
        <time>2022-01-15T09:19:50Z</time>
      </trkpt>
      <trkpt lat="48.55494" lon="2.10827">
        <ele>120</ele>
        <time>2022-01-15T09:19:48Z</time>
      </trkpt>
      <trkpt lat="48.55493" lon="2.10823">
        <ele>120</ele>
        <time>2022-01-15T09:19:46Z</time>
      </trkpt>
      <trkpt lat="48.55491" lon="2.10819">
        <ele>120</ele>
        <time>2022-01-15T09:19:44Z</time>
      </trkpt>
      <trkpt lat="48.55489" lon="2.10815">
        <ele>120</ele>
        <time>2022-01-15T09:19:42Z</time>
      </trkpt>
      <trkpt lat="48.55488" lon="2.10811">
        <ele>121</ele>
        <time>2022-01-15T09:19:40Z</time>
      </trkpt>
      <trkpt lat="48.55487" lon="2.10806">
        <ele>121</ele>
        <time>2022-01-15T09:19:38Z</time>
      </trkpt>
      <trkpt lat="48.55486" lon="2.10802">
        <ele>121</ele>
        <time>2022-01-15T09:19:36Z</time>
      </trkpt>
      <trkpt lat="48.55485" lon="2.10797">
        <ele>121</ele>
        <time>2022-01-15T09:19:34Z</time>
      </trkpt>
      <trkpt lat="48.55484" lon="2.10793">
        <ele>121</ele>
        <time>2022-01-15T09:19:32Z</time>
      </trkpt>
      <trkpt lat="48.55483" lon="2.10789">
        <ele>121</ele>
        <time>2022-01-15T09:19:30Z</time>
      </trkpt>
      <trkpt lat="48.55481" lon="2.10785">
        <ele>121</ele>
        <time>2022-01-15T09:19:28Z</time>
      </trkpt>
      <trkpt lat="48.5548" lon="2.1078">
        <ele>122</ele>
        <time>2022-01-15T09:19:26Z</time>
      </trkpt>
      <trkpt lat="48.55479" lon="2.10776">
        <ele>122</ele>
        <time>2022-01-15T09:19:24Z</time>
      </trkpt>
      <trkpt lat="48.55478" lon="2.10771">
        <ele>122</ele>
        <time>2022-01-15T09:19:22Z</time>
      </trkpt>
      <trkpt lat="48.55476" lon="2.10767">
        <ele>122</ele>
        <time>2022-01-15T09:19:20Z</time>
      </trkpt>
      <trkpt lat="48.55475" lon="2.10762">
        <ele>122</ele>
        <time>2022-01-15T09:19:18Z</time>
      </trkpt>
      <trkpt lat="48.55474" lon="2.10757">
        <ele>122</ele>
        <time>2022-01-15T09:19:16Z</time>
      </trkpt>
      <trkpt lat="48.55472" lon="2.10752">
        <ele>122</ele>
        <time>2022-01-15T09:19:13Z</time>
      </trkpt>
      <trkpt lat="48.55471" lon="2.10748">
        <ele>123</ele>
        <time>2022-01-15T09:19:11Z</time>
      </trkpt>
      <trkpt lat="48.5547" lon="2.10744">
        <ele>123</ele>
        <time>2022-01-15T09:19:09Z</time>
      </trkpt>
      <trkpt lat="48.55468" lon="2.10739">
        <ele>123</ele>
        <time>2022-01-15T09:19:07Z</time>
      </trkpt>
      <trkpt lat="48.55468" lon="2.10735">
        <ele>123</ele>
        <time>2022-01-15T09:19:05Z</time>
      </trkpt>
      <trkpt lat="48.55466" lon="2.10729">
        <ele>123</ele>
        <time>2022-01-15T09:19:02Z</time>
      </trkpt>
      <trkpt lat="48.55465" lon="2.10725">
        <ele>124</ele>
        <time>2022-01-15T09:19:00Z</time>
      </trkpt>
      <trkpt lat="48.55464" lon="2.10721">
        <ele>124</ele>
        <time>2022-01-15T09:18:58Z</time>
      </trkpt>
      <trkpt lat="48.55463" lon="2.10717">
        <ele>124</ele>
        <time>2022-01-15T09:18:56Z</time>
      </trkpt>
      <trkpt lat="48.55461" lon="2.10713">
        <ele>124</ele>
        <time>2022-01-15T09:18:54Z</time>
      </trkpt>
      <trkpt lat="48.5546" lon="2.10708">
        <ele>124</ele>
        <time>2022-01-15T09:18:52Z</time>
      </trkpt>
      <trkpt lat="48.55459" lon="2.10704">
        <ele>124</ele>
        <time>2022-01-15T09:18:50Z</time>
      </trkpt>
      <trkpt lat="48.55457" lon="2.107">
        <ele>124</ele>
        <time>2022-01-15T09:18:48Z</time>
      </trkpt>
      <trkpt lat="48.55456" lon="2.10696">
        <ele>125</ele>
        <time>2022-01-15T09:18:46Z</time>
      </trkpt>
      <trkpt lat="48.55455" lon="2.1069">
        <ele>125</ele>
        <time>2022-01-15T09:18:43Z</time>
      </trkpt>
      <trkpt lat="48.55453" lon="2.10686">
        <ele>125</ele>
        <time>2022-01-15T09:18:41Z</time>
      </trkpt>
      <trkpt lat="48.55452" lon="2.10682">
        <ele>125</ele>
        <time>2022-01-15T09:18:39Z</time>
      </trkpt>
      <trkpt lat="48.5545" lon="2.10678">
        <ele>125</ele>
        <time>2022-01-15T09:18:37Z</time>
      </trkpt>
      <trkpt lat="48.55449" lon="2.10673">
        <ele>125</ele>
        <time>2022-01-15T09:18:35Z</time>
      </trkpt>
      <trkpt lat="48.55448" lon="2.10669">
        <ele>125</ele>
        <time>2022-01-15T09:18:33Z</time>
      </trkpt>
      <trkpt lat="48.55447" lon="2.10665">
        <ele>125</ele>
        <time>2022-01-15T09:18:31Z</time>
      </trkpt>
      <trkpt lat="48.55445" lon="2.10661">
        <ele>125</ele>
        <time>2022-01-15T09:18:29Z</time>
      </trkpt>
      <trkpt lat="48.55444" lon="2.10656">
        <ele>126</ele>
        <time>2022-01-15T09:18:27Z</time>
      </trkpt>
      <trkpt lat="48.55443" lon="2.10652">
        <ele>126</ele>
        <time>2022-01-15T09:18:25Z</time>
      </trkpt>
      <trkpt lat="48.55441" lon="2.10647">
        <ele>126</ele>
        <time>2022-01-15T09:18:22Z</time>
      </trkpt>
      <trkpt lat="48.5544" lon="2.10642">
        <ele>126</ele>
        <time>2022-01-15T09:18:20Z</time>
      </trkpt>
      <trkpt lat="48.55438" lon="2.10638">
        <ele>126</ele>
        <time>2022-01-15T09:18:18Z</time>
      </trkpt>
      <trkpt lat="48.55436" lon="2.10634">
        <ele>126</ele>
        <time>2022-01-15T09:18:16Z</time>
      </trkpt>
      <trkpt lat="48.55434" lon="2.10631">
        <ele>127</ele>
        <time>2022-01-15T09:18:14Z</time>
      </trkpt>
      <trkpt lat="48.55432" lon="2.10627">
        <ele>127</ele>
        <time>2022-01-15T09:18:12Z</time>
      </trkpt>
      <trkpt lat="48.5543" lon="2.10624">
        <ele>127</ele>
        <time>2022-01-15T09:18:10Z</time>
      </trkpt>
      <trkpt lat="48.55428" lon="2.1062">
        <ele>127</ele>
        <time>2022-01-15T09:18:08Z</time>
      </trkpt>
      <trkpt lat="48.55426" lon="2.10617">
        <ele>127</ele>
        <time>2022-01-15T09:18:06Z</time>
      </trkpt>
      <trkpt lat="48.55423" lon="2.10614">
        <ele>128</ele>
        <time>2022-01-15T09:18:04Z</time>
      </trkpt>
      <trkpt lat="48.55421" lon="2.1061">
        <ele>128</ele>
        <time>2022-01-15T09:18:02Z</time>
      </trkpt>
      <trkpt lat="48.55419" lon="2.10607">
        <ele>128</ele>
        <time>2022-01-15T09:18:00Z</time>
      </trkpt>
      <trkpt lat="48.55417" lon="2.10604">
        <ele>128</ele>
        <time>2022-01-15T09:17:58Z</time>
      </trkpt>
      <trkpt lat="48.55415" lon="2.106">
        <ele>128</ele>
        <time>2022-01-15T09:17:56Z</time>
      </trkpt>
      <trkpt lat="48.55412" lon="2.10597">
        <ele>129</ele>
        <time>2022-01-15T09:17:54Z</time>
      </trkpt>
      <trkpt lat="48.5541" lon="2.10593">
        <ele>129</ele>
        <time>2022-01-15T09:17:51Z</time>
      </trkpt>
      <trkpt lat="48.55408" lon="2.1059">
        <ele>130</ele>
        <time>2022-01-15T09:17:49Z</time>
      </trkpt>
      <trkpt lat="48.55406" lon="2.10587">
        <ele>130</ele>
        <time>2022-01-15T09:17:47Z</time>
      </trkpt>
      <trkpt lat="48.55404" lon="2.10585">
        <ele>130</ele>
        <time>2022-01-15T09:17:45Z</time>
      </trkpt>
      <trkpt lat="48.55401" lon="2.10582">
        <ele>130</ele>
        <time>2022-01-15T09:17:43Z</time>
      </trkpt>
      <trkpt lat="48.55398" lon="2.1058">
        <ele>131</ele>
        <time>2022-01-15T09:17:40Z</time>
      </trkpt>
      <trkpt lat="48.55395" lon="2.10577">
        <ele>131</ele>
        <time>2022-01-15T09:17:38Z</time>
      </trkpt>
      <trkpt lat="48.55392" lon="2.10574">
        <ele>131</ele>
        <time>2022-01-15T09:17:35Z</time>
      </trkpt>
      <trkpt lat="48.55389" lon="2.10572">
        <ele>131</ele>
        <time>2022-01-15T09:17:33Z</time>
      </trkpt>
      <trkpt lat="48.55386" lon="2.10569">
        <ele>132</ele>
        <time>2022-01-15T09:17:30Z</time>
      </trkpt>
      <trkpt lat="48.55383" lon="2.10567">
        <ele>132</ele>
        <time>2022-01-15T09:17:28Z</time>
      </trkpt>
      <trkpt lat="48.55381" lon="2.10565">
        <ele>132</ele>
        <time>2022-01-15T09:17:26Z</time>
      </trkpt>
      <trkpt lat="48.55377" lon="2.10564">
        <ele>133</ele>
        <time>2022-01-15T09:17:24Z</time>
      </trkpt>
      <trkpt lat="48.55374" lon="2.10561">
        <ele>133</ele>
        <time>2022-01-15T09:17:22Z</time>
      </trkpt>
      <trkpt lat="48.55371" lon="2.10558">
        <ele>133</ele>
        <time>2022-01-15T09:17:19Z</time>
      </trkpt>
      <trkpt lat="48.55368" lon="2.10555">
        <ele>134</ele>
        <time>2022-01-15T09:17:17Z</time>
      </trkpt>
      <trkpt lat="48.55365" lon="2.10551">
        <ele>134</ele>
        <time>2022-01-15T09:17:14Z</time>
      </trkpt>
      <trkpt lat="48.55363" lon="2.10546">
        <ele>135</ele>
        <time>2022-01-15T09:17:11Z</time>
      </trkpt>
      <trkpt lat="48.55362" lon="2.10541">
        <ele>135</ele>
        <time>2022-01-15T09:17:08Z</time>
      </trkpt>
      <trkpt lat="48.5536" lon="2.10537">
        <ele>136</ele>
        <time>2022-01-15T09:17:05Z</time>
      </trkpt>
      <trkpt lat="48.55359" lon="2.10532">
        <ele>136</ele>
        <time>2022-01-15T09:17:02Z</time>
      </trkpt>
      <trkpt lat="48.55357" lon="2.10528">
        <ele>136</ele>
        <time>2022-01-15T09:16:59Z</time>
      </trkpt>
      <trkpt lat="48.55355" lon="2.10524">
        <ele>137</ele>
        <time>2022-01-15T09:16:56Z</time>
      </trkpt>
      <trkpt lat="48.55353" lon="2.1052">
        <ele>137</ele>
        <time>2022-01-15T09:16:54Z</time>
      </trkpt>
      <trkpt lat="48.55352" lon="2.10514">
        <ele>138</ele>
        <time>2022-01-15T09:16:51Z</time>
      </trkpt>
      <trkpt lat="48.55351" lon="2.10509">
        <ele>138</ele>
        <time>2022-01-15T09:16:48Z</time>
      </trkpt>
      <trkpt lat="48.5535" lon="2.10504">
        <ele>139</ele>
        <time>2022-01-15T09:16:46Z</time>
      </trkpt>
      <trkpt lat="48.5535" lon="2.10499">
        <ele>139</ele>
        <time>2022-01-15T09:16:44Z</time>
      </trkpt>
      <trkpt lat="48.55349" lon="2.10492">
        <ele>139</ele>
        <time>2022-01-15T09:16:42Z</time>
      </trkpt>
      <trkpt lat="48.55349" lon="2.10486">
        <ele>140</ele>
        <time>2022-01-15T09:16:40Z</time>
      </trkpt>
      <trkpt lat="48.55348" lon="2.1048">
        <ele>140</ele>
        <time>2022-01-15T09:16:37Z</time>
      </trkpt>
      <trkpt lat="48.55347" lon="2.10475">
        <ele>140</ele>
        <time>2022-01-15T09:16:35Z</time>
      </trkpt>
      <trkpt lat="48.55346" lon="2.1047">
        <ele>141</ele>
        <time>2022-01-15T09:16:33Z</time>
      </trkpt>
      <trkpt lat="48.55346" lon="2.10465">
        <ele>141</ele>
        <time>2022-01-15T09:16:31Z</time>
      </trkpt>
      <trkpt lat="48.55346" lon="2.10461">
        <ele>142</ele>
        <time>2022-01-15T09:16:28Z</time>
      </trkpt>
      <trkpt lat="48.55346" lon="2.10456">
        <ele>142</ele>
        <time>2022-01-15T09:16:26Z</time>
      </trkpt>
      <trkpt lat="48.55346" lon="2.10451">
        <ele>142</ele>
        <time>2022-01-15T09:16:23Z</time>
      </trkpt>
      <trkpt lat="48.55345" lon="2.10445">
        <ele>143</ele>
        <time>2022-01-15T09:16:20Z</time>
      </trkpt>
      <trkpt lat="48.55345" lon="2.1044">
        <ele>143</ele>
        <time>2022-01-15T09:16:18Z</time>
      </trkpt>
      <trkpt lat="48.55346" lon="2.10434">
        <ele>144</ele>
        <time>2022-01-15T09:16:15Z</time>
      </trkpt>
      <trkpt lat="48.55345" lon="2.10428">
        <ele>144</ele>
        <time>2022-01-15T09:16:13Z</time>
      </trkpt>
      <trkpt lat="48.55345" lon="2.10423">
        <ele>145</ele>
        <time>2022-01-15T09:16:10Z</time>
      </trkpt>
      <trkpt lat="48.55345" lon="2.10418">
        <ele>145</ele>
        <time>2022-01-15T09:16:08Z</time>
      </trkpt>
      <trkpt lat="48.55346" lon="2.10413">
        <ele>146</ele>
        <time>2022-01-15T09:16:05Z</time>
      </trkpt>
      <trkpt lat="48.55346" lon="2.10409">
        <ele>146</ele>
        <time>2022-01-15T09:16:03Z</time>
      </trkpt>
      <trkpt lat="48.55346" lon="2.10404">
        <ele>146</ele>
        <time>2022-01-15T09:16:01Z</time>
      </trkpt>
      <trkpt lat="48.55346" lon="2.10399">
        <ele>147</ele>
        <time>2022-01-15T09:15:59Z</time>
      </trkpt>
      <trkpt lat="48.55346" lon="2.10394">
        <ele>147</ele>
        <time>2022-01-15T09:15:57Z</time>
      </trkpt>
      <trkpt lat="48.55346" lon="2.10388">
        <ele>148</ele>
        <time>2022-01-15T09:15:54Z</time>
      </trkpt>
      <trkpt lat="48.55346" lon="2.10384">
        <ele>148</ele>
        <time>2022-01-15T09:15:51Z</time>
      </trkpt>
      <trkpt lat="48.55345" lon="2.10379">
        <ele>149</ele>
        <time>2022-01-15T09:15:49Z</time>
      </trkpt>
      <trkpt lat="48.55344" lon="2.10375">
        <ele>149</ele>
        <time>2022-01-15T09:15:46Z</time>
      </trkpt>
      <trkpt lat="48.55344" lon="2.1037">
        <ele>150</ele>
        <time>2022-01-15T09:15:44Z</time>
      </trkpt>
      <trkpt lat="48.55344" lon="2.10365">
        <ele>150</ele>
        <time>2022-01-15T09:15:41Z</time>
      </trkpt>
      <trkpt lat="48.55344" lon="2.1036">
        <ele>150</ele>
        <time>2022-01-15T09:15:39Z</time>
      </trkpt>
      <trkpt lat="48.55344" lon="2.10354">
        <ele>151</ele>
        <time>2022-01-15T09:15:35Z</time>
      </trkpt>
      <trkpt lat="48.55344" lon="2.10349">
        <ele>152</ele>
        <time>2022-01-15T09:15:33Z</time>
      </trkpt>
      <trkpt lat="48.55343" lon="2.10344">
        <ele>152</ele>
        <time>2022-01-15T09:15:30Z</time>
      </trkpt>
      <trkpt lat="48.55343" lon="2.10339">
        <ele>152</ele>
        <time>2022-01-15T09:15:27Z</time>
      </trkpt>
      <trkpt lat="48.55343" lon="2.10334">
        <ele>153</ele>
        <time>2022-01-15T09:15:25Z</time>
      </trkpt>
      <trkpt lat="48.55342" lon="2.1033">
        <ele>153</ele>
        <time>2022-01-15T09:15:23Z</time>
      </trkpt>
      <trkpt lat="48.55341" lon="2.10325">
        <ele>153</ele>
        <time>2022-01-15T09:15:20Z</time>
      </trkpt>
      <trkpt lat="48.5534" lon="2.10319">
        <ele>153</ele>
        <time>2022-01-15T09:15:17Z</time>
      </trkpt>
      <trkpt lat="48.55339" lon="2.10314">
        <ele>154</ele>
        <time>2022-01-15T09:15:14Z</time>
      </trkpt>
      <trkpt lat="48.55337" lon="2.1031">
        <ele>154</ele>
        <time>2022-01-15T09:15:12Z</time>
      </trkpt>
      <trkpt lat="48.55336" lon="2.10305">
        <ele>154</ele>
        <time>2022-01-15T09:15:09Z</time>
      </trkpt>
      <trkpt lat="48.55335" lon="2.10301">
        <ele>154</ele>
        <time>2022-01-15T09:15:07Z</time>
      </trkpt>
      <trkpt lat="48.55333" lon="2.10296">
        <ele>155</ele>
        <time>2022-01-15T09:15:03Z</time>
      </trkpt>
      <trkpt lat="48.55331" lon="2.10292">
        <ele>155</ele>
        <time>2022-01-15T09:15:00Z</time>
      </trkpt>
      <trkpt lat="48.55329" lon="2.10289">
        <ele>156</ele>
        <time>2022-01-15T09:14:58Z</time>
      </trkpt>
      <trkpt lat="48.55326" lon="2.10287">
        <ele>156</ele>
        <time>2022-01-15T09:14:56Z</time>
      </trkpt>
      <trkpt lat="48.55323" lon="2.10285">
        <ele>156</ele>
        <time>2022-01-15T09:14:54Z</time>
      </trkpt>
      <trkpt lat="48.55321" lon="2.10284">
        <ele>156</ele>
        <time>2022-01-15T09:14:52Z</time>
      </trkpt>
      <trkpt lat="48.55318" lon="2.10282">
        <ele>157</ele>
        <time>2022-01-15T09:14:50Z</time>
      </trkpt>
      <trkpt lat="48.55317" lon="2.10279">
        <ele>157</ele>
        <time>2022-01-15T09:14:47Z</time>
      </trkpt>
      <trkpt lat="48.55316" lon="2.10279">
        <ele>157</ele>
        <time>2022-01-15T09:14:35Z</time>
      </trkpt>
      <trkpt lat="48.55318" lon="2.10281">
        <ele>157</ele>
        <time>2022-01-15T09:13:35Z</time>
      </trkpt>
      <trkpt lat="48.55315" lon="2.10283">
        <ele>157</ele>
        <time>2022-01-15T09:13:26Z</time>
      </trkpt>
      <trkpt lat="48.55312" lon="2.10284">
        <ele>157</ele>
        <time>2022-01-15T09:13:23Z</time>
      </trkpt>
      <trkpt lat="48.55309" lon="2.10285">
        <ele>157</ele>
        <time>2022-01-15T09:13:21Z</time>
      </trkpt>
      <trkpt lat="48.55305" lon="2.10285">
        <ele>157</ele>
        <time>2022-01-15T09:13:18Z</time>
      </trkpt>
      <trkpt lat="48.55302" lon="2.10287">
        <ele>157</ele>
        <time>2022-01-15T09:13:16Z</time>
      </trkpt>
      <trkpt lat="48.55298" lon="2.10287">
        <ele>157</ele>
        <time>2022-01-15T09:13:13Z</time>
      </trkpt>
      <trkpt lat="48.55295" lon="2.10287">
        <ele>157</ele>
        <time>2022-01-15T09:13:11Z</time>
      </trkpt>
      <trkpt lat="48.55292" lon="2.10288">
        <ele>157</ele>
        <time>2022-01-15T09:13:09Z</time>
      </trkpt>
      <trkpt lat="48.55288" lon="2.10288">
        <ele>157</ele>
        <time>2022-01-15T09:13:06Z</time>
      </trkpt>
      <trkpt lat="48.55285" lon="2.10288">
        <ele>157</ele>
        <time>2022-01-15T09:13:04Z</time>
      </trkpt>
      <trkpt lat="48.55281" lon="2.10289">
        <ele>157</ele>
        <time>2022-01-15T09:13:02Z</time>
      </trkpt>
      <trkpt lat="48.55278" lon="2.1029">
        <ele>157</ele>
        <time>2022-01-15T09:12:59Z</time>
      </trkpt>
      <trkpt lat="48.55275" lon="2.10291">
        <ele>157</ele>
        <time>2022-01-15T09:12:57Z</time>
      </trkpt>
      <trkpt lat="48.55271" lon="2.10292">
        <ele>157</ele>
        <time>2022-01-15T09:12:55Z</time>
      </trkpt>
      <trkpt lat="48.55268" lon="2.10293">
        <ele>157</ele>
        <time>2022-01-15T09:12:52Z</time>
      </trkpt>
      <trkpt lat="48.55263" lon="2.10293">
        <ele>157</ele>
        <time>2022-01-15T09:12:49Z</time>
      </trkpt>
      <trkpt lat="48.5526" lon="2.10294">
        <ele>157</ele>
        <time>2022-01-15T09:12:47Z</time>
      </trkpt>
      <trkpt lat="48.55257" lon="2.10295">
        <ele>157</ele>
        <time>2022-01-15T09:12:45Z</time>
      </trkpt>
      <trkpt lat="48.55253" lon="2.10296">
        <ele>157</ele>
        <time>2022-01-15T09:12:42Z</time>
      </trkpt>
      <trkpt lat="48.5525" lon="2.10296">
        <ele>157</ele>
        <time>2022-01-15T09:12:40Z</time>
      </trkpt>
      <trkpt lat="48.55246" lon="2.10297">
        <ele>156</ele>
        <time>2022-01-15T09:12:37Z</time>
      </trkpt>
      <trkpt lat="48.55243" lon="2.10296">
        <ele>156</ele>
        <time>2022-01-15T09:12:33Z</time>
      </trkpt>
      <trkpt lat="48.5524" lon="2.10295">
        <ele>156</ele>
        <time>2022-01-15T09:12:31Z</time>
      </trkpt>
      <trkpt lat="48.55237" lon="2.10293">
        <ele>156</ele>
        <time>2022-01-15T09:12:29Z</time>
      </trkpt>
      <trkpt lat="48.55234" lon="2.10291">
        <ele>156</ele>
        <time>2022-01-15T09:12:27Z</time>
      </trkpt>
      <trkpt lat="48.55231" lon="2.10289">
        <ele>155</ele>
        <time>2022-01-15T09:12:25Z</time>
      </trkpt>
      <trkpt lat="48.55228" lon="2.10288">
        <ele>155</ele>
        <time>2022-01-15T09:12:23Z</time>
      </trkpt>
      <trkpt lat="48.55225" lon="2.10286">
        <ele>155</ele>
        <time>2022-01-15T09:12:21Z</time>
      </trkpt>
      <trkpt lat="48.55221" lon="2.10285">
        <ele>155</ele>
        <time>2022-01-15T09:12:19Z</time>
      </trkpt>
      <trkpt lat="48.55217" lon="2.10284">
        <ele>156</ele>
        <time>2022-01-15T09:12:16Z</time>
      </trkpt>
      <trkpt lat="48.55214" lon="2.10284">
        <ele>156</ele>
        <time>2022-01-15T09:12:13Z</time>
      </trkpt>
      <trkpt lat="48.5521" lon="2.10284">
        <ele>156</ele>
        <time>2022-01-15T09:12:11Z</time>
      </trkpt>
      <trkpt lat="48.55207" lon="2.10284">
        <ele>156</ele>
        <time>2022-01-15T09:12:09Z</time>
      </trkpt>
      <trkpt lat="48.55202" lon="2.10284">
        <ele>157</ele>
        <time>2022-01-15T09:12:06Z</time>
      </trkpt>
      <trkpt lat="48.55199" lon="2.10284">
        <ele>157</ele>
        <time>2022-01-15T09:12:04Z</time>
      </trkpt>
      <trkpt lat="48.55195" lon="2.10284">
        <ele>157</ele>
        <time>2022-01-15T09:12:02Z</time>
      </trkpt>
      <trkpt lat="48.55192" lon="2.10284">
        <ele>157</ele>
        <time>2022-01-15T09:12:00Z</time>
      </trkpt>
      <trkpt lat="48.55188" lon="2.10284">
        <ele>157</ele>
        <time>2022-01-15T09:11:57Z</time>
      </trkpt>
      <trkpt lat="48.55185" lon="2.10285">
        <ele>157</ele>
        <time>2022-01-15T09:11:55Z</time>
      </trkpt>
      <trkpt lat="48.55182" lon="2.10287">
        <ele>158</ele>
        <time>2022-01-15T09:11:53Z</time>
      </trkpt>
      <trkpt lat="48.55178" lon="2.10288">
        <ele>158</ele>
        <time>2022-01-15T09:11:50Z</time>
      </trkpt>
      <trkpt lat="48.55174" lon="2.1029">
        <ele>158</ele>
        <time>2022-01-15T09:11:48Z</time>
      </trkpt>
      <trkpt lat="48.55171" lon="2.10292">
        <ele>158</ele>
        <time>2022-01-15T09:11:46Z</time>
      </trkpt>
      <trkpt lat="48.55167" lon="2.10294">
        <ele>158</ele>
        <time>2022-01-15T09:11:43Z</time>
      </trkpt>
      <trkpt lat="48.55164" lon="2.10296">
        <ele>158</ele>
        <time>2022-01-15T09:11:41Z</time>
      </trkpt>
      <trkpt lat="48.55161" lon="2.10299">
        <ele>158</ele>
        <time>2022-01-15T09:11:39Z</time>
      </trkpt>
      <trkpt lat="48.55158" lon="2.10302">
        <ele>158</ele>
        <time>2022-01-15T09:11:37Z</time>
      </trkpt>
      <trkpt lat="48.55155" lon="2.10305">
        <ele>158</ele>
        <time>2022-01-15T09:11:35Z</time>
      </trkpt>
      <trkpt lat="48.55152" lon="2.10307">
        <ele>158</ele>
        <time>2022-01-15T09:11:33Z</time>
      </trkpt>
      <trkpt lat="48.5515" lon="2.10311">
        <ele>159</ele>
        <time>2022-01-15T09:11:31Z</time>
      </trkpt>
      <trkpt lat="48.55147" lon="2.10314">
        <ele>159</ele>
        <time>2022-01-15T09:11:29Z</time>
      </trkpt>
      <trkpt lat="48.55145" lon="2.10318">
        <ele>159</ele>
        <time>2022-01-15T09:11:26Z</time>
      </trkpt>
      <trkpt lat="48.55142" lon="2.1032">
        <ele>159</ele>
        <time>2022-01-15T09:11:24Z</time>
      </trkpt>
      <trkpt lat="48.5514" lon="2.10323">
        <ele>159</ele>
        <time>2022-01-15T09:11:22Z</time>
      </trkpt>
      <trkpt lat="48.55137" lon="2.10326">
        <ele>159</ele>
        <time>2022-01-15T09:11:20Z</time>
      </trkpt>
      <trkpt lat="48.55135" lon="2.1033">
        <ele>159</ele>
        <time>2022-01-15T09:11:17Z</time>
      </trkpt>
      <trkpt lat="48.55132" lon="2.10333">
        <ele>159</ele>
        <time>2022-01-15T09:11:15Z</time>
      </trkpt>
      <trkpt lat="48.5513" lon="2.10336">
        <ele>159</ele>
        <time>2022-01-15T09:11:13Z</time>
      </trkpt>
      <trkpt lat="48.55127" lon="2.10339">
        <ele>159</ele>
        <time>2022-01-15T09:11:11Z</time>
      </trkpt>
      <trkpt lat="48.55124" lon="2.10342">
        <ele>159</ele>
        <time>2022-01-15T09:11:09Z</time>
      </trkpt>
      <trkpt lat="48.55122" lon="2.10347">
        <ele>159</ele>
        <time>2022-01-15T09:11:06Z</time>
      </trkpt>
      <trkpt lat="48.55119" lon="2.1035">
        <ele>159</ele>
        <time>2022-01-15T09:11:03Z</time>
      </trkpt>
      <trkpt lat="48.55117" lon="2.10354">
        <ele>159</ele>
        <time>2022-01-15T09:11:01Z</time>
      </trkpt>
      <trkpt lat="48.55114" lon="2.10357">
        <ele>159</ele>
        <time>2022-01-15T09:10:59Z</time>
      </trkpt>
      <trkpt lat="48.55111" lon="2.1036">
        <ele>159</ele>
        <time>2022-01-15T09:10:57Z</time>
      </trkpt>
      <trkpt lat="48.55108" lon="2.10361">
        <ele>159</ele>
        <time>2022-01-15T09:10:55Z</time>
      </trkpt>
      <trkpt lat="48.55106" lon="2.10363">
        <ele>159</ele>
        <time>2022-01-15T09:10:53Z</time>
      </trkpt>
      <trkpt lat="48.55103" lon="2.10365">
        <ele>159</ele>
        <time>2022-01-15T09:10:51Z</time>
      </trkpt>
      <trkpt lat="48.55101" lon="2.10368">
        <ele>159</ele>
        <time>2022-01-15T09:10:49Z</time>
      </trkpt>
      <trkpt lat="48.55099" lon="2.10371">
        <ele>159</ele>
        <time>2022-01-15T09:10:47Z</time>
      </trkpt>
      <trkpt lat="48.55096" lon="2.10375">
        <ele>159</ele>
        <time>2022-01-15T09:10:45Z</time>
      </trkpt>
      <trkpt lat="48.55093" lon="2.10378">
        <ele>159</ele>
        <time>2022-01-15T09:10:43Z</time>
      </trkpt>
      <trkpt lat="48.55091" lon="2.10382">
        <ele>159</ele>
        <time>2022-01-15T09:10:41Z</time>
      </trkpt>
      <trkpt lat="48.55089" lon="2.10385">
        <ele>159</ele>
        <time>2022-01-15T09:10:39Z</time>
      </trkpt>
      <trkpt lat="48.55086" lon="2.10388">
        <ele>159</ele>
        <time>2022-01-15T09:10:37Z</time>
      </trkpt>
      <trkpt lat="48.55083" lon="2.10393">
        <ele>159</ele>
        <time>2022-01-15T09:10:34Z</time>
      </trkpt>
      <trkpt lat="48.55081" lon="2.10397">
        <ele>159</ele>
        <time>2022-01-15T09:10:31Z</time>
      </trkpt>
      <trkpt lat="48.55078" lon="2.104">
        <ele>159</ele>
        <time>2022-01-15T09:10:29Z</time>
      </trkpt>
      <trkpt lat="48.55076" lon="2.10403">
        <ele>159</ele>
        <time>2022-01-15T09:10:27Z</time>
      </trkpt>
      <trkpt lat="48.55073" lon="2.10406">
        <ele>159</ele>
        <time>2022-01-15T09:10:25Z</time>
      </trkpt>
      <trkpt lat="48.5507" lon="2.10409">
        <ele>159</ele>
        <time>2022-01-15T09:10:23Z</time>
      </trkpt>
      <trkpt lat="48.55068" lon="2.10412">
        <ele>159</ele>
        <time>2022-01-15T09:10:21Z</time>
      </trkpt>
      <trkpt lat="48.55066" lon="2.10415">
        <ele>159</ele>
        <time>2022-01-15T09:10:19Z</time>
      </trkpt>
      <trkpt lat="48.55063" lon="2.10418">
        <ele>159</ele>
        <time>2022-01-15T09:10:17Z</time>
      </trkpt>
      <trkpt lat="48.5506" lon="2.10421">
        <ele>159</ele>
        <time>2022-01-15T09:10:15Z</time>
      </trkpt>
      <trkpt lat="48.55057" lon="2.10424">
        <ele>159</ele>
        <time>2022-01-15T09:10:12Z</time>
      </trkpt>
      <trkpt lat="48.55055" lon="2.10428">
        <ele>158</ele>
        <time>2022-01-15T09:10:10Z</time>
      </trkpt>
      <trkpt lat="48.55054" lon="2.10432">
        <ele>158</ele>
        <time>2022-01-15T09:10:08Z</time>
      </trkpt>
      <trkpt lat="48.55052" lon="2.10435">
        <ele>158</ele>
        <time>2022-01-15T09:10:06Z</time>
      </trkpt>
      <trkpt lat="48.5505" lon="2.10439">
        <ele>158</ele>
        <time>2022-01-15T09:10:04Z</time>
      </trkpt>
      <trkpt lat="48.55048" lon="2.10442">
        <ele>158</ele>
        <time>2022-01-15T09:10:02Z</time>
      </trkpt>
      <trkpt lat="48.55047" lon="2.10446">
        <ele>157</ele>
        <time>2022-01-15T09:10:00Z</time>
      </trkpt>
      <trkpt lat="48.55046" lon="2.10451">
        <ele>157</ele>
        <time>2022-01-15T09:09:58Z</time>
      </trkpt>
      <trkpt lat="48.55045" lon="2.10456">
        <ele>157</ele>
        <time>2022-01-15T09:09:55Z</time>
      </trkpt>
      <trkpt lat="48.55044" lon="2.1046">
        <ele>157</ele>
        <time>2022-01-15T09:09:53Z</time>
      </trkpt>
      <trkpt lat="48.55042" lon="2.10464">
        <ele>157</ele>
        <time>2022-01-15T09:09:51Z</time>
      </trkpt>
      <trkpt lat="48.55041" lon="2.1047">
        <ele>157</ele>
        <time>2022-01-15T09:09:48Z</time>
      </trkpt>
      <trkpt lat="48.55041" lon="2.10474">
        <ele>157</ele>
        <time>2022-01-15T09:09:46Z</time>
      </trkpt>
      <trkpt lat="48.5504" lon="2.10479">
        <ele>157</ele>
        <time>2022-01-15T09:09:44Z</time>
      </trkpt>
      <trkpt lat="48.55039" lon="2.10484">
        <ele>157</ele>
        <time>2022-01-15T09:09:42Z</time>
      </trkpt>
      <trkpt lat="48.55038" lon="2.10488">
        <ele>157</ele>
        <time>2022-01-15T09:09:40Z</time>
      </trkpt>
      <trkpt lat="48.55037" lon="2.10493">
        <ele>157</ele>
        <time>2022-01-15T09:09:38Z</time>
      </trkpt>
      <trkpt lat="48.55036" lon="2.10498">
        <ele>157</ele>
        <time>2022-01-15T09:09:36Z</time>
      </trkpt>
      <trkpt lat="48.55036" lon="2.10504">
        <ele>157</ele>
        <time>2022-01-15T09:09:32Z</time>
      </trkpt>
      <trkpt lat="48.55035" lon="2.10508">
        <ele>158</ele>
        <time>2022-01-15T09:09:30Z</time>
      </trkpt>
      <trkpt lat="48.55034" lon="2.10513">
        <ele>158</ele>
        <time>2022-01-15T09:09:28Z</time>
      </trkpt>
      <trkpt lat="48.55033" lon="2.10518">
        <ele>158</ele>
        <time>2022-01-15T09:09:26Z</time>
      </trkpt>
      <trkpt lat="48.55033" lon="2.10523">
        <ele>158</ele>
        <time>2022-01-15T09:09:24Z</time>
      </trkpt>
      <trkpt lat="48.55032" lon="2.10527">
        <ele>158</ele>
        <time>2022-01-15T09:09:22Z</time>
      </trkpt>
      <trkpt lat="48.55032" lon="2.10533">
        <ele>158</ele>
        <time>2022-01-15T09:09:20Z</time>
      </trkpt>
      <trkpt lat="48.55031" lon="2.10538">
        <ele>158</ele>
        <time>2022-01-15T09:09:17Z</time>
      </trkpt>
      <trkpt lat="48.55031" lon="2.10542">
        <ele>158</ele>
        <time>2022-01-15T09:09:15Z</time>
      </trkpt>
      <trkpt lat="48.55031" lon="2.10547">
        <ele>158</ele>
        <time>2022-01-15T09:09:13Z</time>
      </trkpt>
      <trkpt lat="48.55031" lon="2.10551">
        <ele>158</ele>
        <time>2022-01-15T09:09:11Z</time>
      </trkpt>
      <trkpt lat="48.55031" lon="2.10557">
        <ele>158</ele>
        <time>2022-01-15T09:09:08Z</time>
      </trkpt>
      <trkpt lat="48.55032" lon="2.10562">
        <ele>158</ele>
        <time>2022-01-15T09:09:06Z</time>
      </trkpt>
      <trkpt lat="48.55032" lon="2.10566">
        <ele>158</ele>
        <time>2022-01-15T09:09:04Z</time>
      </trkpt>
      <trkpt lat="48.55033" lon="2.10571">
        <ele>158</ele>
        <time>2022-01-15T09:09:01Z</time>
      </trkpt>
      <trkpt lat="48.55035" lon="2.10575">
        <ele>158</ele>
        <time>2022-01-15T09:08:59Z</time>
      </trkpt>
      <trkpt lat="48.55037" lon="2.1058">
        <ele>158</ele>
        <time>2022-01-15T09:08:56Z</time>
      </trkpt>
      <trkpt lat="48.55039" lon="2.10583">
        <ele>158</ele>
        <time>2022-01-15T09:08:54Z</time>
      </trkpt>
      <trkpt lat="48.55041" lon="2.10587">
        <ele>158</ele>
        <time>2022-01-15T09:08:52Z</time>
      </trkpt>
      <trkpt lat="48.55044" lon="2.10591">
        <ele>158</ele>
        <time>2022-01-15T09:08:49Z</time>
      </trkpt>
      <trkpt lat="48.55046" lon="2.10596">
        <ele>158</ele>
        <time>2022-01-15T09:08:46Z</time>
      </trkpt>
      <trkpt lat="48.55048" lon="2.10599">
        <ele>158</ele>
        <time>2022-01-15T09:08:44Z</time>
      </trkpt>
      <trkpt lat="48.55051" lon="2.10604">
        <ele>158</ele>
        <time>2022-01-15T09:08:41Z</time>
      </trkpt>
      <trkpt lat="48.55053" lon="2.10608">
        <ele>158</ele>
        <time>2022-01-15T09:08:38Z</time>
      </trkpt>
      <trkpt lat="48.55055" lon="2.10612">
        <ele>158</ele>
        <time>2022-01-15T09:08:35Z</time>
      </trkpt>
      <trkpt lat="48.55057" lon="2.10615">
        <ele>158</ele>
        <time>2022-01-15T09:08:33Z</time>
      </trkpt>
      <trkpt lat="48.55059" lon="2.10619">
        <ele>157</ele>
        <time>2022-01-15T09:08:31Z</time>
      </trkpt>
      <trkpt lat="48.55062" lon="2.10623">
        <ele>157</ele>
        <time>2022-01-15T09:08:28Z</time>
      </trkpt>
      <trkpt lat="48.55064" lon="2.10626">
        <ele>157</ele>
        <time>2022-01-15T09:08:26Z</time>
      </trkpt>
      <trkpt lat="48.55066" lon="2.1063">
        <ele>156</ele>
        <time>2022-01-15T09:08:23Z</time>
      </trkpt>
      <trkpt lat="48.55069" lon="2.10633">
        <ele>156</ele>
        <time>2022-01-15T09:08:20Z</time>
      </trkpt>
      <trkpt lat="48.55071" lon="2.10637">
        <ele>155</ele>
        <time>2022-01-15T09:08:17Z</time>
      </trkpt>
      <trkpt lat="48.55073" lon="2.1064">
        <ele>155</ele>
        <time>2022-01-15T09:08:15Z</time>
      </trkpt>
      <trkpt lat="48.55076" lon="2.10644">
        <ele>155</ele>
        <time>2022-01-15T09:08:12Z</time>
      </trkpt>
      <trkpt lat="48.55078" lon="2.10648">
        <ele>154</ele>
        <time>2022-01-15T09:08:08Z</time>
      </trkpt>
      <trkpt lat="48.5508" lon="2.10652">
        <ele>154</ele>
        <time>2022-01-15T09:08:06Z</time>
      </trkpt>
      <trkpt lat="48.55082" lon="2.10656">
        <ele>153</ele>
        <time>2022-01-15T09:08:03Z</time>
      </trkpt>
      <trkpt lat="48.55085" lon="2.10659">
        <ele>153</ele>
        <time>2022-01-15T09:08:00Z</time>
      </trkpt>
      <trkpt lat="48.55087" lon="2.10662">
        <ele>153</ele>
        <time>2022-01-15T09:07:58Z</time>
      </trkpt>
      <trkpt lat="48.55089" lon="2.10665">
        <ele>152</ele>
        <time>2022-01-15T09:07:56Z</time>
      </trkpt>
      <trkpt lat="48.55092" lon="2.10669">
        <ele>152</ele>
        <time>2022-01-15T09:07:53Z</time>
      </trkpt>
      <trkpt lat="48.55094" lon="2.10672">
        <ele>152</ele>
        <time>2022-01-15T09:07:51Z</time>
      </trkpt>
      <trkpt lat="48.55097" lon="2.10675">
        <ele>151</ele>
        <time>2022-01-15T09:07:48Z</time>
      </trkpt>
      <trkpt lat="48.55099" lon="2.10679">
        <ele>151</ele>
        <time>2022-01-15T09:07:45Z</time>
      </trkpt>
      <trkpt lat="48.55101" lon="2.10684">
        <ele>150</ele>
        <time>2022-01-15T09:07:41Z</time>
      </trkpt>
      <trkpt lat="48.55102" lon="2.10688">
        <ele>150</ele>
        <time>2022-01-15T09:07:38Z</time>
      </trkpt>
      <trkpt lat="48.55104" lon="2.10693">
        <ele>149</ele>
        <time>2022-01-15T09:07:34Z</time>
      </trkpt>
      <trkpt lat="48.55105" lon="2.10697">
        <ele>148</ele>
        <time>2022-01-15T09:07:30Z</time>
      </trkpt>
      <trkpt lat="48.55106" lon="2.10701">
        <ele>147</ele>
        <time>2022-01-15T09:07:27Z</time>
      </trkpt>
      <trkpt lat="48.55107" lon="2.10707">
        <ele>147</ele>
        <time>2022-01-15T09:07:24Z</time>
      </trkpt>
      <trkpt lat="48.55107" lon="2.10711">
        <ele>146</ele>
        <time>2022-01-15T09:07:20Z</time>
      </trkpt>
      <trkpt lat="48.55106" lon="2.10715">
        <ele>145</ele>
        <time>2022-01-15T09:07:16Z</time>
      </trkpt>
      <trkpt lat="48.55106" lon="2.1072">
        <ele>144</ele>
        <time>2022-01-15T09:07:10Z</time>
      </trkpt>
      <trkpt lat="48.55105" lon="2.10725">
        <ele>143</ele>
        <time>2022-01-15T09:07:05Z</time>
      </trkpt>
      <trkpt lat="48.55105" lon="2.1073">
        <ele>143</ele>
        <time>2022-01-15T09:07:02Z</time>
      </trkpt>
      <trkpt lat="48.55106" lon="2.10735">
        <ele>143</ele>
        <time>2022-01-15T09:06:59Z</time>
      </trkpt>
      <trkpt lat="48.55106" lon="2.1074">
        <ele>142</ele>
        <time>2022-01-15T09:06:56Z</time>
      </trkpt>
      <trkpt lat="48.55107" lon="2.10745">
        <ele>142</ele>
        <time>2022-01-15T09:06:53Z</time>
      </trkpt>
      <trkpt lat="48.55109" lon="2.10749">
        <ele>141</ele>
        <time>2022-01-15T09:06:51Z</time>
      </trkpt>
      <trkpt lat="48.55109" lon="2.10754">
        <ele>141</ele>
        <time>2022-01-15T09:06:49Z</time>
      </trkpt>
      <trkpt lat="48.5511" lon="2.10759">
        <ele>140</ele>
        <time>2022-01-15T09:06:46Z</time>
      </trkpt>
      <trkpt lat="48.5511" lon="2.10764">
        <ele>140</ele>
        <time>2022-01-15T09:06:44Z</time>
      </trkpt>
      <trkpt lat="48.5511" lon="2.10768">
        <ele>140</ele>
        <time>2022-01-15T09:06:42Z</time>
      </trkpt>
      <trkpt lat="48.55108" lon="2.10772">
        <ele>140</ele>
        <time>2022-01-15T09:06:40Z</time>
      </trkpt>
      <trkpt lat="48.55105" lon="2.10774">
        <ele>139</ele>
        <time>2022-01-15T09:06:38Z</time>
      </trkpt>
      <trkpt lat="48.55102" lon="2.10775">
        <ele>139</ele>
        <time>2022-01-15T09:06:36Z</time>
      </trkpt>
      <trkpt lat="48.55099" lon="2.10777">
        <ele>138</ele>
        <time>2022-01-15T09:06:34Z</time>
      </trkpt>
      <trkpt lat="48.55096" lon="2.1078">
        <ele>138</ele>
        <time>2022-01-15T09:06:31Z</time>
      </trkpt>
      <trkpt lat="48.55093" lon="2.10781">
        <ele>137</ele>
        <time>2022-01-15T09:06:28Z</time>
      </trkpt>
      <trkpt lat="48.5509" lon="2.10781">
        <ele>137</ele>
        <time>2022-01-15T09:06:26Z</time>
      </trkpt>
      <trkpt lat="48.55086" lon="2.10782">
        <ele>137</ele>
        <time>2022-01-15T09:06:23Z</time>
      </trkpt>
      <trkpt lat="48.55083" lon="2.10783">
        <ele>136</ele>
        <time>2022-01-15T09:06:21Z</time>
      </trkpt>
      <trkpt lat="48.5508" lon="2.10783">
        <ele>136</ele>
        <time>2022-01-15T09:06:18Z</time>
      </trkpt>
      <trkpt lat="48.55076" lon="2.10784">
        <ele>136</ele>
        <time>2022-01-15T09:06:16Z</time>
      </trkpt>
      <trkpt lat="48.55073" lon="2.10784">
        <ele>135</ele>
        <time>2022-01-15T09:06:14Z</time>
      </trkpt>
      <trkpt lat="48.5507" lon="2.10783">
        <ele>135</ele>
        <time>2022-01-15T09:06:13Z</time>
      </trkpt>
      <trkpt lat="48.55067" lon="2.10783">
        <ele>135</ele>
        <time>2022-01-15T09:06:11Z</time>
      </trkpt>
      <trkpt lat="48.55063" lon="2.10784">
        <ele>134</ele>
        <time>2022-01-15T09:06:07Z</time>
      </trkpt>
      <trkpt lat="48.5506" lon="2.10783">
        <ele>134</ele>
        <time>2022-01-15T09:06:05Z</time>
      </trkpt>
      <trkpt lat="48.55057" lon="2.10783">
        <ele>134</ele>
        <time>2022-01-15T09:06:03Z</time>
      </trkpt>
      <trkpt lat="48.55052" lon="2.10783">
        <ele>133</ele>
        <time>2022-01-15T09:06:00Z</time>
      </trkpt>
      <trkpt lat="48.55049" lon="2.10783">
        <ele>133</ele>
        <time>2022-01-15T09:05:57Z</time>
      </trkpt>
      <trkpt lat="48.55046" lon="2.10784">
        <ele>133</ele>
        <time>2022-01-15T09:05:55Z</time>
      </trkpt>
      <trkpt lat="48.55043" lon="2.10785">
        <ele>132</ele>
        <time>2022-01-15T09:05:52Z</time>
      </trkpt>
      <trkpt lat="48.55039" lon="2.10785">
        <ele>132</ele>
        <time>2022-01-15T09:05:47Z</time>
      </trkpt>
      <trkpt lat="48.55036" lon="2.10786">
        <ele>132</ele>
        <time>2022-01-15T09:05:45Z</time>
      </trkpt>
      <trkpt lat="48.55033" lon="2.10786">
        <ele>131</ele>
        <time>2022-01-15T09:05:43Z</time>
      </trkpt>
      <trkpt lat="48.55029" lon="2.10787">
        <ele>131</ele>
        <time>2022-01-15T09:05:40Z</time>
      </trkpt>
      <trkpt lat="48.55025" lon="2.10788">
        <ele>131</ele>
        <time>2022-01-15T09:05:37Z</time>
      </trkpt>
      <trkpt lat="48.55022" lon="2.10789">
        <ele>130</ele>
        <time>2022-01-15T09:05:34Z</time>
      </trkpt>
      <trkpt lat="48.5502" lon="2.10792">
        <ele>130</ele>
        <time>2022-01-15T09:05:31Z</time>
      </trkpt>
      <trkpt lat="48.55017" lon="2.10793">
        <ele>129</ele>
        <time>2022-01-15T09:05:28Z</time>
      </trkpt>
      <trkpt lat="48.55014" lon="2.10796">
        <ele>129</ele>
        <time>2022-01-15T09:05:25Z</time>
      </trkpt>
      <trkpt lat="48.5501" lon="2.10797">
        <ele>129</ele>
        <time>2022-01-15T09:05:22Z</time>
      </trkpt>
      <trkpt lat="48.55007" lon="2.10798">
        <ele>128</ele>
        <time>2022-01-15T09:05:19Z</time>
      </trkpt>
      <trkpt lat="48.55005" lon="2.108">
        <ele>128</ele>
        <time>2022-01-15T09:05:17Z</time>
      </trkpt>
      <trkpt lat="48.55002" lon="2.10802">
        <ele>127</ele>
        <time>2022-01-15T09:05:14Z</time>
      </trkpt>
      <trkpt lat="48.54999" lon="2.10805">
        <ele>127</ele>
        <time>2022-01-15T09:05:12Z</time>
      </trkpt>
      <trkpt lat="48.54997" lon="2.10808">
        <ele>126</ele>
        <time>2022-01-15T09:05:08Z</time>
      </trkpt>
      <trkpt lat="48.54994" lon="2.10811">
        <ele>126</ele>
        <time>2022-01-15T09:05:06Z</time>
      </trkpt>
      <trkpt lat="48.54991" lon="2.10812">
        <ele>126</ele>
        <time>2022-01-15T09:05:04Z</time>
      </trkpt>
      <trkpt lat="48.54988" lon="2.10814">
        <ele>125</ele>
        <time>2022-01-15T09:05:02Z</time>
      </trkpt>
      <trkpt lat="48.54985" lon="2.10816">
        <ele>125</ele>
        <time>2022-01-15T09:05:00Z</time>
      </trkpt>
      <trkpt lat="48.54981" lon="2.10818">
        <ele>125</ele>
        <time>2022-01-15T09:04:57Z</time>
      </trkpt>
      <trkpt lat="48.54978" lon="2.10821">
        <ele>125</ele>
        <time>2022-01-15T09:04:55Z</time>
      </trkpt>
      <trkpt lat="48.54976" lon="2.10823">
        <ele>124</ele>
        <time>2022-01-15T09:04:53Z</time>
      </trkpt>
      <trkpt lat="48.54973" lon="2.10826">
        <ele>124</ele>
        <time>2022-01-15T09:04:50Z</time>
      </trkpt>
      <trkpt lat="48.5497" lon="2.10828">
        <ele>124</ele>
        <time>2022-01-15T09:04:48Z</time>
      </trkpt>
      <trkpt lat="48.54967" lon="2.10829">
        <ele>124</ele>
        <time>2022-01-15T09:04:46Z</time>
      </trkpt>
      <trkpt lat="48.54964" lon="2.1083">
        <ele>124</ele>
        <time>2022-01-15T09:04:43Z</time>
      </trkpt>
      <trkpt lat="48.54963" lon="2.10832">
        <ele>124</ele>
        <time>2022-01-15T09:04:39Z</time>
      </trkpt>
      <trkpt lat="48.54964" lon="2.10834">
        <ele>123</ele>
        <time>2022-01-15T09:04:23Z</time>
      </trkpt>
      <trkpt lat="48.54961" lon="2.10835">
        <ele>123</ele>
        <time>2022-01-15T09:04:21Z</time>
      </trkpt>
      <trkpt lat="48.54957" lon="2.10836">
        <ele>123</ele>
        <time>2022-01-15T09:04:18Z</time>
      </trkpt>
      <trkpt lat="48.54954" lon="2.10835">
        <ele>124</ele>
        <time>2022-01-15T09:04:15Z</time>
      </trkpt>
      <trkpt lat="48.54952" lon="2.10832">
        <ele>124</ele>
        <time>2022-01-15T09:04:13Z</time>
      </trkpt>
      <trkpt lat="48.5495" lon="2.10828">
        <ele>123</ele>
        <time>2022-01-15T09:04:10Z</time>
      </trkpt>
      <trkpt lat="48.5495" lon="2.10823">
        <ele>123</ele>
        <time>2022-01-15T09:04:06Z</time>
      </trkpt>
      <trkpt lat="48.5495" lon="2.10818">
        <ele>123</ele>
        <time>2022-01-15T09:04:04Z</time>
      </trkpt>
      <trkpt lat="48.54949" lon="2.10813">
        <ele>122</ele>
        <time>2022-01-15T09:04:01Z</time>
      </trkpt>
      <trkpt lat="48.54949" lon="2.10808">
        <ele>122</ele>
        <time>2022-01-15T09:03:58Z</time>
      </trkpt>
      <trkpt lat="48.54949" lon="2.10803">
        <ele>121</ele>
        <time>2022-01-15T09:03:54Z</time>
      </trkpt>
      <trkpt lat="48.54948" lon="2.10798">
        <ele>121</ele>
        <time>2022-01-15T09:03:51Z</time>
      </trkpt>
      <trkpt lat="48.54948" lon="2.10793">
        <ele>120</ele>
        <time>2022-01-15T09:03:48Z</time>
      </trkpt>
      <trkpt lat="48.54947" lon="2.10789">
        <ele>119</ele>
        <time>2022-01-15T09:03:45Z</time>
      </trkpt>
      <trkpt lat="48.54946" lon="2.10785">
        <ele>119</ele>
        <time>2022-01-15T09:03:43Z</time>
      </trkpt>
      <trkpt lat="48.54945" lon="2.1078">
        <ele>118</ele>
        <time>2022-01-15T09:03:40Z</time>
      </trkpt>
      <trkpt lat="48.54944" lon="2.10777">
        <ele>118</ele>
        <time>2022-01-15T09:03:38Z</time>
      </trkpt>
      <trkpt lat="48.54944" lon="2.10772">
        <ele>118</ele>
        <time>2022-01-15T09:03:37Z</time>
      </trkpt>
      <trkpt lat="48.54944" lon="2.10768">
        <ele>117</ele>
        <time>2022-01-15T09:03:33Z</time>
      </trkpt>
      <trkpt lat="48.54943" lon="2.10763">
        <ele>116</ele>
        <time>2022-01-15T09:03:31Z</time>
      </trkpt>
      <trkpt lat="48.54942" lon="2.10758">
        <ele>115</ele>
        <time>2022-01-15T09:03:28Z</time>
      </trkpt>
      <trkpt lat="48.54941" lon="2.10753">
        <ele>115</ele>
        <time>2022-01-15T09:03:25Z</time>
      </trkpt>
      <trkpt lat="48.54939" lon="2.10749">
        <ele>114</ele>
        <time>2022-01-15T09:03:22Z</time>
      </trkpt>
      <trkpt lat="48.54937" lon="2.10745">
        <ele>114</ele>
        <time>2022-01-15T09:03:19Z</time>
      </trkpt>
      <trkpt lat="48.54935" lon="2.1074">
        <ele>113</ele>
        <time>2022-01-15T09:03:16Z</time>
      </trkpt>
      <trkpt lat="48.54934" lon="2.10736">
        <ele>113</ele>
        <time>2022-01-15T09:03:14Z</time>
      </trkpt>
      <trkpt lat="48.54932" lon="2.10733">
        <ele>113</ele>
        <time>2022-01-15T09:03:11Z</time>
      </trkpt>
      <trkpt lat="48.5493" lon="2.10729">
        <ele>112</ele>
        <time>2022-01-15T09:03:09Z</time>
      </trkpt>
      <trkpt lat="48.54929" lon="2.10724">
        <ele>112</ele>
        <time>2022-01-15T09:03:07Z</time>
      </trkpt>
      <trkpt lat="48.54927" lon="2.10719">
        <ele>111</ele>
        <time>2022-01-15T09:03:03Z</time>
      </trkpt>
      <trkpt lat="48.54926" lon="2.10714">
        <ele>111</ele>
        <time>2022-01-15T09:03:00Z</time>
      </trkpt>
      <trkpt lat="48.54926" lon="2.10708">
        <ele>111</ele>
        <time>2022-01-15T09:02:57Z</time>
      </trkpt>
      <trkpt lat="48.54925" lon="2.10703">
        <ele>111</ele>
        <time>2022-01-15T09:02:54Z</time>
      </trkpt>
      <trkpt lat="48.54924" lon="2.10699">
        <ele>110</ele>
        <time>2022-01-15T09:02:51Z</time>
      </trkpt>
      <trkpt lat="48.54923" lon="2.10694">
        <ele>110</ele>
        <time>2022-01-15T09:02:49Z</time>
      </trkpt>
      <trkpt lat="48.54923" lon="2.10689">
        <ele>110</ele>
        <time>2022-01-15T09:02:46Z</time>
      </trkpt>
      <trkpt lat="48.54922" lon="2.10683">
        <ele>110</ele>
        <time>2022-01-15T09:02:44Z</time>
      </trkpt>
      <trkpt lat="48.54921" lon="2.10679">
        <ele>109</ele>
        <time>2022-01-15T09:02:42Z</time>
      </trkpt>
      <trkpt lat="48.54918" lon="2.10677">
        <ele>109</ele>
        <time>2022-01-15T09:02:39Z</time>
      </trkpt>
      <trkpt lat="48.54915" lon="2.10674">
        <ele>109</ele>
        <time>2022-01-15T09:02:37Z</time>
      </trkpt>
      <trkpt lat="48.54913" lon="2.10671">
        <ele>109</ele>
        <time>2022-01-15T09:02:35Z</time>
      </trkpt>
      <trkpt lat="48.54909" lon="2.10669">
        <ele>108</ele>
        <time>2022-01-15T09:02:32Z</time>
      </trkpt>
      <trkpt lat="48.54907" lon="2.10666">
        <ele>108</ele>
        <time>2022-01-15T09:02:29Z</time>
      </trkpt>
      <trkpt lat="48.54904" lon="2.10663">
        <ele>108</ele>
        <time>2022-01-15T09:02:27Z</time>
      </trkpt>
      <trkpt lat="48.54902" lon="2.1066">
        <ele>108</ele>
        <time>2022-01-15T09:02:24Z</time>
      </trkpt>
      <trkpt lat="48.54901" lon="2.10656">
        <ele>107</ele>
        <time>2022-01-15T09:02:21Z</time>
      </trkpt>
      <trkpt lat="48.54899" lon="2.10652">
        <ele>107</ele>
        <time>2022-01-15T09:02:18Z</time>
      </trkpt>
      <trkpt lat="48.54897" lon="2.10649">
        <ele>107</ele>
        <time>2022-01-15T09:02:15Z</time>
      </trkpt>
      <trkpt lat="48.54895" lon="2.10644">
        <ele>106</ele>
        <time>2022-01-15T09:02:12Z</time>
      </trkpt>
      <trkpt lat="48.54892" lon="2.10642">
        <ele>106</ele>
        <time>2022-01-15T09:02:09Z</time>
      </trkpt>
      <trkpt lat="48.5489" lon="2.10637">
        <ele>106</ele>
        <time>2022-01-15T09:02:07Z</time>
      </trkpt>
      <trkpt lat="48.54888" lon="2.10633">
        <ele>105</ele>
        <time>2022-01-15T09:02:04Z</time>
      </trkpt>
      <trkpt lat="48.54885" lon="2.1063">
        <ele>105</ele>
        <time>2022-01-15T09:02:02Z</time>
      </trkpt>
      <trkpt lat="48.54882" lon="2.10628">
        <ele>105</ele>
        <time>2022-01-15T09:01:59Z</time>
      </trkpt>
      <trkpt lat="48.5488" lon="2.10627">
        <ele>105</ele>
        <time>2022-01-15T09:01:57Z</time>
      </trkpt>
      <trkpt lat="48.54878" lon="2.10629">
        <ele>104</ele>
        <time>2022-01-15T09:01:54Z</time>
      </trkpt>
      <trkpt lat="48.54875" lon="2.10626">
        <ele>104</ele>
        <time>2022-01-15T09:01:50Z</time>
      </trkpt>
      <trkpt lat="48.54872" lon="2.10624">
        <ele>103</ele>
        <time>2022-01-15T09:01:47Z</time>
      </trkpt>
      <trkpt lat="48.54869" lon="2.10621">
        <ele>102</ele>
        <time>2022-01-15T09:01:43Z</time>
      </trkpt>
      <trkpt lat="48.54866" lon="2.10619">
        <ele>102</ele>
        <time>2022-01-15T09:01:41Z</time>
      </trkpt>
      <trkpt lat="48.54863" lon="2.10616">
        <ele>102</ele>
        <time>2022-01-15T09:01:39Z</time>
      </trkpt>
      <trkpt lat="48.54861" lon="2.10614">
        <ele>101</ele>
        <time>2022-01-15T09:01:37Z</time>
      </trkpt>
      <trkpt lat="48.54858" lon="2.10611">
        <ele>101</ele>
        <time>2022-01-15T09:01:34Z</time>
      </trkpt>
      <trkpt lat="48.54855" lon="2.10609">
        <ele>101</ele>
        <time>2022-01-15T09:01:32Z</time>
      </trkpt>
      <trkpt lat="48.54852" lon="2.10607">
        <ele>100</ele>
        <time>2022-01-15T09:01:29Z</time>
      </trkpt>
      <trkpt lat="48.54849" lon="2.10605">
        <ele>100</ele>
        <time>2022-01-15T09:01:26Z</time>
      </trkpt>
      <trkpt lat="48.54846" lon="2.10602">
        <ele>100</ele>
        <time>2022-01-15T09:01:23Z</time>
      </trkpt>
      <trkpt lat="48.54844" lon="2.10598">
        <ele>100</ele>
        <time>2022-01-15T09:01:21Z</time>
      </trkpt>
      <trkpt lat="48.54842" lon="2.10595">
        <ele>100</ele>
        <time>2022-01-15T09:01:18Z</time>
      </trkpt>
      <trkpt lat="48.5484" lon="2.10593">
        <ele>99</ele>
        <time>2022-01-15T09:01:16Z</time>
      </trkpt>
      <trkpt lat="48.54838" lon="2.1059">
        <ele>99</ele>
        <time>2022-01-15T09:01:14Z</time>
      </trkpt>
      <trkpt lat="48.54835" lon="2.10587">
        <ele>99</ele>
        <time>2022-01-15T09:01:11Z</time>
      </trkpt>
      <trkpt lat="48.54833" lon="2.10585">
        <ele>98</ele>
        <time>2022-01-15T09:01:09Z</time>
      </trkpt>
      <trkpt lat="48.5483" lon="2.10582">
        <ele>98</ele>
        <time>2022-01-15T09:01:06Z</time>
      </trkpt>
      <trkpt lat="48.54827" lon="2.10579">
        <ele>97</ele>
        <time>2022-01-15T09:01:03Z</time>
      </trkpt>
      <trkpt lat="48.54824" lon="2.10576">
        <ele>97</ele>
        <time>2022-01-15T09:01:00Z</time>
      </trkpt>
      <trkpt lat="48.54822" lon="2.10573">
        <ele>96</ele>
        <time>2022-01-15T09:00:57Z</time>
      </trkpt>
      <trkpt lat="48.5482" lon="2.1057">
        <ele>96</ele>
        <time>2022-01-15T09:00:55Z</time>
      </trkpt>
      <trkpt lat="48.54817" lon="2.10566">
        <ele>96</ele>
        <time>2022-01-15T09:00:52Z</time>
      </trkpt>
      <trkpt lat="48.54815" lon="2.10563">
        <ele>95</ele>
        <time>2022-01-15T09:00:50Z</time>
      </trkpt>
      <trkpt lat="48.54813" lon="2.1056">
        <ele>95</ele>
        <time>2022-01-15T09:00:48Z</time>
      </trkpt>
      <trkpt lat="48.54811" lon="2.10556">
        <ele>95</ele>
        <time>2022-01-15T09:00:45Z</time>
      </trkpt>
      <trkpt lat="48.54808" lon="2.10554">
        <ele>95</ele>
        <time>2022-01-15T09:00:43Z</time>
      </trkpt>
      <trkpt lat="48.54805" lon="2.10551">
        <ele>94</ele>
        <time>2022-01-15T09:00:41Z</time>
      </trkpt>
      <trkpt lat="48.54803" lon="2.10547">
        <ele>94</ele>
        <time>2022-01-15T09:00:38Z</time>
      </trkpt>
      <trkpt lat="48.548" lon="2.10545">
        <ele>94</ele>
        <time>2022-01-15T09:00:36Z</time>
      </trkpt>
      <trkpt lat="48.54798" lon="2.10542">
        <ele>94</ele>
        <time>2022-01-15T09:00:33Z</time>
      </trkpt>
      <trkpt lat="48.54795" lon="2.10539">
        <ele>93</ele>
        <time>2022-01-15T09:00:30Z</time>
      </trkpt>
      <trkpt lat="48.54793" lon="2.10536">
        <ele>93</ele>
        <time>2022-01-15T09:00:28Z</time>
      </trkpt>
      <trkpt lat="48.54791" lon="2.10532">
        <ele>93</ele>
        <time>2022-01-15T09:00:25Z</time>
      </trkpt>
      <trkpt lat="48.5479" lon="2.10528">
        <ele>93</ele>
        <time>2022-01-15T09:00:23Z</time>
      </trkpt>
      <trkpt lat="48.54789" lon="2.10524">
        <ele>92</ele>
        <time>2022-01-15T09:00:21Z</time>
      </trkpt>
      <trkpt lat="48.54787" lon="2.1052">
        <ele>92</ele>
        <time>2022-01-15T09:00:19Z</time>
      </trkpt>
      <trkpt lat="48.54786" lon="2.10515">
        <ele>92</ele>
        <time>2022-01-15T09:00:16Z</time>
      </trkpt>
      <trkpt lat="48.54783" lon="2.10511">
        <ele>91</ele>
        <time>2022-01-15T09:00:13Z</time>
      </trkpt>
      <trkpt lat="48.54781" lon="2.10507">
        <ele>91</ele>
        <time>2022-01-15T09:00:10Z</time>
      </trkpt>
      <trkpt lat="48.54778" lon="2.10503">
        <ele>90</ele>
        <time>2022-01-15T09:00:07Z</time>
      </trkpt>
      <trkpt lat="48.54776" lon="2.10499">
        <ele>90</ele>
        <time>2022-01-15T09:00:05Z</time>
      </trkpt>
      <trkpt lat="48.54773" lon="2.10497">
        <ele>90</ele>
        <time>2022-01-15T09:00:02Z</time>
      </trkpt>
      <trkpt lat="48.54771" lon="2.10495">
        <ele>89</ele>
        <time>2022-01-15T08:59:59Z</time>
      </trkpt>
      <trkpt lat="48.54769" lon="2.10495">
        <ele>89</ele>
        <time>2022-01-15T08:59:56Z</time>
      </trkpt>
      <trkpt lat="48.54767" lon="2.10499">
        <ele>89</ele>
        <time>2022-01-15T08:59:54Z</time>
      </trkpt>
      <trkpt lat="48.54767" lon="2.10503">
        <ele>89</ele>
        <time>2022-01-15T08:59:52Z</time>
      </trkpt>
      <trkpt lat="48.54766" lon="2.10507">
        <ele>89</ele>
        <time>2022-01-15T08:59:50Z</time>
      </trkpt>
      <trkpt lat="48.54765" lon="2.10511">
        <ele>89</ele>
        <time>2022-01-15T08:59:48Z</time>
      </trkpt>
      <trkpt lat="48.54764" lon="2.10516">
        <ele>89</ele>
        <time>2022-01-15T08:59:46Z</time>
      </trkpt>
      <trkpt lat="48.54763" lon="2.1052">
        <ele>89</ele>
        <time>2022-01-15T08:59:44Z</time>
      </trkpt>
      <trkpt lat="48.54762" lon="2.10526">
        <ele>88</ele>
        <time>2022-01-15T08:59:41Z</time>
      </trkpt>
      <trkpt lat="48.5476" lon="2.1053">
        <ele>88</ele>
        <time>2022-01-15T08:59:39Z</time>
      </trkpt>
      <trkpt lat="48.54759" lon="2.10536">
        <ele>88</ele>
        <time>2022-01-15T08:59:36Z</time>
      </trkpt>
      <trkpt lat="48.54758" lon="2.10541">
        <ele>88</ele>
        <time>2022-01-15T08:59:33Z</time>
      </trkpt>
      <trkpt lat="48.54756" lon="2.10546">
        <ele>88</ele>
        <time>2022-01-15T08:59:30Z</time>
      </trkpt>
      <trkpt lat="48.54755" lon="2.1055">
        <ele>87</ele>
        <time>2022-01-15T08:59:28Z</time>
      </trkpt>
      <trkpt lat="48.54754" lon="2.10554">
        <ele>87</ele>
        <time>2022-01-15T08:59:26Z</time>
      </trkpt>
      <trkpt lat="48.54753" lon="2.10558">
        <ele>87</ele>
        <time>2022-01-15T08:59:24Z</time>
      </trkpt>
      <trkpt lat="48.54751" lon="2.10563">
        <ele>87</ele>
        <time>2022-01-15T08:59:21Z</time>
      </trkpt>
      <trkpt lat="48.5475" lon="2.10567">
        <ele>87</ele>
        <time>2022-01-15T08:59:19Z</time>
      </trkpt>
      <trkpt lat="48.54749" lon="2.10572">
        <ele>87</ele>
        <time>2022-01-15T08:59:17Z</time>
      </trkpt>
      <trkpt lat="48.54747" lon="2.10576">
        <ele>87</ele>
        <time>2022-01-15T08:59:15Z</time>
      </trkpt>
      <trkpt lat="48.54746" lon="2.1058">
        <ele>86</ele>
        <time>2022-01-15T08:59:13Z</time>
      </trkpt>
      <trkpt lat="48.54744" lon="2.10583">
        <ele>86</ele>
        <time>2022-01-15T08:59:11Z</time>
      </trkpt>
      <trkpt lat="48.54741" lon="2.10586">
        <ele>86</ele>
        <time>2022-01-15T08:59:08Z</time>
      </trkpt>
      <trkpt lat="48.54738" lon="2.10586">
        <ele>86</ele>
        <time>2022-01-15T08:59:06Z</time>
      </trkpt>
      <trkpt lat="48.54735" lon="2.10583">
        <ele>86</ele>
        <time>2022-01-15T08:59:03Z</time>
      </trkpt>
      <trkpt lat="48.54731" lon="2.10581">
        <ele>87</ele>
        <time>2022-01-15T08:59:00Z</time>
      </trkpt>
      <trkpt lat="48.54728" lon="2.10577">
        <ele>87</ele>
        <time>2022-01-15T08:58:57Z</time>
      </trkpt>
      <trkpt lat="48.54726" lon="2.10574">
        <ele>87</ele>
        <time>2022-01-15T08:58:55Z</time>
      </trkpt>
      <trkpt lat="48.54724" lon="2.1057">
        <ele>87</ele>
        <time>2022-01-15T08:58:53Z</time>
      </trkpt>
      <trkpt lat="48.54722" lon="2.10567">
        <ele>88</ele>
        <time>2022-01-15T08:58:51Z</time>
      </trkpt>
      <trkpt lat="48.5472" lon="2.10564">
        <ele>88</ele>
        <time>2022-01-15T08:58:49Z</time>
      </trkpt>
      <trkpt lat="48.54718" lon="2.1056">
        <ele>88</ele>
        <time>2022-01-15T08:58:47Z</time>
      </trkpt>
      <trkpt lat="48.54716" lon="2.10557">
        <ele>88</ele>
        <time>2022-01-15T08:58:45Z</time>
      </trkpt>
      <trkpt lat="48.54714" lon="2.10554">
        <ele>89</ele>
        <time>2022-01-15T08:58:43Z</time>
      </trkpt>
      <trkpt lat="48.54711" lon="2.10551">
        <ele>89</ele>
        <time>2022-01-15T08:58:41Z</time>
      </trkpt>
      <trkpt lat="48.54709" lon="2.10548">
        <ele>89</ele>
        <time>2022-01-15T08:58:39Z</time>
      </trkpt>
      <trkpt lat="48.54707" lon="2.10545">
        <ele>89</ele>
        <time>2022-01-15T08:58:37Z</time>
      </trkpt>
      <trkpt lat="48.54705" lon="2.10542">
        <ele>90</ele>
        <time>2022-01-15T08:58:35Z</time>
      </trkpt>
      <trkpt lat="48.54703" lon="2.10539">
        <ele>90</ele>
        <time>2022-01-15T08:58:33Z</time>
      </trkpt>
      <trkpt lat="48.54701" lon="2.10536">
        <ele>90</ele>
        <time>2022-01-15T08:58:31Z</time>
      </trkpt>
      <trkpt lat="48.54698" lon="2.10533">
        <ele>91</ele>
        <time>2022-01-15T08:58:29Z</time>
      </trkpt>
      <trkpt lat="48.54696" lon="2.1053">
        <ele>91</ele>
        <time>2022-01-15T08:58:27Z</time>
      </trkpt>
      <trkpt lat="48.54694" lon="2.10527">
        <ele>91</ele>
        <time>2022-01-15T08:58:25Z</time>
      </trkpt>
      <trkpt lat="48.54692" lon="2.10523">
        <ele>92</ele>
        <time>2022-01-15T08:58:23Z</time>
      </trkpt>
      <trkpt lat="48.54689" lon="2.1052">
        <ele>92</ele>
        <time>2022-01-15T08:58:21Z</time>
      </trkpt>
      <trkpt lat="48.54687" lon="2.10517">
        <ele>92</ele>
        <time>2022-01-15T08:58:19Z</time>
      </trkpt>
      <trkpt lat="48.54685" lon="2.10515">
        <ele>92</ele>
        <time>2022-01-15T08:58:17Z</time>
      </trkpt>
      <trkpt lat="48.54682" lon="2.10511">
        <ele>93</ele>
        <time>2022-01-15T08:58:15Z</time>
      </trkpt>
      <trkpt lat="48.5468" lon="2.10508">
        <ele>93</ele>
        <time>2022-01-15T08:58:13Z</time>
      </trkpt>
      <trkpt lat="48.54678" lon="2.10505">
        <ele>93</ele>
        <time>2022-01-15T08:58:11Z</time>
      </trkpt>
      <trkpt lat="48.54675" lon="2.10502">
        <ele>94</ele>
        <time>2022-01-15T08:58:09Z</time>
      </trkpt>
      <trkpt lat="48.54673" lon="2.10499">
        <ele>94</ele>
        <time>2022-01-15T08:58:07Z</time>
      </trkpt>
      <trkpt lat="48.54671" lon="2.10496">
        <ele>94</ele>
        <time>2022-01-15T08:58:05Z</time>
      </trkpt>
      <trkpt lat="48.54669" lon="2.10492">
        <ele>94</ele>
        <time>2022-01-15T08:58:03Z</time>
      </trkpt>
      <trkpt lat="48.54667" lon="2.10489">
        <ele>95</ele>
        <time>2022-01-15T08:58:01Z</time>
      </trkpt>
      <trkpt lat="48.54665" lon="2.10486">
        <ele>95</ele>
        <time>2022-01-15T08:57:59Z</time>
      </trkpt>
      <trkpt lat="48.54663" lon="2.10482">
        <ele>95</ele>
        <time>2022-01-15T08:57:57Z</time>
      </trkpt>
      <trkpt lat="48.54661" lon="2.10479">
        <ele>96</ele>
        <time>2022-01-15T08:57:55Z</time>
      </trkpt>
      <trkpt lat="48.54659" lon="2.10475">
        <ele>96</ele>
        <time>2022-01-15T08:57:53Z</time>
      </trkpt>
      <trkpt lat="48.54657" lon="2.10472">
        <ele>96</ele>
        <time>2022-01-15T08:57:51Z</time>
      </trkpt>
      <trkpt lat="48.54654" lon="2.10468">
        <ele>96</ele>
        <time>2022-01-15T08:57:49Z</time>
      </trkpt>
      <trkpt lat="48.54652" lon="2.10465">
        <ele>96</ele>
        <time>2022-01-15T08:57:47Z</time>
      </trkpt>
      <trkpt lat="48.5465" lon="2.10461">
        <ele>97</ele>
        <time>2022-01-15T08:57:45Z</time>
      </trkpt>
      <trkpt lat="48.54648" lon="2.10458">
        <ele>97</ele>
        <time>2022-01-15T08:57:43Z</time>
      </trkpt>
      <trkpt lat="48.54646" lon="2.10454">
        <ele>97</ele>
        <time>2022-01-15T08:57:41Z</time>
      </trkpt>
      <trkpt lat="48.54644" lon="2.10451">
        <ele>98</ele>
        <time>2022-01-15T08:57:39Z</time>
      </trkpt>
      <trkpt lat="48.54642" lon="2.10447">
        <ele>98</ele>
        <time>2022-01-15T08:57:37Z</time>
      </trkpt>
      <trkpt lat="48.54639" lon="2.10444">
        <ele>98</ele>
        <time>2022-01-15T08:57:35Z</time>
      </trkpt>
      <trkpt lat="48.54637" lon="2.1044">
        <ele>98</ele>
        <time>2022-01-15T08:57:33Z</time>
      </trkpt>
      <trkpt lat="48.54635" lon="2.10437">
        <ele>99</ele>
        <time>2022-01-15T08:57:31Z</time>
      </trkpt>
      <trkpt lat="48.54633" lon="2.10433">
        <ele>99</ele>
        <time>2022-01-15T08:57:29Z</time>
      </trkpt>
      <trkpt lat="48.54631" lon="2.1043">
        <ele>99</ele>
        <time>2022-01-15T08:57:27Z</time>
      </trkpt>
      <trkpt lat="48.54629" lon="2.10426">
        <ele>99</ele>
        <time>2022-01-15T08:57:25Z</time>
      </trkpt>
      <trkpt lat="48.54627" lon="2.10423">
        <ele>99</ele>
        <time>2022-01-15T08:57:23Z</time>
      </trkpt>
      <trkpt lat="48.54625" lon="2.10419">
        <ele>100</ele>
        <time>2022-01-15T08:57:21Z</time>
      </trkpt>
      <trkpt lat="48.54624" lon="2.10416">
        <ele>100</ele>
        <time>2022-01-15T08:57:19Z</time>
      </trkpt>
      <trkpt lat="48.54622" lon="2.10412">
        <ele>100</ele>
        <time>2022-01-15T08:57:17Z</time>
      </trkpt>
      <trkpt lat="48.5462" lon="2.10408">
        <ele>101</ele>
        <time>2022-01-15T08:57:15Z</time>
      </trkpt>
      <trkpt lat="48.54619" lon="2.10404">
        <ele>101</ele>
        <time>2022-01-15T08:57:13Z</time>
      </trkpt>
      <trkpt lat="48.54618" lon="2.104">
        <ele>101</ele>
        <time>2022-01-15T08:57:11Z</time>
      </trkpt>
      <trkpt lat="48.54617" lon="2.10396">
        <ele>101</ele>
        <time>2022-01-15T08:57:09Z</time>
      </trkpt>
      <trkpt lat="48.54615" lon="2.10392">
        <ele>102</ele>
        <time>2022-01-15T08:57:07Z</time>
      </trkpt>
      <trkpt lat="48.54614" lon="2.10388">
        <ele>102</ele>
        <time>2022-01-15T08:57:05Z</time>
      </trkpt>
      <trkpt lat="48.54614" lon="2.10384">
        <ele>102</ele>
        <time>2022-01-15T08:57:03Z</time>
      </trkpt>
      <trkpt lat="48.54612" lon="2.1038">
        <ele>103</ele>
        <time>2022-01-15T08:57:01Z</time>
      </trkpt>
      <trkpt lat="48.54612" lon="2.10376">
        <ele>103</ele>
        <time>2022-01-15T08:56:59Z</time>
      </trkpt>
      <trkpt lat="48.54611" lon="2.10371">
        <ele>104</ele>
        <time>2022-01-15T08:56:57Z</time>
      </trkpt>
      <trkpt lat="48.5461" lon="2.10366">
        <ele>104</ele>
        <time>2022-01-15T08:56:55Z</time>
      </trkpt>
      <trkpt lat="48.54609" lon="2.10362">
        <ele>104</ele>
        <time>2022-01-15T08:56:53Z</time>
      </trkpt>
      <trkpt lat="48.54608" lon="2.10357">
        <ele>104</ele>
        <time>2022-01-15T08:56:51Z</time>
      </trkpt>
      <trkpt lat="48.54607" lon="2.10353">
        <ele>104</ele>
        <time>2022-01-15T08:56:49Z</time>
      </trkpt>
      <trkpt lat="48.54607" lon="2.10348">
        <ele>105</ele>
        <time>2022-01-15T08:56:47Z</time>
      </trkpt>
      <trkpt lat="48.54606" lon="2.10344">
        <ele>105</ele>
        <time>2022-01-15T08:56:45Z</time>
      </trkpt>
      <trkpt lat="48.54605" lon="2.1034">
        <ele>105</ele>
        <time>2022-01-15T08:56:43Z</time>
      </trkpt>
      <trkpt lat="48.54603" lon="2.10335">
        <ele>105</ele>
        <time>2022-01-15T08:56:41Z</time>
      </trkpt>
      <trkpt lat="48.54602" lon="2.10331">
        <ele>106</ele>
        <time>2022-01-15T08:56:39Z</time>
      </trkpt>
      <trkpt lat="48.54602" lon="2.10327">
        <ele>106</ele>
        <time>2022-01-15T08:56:37Z</time>
      </trkpt>
      <trkpt lat="48.54601" lon="2.10323">
        <ele>106</ele>
        <time>2022-01-15T08:56:35Z</time>
      </trkpt>
      <trkpt lat="48.546" lon="2.10318">
        <ele>106</ele>
        <time>2022-01-15T08:56:33Z</time>
      </trkpt>
      <trkpt lat="48.54599" lon="2.10314">
        <ele>106</ele>
        <time>2022-01-15T08:56:31Z</time>
      </trkpt>
      <trkpt lat="48.54597" lon="2.1031">
        <ele>107</ele>
        <time>2022-01-15T08:56:29Z</time>
      </trkpt>
      <trkpt lat="48.54596" lon="2.10305">
        <ele>107</ele>
        <time>2022-01-15T08:56:27Z</time>
      </trkpt>
      <trkpt lat="48.54595" lon="2.10301">
        <ele>107</ele>
        <time>2022-01-15T08:56:25Z</time>
      </trkpt>
      <trkpt lat="48.54594" lon="2.10297">
        <ele>107</ele>
        <time>2022-01-15T08:56:23Z</time>
      </trkpt>
      <trkpt lat="48.54592" lon="2.10292">
        <ele>107</ele>
        <time>2022-01-15T08:56:21Z</time>
      </trkpt>
      <trkpt lat="48.54591" lon="2.10288">
        <ele>107</ele>
        <time>2022-01-15T08:56:19Z</time>
      </trkpt>
      <trkpt lat="48.5459" lon="2.10284">
        <ele>108</ele>
        <time>2022-01-15T08:56:17Z</time>
      </trkpt>
      <trkpt lat="48.54589" lon="2.10279">
        <ele>108</ele>
        <time>2022-01-15T08:56:15Z</time>
      </trkpt>
      <trkpt lat="48.54587" lon="2.10275">
        <ele>108</ele>
        <time>2022-01-15T08:56:13Z</time>
      </trkpt>
      <trkpt lat="48.54586" lon="2.1027">
        <ele>108</ele>
        <time>2022-01-15T08:56:11Z</time>
      </trkpt>
      <trkpt lat="48.54585" lon="2.10266">
        <ele>108</ele>
        <time>2022-01-15T08:56:09Z</time>
      </trkpt>
      <trkpt lat="48.54584" lon="2.10261">
        <ele>109</ele>
        <time>2022-01-15T08:56:07Z</time>
      </trkpt>
      <trkpt lat="48.54583" lon="2.10257">
        <ele>109</ele>
        <time>2022-01-15T08:56:05Z</time>
      </trkpt>
      <trkpt lat="48.54582" lon="2.10252">
        <ele>109</ele>
        <time>2022-01-15T08:56:03Z</time>
      </trkpt>
      <trkpt lat="48.5458" lon="2.10248">
        <ele>109</ele>
        <time>2022-01-15T08:56:01Z</time>
      </trkpt>
      <trkpt lat="48.54579" lon="2.10243">
        <ele>109</ele>
        <time>2022-01-15T08:55:59Z</time>
      </trkpt>
      <trkpt lat="48.54578" lon="2.10239">
        <ele>109</ele>
        <time>2022-01-15T08:55:57Z</time>
      </trkpt>
      <trkpt lat="48.54578" lon="2.10234">
        <ele>109</ele>
        <time>2022-01-15T08:55:55Z</time>
      </trkpt>
      <trkpt lat="48.54577" lon="2.1023">
        <ele>109</ele>
        <time>2022-01-15T08:55:53Z</time>
      </trkpt>
      <trkpt lat="48.54577" lon="2.10225">
        <ele>110</ele>
        <time>2022-01-15T08:55:51Z</time>
      </trkpt>
      <trkpt lat="48.54576" lon="2.1022">
        <ele>110</ele>
        <time>2022-01-15T08:55:49Z</time>
      </trkpt>
      <trkpt lat="48.54576" lon="2.10216">
        <ele>110</ele>
        <time>2022-01-15T08:55:47Z</time>
      </trkpt>
      <trkpt lat="48.54576" lon="2.10211">
        <ele>110</ele>
        <time>2022-01-15T08:55:45Z</time>
      </trkpt>
      <trkpt lat="48.54575" lon="2.10206">
        <ele>110</ele>
        <time>2022-01-15T08:55:43Z</time>
      </trkpt>
      <trkpt lat="48.54575" lon="2.10201">
        <ele>110</ele>
        <time>2022-01-15T08:55:41Z</time>
      </trkpt>
      <trkpt lat="48.54575" lon="2.10197">
        <ele>111</ele>
        <time>2022-01-15T08:55:39Z</time>
      </trkpt>
      <trkpt lat="48.54574" lon="2.10192">
        <ele>111</ele>
        <time>2022-01-15T08:55:37Z</time>
      </trkpt>
      <trkpt lat="48.54574" lon="2.10187">
        <ele>111</ele>
        <time>2022-01-15T08:55:35Z</time>
      </trkpt>
      <trkpt lat="48.54574" lon="2.10183">
        <ele>111</ele>
        <time>2022-01-15T08:55:33Z</time>
      </trkpt>
      <trkpt lat="48.54573" lon="2.10178">
        <ele>112</ele>
        <time>2022-01-15T08:55:31Z</time>
      </trkpt>
      <trkpt lat="48.54573" lon="2.10173">
        <ele>112</ele>
        <time>2022-01-15T08:55:29Z</time>
      </trkpt>
      <trkpt lat="48.54573" lon="2.10169">
        <ele>112</ele>
        <time>2022-01-15T08:55:27Z</time>
      </trkpt>
      <trkpt lat="48.54572" lon="2.10164">
        <ele>112</ele>
        <time>2022-01-15T08:55:25Z</time>
      </trkpt>
      <trkpt lat="48.54572" lon="2.10159">
        <ele>112</ele>
        <time>2022-01-15T08:55:23Z</time>
      </trkpt>
      <trkpt lat="48.54572" lon="2.10154">
        <ele>112</ele>
        <time>2022-01-15T08:55:21Z</time>
      </trkpt>
      <trkpt lat="48.54572" lon="2.10149">
        <ele>112</ele>
        <time>2022-01-15T08:55:19Z</time>
      </trkpt>
      <trkpt lat="48.54572" lon="2.10145">
        <ele>113</ele>
        <time>2022-01-15T08:55:17Z</time>
      </trkpt>
      <trkpt lat="48.54572" lon="2.1014">
        <ele>113</ele>
        <time>2022-01-15T08:55:15Z</time>
      </trkpt>
      <trkpt lat="48.54572" lon="2.10135">
        <ele>113</ele>
        <time>2022-01-15T08:55:13Z</time>
      </trkpt>
      <trkpt lat="48.54573" lon="2.10131">
        <ele>113</ele>
        <time>2022-01-15T08:55:11Z</time>
      </trkpt>
      <trkpt lat="48.54573" lon="2.10126">
        <ele>113</ele>
        <time>2022-01-15T08:55:09Z</time>
      </trkpt>
      <trkpt lat="48.54573" lon="2.10121">
        <ele>113</ele>
        <time>2022-01-15T08:55:07Z</time>
      </trkpt>
      <trkpt lat="48.54573" lon="2.10116">
        <ele>113</ele>
        <time>2022-01-15T08:55:05Z</time>
      </trkpt>
      <trkpt lat="48.54573" lon="2.10112">
        <ele>113</ele>
        <time>2022-01-15T08:55:03Z</time>
      </trkpt>
      <trkpt lat="48.54573" lon="2.10107">
        <ele>113</ele>
        <time>2022-01-15T08:55:01Z</time>
      </trkpt>
      <trkpt lat="48.54574" lon="2.10102">
        <ele>114</ele>
        <time>2022-01-15T08:54:59Z</time>
      </trkpt>
      <trkpt lat="48.54574" lon="2.10098">
        <ele>114</ele>
        <time>2022-01-15T08:54:57Z</time>
      </trkpt>
      <trkpt lat="48.54575" lon="2.10093">
        <ele>114</ele>
        <time>2022-01-15T08:54:55Z</time>
      </trkpt>
      <trkpt lat="48.54575" lon="2.10088">
        <ele>114</ele>
        <time>2022-01-15T08:54:53Z</time>
      </trkpt>
      <trkpt lat="48.54575" lon="2.10084">
        <ele>114</ele>
        <time>2022-01-15T08:54:51Z</time>
      </trkpt>
      <trkpt lat="48.54576" lon="2.10079">
        <ele>114</ele>
        <time>2022-01-15T08:54:49Z</time>
      </trkpt>
      <trkpt lat="48.54576" lon="2.10074">
        <ele>114</ele>
        <time>2022-01-15T08:54:47Z</time>
      </trkpt>
      <trkpt lat="48.54577" lon="2.10069">
        <ele>114</ele>
        <time>2022-01-15T08:54:45Z</time>
      </trkpt>
      <trkpt lat="48.54578" lon="2.10065">
        <ele>114</ele>
        <time>2022-01-15T08:54:43Z</time>
      </trkpt>
      <trkpt lat="48.54579" lon="2.10061">
        <ele>114</ele>
        <time>2022-01-15T08:54:41Z</time>
      </trkpt>
      <trkpt lat="48.5458" lon="2.10056">
        <ele>114</ele>
        <time>2022-01-15T08:54:39Z</time>
      </trkpt>
      <trkpt lat="48.54581" lon="2.10052">
        <ele>114</ele>
        <time>2022-01-15T08:54:37Z</time>
      </trkpt>
      <trkpt lat="48.54582" lon="2.10048">
        <ele>114</ele>
        <time>2022-01-15T08:54:35Z</time>
      </trkpt>
      <trkpt lat="48.54582" lon="2.10043">
        <ele>114</ele>
        <time>2022-01-15T08:54:33Z</time>
      </trkpt>
      <trkpt lat="48.54583" lon="2.10039">
        <ele>114</ele>
        <time>2022-01-15T08:54:31Z</time>
      </trkpt>
      <trkpt lat="48.54584" lon="2.10035">
        <ele>114</ele>
        <time>2022-01-15T08:54:29Z</time>
      </trkpt>
      <trkpt lat="48.54585" lon="2.1003">
        <ele>114</ele>
        <time>2022-01-15T08:54:27Z</time>
      </trkpt>
      <trkpt lat="48.54586" lon="2.10026">
        <ele>114</ele>
        <time>2022-01-15T08:54:25Z</time>
      </trkpt>
      <trkpt lat="48.54586" lon="2.10021">
        <ele>115</ele>
        <time>2022-01-15T08:54:23Z</time>
      </trkpt>
      <trkpt lat="48.54587" lon="2.10017">
        <ele>115</ele>
        <time>2022-01-15T08:54:21Z</time>
      </trkpt>
      <trkpt lat="48.54587" lon="2.10012">
        <ele>115</ele>
        <time>2022-01-15T08:54:19Z</time>
      </trkpt>
      <trkpt lat="48.54587" lon="2.10007">
        <ele>115</ele>
        <time>2022-01-15T08:54:17Z</time>
      </trkpt>
      <trkpt lat="48.54586" lon="2.10002">
        <ele>115</ele>
        <time>2022-01-15T08:54:15Z</time>
      </trkpt>
      <trkpt lat="48.54586" lon="2.09997">
        <ele>115</ele>
        <time>2022-01-15T08:54:13Z</time>
      </trkpt>
      <trkpt lat="48.54586" lon="2.09992">
        <ele>115</ele>
        <time>2022-01-15T08:54:11Z</time>
      </trkpt>
      <trkpt lat="48.54586" lon="2.09987">
        <ele>115</ele>
        <time>2022-01-15T08:54:09Z</time>
      </trkpt>
      <trkpt lat="48.54585" lon="2.09983">
        <ele>115</ele>
        <time>2022-01-15T08:54:07Z</time>
      </trkpt>
      <trkpt lat="48.54585" lon="2.09978">
        <ele>115</ele>
        <time>2022-01-15T08:54:05Z</time>
      </trkpt>
      <trkpt lat="48.54585" lon="2.09973">
        <ele>115</ele>
        <time>2022-01-15T08:54:03Z</time>
      </trkpt>
      <trkpt lat="48.54585" lon="2.09968">
        <ele>115</ele>
        <time>2022-01-15T08:54:01Z</time>
      </trkpt>
      <trkpt lat="48.54584" lon="2.09963">
        <ele>115</ele>
        <time>2022-01-15T08:53:59Z</time>
      </trkpt>
      <trkpt lat="48.54584" lon="2.09958">
        <ele>115</ele>
        <time>2022-01-15T08:53:57Z</time>
      </trkpt>
      <trkpt lat="48.54583" lon="2.09954">
        <ele>115</ele>
        <time>2022-01-15T08:53:55Z</time>
      </trkpt>
      <trkpt lat="48.54583" lon="2.09949">
        <ele>115</ele>
        <time>2022-01-15T08:53:53Z</time>
      </trkpt>
      <trkpt lat="48.54583" lon="2.09944">
        <ele>115</ele>
        <time>2022-01-15T08:53:51Z</time>
      </trkpt>
      <trkpt lat="48.54582" lon="2.09939">
        <ele>115</ele>
        <time>2022-01-15T08:53:49Z</time>
      </trkpt>
      <trkpt lat="48.54582" lon="2.09935">
        <ele>116</ele>
        <time>2022-01-15T08:53:47Z</time>
      </trkpt>
      <trkpt lat="48.54582" lon="2.0993">
        <ele>116</ele>
        <time>2022-01-15T08:53:45Z</time>
      </trkpt>
      <trkpt lat="48.54581" lon="2.09925">
        <ele>116</ele>
        <time>2022-01-15T08:53:43Z</time>
      </trkpt>
      <trkpt lat="48.54581" lon="2.0992">
        <ele>116</ele>
        <time>2022-01-15T08:53:41Z</time>
      </trkpt>
      <trkpt lat="48.54581" lon="2.09916">
        <ele>116</ele>
        <time>2022-01-15T08:53:39Z</time>
      </trkpt>
      <trkpt lat="48.54581" lon="2.09911">
        <ele>116</ele>
        <time>2022-01-15T08:53:37Z</time>
      </trkpt>
      <trkpt lat="48.54581" lon="2.09906">
        <ele>116</ele>
        <time>2022-01-15T08:53:35Z</time>
      </trkpt>
      <trkpt lat="48.5458" lon="2.09902">
        <ele>116</ele>
        <time>2022-01-15T08:53:33Z</time>
      </trkpt>
      <trkpt lat="48.5458" lon="2.09897">
        <ele>116</ele>
        <time>2022-01-15T08:53:31Z</time>
      </trkpt>
      <trkpt lat="48.5458" lon="2.09892">
        <ele>116</ele>
        <time>2022-01-15T08:53:29Z</time>
      </trkpt>
      <trkpt lat="48.54579" lon="2.09887">
        <ele>116</ele>
        <time>2022-01-15T08:53:27Z</time>
      </trkpt>
      <trkpt lat="48.54579" lon="2.09883">
        <ele>116</ele>
        <time>2022-01-15T08:53:25Z</time>
      </trkpt>
      <trkpt lat="48.54579" lon="2.09878">
        <ele>116</ele>
        <time>2022-01-15T08:53:23Z</time>
      </trkpt>
      <trkpt lat="48.54579" lon="2.09873">
        <ele>117</ele>
        <time>2022-01-15T08:53:21Z</time>
      </trkpt>
      <trkpt lat="48.54579" lon="2.09868">
        <ele>117</ele>
        <time>2022-01-15T08:53:19Z</time>
      </trkpt>
      <trkpt lat="48.54578" lon="2.09864">
        <ele>117</ele>
        <time>2022-01-15T08:53:17Z</time>
      </trkpt>
      <trkpt lat="48.54578" lon="2.09859">
        <ele>117</ele>
        <time>2022-01-15T08:53:15Z</time>
      </trkpt>
      <trkpt lat="48.54578" lon="2.09854">
        <ele>117</ele>
        <time>2022-01-15T08:53:13Z</time>
      </trkpt>
      <trkpt lat="48.54577" lon="2.0985">
        <ele>117</ele>
        <time>2022-01-15T08:53:11Z</time>
      </trkpt>
      <trkpt lat="48.54577" lon="2.09845">
        <ele>117</ele>
        <time>2022-01-15T08:53:09Z</time>
      </trkpt>
      <trkpt lat="48.54576" lon="2.0984">
        <ele>117</ele>
        <time>2022-01-15T08:53:07Z</time>
      </trkpt>
      <trkpt lat="48.54576" lon="2.09836">
        <ele>117</ele>
        <time>2022-01-15T08:53:05Z</time>
      </trkpt>
      <trkpt lat="48.54575" lon="2.09831">
        <ele>118</ele>
        <time>2022-01-15T08:53:03Z</time>
      </trkpt>
      <trkpt lat="48.54575" lon="2.09827">
        <ele>118</ele>
        <time>2022-01-15T08:53:01Z</time>
      </trkpt>
      <trkpt lat="48.54575" lon="2.09822">
        <ele>118</ele>
        <time>2022-01-15T08:52:59Z</time>
      </trkpt>
      <trkpt lat="48.54574" lon="2.09817">
        <ele>118</ele>
        <time>2022-01-15T08:52:57Z</time>
      </trkpt>
      <trkpt lat="48.54573" lon="2.09813">
        <ele>118</ele>
        <time>2022-01-15T08:52:55Z</time>
      </trkpt>
      <trkpt lat="48.54572" lon="2.09809">
        <ele>118</ele>
        <time>2022-01-15T08:52:53Z</time>
      </trkpt>
      <trkpt lat="48.54572" lon="2.09804">
        <ele>118</ele>
        <time>2022-01-15T08:52:51Z</time>
      </trkpt>
      <trkpt lat="48.5457" lon="2.098">
        <ele>119</ele>
        <time>2022-01-15T08:52:49Z</time>
      </trkpt>
      <trkpt lat="48.54569" lon="2.09796">
        <ele>119</ele>
        <time>2022-01-15T08:52:47Z</time>
      </trkpt>
      <trkpt lat="48.54568" lon="2.09791">
        <ele>119</ele>
        <time>2022-01-15T08:52:45Z</time>
      </trkpt>
      <trkpt lat="48.54567" lon="2.09787">
        <ele>119</ele>
        <time>2022-01-15T08:52:43Z</time>
      </trkpt>
      <trkpt lat="48.54565" lon="2.09783">
        <ele>119</ele>
        <time>2022-01-15T08:52:41Z</time>
      </trkpt>
      <trkpt lat="48.54564" lon="2.09779">
        <ele>119</ele>
        <time>2022-01-15T08:52:39Z</time>
      </trkpt>
      <trkpt lat="48.54562" lon="2.09775">
        <ele>120</ele>
        <time>2022-01-15T08:52:37Z</time>
      </trkpt>
      <trkpt lat="48.54561" lon="2.0977">
        <ele>120</ele>
        <time>2022-01-15T08:52:35Z</time>
      </trkpt>
      <trkpt lat="48.5456" lon="2.09766">
        <ele>120</ele>
        <time>2022-01-15T08:52:33Z</time>
      </trkpt>
      <trkpt lat="48.54559" lon="2.09762">
        <ele>120</ele>
        <time>2022-01-15T08:52:31Z</time>
      </trkpt>
      <trkpt lat="48.54557" lon="2.09758">
        <ele>121</ele>
        <time>2022-01-15T08:52:29Z</time>
      </trkpt>
      <trkpt lat="48.54556" lon="2.09753">
        <ele>121</ele>
        <time>2022-01-15T08:52:27Z</time>
      </trkpt>
      <trkpt lat="48.54555" lon="2.09749">
        <ele>121</ele>
        <time>2022-01-15T08:52:25Z</time>
      </trkpt>
      <trkpt lat="48.54553" lon="2.09745">
        <ele>121</ele>
        <time>2022-01-15T08:52:23Z</time>
      </trkpt>
      <trkpt lat="48.54552" lon="2.0974">
        <ele>121</ele>
        <time>2022-01-15T08:52:21Z</time>
      </trkpt>
      <trkpt lat="48.5455" lon="2.09736">
        <ele>122</ele>
        <time>2022-01-15T08:52:19Z</time>
      </trkpt>
      <trkpt lat="48.54549" lon="2.09731">
        <ele>122</ele>
        <time>2022-01-15T08:52:17Z</time>
      </trkpt>
      <trkpt lat="48.54548" lon="2.09726">
        <ele>122</ele>
        <time>2022-01-15T08:52:15Z</time>
      </trkpt>
      <trkpt lat="48.54546" lon="2.09721">
        <ele>122</ele>
        <time>2022-01-15T08:52:13Z</time>
      </trkpt>
      <trkpt lat="48.54544" lon="2.09716">
        <ele>123</ele>
        <time>2022-01-15T08:52:11Z</time>
      </trkpt>
      <trkpt lat="48.54543" lon="2.09711">
        <ele>123</ele>
        <time>2022-01-15T08:52:09Z</time>
      </trkpt>
      <trkpt lat="48.54541" lon="2.09707">
        <ele>123</ele>
        <time>2022-01-15T08:52:07Z</time>
      </trkpt>
      <trkpt lat="48.5454" lon="2.09701">
        <ele>123</ele>
        <time>2022-01-15T08:52:04Z</time>
      </trkpt>
      <trkpt lat="48.54539" lon="2.09697">
        <ele>123</ele>
        <time>2022-01-15T08:52:01Z</time>
      </trkpt>
      <trkpt lat="48.54537" lon="2.09692">
        <ele>123</ele>
        <time>2022-01-15T08:51:58Z</time>
      </trkpt>
      <trkpt lat="48.54536" lon="2.09687">
        <ele>124</ele>
        <time>2022-01-15T08:51:55Z</time>
      </trkpt>
      <trkpt lat="48.54534" lon="2.09682">
        <ele>124</ele>
        <time>2022-01-15T08:51:52Z</time>
      </trkpt>
      <trkpt lat="48.54533" lon="2.09678">
        <ele>124</ele>
        <time>2022-01-15T08:51:50Z</time>
      </trkpt>
      <trkpt lat="48.54532" lon="2.09674">
        <ele>124</ele>
        <time>2022-01-15T08:51:48Z</time>
      </trkpt>
      <trkpt lat="48.5453" lon="2.0967">
        <ele>124</ele>
        <time>2022-01-15T08:51:38Z</time>
      </trkpt>
      <trkpt lat="48.54529" lon="2.09665">
        <ele>125</ele>
        <time>2022-01-15T08:51:35Z</time>
      </trkpt>
      <trkpt lat="48.54528" lon="2.09661">
        <ele>125</ele>
        <time>2022-01-15T08:51:31Z</time>
      </trkpt>
      <trkpt lat="48.54527" lon="2.09657">
        <ele>125</ele>
        <time>2022-01-15T08:51:20Z</time>
      </trkpt>
      <trkpt lat="48.54527" lon="2.09653">
        <ele>125</ele>
        <time>2022-01-15T08:51:08Z</time>
      </trkpt>
      <trkpt lat="48.54526" lon="2.09649">
        <ele>125</ele>
        <time>2022-01-15T08:51:05Z</time>
      </trkpt>
      <trkpt lat="48.54524" lon="2.09644">
        <ele>126</ele>
        <time>2022-01-15T08:51:03Z</time>
      </trkpt>
      <trkpt lat="48.54523" lon="2.09639">
        <ele>126</ele>
        <time>2022-01-15T08:51:00Z</time>
      </trkpt>
      <trkpt lat="48.54521" lon="2.09635">
        <ele>126</ele>
        <time>2022-01-15T08:50:58Z</time>
      </trkpt>
      <trkpt lat="48.5452" lon="2.0963">
        <ele>126</ele>
        <time>2022-01-15T08:50:56Z</time>
      </trkpt>
      <trkpt lat="48.54519" lon="2.09626">
        <ele>126</ele>
        <time>2022-01-15T08:50:54Z</time>
      </trkpt>
      <trkpt lat="48.54517" lon="2.09622">
        <ele>127</ele>
        <time>2022-01-15T08:50:52Z</time>
      </trkpt>
      <trkpt lat="48.54516" lon="2.09618">
        <ele>127</ele>
        <time>2022-01-15T08:50:50Z</time>
      </trkpt>
      <trkpt lat="48.54515" lon="2.09613">
        <ele>127</ele>
        <time>2022-01-15T08:50:48Z</time>
      </trkpt>
      <trkpt lat="48.54514" lon="2.09609">
        <ele>127</ele>
        <time>2022-01-15T08:50:46Z</time>
      </trkpt>
      <trkpt lat="48.54512" lon="2.09605">
        <ele>127</ele>
        <time>2022-01-15T08:50:44Z</time>
      </trkpt>
      <trkpt lat="48.54511" lon="2.096">
        <ele>127</ele>
        <time>2022-01-15T08:50:42Z</time>
      </trkpt>
      <trkpt lat="48.5451" lon="2.09596">
        <ele>127</ele>
        <time>2022-01-15T08:50:40Z</time>
      </trkpt>
      <trkpt lat="48.5451" lon="2.09591">
        <ele>128</ele>
        <time>2022-01-15T08:50:38Z</time>
      </trkpt>
      <trkpt lat="48.54509" lon="2.09586">
        <ele>128</ele>
        <time>2022-01-15T08:50:36Z</time>
      </trkpt>
      <trkpt lat="48.54509" lon="2.09582">
        <ele>128</ele>
        <time>2022-01-15T08:50:34Z</time>
      </trkpt>
      <trkpt lat="48.54508" lon="2.09577">
        <ele>128</ele>
        <time>2022-01-15T08:50:32Z</time>
      </trkpt>
      <trkpt lat="48.54508" lon="2.09574">
        <ele>128</ele>
        <time>2022-01-15T08:50:30Z</time>
      </trkpt>
      <trkpt lat="48.54507" lon="2.09571">
        <ele>128</ele>
        <time>2022-01-15T08:50:13Z</time>
      </trkpt>
      <trkpt lat="48.54504" lon="2.09572">
        <ele>128</ele>
        <time>2022-01-15T08:50:06Z</time>
      </trkpt>
      <trkpt lat="48.54503" lon="2.09572">
        <ele>128</ele>
        <time>2022-01-15T08:49:59Z</time>
      </trkpt>
      <trkpt lat="48.54505" lon="2.09573">
        <ele>128</ele>
        <time>2022-01-15T08:49:19Z</time>
      </trkpt>
      <trkpt lat="48.54507" lon="2.09577">
        <ele>128</ele>
        <time>2022-01-15T08:49:07Z</time>
      </trkpt>
      <trkpt lat="48.54507" lon="2.09582">
        <ele>128</ele>
        <time>2022-01-15T08:49:02Z</time>
      </trkpt>
      <trkpt lat="48.54508" lon="2.09587">
        <ele>127</ele>
        <time>2022-01-15T08:48:59Z</time>
      </trkpt>
      <trkpt lat="48.54508" lon="2.09592">
        <ele>127</ele>
        <time>2022-01-15T08:48:57Z</time>
      </trkpt>
      <trkpt lat="48.54509" lon="2.09597">
        <ele>127</ele>
        <time>2022-01-15T08:48:54Z</time>
      </trkpt>
      <trkpt lat="48.5451" lon="2.09603">
        <ele>127</ele>
        <time>2022-01-15T08:48:51Z</time>
      </trkpt>
      <trkpt lat="48.54512" lon="2.09607">
        <ele>127</ele>
        <time>2022-01-15T08:48:49Z</time>
      </trkpt>
      <trkpt lat="48.54513" lon="2.09612">
        <ele>127</ele>
        <time>2022-01-15T08:48:47Z</time>
      </trkpt>
      <trkpt lat="48.54514" lon="2.09617">
        <ele>127</ele>
        <time>2022-01-15T08:48:45Z</time>
      </trkpt>
      <trkpt lat="48.54515" lon="2.09621">
        <ele>126</ele>
        <time>2022-01-15T08:48:43Z</time>
      </trkpt>
      <trkpt lat="48.54517" lon="2.09626">
        <ele>126</ele>
        <time>2022-01-15T08:48:41Z</time>
      </trkpt>
      <trkpt lat="48.54518" lon="2.09631">
        <ele>126</ele>
        <time>2022-01-15T08:48:39Z</time>
      </trkpt>
      <trkpt lat="48.54519" lon="2.09635">
        <ele>126</ele>
        <time>2022-01-15T08:48:37Z</time>
      </trkpt>
      <trkpt lat="48.54521" lon="2.09641">
        <ele>125</ele>
        <time>2022-01-15T08:48:34Z</time>
      </trkpt>
      <trkpt lat="48.54522" lon="2.09645">
        <ele>125</ele>
        <time>2022-01-15T08:48:32Z</time>
      </trkpt>
      <trkpt lat="48.54524" lon="2.09648">
        <ele>125</ele>
        <time>2022-01-15T08:48:30Z</time>
      </trkpt>
      <trkpt lat="48.54525" lon="2.09652">
        <ele>125</ele>
        <time>2022-01-15T08:48:28Z</time>
      </trkpt>
      <trkpt lat="48.54527" lon="2.09654">
        <ele>125</ele>
        <time>2022-01-15T08:48:01Z</time>
      </trkpt>
      <trkpt lat="48.54525" lon="2.09651">
        <ele>126</ele>
        <time>2022-01-15T08:47:54Z</time>
      </trkpt>
      <trkpt lat="48.54524" lon="2.09647">
        <ele>126</ele>
        <time>2022-01-15T08:47:51Z</time>
      </trkpt>
      <trkpt lat="48.54523" lon="2.09643">
        <ele>126</ele>
        <time>2022-01-15T08:47:48Z</time>
      </trkpt>
      <trkpt lat="48.54522" lon="2.09638">
        <ele>126</ele>
        <time>2022-01-15T08:47:44Z</time>
      </trkpt>
      <trkpt lat="48.5452" lon="2.09633">
        <ele>126</ele>
        <time>2022-01-15T08:47:41Z</time>
      </trkpt>
      <trkpt lat="48.54518" lon="2.09628">
        <ele>127</ele>
        <time>2022-01-15T08:47:37Z</time>
      </trkpt>
      <trkpt lat="48.54517" lon="2.09624">
        <ele>127</ele>
        <time>2022-01-15T08:47:29Z</time>
      </trkpt>
      <trkpt lat="48.54516" lon="2.0962">
        <ele>127</ele>
        <time>2022-01-15T08:47:25Z</time>
      </trkpt>
      <trkpt lat="48.54515" lon="2.09616">
        <ele>127</ele>
        <time>2022-01-15T08:47:22Z</time>
      </trkpt>
      <trkpt lat="48.54515" lon="2.09611">
        <ele>127</ele>
        <time>2022-01-15T08:47:16Z</time>
      </trkpt>
      <trkpt lat="48.54514" lon="2.09606">
        <ele>127</ele>
        <time>2022-01-15T08:47:13Z</time>
      </trkpt>
      <trkpt lat="48.54512" lon="2.09601">
        <ele>127</ele>
        <time>2022-01-15T08:47:10Z</time>
      </trkpt>
      <trkpt lat="48.54511" lon="2.09596">
        <ele>127</ele>
        <time>2022-01-15T08:47:07Z</time>
      </trkpt>
      <trkpt lat="48.54511" lon="2.09592">
        <ele>128</ele>
        <time>2022-01-15T08:47:01Z</time>
      </trkpt>
      <trkpt lat="48.54511" lon="2.09588">
        <ele>128</ele>
        <time>2022-01-15T08:46:58Z</time>
      </trkpt>
      <trkpt lat="48.54511" lon="2.09583">
        <ele>128</ele>
        <time>2022-01-15T08:46:55Z</time>
      </trkpt>
      <trkpt lat="48.54512" lon="2.09579">
        <ele>128</ele>
        <time>2022-01-15T08:46:51Z</time>
      </trkpt>
      <trkpt lat="48.54513" lon="2.09576">
        <ele>128</ele>
        <time>2022-01-15T08:46:47Z</time>
      </trkpt>
      <trkpt lat="48.54512" lon="2.09571">
        <ele>128</ele>
        <time>2022-01-15T08:46:43Z</time>
      </trkpt>
      <trkpt lat="48.5451" lon="2.09568">
        <ele>127</ele>
        <time>2022-01-15T08:46:40Z</time>
      </trkpt>
      <trkpt lat="48.54507" lon="2.09566">
        <ele>127</ele>
        <time>2022-01-15T08:46:37Z</time>
      </trkpt>
      <trkpt lat="48.54504" lon="2.09564">
        <ele>127</ele>
        <time>2022-01-15T08:46:35Z</time>
      </trkpt>
      <trkpt lat="48.54502" lon="2.09559">
        <ele>126</ele>
        <time>2022-01-15T08:46:32Z</time>
      </trkpt>
      <trkpt lat="48.545" lon="2.09555">
        <ele>125</ele>
        <time>2022-01-15T08:46:29Z</time>
      </trkpt>
      <trkpt lat="48.54497" lon="2.09552">
        <ele>125</ele>
        <time>2022-01-15T08:46:26Z</time>
      </trkpt>
      <trkpt lat="48.54493" lon="2.09549">
        <ele>124</ele>
        <time>2022-01-15T08:46:23Z</time>
      </trkpt>
      <trkpt lat="48.5449" lon="2.09546">
        <ele>123</ele>
        <time>2022-01-15T08:46:21Z</time>
      </trkpt>
      <trkpt lat="48.54488" lon="2.09543">
        <ele>123</ele>
        <time>2022-01-15T08:46:17Z</time>
      </trkpt>
      <trkpt lat="48.54485" lon="2.0954">
        <ele>122</ele>
        <time>2022-01-15T08:46:14Z</time>
      </trkpt>
      <trkpt lat="48.54483" lon="2.09537">
        <ele>122</ele>
        <time>2022-01-15T08:46:12Z</time>
      </trkpt>
      <trkpt lat="48.54481" lon="2.09534">
        <ele>121</ele>
        <time>2022-01-15T08:46:09Z</time>
      </trkpt>
      <trkpt lat="48.54478" lon="2.0953">
        <ele>120</ele>
        <time>2022-01-15T08:46:05Z</time>
      </trkpt>
      <trkpt lat="48.54475" lon="2.09527">
        <ele>120</ele>
        <time>2022-01-15T08:46:03Z</time>
      </trkpt>
      <trkpt lat="48.54472" lon="2.09524">
        <ele>119</ele>
        <time>2022-01-15T08:46:00Z</time>
      </trkpt>
      <trkpt lat="48.54469" lon="2.09521">
        <ele>119</ele>
        <time>2022-01-15T08:45:57Z</time>
      </trkpt>
      <trkpt lat="48.54465" lon="2.09519">
        <ele>118</ele>
        <time>2022-01-15T08:45:54Z</time>
      </trkpt>
      <trkpt lat="48.54462" lon="2.09517">
        <ele>118</ele>
        <time>2022-01-15T08:45:52Z</time>
      </trkpt>
      <trkpt lat="48.54458" lon="2.09516">
        <ele>118</ele>
        <time>2022-01-15T08:45:50Z</time>
      </trkpt>
      <trkpt lat="48.54454" lon="2.09512">
        <ele>117</ele>
        <time>2022-01-15T08:45:47Z</time>
      </trkpt>
      <trkpt lat="48.5445" lon="2.0951">
        <ele>117</ele>
        <time>2022-01-15T08:45:45Z</time>
      </trkpt>
      <trkpt lat="48.54446" lon="2.09508">
        <ele>116</ele>
        <time>2022-01-15T08:45:42Z</time>
      </trkpt>
      <trkpt lat="48.54443" lon="2.09507">
        <ele>115</ele>
        <time>2022-01-15T08:45:39Z</time>
      </trkpt>
      <trkpt lat="48.5444" lon="2.09507">
        <ele>115</ele>
        <time>2022-01-15T08:45:37Z</time>
      </trkpt>
      <trkpt lat="48.54437" lon="2.0951">
        <ele>114</ele>
        <time>2022-01-15T08:45:34Z</time>
      </trkpt>
      <trkpt lat="48.54433" lon="2.0951">
        <ele>114</ele>
        <time>2022-01-15T08:45:32Z</time>
      </trkpt>
      <trkpt lat="48.5443" lon="2.09512">
        <ele>113</ele>
        <time>2022-01-15T08:45:30Z</time>
      </trkpt>
      <trkpt lat="48.54428" lon="2.09515">
        <ele>113</ele>
        <time>2022-01-15T08:45:28Z</time>
      </trkpt>
      <trkpt lat="48.54425" lon="2.09517">
        <ele>112</ele>
        <time>2022-01-15T08:45:26Z</time>
      </trkpt>
      <trkpt lat="48.54422" lon="2.0952">
        <ele>112</ele>
        <time>2022-01-15T08:45:24Z</time>
      </trkpt>
      <trkpt lat="48.54419" lon="2.09522">
        <ele>112</ele>
        <time>2022-01-15T08:45:22Z</time>
      </trkpt>
      <trkpt lat="48.54417" lon="2.09526">
        <ele>111</ele>
        <time>2022-01-15T08:45:20Z</time>
      </trkpt>
      <trkpt lat="48.54414" lon="2.09531">
        <ele>111</ele>
        <time>2022-01-15T08:45:17Z</time>
      </trkpt>
      <trkpt lat="48.54413" lon="2.09536">
        <ele>110</ele>
        <time>2022-01-15T08:45:14Z</time>
      </trkpt>
      <trkpt lat="48.54411" lon="2.0954">
        <ele>109</ele>
        <time>2022-01-15T08:45:11Z</time>
      </trkpt>
      <trkpt lat="48.54409" lon="2.09544">
        <ele>109</ele>
        <time>2022-01-15T08:45:08Z</time>
      </trkpt>
      <trkpt lat="48.54406" lon="2.09546">
        <ele>108</ele>
        <time>2022-01-15T08:45:05Z</time>
      </trkpt>
      <trkpt lat="48.54403" lon="2.09549">
        <ele>108</ele>
        <time>2022-01-15T08:45:02Z</time>
      </trkpt>
      <trkpt lat="48.544" lon="2.09551">
        <ele>108</ele>
        <time>2022-01-15T08:45:00Z</time>
      </trkpt>
      <trkpt lat="48.54397" lon="2.09553">
        <ele>108</ele>
        <time>2022-01-15T08:44:58Z</time>
      </trkpt>
      <trkpt lat="48.54395" lon="2.09556">
        <ele>107</ele>
        <time>2022-01-15T08:44:55Z</time>
      </trkpt>
      <trkpt lat="48.54392" lon="2.09559">
        <ele>107</ele>
        <time>2022-01-15T08:44:52Z</time>
      </trkpt>
      <trkpt lat="48.54389" lon="2.0956">
        <ele>107</ele>
        <time>2022-01-15T08:44:50Z</time>
      </trkpt>
      <trkpt lat="48.54386" lon="2.09562">
        <ele>106</ele>
        <time>2022-01-15T08:44:48Z</time>
      </trkpt>
      <trkpt lat="48.54382" lon="2.09563">
        <ele>106</ele>
        <time>2022-01-15T08:44:46Z</time>
      </trkpt>
      <trkpt lat="48.54379" lon="2.09564">
        <ele>106</ele>
        <time>2022-01-15T08:44:44Z</time>
      </trkpt>
      <trkpt lat="48.54375" lon="2.09564">
        <ele>106</ele>
        <time>2022-01-15T08:44:41Z</time>
      </trkpt>
      <trkpt lat="48.54372" lon="2.09563">
        <ele>105</ele>
        <time>2022-01-15T08:44:39Z</time>
      </trkpt>
      <trkpt lat="48.54369" lon="2.09561">
        <ele>105</ele>
        <time>2022-01-15T08:44:37Z</time>
      </trkpt>
      <trkpt lat="48.54365" lon="2.09558">
        <ele>105</ele>
        <time>2022-01-15T08:44:34Z</time>
      </trkpt>
      <trkpt lat="48.54362" lon="2.09556">
        <ele>104</ele>
        <time>2022-01-15T08:44:32Z</time>
      </trkpt>
      <trkpt lat="48.5436" lon="2.09552">
        <ele>104</ele>
        <time>2022-01-15T08:44:30Z</time>
      </trkpt>
      <trkpt lat="48.54358" lon="2.09549">
        <ele>104</ele>
        <time>2022-01-15T08:44:27Z</time>
      </trkpt>
      <trkpt lat="48.54356" lon="2.09545">
        <ele>104</ele>
        <time>2022-01-15T08:44:25Z</time>
      </trkpt>
      <trkpt lat="48.54355" lon="2.0954">
        <ele>103</ele>
        <time>2022-01-15T08:44:23Z</time>
      </trkpt>
      <trkpt lat="48.54354" lon="2.09535">
        <ele>103</ele>
        <time>2022-01-15T08:44:21Z</time>
      </trkpt>
      <trkpt lat="48.54352" lon="2.09529">
        <ele>103</ele>
        <time>2022-01-15T08:44:18Z</time>
      </trkpt>
      <trkpt lat="48.54351" lon="2.09524">
        <ele>102</ele>
        <time>2022-01-15T08:44:15Z</time>
      </trkpt>
      <trkpt lat="48.54351" lon="2.09519">
        <ele>102</ele>
        <time>2022-01-15T08:44:12Z</time>
      </trkpt>
      <trkpt lat="48.54349" lon="2.09515">
        <ele>102</ele>
        <time>2022-01-15T08:44:10Z</time>
      </trkpt>
      <trkpt lat="48.54348" lon="2.09511">
        <ele>101</ele>
        <time>2022-01-15T08:44:08Z</time>
      </trkpt>
      <trkpt lat="48.54348" lon="2.09506">
        <ele>101</ele>
        <time>2022-01-15T08:44:06Z</time>
      </trkpt>
      <trkpt lat="48.54347" lon="2.09501">
        <ele>100</ele>
        <time>2022-01-15T08:44:04Z</time>
      </trkpt>
      <trkpt lat="48.54345" lon="2.09498">
        <ele>100</ele>
        <time>2022-01-15T08:44:02Z</time>
      </trkpt>
      <trkpt lat="48.54343" lon="2.09494">
        <ele>99</ele>
        <time>2022-01-15T08:43:59Z</time>
      </trkpt>
      <trkpt lat="48.54341" lon="2.09491">
        <ele>99</ele>
        <time>2022-01-15T08:43:57Z</time>
      </trkpt>
      <trkpt lat="48.54337" lon="2.09489">
        <ele>99</ele>
        <time>2022-01-15T08:43:55Z</time>
      </trkpt>
      <trkpt lat="48.54334" lon="2.09487">
        <ele>98</ele>
        <time>2022-01-15T08:43:52Z</time>
      </trkpt>
      <trkpt lat="48.54331" lon="2.09486">
        <ele>98</ele>
        <time>2022-01-15T08:43:49Z</time>
      </trkpt>
      <trkpt lat="48.54327" lon="2.09485">
        <ele>98</ele>
        <time>2022-01-15T08:43:47Z</time>
      </trkpt>
      <trkpt lat="48.54324" lon="2.09484">
        <ele>97</ele>
        <time>2022-01-15T08:43:45Z</time>
      </trkpt>
      <trkpt lat="48.54321" lon="2.09482">
        <ele>97</ele>
        <time>2022-01-15T08:43:43Z</time>
      </trkpt>
      <trkpt lat="48.54318" lon="2.09479">
        <ele>97</ele>
        <time>2022-01-15T08:43:41Z</time>
      </trkpt>
      <trkpt lat="48.54315" lon="2.09476">
        <ele>96</ele>
        <time>2022-01-15T08:43:38Z</time>
      </trkpt>
      <trkpt lat="48.54312" lon="2.09474">
        <ele>96</ele>
        <time>2022-01-15T08:43:36Z</time>
      </trkpt>
      <trkpt lat="48.54309" lon="2.09472">
        <ele>96</ele>
        <time>2022-01-15T08:43:34Z</time>
      </trkpt>
      <trkpt lat="48.54306" lon="2.09469">
        <ele>96</ele>
        <time>2022-01-15T08:43:31Z</time>
      </trkpt>
      <trkpt lat="48.54304" lon="2.09466">
        <ele>96</ele>
        <time>2022-01-15T08:43:28Z</time>
      </trkpt>
      <trkpt lat="48.54301" lon="2.09463">
        <ele>95</ele>
        <time>2022-01-15T08:43:24Z</time>
      </trkpt>
      <trkpt lat="48.54299" lon="2.0946">
        <ele>95</ele>
        <time>2022-01-15T08:43:21Z</time>
      </trkpt>
      <trkpt lat="48.54296" lon="2.09456">
        <ele>95</ele>
        <time>2022-01-15T08:43:18Z</time>
      </trkpt>
      <trkpt lat="48.54294" lon="2.09453">
        <ele>95</ele>
        <time>2022-01-15T08:43:16Z</time>
      </trkpt>
      <trkpt lat="48.54292" lon="2.0945">
        <ele>95</ele>
        <time>2022-01-15T08:43:13Z</time>
      </trkpt>
      <trkpt lat="48.54289" lon="2.09446">
        <ele>94</ele>
        <time>2022-01-15T08:43:10Z</time>
      </trkpt>
      <trkpt lat="48.54286" lon="2.09443">
        <ele>94</ele>
        <time>2022-01-15T08:43:06Z</time>
      </trkpt>
      <trkpt lat="48.54283" lon="2.0944">
        <ele>94</ele>
        <time>2022-01-15T08:43:04Z</time>
      </trkpt>
      <trkpt lat="48.54281" lon="2.09437">
        <ele>94</ele>
        <time>2022-01-15T08:43:02Z</time>
      </trkpt>
      <trkpt lat="48.54278" lon="2.09434">
        <ele>93</ele>
        <time>2022-01-15T08:42:59Z</time>
      </trkpt>
      <trkpt lat="48.54275" lon="2.0943">
        <ele>93</ele>
        <time>2022-01-15T08:42:55Z</time>
      </trkpt>
      <trkpt lat="48.54273" lon="2.09426">
        <ele>93</ele>
        <time>2022-01-15T08:42:52Z</time>
      </trkpt>
      <trkpt lat="48.5427" lon="2.09423">
        <ele>92</ele>
        <time>2022-01-15T08:42:50Z</time>
      </trkpt>
      <trkpt lat="48.54268" lon="2.09419">
        <ele>92</ele>
        <time>2022-01-15T08:42:47Z</time>
      </trkpt>
      <trkpt lat="48.54265" lon="2.09415">
        <ele>92</ele>
        <time>2022-01-15T08:42:45Z</time>
      </trkpt>
      <trkpt lat="48.54262" lon="2.09413">
        <ele>92</ele>
        <time>2022-01-15T08:42:43Z</time>
      </trkpt>
      <trkpt lat="48.54259" lon="2.0941">
        <ele>91</ele>
        <time>2022-01-15T08:42:40Z</time>
      </trkpt>
      <trkpt lat="48.54256" lon="2.09407">
        <ele>91</ele>
        <time>2022-01-15T08:42:37Z</time>
      </trkpt>
      <trkpt lat="48.54254" lon="2.09404">
        <ele>91</ele>
        <time>2022-01-15T08:42:35Z</time>
      </trkpt>
      <trkpt lat="48.54251" lon="2.09402">
        <ele>91</ele>
        <time>2022-01-15T08:42:33Z</time>
      </trkpt>
      <trkpt lat="48.54249" lon="2.09398">
        <ele>91</ele>
        <time>2022-01-15T08:42:30Z</time>
      </trkpt>
      <trkpt lat="48.54249" lon="2.09394">
        <ele>91</ele>
        <time>2022-01-15T08:42:28Z</time>
      </trkpt>
      <trkpt lat="48.54246" lon="2.09392">
        <ele>90</ele>
        <time>2022-01-15T08:42:26Z</time>
      </trkpt>
      <trkpt lat="48.54243" lon="2.09389">
        <ele>90</ele>
        <time>2022-01-15T08:42:24Z</time>
      </trkpt>
      <trkpt lat="48.54241" lon="2.09387">
        <ele>90</ele>
        <time>2022-01-15T08:42:22Z</time>
      </trkpt>
      <trkpt lat="48.54238" lon="2.09384">
        <ele>90</ele>
        <time>2022-01-15T08:42:20Z</time>
      </trkpt>
      <trkpt lat="48.54236" lon="2.09381">
        <ele>90</ele>
        <time>2022-01-15T08:42:18Z</time>
      </trkpt>
      <trkpt lat="48.54233" lon="2.09377">
        <ele>90</ele>
        <time>2022-01-15T08:42:16Z</time>
      </trkpt>
      <trkpt lat="48.5423" lon="2.09373">
        <ele>90</ele>
        <time>2022-01-15T08:42:14Z</time>
      </trkpt>
      <trkpt lat="48.54227" lon="2.09369">
        <ele>89</ele>
        <time>2022-01-15T08:42:12Z</time>
      </trkpt>
      <trkpt lat="48.54225" lon="2.09365">
        <ele>89</ele>
        <time>2022-01-15T08:42:10Z</time>
      </trkpt>
      <trkpt lat="48.54223" lon="2.09361">
        <ele>89</ele>
        <time>2022-01-15T08:42:07Z</time>
      </trkpt>
      <trkpt lat="48.54221" lon="2.09357">
        <ele>89</ele>
        <time>2022-01-15T08:42:04Z</time>
      </trkpt>
      <trkpt lat="48.54218" lon="2.09356">
        <ele>89</ele>
        <time>2022-01-15T08:42:02Z</time>
      </trkpt>
      <trkpt lat="48.54217" lon="2.09355">
        <ele>89</ele>
        <time>2022-01-15T08:41:58Z</time>
      </trkpt>
      <trkpt lat="48.54216" lon="2.09356">
        <ele>89</ele>
        <time>2022-01-15T08:41:47Z</time>
      </trkpt>
      <trkpt lat="48.54215" lon="2.09351">
        <ele>89</ele>
        <time>2022-01-15T08:41:44Z</time>
      </trkpt>
      <trkpt lat="48.54214" lon="2.09345">
        <ele>89</ele>
        <time>2022-01-15T08:41:41Z</time>
      </trkpt>
      <trkpt lat="48.54213" lon="2.0934">
        <ele>89</ele>
        <time>2022-01-15T08:41:35Z</time>
      </trkpt>
      <trkpt lat="48.54212" lon="2.09335">
        <ele>89</ele>
        <time>2022-01-15T08:41:33Z</time>
      </trkpt>
      <trkpt lat="48.54211" lon="2.09329">
        <ele>89</ele>
        <time>2022-01-15T08:41:30Z</time>
      </trkpt>
      <trkpt lat="48.54211" lon="2.09325">
        <ele>90</ele>
        <time>2022-01-15T08:41:28Z</time>
      </trkpt>
      <trkpt lat="48.5421" lon="2.0932">
        <ele>90</ele>
        <time>2022-01-15T08:41:26Z</time>
      </trkpt>
      <trkpt lat="48.54209" lon="2.09314">
        <ele>90</ele>
        <time>2022-01-15T08:41:24Z</time>
      </trkpt>
      <trkpt lat="48.54209" lon="2.0931">
        <ele>90</ele>
        <time>2022-01-15T08:41:22Z</time>
      </trkpt>
      <trkpt lat="48.54208" lon="2.09305">
        <ele>90</ele>
        <time>2022-01-15T08:41:20Z</time>
      </trkpt>
      <trkpt lat="48.54207" lon="2.09301">
        <ele>90</ele>
        <time>2022-01-15T08:41:18Z</time>
      </trkpt>
      <trkpt lat="48.54206" lon="2.09296">
        <ele>90</ele>
        <time>2022-01-15T08:41:16Z</time>
      </trkpt>
      <trkpt lat="48.54206" lon="2.09292">
        <ele>90</ele>
        <time>2022-01-15T08:41:14Z</time>
      </trkpt>
      <trkpt lat="48.54205" lon="2.09287">
        <ele>90</ele>
        <time>2022-01-15T08:41:12Z</time>
      </trkpt>
      <trkpt lat="48.54205" lon="2.09282">
        <ele>91</ele>
        <time>2022-01-15T08:41:10Z</time>
      </trkpt>
      <trkpt lat="48.54204" lon="2.09277">
        <ele>91</ele>
        <time>2022-01-15T08:41:08Z</time>
      </trkpt>
      <trkpt lat="48.54204" lon="2.09272">
        <ele>91</ele>
        <time>2022-01-15T08:41:06Z</time>
      </trkpt>
      <trkpt lat="48.54203" lon="2.09267">
        <ele>91</ele>
        <time>2022-01-15T08:41:03Z</time>
      </trkpt>
      <trkpt lat="48.54202" lon="2.09262">
        <ele>91</ele>
        <time>2022-01-15T08:41:00Z</time>
      </trkpt>
      <trkpt lat="48.54202" lon="2.09257">
        <ele>91</ele>
        <time>2022-01-15T08:40:58Z</time>
      </trkpt>
      <trkpt lat="48.54201" lon="2.09253">
        <ele>91</ele>
        <time>2022-01-15T08:40:56Z</time>
      </trkpt>
      <trkpt lat="48.54201" lon="2.09248">
        <ele>91</ele>
        <time>2022-01-15T08:40:54Z</time>
      </trkpt>
      <trkpt lat="48.542" lon="2.09244">
        <ele>91</ele>
        <time>2022-01-15T08:40:52Z</time>
      </trkpt>
      <trkpt lat="48.542" lon="2.09239">
        <ele>91</ele>
        <time>2022-01-15T08:40:50Z</time>
      </trkpt>
      <trkpt lat="48.54199" lon="2.09234">
        <ele>91</ele>
        <time>2022-01-15T08:40:48Z</time>
      </trkpt>
      <trkpt lat="48.54199" lon="2.09229">
        <ele>92</ele>
        <time>2022-01-15T08:40:46Z</time>
      </trkpt>
      <trkpt lat="48.54199" lon="2.09225">
        <ele>92</ele>
        <time>2022-01-15T08:40:44Z</time>
      </trkpt>
      <trkpt lat="48.54199" lon="2.0922">
        <ele>92</ele>
        <time>2022-01-15T08:40:42Z</time>
      </trkpt>
      <trkpt lat="48.54198" lon="2.09216">
        <ele>92</ele>
        <time>2022-01-15T08:40:40Z</time>
      </trkpt>
      <trkpt lat="48.54198" lon="2.09211">
        <ele>92</ele>
        <time>2022-01-15T08:40:38Z</time>
      </trkpt>
      <trkpt lat="48.54198" lon="2.09206">
        <ele>92</ele>
        <time>2022-01-15T08:40:36Z</time>
      </trkpt>
      <trkpt lat="48.54198" lon="2.09202">
        <ele>91</ele>
        <time>2022-01-15T08:40:34Z</time>
      </trkpt>
      <trkpt lat="48.54198" lon="2.09197">
        <ele>91</ele>
        <time>2022-01-15T08:40:32Z</time>
      </trkpt>
      <trkpt lat="48.54197" lon="2.09193">
        <ele>91</ele>
        <time>2022-01-15T08:40:30Z</time>
      </trkpt>
      <trkpt lat="48.54197" lon="2.09188">
        <ele>91</ele>
        <time>2022-01-15T08:40:28Z</time>
      </trkpt>
      <trkpt lat="48.54197" lon="2.09183">
        <ele>90</ele>
        <time>2022-01-15T08:40:26Z</time>
      </trkpt>
      <trkpt lat="48.54197" lon="2.09178">
        <ele>90</ele>
        <time>2022-01-15T08:40:24Z</time>
      </trkpt>
      <trkpt lat="48.54197" lon="2.09173">
        <ele>90</ele>
        <time>2022-01-15T08:40:22Z</time>
      </trkpt>
      <trkpt lat="48.54196" lon="2.09168">
        <ele>89</ele>
        <time>2022-01-15T08:40:20Z</time>
      </trkpt>
      <trkpt lat="48.54196" lon="2.09163">
        <ele>89</ele>
        <time>2022-01-15T08:40:18Z</time>
      </trkpt>
      <trkpt lat="48.54195" lon="2.09159">
        <ele>89</ele>
        <time>2022-01-15T08:40:16Z</time>
      </trkpt>
      <trkpt lat="48.54195" lon="2.09154">
        <ele>89</ele>
        <time>2022-01-15T08:40:14Z</time>
      </trkpt>
      <trkpt lat="48.54194" lon="2.09149">
        <ele>89</ele>
        <time>2022-01-15T08:40:12Z</time>
      </trkpt>
      <trkpt lat="48.54193" lon="2.09145">
        <ele>89</ele>
        <time>2022-01-15T08:40:10Z</time>
      </trkpt>
      <trkpt lat="48.54193" lon="2.0914">
        <ele>89</ele>
        <time>2022-01-15T08:40:08Z</time>
      </trkpt>
      <trkpt lat="48.54193" lon="2.09136">
        <ele>89</ele>
        <time>2022-01-15T08:40:06Z</time>
      </trkpt>
      <trkpt lat="48.54192" lon="2.09131">
        <ele>89</ele>
        <time>2022-01-15T08:40:04Z</time>
      </trkpt>
      <trkpt lat="48.54192" lon="2.09126">
        <ele>90</ele>
        <time>2022-01-15T08:40:02Z</time>
      </trkpt>
      <trkpt lat="48.54191" lon="2.09121">
        <ele>90</ele>
        <time>2022-01-15T08:40:00Z</time>
      </trkpt>
      <trkpt lat="48.5419" lon="2.09116">
        <ele>90</ele>
        <time>2022-01-15T08:39:58Z</time>
      </trkpt>
      <trkpt lat="48.54189" lon="2.09112">
        <ele>91</ele>
        <time>2022-01-15T08:39:56Z</time>
      </trkpt>
      <trkpt lat="48.54187" lon="2.09106">
        <ele>91</ele>
        <time>2022-01-15T08:39:54Z</time>
      </trkpt>
      <trkpt lat="48.54184" lon="2.09102">
        <ele>91</ele>
        <time>2022-01-15T08:39:51Z</time>
      </trkpt>
      <trkpt lat="48.54183" lon="2.09098">
        <ele>91</ele>
        <time>2022-01-15T08:39:49Z</time>
      </trkpt>
      <trkpt lat="48.54182" lon="2.09094">
        <ele>92</ele>
        <time>2022-01-15T08:39:47Z</time>
      </trkpt>
      <trkpt lat="48.54181" lon="2.09089">
        <ele>92</ele>
        <time>2022-01-15T08:39:45Z</time>
      </trkpt>
      <trkpt lat="48.5418" lon="2.09085">
        <ele>92</ele>
        <time>2022-01-15T08:39:43Z</time>
      </trkpt>
      <trkpt lat="48.54179" lon="2.09081">
        <ele>92</ele>
        <time>2022-01-15T08:39:41Z</time>
      </trkpt>
      <trkpt lat="48.54177" lon="2.09076">
        <ele>92</ele>
        <time>2022-01-15T08:39:39Z</time>
      </trkpt>
      <trkpt lat="48.54176" lon="2.09072">
        <ele>92</ele>
        <time>2022-01-15T08:39:37Z</time>
      </trkpt>
      <trkpt lat="48.54175" lon="2.09068">
        <ele>92</ele>
        <time>2022-01-15T08:39:35Z</time>
      </trkpt>
      <trkpt lat="48.54174" lon="2.09063">
        <ele>92</ele>
        <time>2022-01-15T08:39:33Z</time>
      </trkpt>
      <trkpt lat="48.54174" lon="2.09059">
        <ele>91</ele>
        <time>2022-01-15T08:39:31Z</time>
      </trkpt>
      <trkpt lat="48.54174" lon="2.09054">
        <ele>91</ele>
        <time>2022-01-15T08:39:29Z</time>
      </trkpt>
      <trkpt lat="48.54172" lon="2.0905">
        <ele>91</ele>
        <time>2022-01-15T08:39:27Z</time>
      </trkpt>
      <trkpt lat="48.54171" lon="2.09046">
        <ele>91</ele>
        <time>2022-01-15T08:39:25Z</time>
      </trkpt>
      <trkpt lat="48.54171" lon="2.09041">
        <ele>91</ele>
        <time>2022-01-15T08:39:23Z</time>
      </trkpt>
      <trkpt lat="48.5417" lon="2.09036">
        <ele>91</ele>
        <time>2022-01-15T08:39:21Z</time>
      </trkpt>
      <trkpt lat="48.5417" lon="2.09032">
        <ele>90</ele>
        <time>2022-01-15T08:39:19Z</time>
      </trkpt>
      <trkpt lat="48.54168" lon="2.09027">
        <ele>90</ele>
        <time>2022-01-15T08:39:17Z</time>
      </trkpt>
      <trkpt lat="48.54168" lon="2.09022">
        <ele>90</ele>
        <time>2022-01-15T08:39:15Z</time>
      </trkpt>
      <trkpt lat="48.54167" lon="2.09018">
        <ele>90</ele>
        <time>2022-01-15T08:39:13Z</time>
      </trkpt>
      <trkpt lat="48.54167" lon="2.09013">
        <ele>90</ele>
        <time>2022-01-15T08:39:11Z</time>
      </trkpt>
      <trkpt lat="48.54166" lon="2.09008">
        <ele>90</ele>
        <time>2022-01-15T08:39:09Z</time>
      </trkpt>
      <trkpt lat="48.54164" lon="2.09004">
        <ele>89</ele>
        <time>2022-01-15T08:39:07Z</time>
      </trkpt>
      <trkpt lat="48.54164" lon="2.09">
        <ele>89</ele>
        <time>2022-01-15T08:39:05Z</time>
      </trkpt>
      <trkpt lat="48.54163" lon="2.08996">
        <ele>89</ele>
        <time>2022-01-15T08:39:03Z</time>
      </trkpt>
      <trkpt lat="48.54162" lon="2.08992">
        <ele>89</ele>
        <time>2022-01-15T08:39:01Z</time>
      </trkpt>
      <trkpt lat="48.54161" lon="2.08987">
        <ele>89</ele>
        <time>2022-01-15T08:38:59Z</time>
      </trkpt>
      <trkpt lat="48.5416" lon="2.08982">
        <ele>89</ele>
        <time>2022-01-15T08:38:57Z</time>
      </trkpt>
      <trkpt lat="48.5416" lon="2.08977">
        <ele>89</ele>
        <time>2022-01-15T08:38:55Z</time>
      </trkpt>
      <trkpt lat="48.54159" lon="2.08971">
        <ele>89</ele>
        <time>2022-01-15T08:38:53Z</time>
      </trkpt>
      <trkpt lat="48.54158" lon="2.08966">
        <ele>89</ele>
        <time>2022-01-15T08:38:51Z</time>
      </trkpt>
      <trkpt lat="48.54157" lon="2.08961">
        <ele>89</ele>
        <time>2022-01-15T08:38:48Z</time>
      </trkpt>
      <trkpt lat="48.54156" lon="2.08956">
        <ele>89</ele>
        <time>2022-01-15T08:38:46Z</time>
      </trkpt>
      <trkpt lat="48.54155" lon="2.08951">
        <ele>89</ele>
        <time>2022-01-15T08:38:43Z</time>
      </trkpt>
      <trkpt lat="48.54154" lon="2.08945">
        <ele>90</ele>
        <time>2022-01-15T08:38:40Z</time>
      </trkpt>
      <trkpt lat="48.54153" lon="2.0894">
        <ele>90</ele>
        <time>2022-01-15T08:38:38Z</time>
      </trkpt>
      <trkpt lat="48.54152" lon="2.08935">
        <ele>90</ele>
        <time>2022-01-15T08:38:35Z</time>
      </trkpt>
      <trkpt lat="48.54151" lon="2.08931">
        <ele>90</ele>
        <time>2022-01-15T08:38:33Z</time>
      </trkpt>
      <trkpt lat="48.5415" lon="2.08926">
        <ele>90</ele>
        <time>2022-01-15T08:38:31Z</time>
      </trkpt>
      <trkpt lat="48.5415" lon="2.08921">
        <ele>90</ele>
        <time>2022-01-15T08:38:29Z</time>
      </trkpt>
      <trkpt lat="48.5415" lon="2.08916">
        <ele>90</ele>
        <time>2022-01-15T08:38:27Z</time>
      </trkpt>
      <trkpt lat="48.54149" lon="2.08911">
        <ele>90</ele>
        <time>2022-01-15T08:38:25Z</time>
      </trkpt>
      <trkpt lat="48.54149" lon="2.08905">
        <ele>90</ele>
        <time>2022-01-15T08:38:22Z</time>
      </trkpt>
      <trkpt lat="48.54148" lon="2.089">
        <ele>90</ele>
        <time>2022-01-15T08:38:20Z</time>
      </trkpt>
      <trkpt lat="48.54148" lon="2.08895">
        <ele>91</ele>
        <time>2022-01-15T08:38:18Z</time>
      </trkpt>
      <trkpt lat="48.54147" lon="2.0889">
        <ele>91</ele>
        <time>2022-01-15T08:38:16Z</time>
      </trkpt>
      <trkpt lat="48.54146" lon="2.08885">
        <ele>91</ele>
        <time>2022-01-15T08:38:14Z</time>
      </trkpt>
      <trkpt lat="48.54146" lon="2.08881">
        <ele>91</ele>
        <time>2022-01-15T08:38:12Z</time>
      </trkpt>
      <trkpt lat="48.54145" lon="2.08876">
        <ele>91</ele>
        <time>2022-01-15T08:38:10Z</time>
      </trkpt>
      <trkpt lat="48.54145" lon="2.08872">
        <ele>91</ele>
        <time>2022-01-15T08:38:08Z</time>
      </trkpt>
      <trkpt lat="48.54144" lon="2.08868">
        <ele>91</ele>
        <time>2022-01-15T08:38:06Z</time>
      </trkpt>
      <trkpt lat="48.54144" lon="2.08863">
        <ele>91</ele>
        <time>2022-01-15T08:38:04Z</time>
      </trkpt>
      <trkpt lat="48.54143" lon="2.08858">
        <ele>91</ele>
        <time>2022-01-15T08:38:02Z</time>
      </trkpt>
      <trkpt lat="48.54142" lon="2.08852">
        <ele>91</ele>
        <time>2022-01-15T08:37:59Z</time>
      </trkpt>
      <trkpt lat="48.54141" lon="2.08847">
        <ele>91</ele>
        <time>2022-01-15T08:37:56Z</time>
      </trkpt>
      <trkpt lat="48.5414" lon="2.08842">
        <ele>91</ele>
        <time>2022-01-15T08:37:54Z</time>
      </trkpt>
      <trkpt lat="48.5414" lon="2.08838">
        <ele>91</ele>
        <time>2022-01-15T08:37:52Z</time>
      </trkpt>
      <trkpt lat="48.54139" lon="2.08834">
        <ele>91</ele>
        <time>2022-01-15T08:37:50Z</time>
      </trkpt>
      <trkpt lat="48.54138" lon="2.08829">
        <ele>91</ele>
        <time>2022-01-15T08:37:48Z</time>
      </trkpt>
      <trkpt lat="48.54137" lon="2.08825">
        <ele>91</ele>
        <time>2022-01-15T08:37:46Z</time>
      </trkpt>
      <trkpt lat="48.54137" lon="2.0882">
        <ele>91</ele>
        <time>2022-01-15T08:37:44Z</time>
      </trkpt>
      <trkpt lat="48.54136" lon="2.08815">
        <ele>91</ele>
        <time>2022-01-15T08:37:42Z</time>
      </trkpt>
      <trkpt lat="48.54135" lon="2.08811">
        <ele>91</ele>
        <time>2022-01-15T08:37:40Z</time>
      </trkpt>
      <trkpt lat="48.54134" lon="2.08807">
        <ele>91</ele>
        <time>2022-01-15T08:37:38Z</time>
      </trkpt>
      <trkpt lat="48.54134" lon="2.08803">
        <ele>91</ele>
        <time>2022-01-15T08:37:36Z</time>
      </trkpt>
      <trkpt lat="48.54133" lon="2.08798">
        <ele>91</ele>
        <time>2022-01-15T08:37:34Z</time>
      </trkpt>
      <trkpt lat="48.54133" lon="2.08794">
        <ele>91</ele>
        <time>2022-01-15T08:37:32Z</time>
      </trkpt>
      <trkpt lat="48.54133" lon="2.08789">
        <ele>91</ele>
        <time>2022-01-15T08:37:30Z</time>
      </trkpt>
      <trkpt lat="48.54133" lon="2.08784">
        <ele>91</ele>
        <time>2022-01-15T08:37:28Z</time>
      </trkpt>
      <trkpt lat="48.54133" lon="2.08779">
        <ele>91</ele>
        <time>2022-01-15T08:37:26Z</time>
      </trkpt>
      <trkpt lat="48.54133" lon="2.08774">
        <ele>91</ele>
        <time>2022-01-15T08:37:24Z</time>
      </trkpt>
      <trkpt lat="48.54132" lon="2.08769">
        <ele>91</ele>
        <time>2022-01-15T08:37:22Z</time>
      </trkpt>
      <trkpt lat="48.54132" lon="2.08764">
        <ele>91</ele>
        <time>2022-01-15T08:37:20Z</time>
      </trkpt>
      <trkpt lat="48.54132" lon="2.08759">
        <ele>91</ele>
        <time>2022-01-15T08:37:18Z</time>
      </trkpt>
      <trkpt lat="48.54131" lon="2.08754">
        <ele>91</ele>
        <time>2022-01-15T08:37:16Z</time>
      </trkpt>
      <trkpt lat="48.54131" lon="2.08749">
        <ele>91</ele>
        <time>2022-01-15T08:37:14Z</time>
      </trkpt>
      <trkpt lat="48.54131" lon="2.08745">
        <ele>91</ele>
        <time>2022-01-15T08:37:12Z</time>
      </trkpt>
      <trkpt lat="48.54131" lon="2.0874">
        <ele>91</ele>
        <time>2022-01-15T08:37:10Z</time>
      </trkpt>
      <trkpt lat="48.5413" lon="2.08735">
        <ele>91</ele>
        <time>2022-01-15T08:37:08Z</time>
      </trkpt>
      <trkpt lat="48.54129" lon="2.0873">
        <ele>91</ele>
        <time>2022-01-15T08:37:05Z</time>
      </trkpt>
      <trkpt lat="48.54128" lon="2.08726">
        <ele>92</ele>
        <time>2022-01-15T08:37:03Z</time>
      </trkpt>
      <trkpt lat="48.54127" lon="2.08721">
        <ele>92</ele>
        <time>2022-01-15T08:37:01Z</time>
      </trkpt>
      <trkpt lat="48.54127" lon="2.08716">
        <ele>92</ele>
        <time>2022-01-15T08:36:59Z</time>
      </trkpt>
      <trkpt lat="48.54126" lon="2.08712">
        <ele>92</ele>
        <time>2022-01-15T08:36:57Z</time>
      </trkpt>
      <trkpt lat="48.54124" lon="2.08707">
        <ele>92</ele>
        <time>2022-01-15T08:36:55Z</time>
      </trkpt>
      <trkpt lat="48.54123" lon="2.08703">
        <ele>92</ele>
        <time>2022-01-15T08:36:53Z</time>
      </trkpt>
      <trkpt lat="48.54123" lon="2.08699">
        <ele>92</ele>
        <time>2022-01-15T08:36:51Z</time>
      </trkpt>
      <trkpt lat="48.54122" lon="2.08694">
        <ele>92</ele>
        <time>2022-01-15T08:36:49Z</time>
      </trkpt>
      <trkpt lat="48.54121" lon="2.08689">
        <ele>92</ele>
        <time>2022-01-15T08:36:47Z</time>
      </trkpt>
      <trkpt lat="48.54121" lon="2.08685">
        <ele>92</ele>
        <time>2022-01-15T08:36:45Z</time>
      </trkpt>
      <trkpt lat="48.5412" lon="2.0868">
        <ele>92</ele>
        <time>2022-01-15T08:36:43Z</time>
      </trkpt>
      <trkpt lat="48.54119" lon="2.08674">
        <ele>92</ele>
        <time>2022-01-15T08:36:40Z</time>
      </trkpt>
      <trkpt lat="48.54118" lon="2.0867">
        <ele>92</ele>
        <time>2022-01-15T08:36:38Z</time>
      </trkpt>
      <trkpt lat="48.54117" lon="2.08666">
        <ele>92</ele>
        <time>2022-01-15T08:36:36Z</time>
      </trkpt>
      <trkpt lat="48.54117" lon="2.08661">
        <ele>92</ele>
        <time>2022-01-15T08:36:34Z</time>
      </trkpt>
      <trkpt lat="48.54116" lon="2.08657">
        <ele>92</ele>
        <time>2022-01-15T08:36:32Z</time>
      </trkpt>
      <trkpt lat="48.54116" lon="2.08652">
        <ele>92</ele>
        <time>2022-01-15T08:36:30Z</time>
      </trkpt>
      <trkpt lat="48.54115" lon="2.08648">
        <ele>92</ele>
        <time>2022-01-15T08:36:28Z</time>
      </trkpt>
      <trkpt lat="48.54114" lon="2.08643">
        <ele>92</ele>
        <time>2022-01-15T08:36:26Z</time>
      </trkpt>
      <trkpt lat="48.54114" lon="2.08637">
        <ele>92</ele>
        <time>2022-01-15T08:36:24Z</time>
      </trkpt>
      <trkpt lat="48.54113" lon="2.08632">
        <ele>92</ele>
        <time>2022-01-15T08:36:22Z</time>
      </trkpt>
      <trkpt lat="48.54113" lon="2.08627">
        <ele>92</ele>
        <time>2022-01-15T08:36:20Z</time>
      </trkpt>
      <trkpt lat="48.54112" lon="2.08623">
        <ele>92</ele>
        <time>2022-01-15T08:36:18Z</time>
      </trkpt>
      <trkpt lat="48.54112" lon="2.08618">
        <ele>92</ele>
        <time>2022-01-15T08:36:16Z</time>
      </trkpt>
      <trkpt lat="48.54111" lon="2.08614">
        <ele>92</ele>
        <time>2022-01-15T08:36:14Z</time>
      </trkpt>
      <trkpt lat="48.5411" lon="2.0861">
        <ele>92</ele>
        <time>2022-01-15T08:36:12Z</time>
      </trkpt>
      <trkpt lat="48.5411" lon="2.08606">
        <ele>92</ele>
        <time>2022-01-15T08:36:10Z</time>
      </trkpt>
      <trkpt lat="48.54109" lon="2.08601">
        <ele>92</ele>
        <time>2022-01-15T08:36:08Z</time>
      </trkpt>
      <trkpt lat="48.54109" lon="2.08595">
        <ele>92</ele>
        <time>2022-01-15T08:36:05Z</time>
      </trkpt>
      <trkpt lat="48.54108" lon="2.0859">
        <ele>92</ele>
        <time>2022-01-15T08:36:03Z</time>
      </trkpt>
      <trkpt lat="48.54107" lon="2.08585">
        <ele>92</ele>
        <time>2022-01-15T08:36:01Z</time>
      </trkpt>
      <trkpt lat="48.54106" lon="2.08579">
        <ele>92</ele>
        <time>2022-01-15T08:35:58Z</time>
      </trkpt>
      <trkpt lat="48.54106" lon="2.08575">
        <ele>92</ele>
        <time>2022-01-15T08:35:56Z</time>
      </trkpt>
      <trkpt lat="48.54105" lon="2.0857">
        <ele>92</ele>
        <time>2022-01-15T08:35:54Z</time>
      </trkpt>
      <trkpt lat="48.54104" lon="2.08564">
        <ele>92</ele>
        <time>2022-01-15T08:35:51Z</time>
      </trkpt>
      <trkpt lat="48.54103" lon="2.0856">
        <ele>92</ele>
        <time>2022-01-15T08:35:49Z</time>
      </trkpt>
      <trkpt lat="48.54102" lon="2.08556">
        <ele>92</ele>
        <time>2022-01-15T08:35:47Z</time>
      </trkpt>
      <trkpt lat="48.54102" lon="2.08551">
        <ele>92</ele>
        <time>2022-01-15T08:35:45Z</time>
      </trkpt>
      <trkpt lat="48.54101" lon="2.08546">
        <ele>91</ele>
        <time>2022-01-15T08:35:43Z</time>
      </trkpt>
      <trkpt lat="48.54101" lon="2.08542">
        <ele>91</ele>
        <time>2022-01-15T08:35:41Z</time>
      </trkpt>
      <trkpt lat="48.541" lon="2.08538">
        <ele>91</ele>
        <time>2022-01-15T08:35:39Z</time>
      </trkpt>
      <trkpt lat="48.541" lon="2.08533">
        <ele>91</ele>
        <time>2022-01-15T08:35:37Z</time>
      </trkpt>
      <trkpt lat="48.54099" lon="2.08529">
        <ele>91</ele>
        <time>2022-01-15T08:35:35Z</time>
      </trkpt>
      <trkpt lat="48.54097" lon="2.08524">
        <ele>91</ele>
        <time>2022-01-15T08:35:33Z</time>
      </trkpt>
      <trkpt lat="48.54097" lon="2.0852">
        <ele>91</ele>
        <time>2022-01-15T08:35:31Z</time>
      </trkpt>
      <trkpt lat="48.54095" lon="2.08516">
        <ele>91</ele>
        <time>2022-01-15T08:35:29Z</time>
      </trkpt>
      <trkpt lat="48.54094" lon="2.08512">
        <ele>91</ele>
        <time>2022-01-15T08:35:27Z</time>
      </trkpt>
      <trkpt lat="48.54093" lon="2.08508">
        <ele>91</ele>
        <time>2022-01-15T08:35:25Z</time>
      </trkpt>
      <trkpt lat="48.54093" lon="2.08504">
        <ele>90</ele>
        <time>2022-01-15T08:35:23Z</time>
      </trkpt>
      <trkpt lat="48.54092" lon="2.08499">
        <ele>90</ele>
        <time>2022-01-15T08:35:21Z</time>
      </trkpt>
      <trkpt lat="48.54091" lon="2.08495">
        <ele>90</ele>
        <time>2022-01-15T08:35:19Z</time>
      </trkpt>
      <trkpt lat="48.54091" lon="2.0849">
        <ele>90</ele>
        <time>2022-01-15T08:35:17Z</time>
      </trkpt>
      <trkpt lat="48.54091" lon="2.08485">
        <ele>90</ele>
        <time>2022-01-15T08:35:15Z</time>
      </trkpt>
      <trkpt lat="48.5409" lon="2.08481">
        <ele>90</ele>
        <time>2022-01-15T08:35:13Z</time>
      </trkpt>
      <trkpt lat="48.5409" lon="2.08477">
        <ele>90</ele>
        <time>2022-01-15T08:35:11Z</time>
      </trkpt>
      <trkpt lat="48.54089" lon="2.08472">
        <ele>90</ele>
        <time>2022-01-15T08:35:09Z</time>
      </trkpt>
      <trkpt lat="48.54088" lon="2.08467">
        <ele>90</ele>
        <time>2022-01-15T08:35:07Z</time>
      </trkpt>
      <trkpt lat="48.54087" lon="2.08463">
        <ele>90</ele>
        <time>2022-01-15T08:35:05Z</time>
      </trkpt>
      <trkpt lat="48.54086" lon="2.08458">
        <ele>90</ele>
        <time>2022-01-15T08:35:03Z</time>
      </trkpt>
      <trkpt lat="48.54086" lon="2.08454">
        <ele>91</ele>
        <time>2022-01-15T08:35:01Z</time>
      </trkpt>
      <trkpt lat="48.54085" lon="2.08449">
        <ele>91</ele>
        <time>2022-01-15T08:34:59Z</time>
      </trkpt>
      <trkpt lat="48.54084" lon="2.08445">
        <ele>91</ele>
        <time>2022-01-15T08:34:57Z</time>
      </trkpt>
      <trkpt lat="48.54083" lon="2.0844">
        <ele>91</ele>
        <time>2022-01-15T08:34:55Z</time>
      </trkpt>
      <trkpt lat="48.54083" lon="2.08435">
        <ele>91</ele>
        <time>2022-01-15T08:34:53Z</time>
      </trkpt>
      <trkpt lat="48.54082" lon="2.08431">
        <ele>92</ele>
        <time>2022-01-15T08:34:51Z</time>
      </trkpt>
      <trkpt lat="48.54082" lon="2.08426">
        <ele>92</ele>
        <time>2022-01-15T08:34:49Z</time>
      </trkpt>
      <trkpt lat="48.54081" lon="2.08422">
        <ele>92</ele>
        <time>2022-01-15T08:34:47Z</time>
      </trkpt>
      <trkpt lat="48.54081" lon="2.08417">
        <ele>92</ele>
        <time>2022-01-15T08:34:45Z</time>
      </trkpt>
      <trkpt lat="48.54081" lon="2.08412">
        <ele>93</ele>
        <time>2022-01-15T08:34:43Z</time>
      </trkpt>
      <trkpt lat="48.54082" lon="2.08406">
        <ele>93</ele>
        <time>2022-01-15T08:34:41Z</time>
      </trkpt>
      <trkpt lat="48.54081" lon="2.084">
        <ele>93</ele>
        <time>2022-01-15T08:34:39Z</time>
      </trkpt>
      <trkpt lat="48.54081" lon="2.08395">
        <ele>93</ele>
        <time>2022-01-15T08:34:36Z</time>
      </trkpt>
      <trkpt lat="48.5408" lon="2.0839">
        <ele>94</ele>
        <time>2022-01-15T08:34:34Z</time>
      </trkpt>
      <trkpt lat="48.54079" lon="2.08385">
        <ele>94</ele>
        <time>2022-01-15T08:34:32Z</time>
      </trkpt>
      <trkpt lat="48.54079" lon="2.08381">
        <ele>94</ele>
        <time>2022-01-15T08:34:30Z</time>
      </trkpt>
      <trkpt lat="48.54078" lon="2.08376">
        <ele>94</ele>
        <time>2022-01-15T08:34:28Z</time>
      </trkpt>
      <trkpt lat="48.54078" lon="2.08371">
        <ele>94</ele>
        <time>2022-01-15T08:34:26Z</time>
      </trkpt>
      <trkpt lat="48.54077" lon="2.08366">
        <ele>95</ele>
        <time>2022-01-15T08:34:24Z</time>
      </trkpt>
      <trkpt lat="48.54076" lon="2.08362">
        <ele>95</ele>
        <time>2022-01-15T08:34:22Z</time>
      </trkpt>
      <trkpt lat="48.54076" lon="2.08357">
        <ele>95</ele>
        <time>2022-01-15T08:34:20Z</time>
      </trkpt>
      <trkpt lat="48.54076" lon="2.08352">
        <ele>95</ele>
        <time>2022-01-15T08:34:16Z</time>
      </trkpt>
      <trkpt lat="48.54075" lon="2.08347">
        <ele>95</ele>
        <time>2022-01-15T08:34:14Z</time>
      </trkpt>
      <trkpt lat="48.54074" lon="2.08342">
        <ele>94</ele>
        <time>2022-01-15T08:34:11Z</time>
      </trkpt>
      <trkpt lat="48.54074" lon="2.08337">
        <ele>94</ele>
        <time>2022-01-15T08:34:09Z</time>
      </trkpt>
      <trkpt lat="48.54073" lon="2.08331">
        <ele>94</ele>
        <time>2022-01-15T08:34:06Z</time>
      </trkpt>
      <trkpt lat="48.54072" lon="2.08325">
        <ele>93</ele>
        <time>2022-01-15T08:34:03Z</time>
      </trkpt>
      <trkpt lat="48.54071" lon="2.0832">
        <ele>93</ele>
        <time>2022-01-15T08:34:00Z</time>
      </trkpt>
      <trkpt lat="48.5407" lon="2.08315">
        <ele>92</ele>
        <time>2022-01-15T08:33:57Z</time>
      </trkpt>
      <trkpt lat="48.5407" lon="2.08311">
        <ele>92</ele>
        <time>2022-01-15T08:33:55Z</time>
      </trkpt>
      <trkpt lat="48.5407" lon="2.08306">
        <ele>92</ele>
        <time>2022-01-15T08:33:53Z</time>
      </trkpt>
      <trkpt lat="48.54069" lon="2.08302">
        <ele>92</ele>
        <time>2022-01-15T08:33:51Z</time>
      </trkpt>
      <trkpt lat="48.54068" lon="2.08297">
        <ele>91</ele>
        <time>2022-01-15T08:33:49Z</time>
      </trkpt>
      <trkpt lat="48.54068" lon="2.08293">
        <ele>91</ele>
        <time>2022-01-15T08:33:47Z</time>
      </trkpt>
      <trkpt lat="48.54068" lon="2.08288">
        <ele>91</ele>
        <time>2022-01-15T08:33:45Z</time>
      </trkpt>
      <trkpt lat="48.54067" lon="2.08283">
        <ele>91</ele>
        <time>2022-01-15T08:33:43Z</time>
      </trkpt>
      <trkpt lat="48.54067" lon="2.08278">
        <ele>91</ele>
        <time>2022-01-15T08:33:41Z</time>
      </trkpt>
      <trkpt lat="48.54066" lon="2.08272">
        <ele>91</ele>
        <time>2022-01-15T08:33:38Z</time>
      </trkpt>
      <trkpt lat="48.54065" lon="2.08267">
        <ele>91</ele>
        <time>2022-01-15T08:33:36Z</time>
      </trkpt>
      <trkpt lat="48.54064" lon="2.08261">
        <ele>91</ele>
        <time>2022-01-15T08:33:33Z</time>
      </trkpt>
      <trkpt lat="48.54063" lon="2.08256">
        <ele>91</ele>
        <time>2022-01-15T08:33:30Z</time>
      </trkpt>
      <trkpt lat="48.54063" lon="2.08251">
        <ele>91</ele>
        <time>2022-01-15T08:33:28Z</time>
      </trkpt>
      <trkpt lat="48.54063" lon="2.08246">
        <ele>91</ele>
        <time>2022-01-15T08:33:26Z</time>
      </trkpt>
      <trkpt lat="48.54063" lon="2.0824">
        <ele>91</ele>
        <time>2022-01-15T08:33:24Z</time>
      </trkpt>
      <trkpt lat="48.54062" lon="2.08235">
        <ele>91</ele>
        <time>2022-01-15T08:33:21Z</time>
      </trkpt>
      <trkpt lat="48.54062" lon="2.08231">
        <ele>91</ele>
        <time>2022-01-15T08:33:19Z</time>
      </trkpt>
      <trkpt lat="48.54061" lon="2.08226">
        <ele>91</ele>
        <time>2022-01-15T08:33:17Z</time>
      </trkpt>
      <trkpt lat="48.5406" lon="2.08221">
        <ele>91</ele>
        <time>2022-01-15T08:33:15Z</time>
      </trkpt>
      <trkpt lat="48.54058" lon="2.08216">
        <ele>91</ele>
        <time>2022-01-15T08:33:13Z</time>
      </trkpt>
      <trkpt lat="48.54057" lon="2.08211">
        <ele>91</ele>
        <time>2022-01-15T08:33:10Z</time>
      </trkpt>
      <trkpt lat="48.54056" lon="2.08206">
        <ele>91</ele>
        <time>2022-01-15T08:33:08Z</time>
      </trkpt>
      <trkpt lat="48.54055" lon="2.08201">
        <ele>90</ele>
        <time>2022-01-15T08:33:05Z</time>
      </trkpt>
      <trkpt lat="48.54054" lon="2.08196">
        <ele>90</ele>
        <time>2022-01-15T08:33:03Z</time>
      </trkpt>
      <trkpt lat="48.54053" lon="2.08191">
        <ele>90</ele>
        <time>2022-01-15T08:33:01Z</time>
      </trkpt>
      <trkpt lat="48.54052" lon="2.08186">
        <ele>90</ele>
        <time>2022-01-15T08:32:59Z</time>
      </trkpt>
      <trkpt lat="48.54052" lon="2.08181">
        <ele>90</ele>
        <time>2022-01-15T08:32:57Z</time>
      </trkpt>
      <trkpt lat="48.54051" lon="2.08176">
        <ele>90</ele>
        <time>2022-01-15T08:32:55Z</time>
      </trkpt>
      <trkpt lat="48.5405" lon="2.08171">
        <ele>90</ele>
        <time>2022-01-15T08:32:53Z</time>
      </trkpt>
      <trkpt lat="48.54049" lon="2.08167">
        <ele>90</ele>
        <time>2022-01-15T08:32:51Z</time>
      </trkpt>
      <trkpt lat="48.54048" lon="2.08163">
        <ele>90</ele>
        <time>2022-01-15T08:32:49Z</time>
      </trkpt>
      <trkpt lat="48.54048" lon="2.08159">
        <ele>90</ele>
        <time>2022-01-15T08:32:47Z</time>
      </trkpt>
      <trkpt lat="48.54047" lon="2.08155">
        <ele>90</ele>
        <time>2022-01-15T08:32:45Z</time>
      </trkpt>
      <trkpt lat="48.54047" lon="2.0815">
        <ele>90</ele>
        <time>2022-01-15T08:32:43Z</time>
      </trkpt>
      <trkpt lat="48.54046" lon="2.08145">
        <ele>90</ele>
        <time>2022-01-15T08:32:41Z</time>
      </trkpt>
      <trkpt lat="48.54046" lon="2.08139">
        <ele>90</ele>
        <time>2022-01-15T08:32:38Z</time>
      </trkpt>
      <trkpt lat="48.54046" lon="2.08134">
        <ele>90</ele>
        <time>2022-01-15T08:32:36Z</time>
      </trkpt>
      <trkpt lat="48.54045" lon="2.0813">
        <ele>90</ele>
        <time>2022-01-15T08:32:32Z</time>
      </trkpt>
      <trkpt lat="48.54044" lon="2.08125">
        <ele>91</ele>
        <time>2022-01-15T08:32:30Z</time>
      </trkpt>
      <trkpt lat="48.54044" lon="2.08119">
        <ele>91</ele>
        <time>2022-01-15T08:32:28Z</time>
      </trkpt>
      <trkpt lat="48.54043" lon="2.08114">
        <ele>91</ele>
        <time>2022-01-15T08:32:26Z</time>
      </trkpt>
      <trkpt lat="48.54042" lon="2.08109">
        <ele>91</ele>
        <time>2022-01-15T08:32:24Z</time>
      </trkpt>
      <trkpt lat="48.54041" lon="2.08103">
        <ele>91</ele>
        <time>2022-01-15T08:32:22Z</time>
      </trkpt>
      <trkpt lat="48.54039" lon="2.08097">
        <ele>91</ele>
        <time>2022-01-15T08:32:19Z</time>
      </trkpt>
      <trkpt lat="48.54038" lon="2.08092">
        <ele>91</ele>
        <time>2022-01-15T08:32:16Z</time>
      </trkpt>
      <trkpt lat="48.54038" lon="2.08087">
        <ele>91</ele>
        <time>2022-01-15T08:32:14Z</time>
      </trkpt>
      <trkpt lat="48.54037" lon="2.08082">
        <ele>90</ele>
        <time>2022-01-15T08:32:11Z</time>
      </trkpt>
      <trkpt lat="48.54036" lon="2.08077">
        <ele>90</ele>
        <time>2022-01-15T08:32:08Z</time>
      </trkpt>
      <trkpt lat="48.54035" lon="2.08072">
        <ele>90</ele>
        <time>2022-01-15T08:32:06Z</time>
      </trkpt>
      <trkpt lat="48.54035" lon="2.08066">
        <ele>89</ele>
        <time>2022-01-15T08:32:03Z</time>
      </trkpt>
      <trkpt lat="48.54034" lon="2.08061">
        <ele>89</ele>
        <time>2022-01-15T08:32:00Z</time>
      </trkpt>
      <trkpt lat="48.54032" lon="2.08055">
        <ele>89</ele>
        <time>2022-01-15T08:31:57Z</time>
      </trkpt>
      <trkpt lat="48.54031" lon="2.0805">
        <ele>89</ele>
        <time>2022-01-15T08:31:54Z</time>
      </trkpt>
      <trkpt lat="48.54031" lon="2.08045">
        <ele>89</ele>
        <time>2022-01-15T08:31:52Z</time>
      </trkpt>
      <trkpt lat="48.54031" lon="2.08041">
        <ele>89</ele>
        <time>2022-01-15T08:31:50Z</time>
      </trkpt>
      <trkpt lat="48.54032" lon="2.08036">
        <ele>89</ele>
        <time>2022-01-15T08:31:47Z</time>
      </trkpt>
      <trkpt lat="48.54031" lon="2.08031">
        <ele>90</ele>
        <time>2022-01-15T08:31:45Z</time>
      </trkpt>
      <trkpt lat="48.5403" lon="2.08027">
        <ele>90</ele>
        <time>2022-01-15T08:31:43Z</time>
      </trkpt>
      <trkpt lat="48.5403" lon="2.08023">
        <ele>90</ele>
        <time>2022-01-15T08:31:41Z</time>
      </trkpt>
      <trkpt lat="48.54029" lon="2.08018">
        <ele>90</ele>
        <time>2022-01-15T08:31:39Z</time>
      </trkpt>
      <trkpt lat="48.54028" lon="2.08014">
        <ele>90</ele>
        <time>2022-01-15T08:31:37Z</time>
      </trkpt>
      <trkpt lat="48.54027" lon="2.0801">
        <ele>90</ele>
        <time>2022-01-15T08:31:35Z</time>
      </trkpt>
      <trkpt lat="48.54026" lon="2.08006">
        <ele>90</ele>
        <time>2022-01-15T08:31:33Z</time>
      </trkpt>
      <trkpt lat="48.54024" lon="2.08001">
        <ele>90</ele>
        <time>2022-01-15T08:31:30Z</time>
      </trkpt>
      <trkpt lat="48.54024" lon="2.07996">
        <ele>90</ele>
        <time>2022-01-15T08:31:28Z</time>
      </trkpt>
      <trkpt lat="48.54022" lon="2.07991">
        <ele>90</ele>
        <time>2022-01-15T08:31:25Z</time>
      </trkpt>
      <trkpt lat="48.54021" lon="2.07986">
        <ele>90</ele>
        <time>2022-01-15T08:31:23Z</time>
      </trkpt>
      <trkpt lat="48.54021" lon="2.07981">
        <ele>90</ele>
        <time>2022-01-15T08:31:21Z</time>
      </trkpt>
      <trkpt lat="48.5402" lon="2.07976">
        <ele>90</ele>
        <time>2022-01-15T08:31:19Z</time>
      </trkpt>
      <trkpt lat="48.54019" lon="2.07971">
        <ele>90</ele>
        <time>2022-01-15T08:31:17Z</time>
      </trkpt>
      <trkpt lat="48.54018" lon="2.07967">
        <ele>90</ele>
        <time>2022-01-15T08:31:15Z</time>
      </trkpt>
      <trkpt lat="48.54016" lon="2.07963">
        <ele>91</ele>
        <time>2022-01-15T08:31:13Z</time>
      </trkpt>
      <trkpt lat="48.54015" lon="2.07959">
        <ele>91</ele>
        <time>2022-01-15T08:31:11Z</time>
      </trkpt>
      <trkpt lat="48.54014" lon="2.07955">
        <ele>91</ele>
        <time>2022-01-15T08:31:09Z</time>
      </trkpt>
      <trkpt lat="48.54013" lon="2.0795">
        <ele>91</ele>
        <time>2022-01-15T08:31:07Z</time>
      </trkpt>
      <trkpt lat="48.54013" lon="2.07945">
        <ele>91</ele>
        <time>2022-01-15T08:31:05Z</time>
      </trkpt>
      <trkpt lat="48.54012" lon="2.0794">
        <ele>91</ele>
        <time>2022-01-15T08:30:59Z</time>
      </trkpt>
      <trkpt lat="48.54011" lon="2.07935">
        <ele>91</ele>
        <time>2022-01-15T08:30:57Z</time>
      </trkpt>
      <trkpt lat="48.5401" lon="2.07929">
        <ele>91</ele>
        <time>2022-01-15T08:30:55Z</time>
      </trkpt>
      <trkpt lat="48.54008" lon="2.07926">
        <ele>91</ele>
        <time>2022-01-15T08:30:54Z</time>
      </trkpt>
      <trkpt lat="48.54007" lon="2.07921">
        <ele>92</ele>
        <time>2022-01-15T08:30:51Z</time>
      </trkpt>
      <trkpt lat="48.54006" lon="2.07917">
        <ele>92</ele>
        <time>2022-01-15T08:30:47Z</time>
      </trkpt>
      <trkpt lat="48.54005" lon="2.07913">
        <ele>92</ele>
        <time>2022-01-15T08:30:44Z</time>
      </trkpt>
      <trkpt lat="48.54004" lon="2.07909">
        <ele>92</ele>
        <time>2022-01-15T08:30:41Z</time>
      </trkpt>
      <trkpt lat="48.54002" lon="2.07907">
        <ele>92</ele>
        <time>2022-01-15T08:30:32Z</time>
      </trkpt>
      <trkpt lat="48.53872" lon="2.07981">
        <ele>80</ele>
      </trkpt>
    </trkseg>
  </trk>
</gpx>